<?xml version='1.0' encoding='UTF-8'?><gpx version="1.1" creator="JPX - https://github.com/jenetics/jpx" xmlns="http://www.topografix.com/GPX/1/1"><trk><trkseg><trkpt lat="45.8523883" lon="8.6356417"><ele>210.0</ele><time>2026-04-04T06:29:19.875Z</time></trkpt><trkpt lat="45.8524267" lon="8.6357367"><ele>210.0</ele><time>2026-04-04T06:31:10.376Z</time></trkpt><trkpt lat="45.852435" lon="8.6358283"><ele>210.0</ele><time>2026-04-04T06:31:13.375Z</time></trkpt><trkpt lat="45.8524583" lon="8.6359283"><ele>210.0</ele><time>2026-04-04T06:31:15.375Z</time></trkpt><trkpt lat="45.8524317" lon="8.63605"><ele>210.0</ele><time>2026-04-04T06:31:17.375Z</time></trkpt><trkpt lat="45.852395" lon="8.636125"><ele>210.0</ele><time>2026-04-04T06:31:18.376Z</time></trkpt><trkpt lat="45.8523017" lon="8.6362867"><ele>210.6</ele><time>2026-04-04T06:31:20.375Z</time></trkpt><trkpt lat="45.85225" lon="8.63637"><ele>211.2</ele><time>2026-04-04T06:31:21.376Z</time></trkpt><trkpt lat="45.8522117" lon="8.6364567"><ele>211.8</ele><time>2026-04-04T06:31:22.375Z</time></trkpt><trkpt lat="45.8521833" lon="8.6365433"><ele>212.4</ele><time>2026-04-04T06:31:23.376Z</time></trkpt><trkpt lat="45.8521517" lon="8.6367133"><ele>213.0</ele><time>2026-04-04T06:31:25.375Z</time></trkpt><trkpt lat="45.8521717" lon="8.6368767"><ele>214.0</ele><time>2026-04-04T06:31:27.376Z</time></trkpt><trkpt lat="45.852245" lon="8.6370133"><ele>215.0</ele><time>2026-04-04T06:31:29.375Z</time></trkpt><trkpt lat="45.8522983" lon="8.6370667"><ele>216.0</ele><time>2026-04-04T06:31:30.375Z</time></trkpt><trkpt lat="45.8523983" lon="8.6371367"><ele>217.0</ele><time>2026-04-04T06:31:32.375Z</time></trkpt><trkpt lat="45.8524883" lon="8.6372117"><ele>218.0</ele><time>2026-04-04T06:31:34.375Z</time></trkpt><trkpt lat="45.8525417" lon="8.6373333"><ele>218.0</ele><time>2026-04-04T06:31:36.376Z</time></trkpt><trkpt lat="45.8525233" lon="8.6374783"><ele>218.0</ele><time>2026-04-04T06:31:38.375Z</time></trkpt><trkpt lat="45.8524867" lon="8.6375617"><ele>218.0</ele><time>2026-04-04T06:31:39.376Z</time></trkpt><trkpt lat="45.8524483" lon="8.6376383"><ele>218.0</ele><time>2026-04-04T06:31:40.375Z</time></trkpt><trkpt lat="45.85241" lon="8.6377267"><ele>218.0</ele><time>2026-04-04T06:31:41.376Z</time></trkpt><trkpt lat="45.8523933" lon="8.6378233"><ele>218.0</ele><time>2026-04-04T06:31:42.375Z</time></trkpt><trkpt lat="45.8523983" lon="8.6379217"><ele>218.0</ele><time>2026-04-04T06:31:43.375Z</time></trkpt><trkpt lat="45.8524183" lon="8.63802"><ele>217.66666666666669</ele><time>2026-04-04T06:31:44.376Z</time></trkpt><trkpt lat="45.8524417" lon="8.6381133"><ele>217.33333333333334</ele><time>2026-04-04T06:31:45.376Z</time></trkpt><trkpt lat="45.8524633" lon="8.638215"><ele>217.0</ele><time>2026-04-04T06:31:46.375Z</time></trkpt><trkpt lat="45.8524667" lon="8.63832"><ele>216.66666666666669</ele><time>2026-04-04T06:31:47.375Z</time></trkpt><trkpt lat="45.8524567" lon="8.6384433"><ele>216.33333333333334</ele><time>2026-04-04T06:31:48.376Z</time></trkpt><trkpt lat="45.8524367" lon="8.63858"><ele>216.0</ele><time>2026-04-04T06:31:49.375Z</time></trkpt><trkpt lat="45.8524033" lon="8.638725"><ele>215.5</ele><time>2026-04-04T06:31:50.375Z</time></trkpt><trkpt lat="45.8523667" lon="8.6388733"><ele>215.0</ele><time>2026-04-04T06:31:51.376Z</time></trkpt><trkpt lat="45.8523283" lon="8.6390433"><ele>214.5</ele><time>2026-04-04T06:31:52.376Z</time></trkpt><trkpt lat="45.8522933" lon="8.6392117"><ele>214.0</ele><time>2026-04-04T06:31:53.376Z</time></trkpt><trkpt lat="45.8522567" lon="8.639375"><ele>213.79999999999998</ele><time>2026-04-04T06:31:54.375Z</time></trkpt><trkpt lat="45.8522267" lon="8.6395133"><ele>213.59999999999997</ele><time>2026-04-04T06:31:55.376Z</time></trkpt><trkpt lat="45.8522117" lon="8.639645"><ele>213.4</ele><time>2026-04-04T06:31:56.375Z</time></trkpt><trkpt lat="45.8522167" lon="8.6397633"><ele>213.2</ele><time>2026-04-04T06:31:57.375Z</time></trkpt><trkpt lat="45.8522317" lon="8.6398933"><ele>213.0</ele><time>2026-04-04T06:31:58.376Z</time></trkpt><trkpt lat="45.8522533" lon="8.640025"><ele>213.0</ele><time>2026-04-04T06:31:59.376Z</time></trkpt><trkpt lat="45.8522867" lon="8.6401367"><ele>213.0</ele><time>2026-04-04T06:32:00.376Z</time></trkpt><trkpt lat="45.8523233" lon="8.6402383"><ele>213.0</ele><time>2026-04-04T06:32:01.375Z</time></trkpt><trkpt lat="45.8523617" lon="8.6403367"><ele>213.0</ele><time>2026-04-04T06:32:02.376Z</time></trkpt><trkpt lat="45.8524067" lon="8.6404383"><ele>213.0</ele><time>2026-04-04T06:32:03.376Z</time></trkpt><trkpt lat="45.8524533" lon="8.64054"><ele>213.0</ele><time>2026-04-04T06:32:04.376Z</time></trkpt><trkpt lat="45.8525017" lon="8.6406383"><ele>212.83333333333334</ele><time>2026-04-04T06:32:05.375Z</time></trkpt><trkpt lat="45.8525483" lon="8.6407417"><ele>212.66666666666669</ele><time>2026-04-04T06:32:06.375Z</time></trkpt><trkpt lat="45.85261" lon="8.6408417"><ele>212.5</ele><time>2026-04-04T06:32:07.376Z</time></trkpt><trkpt lat="45.8526783" lon="8.64093"><ele>212.33333333333334</ele><time>2026-04-04T06:32:08.375Z</time></trkpt><trkpt lat="45.8527383" lon="8.6410117"><ele>212.16666666666669</ele><time>2026-04-04T06:32:09.375Z</time></trkpt><trkpt lat="45.8528033" lon="8.64108"><ele>212.0</ele><time>2026-04-04T06:32:10.375Z</time></trkpt><trkpt lat="45.85292" lon="8.6411417"><ele>213.16666666666669</ele><time>2026-04-04T06:32:12.375Z</time></trkpt><trkpt lat="45.853015" lon="8.6411467"><ele>214.33333333333334</ele><time>2026-04-04T06:32:14.375Z</time></trkpt><trkpt lat="45.8530983" lon="8.6410867"><ele>215.5</ele><time>2026-04-04T06:32:16.375Z</time></trkpt><trkpt lat="45.8531783" lon="8.6410817"><ele>216.66666666666669</ele><time>2026-04-04T06:32:18.375Z</time></trkpt><trkpt lat="45.853245" lon="8.6411767"><ele>217.83333333333334</ele><time>2026-04-04T06:32:20.375Z</time></trkpt><trkpt lat="45.8533017" lon="8.64127"><ele>219.0</ele><time>2026-04-04T06:32:22.375Z</time></trkpt><trkpt lat="45.85335" lon="8.6413367"><ele>219.14285714285714</ele><time>2026-04-04T06:32:24.376Z</time></trkpt><trkpt lat="45.8534033" lon="8.6413967"><ele>219.28571428571428</ele><time>2026-04-04T06:32:27.376Z</time></trkpt><trkpt lat="45.8534533" lon="8.6414717"><ele>219.42857142857142</ele><time>2026-04-04T06:32:30.376Z</time></trkpt><trkpt lat="45.8534983" lon="8.641535"><ele>219.57142857142856</ele><time>2026-04-04T06:32:32.375Z</time></trkpt><trkpt lat="45.853545" lon="8.64161"><ele>219.71428571428572</ele><time>2026-04-04T06:32:34.375Z</time></trkpt><trkpt lat="45.8535767" lon="8.6416933"><ele>219.85714285714283</ele><time>2026-04-04T06:32:36.375Z</time></trkpt><trkpt lat="45.8536233" lon="8.641805"><ele>220.0</ele><time>2026-04-04T06:32:39.375Z</time></trkpt><trkpt lat="45.85367" lon="8.6418917"><ele>220.0</ele><time>2026-04-04T06:32:42.376Z</time></trkpt><trkpt lat="45.8537367" lon="8.64197"><ele>220.0</ele><time>2026-04-04T06:32:45.376Z</time></trkpt><trkpt lat="45.8538467" lon="8.6420167"><ele>220.0</ele><time>2026-04-04T06:32:47.375Z</time></trkpt><trkpt lat="45.8539233" lon="8.64204"><ele>220.0</ele><time>2026-04-04T06:32:48.376Z</time></trkpt><trkpt lat="45.8540167" lon="8.6420567"><ele>220.0</ele><time>2026-04-04T06:32:49.376Z</time></trkpt><trkpt lat="45.8541167" lon="8.6420767"><ele>220.0</ele><time>2026-04-04T06:32:50.376Z</time></trkpt><trkpt lat="45.85422" lon="8.6421"><ele>220.0</ele><time>2026-04-04T06:32:51.375Z</time></trkpt><trkpt lat="45.8543183" lon="8.6421367"><ele>220.0</ele><time>2026-04-04T06:32:52.376Z</time></trkpt><trkpt lat="45.854415" lon="8.6421817"><ele>220.0</ele><time>2026-04-04T06:32:53.375Z</time></trkpt><trkpt lat="45.8545" lon="8.6422383"><ele>220.0</ele><time>2026-04-04T06:32:54.376Z</time></trkpt><trkpt lat="45.8545817" lon="8.6422983"><ele>220.33333333333331</ele><time>2026-04-04T06:32:55.375Z</time></trkpt><trkpt lat="45.8546533" lon="8.6423517"><ele>220.66666666666666</ele><time>2026-04-04T06:32:56.375Z</time></trkpt><trkpt lat="45.8547283" lon="8.6423917"><ele>221.0</ele><time>2026-04-04T06:32:57.375Z</time></trkpt><trkpt lat="45.8548083" lon="8.6424233"><ele>221.33333333333331</ele><time>2026-04-04T06:32:58.375Z</time></trkpt><trkpt lat="45.8548883" lon="8.6424517"><ele>221.66666666666666</ele><time>2026-04-04T06:32:59.375Z</time></trkpt><trkpt lat="45.8549567" lon="8.6424717"><ele>222.0</ele><time>2026-04-04T06:33:00.376Z</time></trkpt><trkpt lat="45.8550617" lon="8.6424617"><ele>220.6</ele><time>2026-04-04T06:33:02.376Z</time></trkpt><trkpt lat="45.85518" lon="8.6423667"><ele>219.2</ele><time>2026-04-04T06:33:04.375Z</time></trkpt><trkpt lat="45.8552433" lon="8.64231"><ele>217.8</ele><time>2026-04-04T06:33:05.375Z</time></trkpt><trkpt lat="45.8553" lon="8.6422517"><ele>216.4</ele><time>2026-04-04T06:33:06.375Z</time></trkpt><trkpt lat="45.8553583" lon="8.642165"><ele>215.0</ele><time>2026-04-04T06:33:07.376Z</time></trkpt><trkpt lat="45.85541" lon="8.6420517"><ele>217.2</ele><time>2026-04-04T06:33:08.376Z</time></trkpt><trkpt lat="45.85545" lon="8.6419183"><ele>219.4</ele><time>2026-04-04T06:33:09.375Z</time></trkpt><trkpt lat="45.8554967" lon="8.6418017"><ele>221.60000000000002</ele><time>2026-04-04T06:33:10.376Z</time></trkpt><trkpt lat="45.855545" lon="8.6417017"><ele>223.8</ele><time>2026-04-04T06:33:11.375Z</time></trkpt><trkpt lat="45.8556117" lon="8.6416133"><ele>226.0</ele><time>2026-04-04T06:33:12.375Z</time></trkpt><trkpt lat="45.8556983" lon="8.6415483"><ele>226.0</ele><time>2026-04-04T06:33:13.375Z</time></trkpt><trkpt lat="45.85579" lon="8.6415033"><ele>226.00000000000003</ele><time>2026-04-04T06:33:14.375Z</time></trkpt><trkpt lat="45.85589" lon="8.64145"><ele>226.00000000000003</ele><time>2026-04-04T06:33:15.375Z</time></trkpt><trkpt lat="45.8559917" lon="8.6413983"><ele>226.0</ele><time>2026-04-04T06:33:16.375Z</time></trkpt><trkpt lat="45.8560867" lon="8.6413583"><ele>226.0</ele><time>2026-04-04T06:33:17.375Z</time></trkpt><trkpt lat="45.8561683" lon="8.64133"><ele>226.33333333333331</ele><time>2026-04-04T06:33:18.376Z</time></trkpt><trkpt lat="45.8562367" lon="8.6413"><ele>226.66666666666666</ele><time>2026-04-04T06:33:19.375Z</time></trkpt><trkpt lat="45.8563067" lon="8.64125"><ele>227.0</ele><time>2026-04-04T06:33:20.375Z</time></trkpt><trkpt lat="45.8563683" lon="8.6411933"><ele>227.33333333333331</ele><time>2026-04-04T06:33:21.375Z</time></trkpt><trkpt lat="45.8564283" lon="8.6411383"><ele>227.66666666666666</ele><time>2026-04-04T06:33:22.375Z</time></trkpt><trkpt lat="45.8564933" lon="8.64107"><ele>228.0</ele><time>2026-04-04T06:33:24.375Z</time></trkpt><trkpt lat="45.8565667" lon="8.641175"><ele>226.0</ele><time>2026-04-04T06:33:27.376Z</time></trkpt><trkpt lat="45.8566017" lon="8.6412767"><ele>224.0</ele><time>2026-04-04T06:33:28.376Z</time></trkpt><trkpt lat="45.8566517" lon="8.64142"><ele>222.0</ele><time>2026-04-04T06:33:29.375Z</time></trkpt><trkpt lat="45.8567" lon="8.641575"><ele>220.0</ele><time>2026-04-04T06:33:30.376Z</time></trkpt><trkpt lat="45.85675" lon="8.6417183"><ele>218.0</ele><time>2026-04-04T06:33:31.375Z</time></trkpt><trkpt lat="45.85679" lon="8.6418433"><ele>216.50000000000003</ele><time>2026-04-04T06:33:32.375Z</time></trkpt><trkpt lat="45.8568217" lon="8.6419667"><ele>215.0</ele><time>2026-04-04T06:33:33.376Z</time></trkpt><trkpt lat="45.85685" lon="8.6420683"><ele>213.5</ele><time>2026-04-04T06:33:34.375Z</time></trkpt><trkpt lat="45.8568817" lon="8.642165"><ele>212.0</ele><time>2026-04-04T06:33:35.375Z</time></trkpt><trkpt lat="45.85691" lon="8.6422533"><ele>210.50000000000003</ele><time>2026-04-04T06:33:36.375Z</time></trkpt><trkpt lat="45.8569367" lon="8.64234"><ele>209.0</ele><time>2026-04-04T06:33:37.376Z</time></trkpt><trkpt lat="45.8569783" lon="8.642495"><ele>209.0</ele><time>2026-04-04T06:33:39.375Z</time></trkpt><trkpt lat="45.85704" lon="8.6425883"><ele>209.0</ele><time>2026-04-04T06:33:41.375Z</time></trkpt><trkpt lat="45.85711" lon="8.6425833"><ele>209.0</ele><time>2026-04-04T06:33:43.375Z</time></trkpt><trkpt lat="45.8572033" lon="8.6425717"><ele>209.0</ele><time>2026-04-04T06:33:45.375Z</time></trkpt><trkpt lat="45.8573267" lon="8.6425567"><ele>209.0</ele><time>2026-04-04T06:33:47.376Z</time></trkpt><trkpt lat="45.85741" lon="8.6425483"><ele>209.00000000000003</ele><time>2026-04-04T06:33:48.376Z</time></trkpt><trkpt lat="45.8575033" lon="8.6425417"><ele>209.0</ele><time>2026-04-04T06:33:49.376Z</time></trkpt><trkpt lat="45.8575883" lon="8.6425283"><ele>209.0</ele><time>2026-04-04T06:33:50.376Z</time></trkpt><trkpt lat="45.8576667" lon="8.6425267"><ele>209.0</ele><time>2026-04-04T06:33:51.375Z</time></trkpt><trkpt lat="45.8577383" lon="8.6425367"><ele>209.00000000000003</ele><time>2026-04-04T06:33:52.375Z</time></trkpt><trkpt lat="45.857815" lon="8.6425683"><ele>209.0</ele><time>2026-04-04T06:33:53.376Z</time></trkpt><trkpt lat="45.8578933" lon="8.6426233"><ele>209.83333333333334</ele><time>2026-04-04T06:33:54.375Z</time></trkpt><trkpt lat="45.8579717" lon="8.642685"><ele>210.66666666666669</ele><time>2026-04-04T06:33:55.376Z</time></trkpt><trkpt lat="45.8580467" lon="8.642755"><ele>211.5</ele><time>2026-04-04T06:33:56.375Z</time></trkpt><trkpt lat="45.85812" lon="8.6428233"><ele>212.33333333333331</ele><time>2026-04-04T06:33:57.375Z</time></trkpt><trkpt lat="45.858195" lon="8.64289"><ele>213.16666666666666</ele><time>2026-04-04T06:33:58.376Z</time></trkpt><trkpt lat="45.85826" lon="8.6429733"><ele>214.0</ele><time>2026-04-04T06:33:59.375Z</time></trkpt><trkpt lat="45.8583133" lon="8.6430533"><ele>215.2</ele><time>2026-04-04T06:34:00.376Z</time></trkpt><trkpt lat="45.8583933" lon="8.6431267"><ele>216.39999999999998</ele><time>2026-04-04T06:34:02.375Z</time></trkpt><trkpt lat="45.8584383" lon="8.6430567"><ele>217.6</ele><time>2026-04-04T06:34:03.375Z</time></trkpt><trkpt lat="45.8585017" lon="8.6429617"><ele>218.8</ele><time>2026-04-04T06:34:04.376Z</time></trkpt><trkpt lat="45.8585717" lon="8.6428533"><ele>220.0</ele><time>2026-04-04T06:34:05.375Z</time></trkpt><trkpt lat="45.85864" lon="8.6427283"><ele>220.83333333333331</ele><time>2026-04-04T06:34:06.375Z</time></trkpt><trkpt lat="45.858695" lon="8.6426133"><ele>221.66666666666666</ele><time>2026-04-04T06:34:07.375Z</time></trkpt><trkpt lat="45.8587233" lon="8.6424917"><ele>222.5</ele><time>2026-04-04T06:34:08.376Z</time></trkpt><trkpt lat="45.858735" lon="8.6423767"><ele>223.33333333333331</ele><time>2026-04-04T06:34:09.375Z</time></trkpt><trkpt lat="45.858745" lon="8.642275"><ele>224.16666666666666</ele><time>2026-04-04T06:34:10.376Z</time></trkpt><trkpt lat="45.8587633" lon="8.6421733"><ele>225.0</ele><time>2026-04-04T06:34:11.375Z</time></trkpt><trkpt lat="45.8587933" lon="8.6420817"><ele>225.0</ele><time>2026-04-04T06:34:12.375Z</time></trkpt><trkpt lat="45.8588233" lon="8.6419967"><ele>225.0</ele><time>2026-04-04T06:34:13.376Z</time></trkpt><trkpt lat="45.8588617" lon="8.6418733"><ele>225.0</ele><time>2026-04-04T06:34:15.376Z</time></trkpt><trkpt lat="45.8588283" lon="8.6417567"><ele>225.0</ele><time>2026-04-04T06:34:17.376Z</time></trkpt><trkpt lat="45.858785" lon="8.6416233"><ele>225.0</ele><time>2026-04-04T06:34:19.375Z</time></trkpt><trkpt lat="45.8587317" lon="8.6415067"><ele>225.0</ele><time>2026-04-04T06:34:21.376Z</time></trkpt><trkpt lat="45.8586933" lon="8.64141"><ele>224.5</ele><time>2026-04-04T06:34:23.376Z</time></trkpt><trkpt lat="45.85868" lon="8.6412967"><ele>224.0</ele><time>2026-04-04T06:34:25.375Z</time></trkpt><trkpt lat="45.85867" lon="8.6411867"><ele>223.5</ele><time>2026-04-04T06:34:27.376Z</time></trkpt><trkpt lat="45.85866" lon="8.64103"><ele>223.0</ele><time>2026-04-04T06:34:29.375Z</time></trkpt><trkpt lat="45.8586667" lon="8.640915"><ele>222.5</ele><time>2026-04-04T06:34:30.376Z</time></trkpt><trkpt lat="45.858675" lon="8.6407967"><ele>222.0</ele><time>2026-04-04T06:34:31.376Z</time></trkpt><trkpt lat="45.8586783" lon="8.6406867"><ele>221.33333333333334</ele><time>2026-04-04T06:34:32.376Z</time></trkpt><trkpt lat="45.8586967" lon="8.6405883"><ele>220.66666666666669</ele><time>2026-04-04T06:34:33.375Z</time></trkpt><trkpt lat="45.8587283" lon="8.640495"><ele>220.0</ele><time>2026-04-04T06:34:34.376Z</time></trkpt><trkpt lat="45.85877" lon="8.640405"><ele>219.33333333333334</ele><time>2026-04-04T06:34:35.375Z</time></trkpt><trkpt lat="45.8588083" lon="8.6402983"><ele>218.66666666666669</ele><time>2026-04-04T06:34:36.375Z</time></trkpt><trkpt lat="45.8588433" lon="8.6402117"><ele>218.0</ele><time>2026-04-04T06:34:37.376Z</time></trkpt><trkpt lat="45.8589017" lon="8.6401"><ele>217.83333333333334</ele><time>2026-04-04T06:34:39.375Z</time></trkpt><trkpt lat="45.8589433" lon="8.6400283"><ele>217.66666666666669</ele><time>2026-04-04T06:34:41.375Z</time></trkpt><trkpt lat="45.85901" lon="8.63995"><ele>217.5</ele><time>2026-04-04T06:34:43.375Z</time></trkpt><trkpt lat="45.8590667" lon="8.6399067"><ele>217.33333333333331</ele><time>2026-04-04T06:34:44.375Z</time></trkpt><trkpt lat="45.859135" lon="8.639865"><ele>217.16666666666666</ele><time>2026-04-04T06:34:45.375Z</time></trkpt><trkpt lat="45.8592117" lon="8.6397917"><ele>217.0</ele><time>2026-04-04T06:34:46.376Z</time></trkpt><trkpt lat="45.8592933" lon="8.63969"><ele>217.5</ele><time>2026-04-04T06:34:47.376Z</time></trkpt><trkpt lat="45.85938" lon="8.6395867"><ele>218.0</ele><time>2026-04-04T06:34:48.375Z</time></trkpt><trkpt lat="45.8594767" lon="8.63947"><ele>218.5</ele><time>2026-04-04T06:34:49.376Z</time></trkpt><trkpt lat="45.8595567" lon="8.63936"><ele>219.0</ele><time>2026-04-04T06:34:50.375Z</time></trkpt><trkpt lat="45.8596367" lon="8.6392717"><ele>219.0</ele><time>2026-04-04T06:34:51.375Z</time></trkpt><trkpt lat="45.8597283" lon="8.6391817"><ele>219.0</ele><time>2026-04-04T06:34:52.376Z</time></trkpt><trkpt lat="45.8598133" lon="8.63908"><ele>219.0</ele><time>2026-04-04T06:34:53.375Z</time></trkpt><trkpt lat="45.8598967" lon="8.6389717"><ele>219.0</ele><time>2026-04-04T06:34:54.376Z</time></trkpt><trkpt lat="45.8599867" lon="8.6388633"><ele>219.0</ele><time>2026-04-04T06:34:55.376Z</time></trkpt><trkpt lat="45.8600883" lon="8.6387567"><ele>219.0</ele><time>2026-04-04T06:34:56.375Z</time></trkpt><trkpt lat="45.8602" lon="8.6386583"><ele>219.0</ele><time>2026-04-04T06:34:57.376Z</time></trkpt><trkpt lat="45.8603167" lon="8.6385817"><ele>219.0</ele><time>2026-04-04T06:34:58.376Z</time></trkpt><trkpt lat="45.8604333" lon="8.638515"><ele>219.0</ele><time>2026-04-04T06:34:59.375Z</time></trkpt><trkpt lat="45.8605317" lon="8.6384617"><ele>218.99999999999997</ele><time>2026-04-04T06:35:00.375Z</time></trkpt><trkpt lat="45.860615" lon="8.6384033"><ele>218.99999999999997</ele><time>2026-04-04T06:35:01.375Z</time></trkpt><trkpt lat="45.8606833" lon="8.6383317"><ele>219.0</ele><time>2026-04-04T06:35:02.376Z</time></trkpt><trkpt lat="45.8607417" lon="8.63823"><ele>219.0</ele><time>2026-04-04T06:35:03.375Z</time></trkpt><trkpt lat="45.8607933" lon="8.6381217"><ele>219.0</ele><time>2026-04-04T06:35:04.375Z</time></trkpt><trkpt lat="45.8608383" lon="8.6380317"><ele>219.0</ele><time>2026-04-04T06:35:05.375Z</time></trkpt><trkpt lat="45.860895" lon="8.6379533"><ele>219.0</ele><time>2026-04-04T06:35:06.375Z</time></trkpt><trkpt lat="45.8609533" lon="8.637875"><ele>219.0</ele><time>2026-04-04T06:35:07.376Z</time></trkpt><trkpt lat="45.861005" lon="8.6377883"><ele>219.0</ele><time>2026-04-04T06:35:08.375Z</time></trkpt><trkpt lat="45.8610617" lon="8.637715"><ele>219.0</ele><time>2026-04-04T06:35:09.376Z</time></trkpt><trkpt lat="45.8611267" lon="8.6376633"><ele>218.5</ele><time>2026-04-04T06:35:10.375Z</time></trkpt><trkpt lat="45.8611983" lon="8.6376283"><ele>218.0</ele><time>2026-04-04T06:35:11.376Z</time></trkpt><trkpt lat="45.8612633" lon="8.6375967"><ele>217.5</ele><time>2026-04-04T06:35:12.376Z</time></trkpt><trkpt lat="45.8613267" lon="8.637585"><ele>217.0</ele><time>2026-04-04T06:35:13.376Z</time></trkpt><trkpt lat="45.8614533" lon="8.637555"><ele>216.5</ele><time>2026-04-04T06:35:15.376Z</time></trkpt><trkpt lat="45.8615233" lon="8.6375417"><ele>216.0</ele><time>2026-04-04T06:35:16.375Z</time></trkpt><trkpt lat="45.8615867" lon="8.63752"><ele>216.0</ele><time>2026-04-04T06:35:17.375Z</time></trkpt><trkpt lat="45.8617067" lon="8.63747"><ele>216.00000000000003</ele><time>2026-04-04T06:35:19.375Z</time></trkpt><trkpt lat="45.8618117" lon="8.6374233"><ele>216.00000000000003</ele><time>2026-04-04T06:35:21.375Z</time></trkpt><trkpt lat="45.8619067" lon="8.6374383"><ele>216.0</ele><time>2026-04-04T06:35:23.376Z</time></trkpt><trkpt lat="45.861995" lon="8.6375283"><ele>216.0</ele><time>2026-04-04T06:35:25.375Z</time></trkpt><trkpt lat="45.8620467" lon="8.637615"><ele>216.20000000000002</ele><time>2026-04-04T06:35:26.375Z</time></trkpt><trkpt lat="45.8620983" lon="8.6377267"><ele>216.40000000000003</ele><time>2026-04-04T06:35:27.376Z</time></trkpt><trkpt lat="45.862145" lon="8.6378383"><ele>216.6</ele><time>2026-04-04T06:35:28.376Z</time></trkpt><trkpt lat="45.8621867" lon="8.6379433"><ele>216.8</ele><time>2026-04-04T06:35:29.375Z</time></trkpt><trkpt lat="45.8622283" lon="8.6380183"><ele>217.0</ele><time>2026-04-04T06:35:30.375Z</time></trkpt><trkpt lat="45.8623533" lon="8.6380967"><ele>217.39999999999998</ele><time>2026-04-04T06:35:32.375Z</time></trkpt><trkpt lat="45.8624317" lon="8.6381033"><ele>217.79999999999998</ele><time>2026-04-04T06:35:33.375Z</time></trkpt><trkpt lat="45.862525" lon="8.6380883"><ele>218.2</ele><time>2026-04-04T06:35:34.375Z</time></trkpt><trkpt lat="45.8626283" lon="8.6380733"><ele>218.6</ele><time>2026-04-04T06:35:35.375Z</time></trkpt><trkpt lat="45.8627267" lon="8.638075"><ele>219.0</ele><time>2026-04-04T06:35:36.376Z</time></trkpt><trkpt lat="45.862815" lon="8.6380833"><ele>219.0</ele><time>2026-04-04T06:35:37.375Z</time></trkpt><trkpt lat="45.8628867" lon="8.63812"><ele>218.99999999999997</ele><time>2026-04-04T06:35:38.376Z</time></trkpt><trkpt lat="45.8629667" lon="8.638165"><ele>218.99999999999997</ele><time>2026-04-04T06:35:39.375Z</time></trkpt><trkpt lat="45.8630467" lon="8.638235"><ele>219.0</ele><time>2026-04-04T06:35:40.375Z</time></trkpt><trkpt lat="45.8631317" lon="8.6383183"><ele>219.0</ele><time>2026-04-04T06:35:41.376Z</time></trkpt><trkpt lat="45.86322" lon="8.6383917"><ele>219.0</ele><time>2026-04-04T06:35:42.375Z</time></trkpt><trkpt lat="45.8633117" lon="8.63846"><ele>218.99999999999997</ele><time>2026-04-04T06:35:43.375Z</time></trkpt><trkpt lat="45.86341" lon="8.63852"><ele>218.99999999999997</ele><time>2026-04-04T06:35:44.376Z</time></trkpt><trkpt lat="45.8635067" lon="8.6385683"><ele>219.0</ele><time>2026-04-04T06:35:45.375Z</time></trkpt><trkpt lat="45.863585" lon="8.6386167"><ele>219.0</ele><time>2026-04-04T06:35:46.376Z</time></trkpt><trkpt lat="45.86364" lon="8.6386667"><ele>220.0</ele><time>2026-04-04T06:35:47.375Z</time></trkpt><trkpt lat="45.8637017" lon="8.6387733"><ele>220.99999999999997</ele><time>2026-04-04T06:35:49.375Z</time></trkpt><trkpt lat="45.8637067" lon="8.6389117"><ele>221.99999999999997</ele><time>2026-04-04T06:35:51.375Z</time></trkpt><trkpt lat="45.863675" lon="8.6391017"><ele>223.0</ele><time>2026-04-04T06:35:53.375Z</time></trkpt><trkpt lat="45.86365" lon="8.639205"><ele>224.0</ele><time>2026-04-04T06:35:54.375Z</time></trkpt><trkpt lat="45.8635983" lon="8.6393317"><ele>224.0</ele><time>2026-04-04T06:35:56.376Z</time></trkpt><trkpt lat="45.8635233" lon="8.6393633"><ele>224.0</ele><time>2026-04-04T06:35:58.376Z</time></trkpt><trkpt lat="45.8634583" lon="8.6393567"><ele>224.0</ele><time>2026-04-04T06:35:59.376Z</time></trkpt><trkpt lat="45.8633833" lon="8.63935"><ele>224.0</ele><time>2026-04-04T06:36:00.376Z</time></trkpt><trkpt lat="45.8633083" lon="8.6393483"><ele>224.0</ele><time>2026-04-04T06:36:01.375Z</time></trkpt><trkpt lat="45.8632333" lon="8.6393417"><ele>224.0</ele><time>2026-04-04T06:36:02.376Z</time></trkpt><trkpt lat="45.8631583" lon="8.6393383"><ele>224.0</ele><time>2026-04-04T06:36:03.376Z</time></trkpt><trkpt lat="45.8630833" lon="8.63935"><ele>225.0</ele><time>2026-04-04T06:36:04.375Z</time></trkpt><trkpt lat="45.8630217" lon="8.6393867"><ele>226.0</ele><time>2026-04-04T06:36:05.376Z</time></trkpt><trkpt lat="45.8629617" lon="8.6394467"><ele>227.0</ele><time>2026-04-04T06:36:06.376Z</time></trkpt><trkpt lat="45.86291" lon="8.6395167"><ele>228.0</ele><time>2026-04-04T06:36:07.376Z</time></trkpt><trkpt lat="45.86287" lon="8.639595"><ele>229.0</ele><time>2026-04-04T06:36:08.375Z</time></trkpt><trkpt lat="45.8628383" lon="8.639675"><ele>230.0</ele><time>2026-04-04T06:36:09.376Z</time></trkpt><trkpt lat="45.8628117" lon="8.6397733"><ele>231.0</ele><time>2026-04-04T06:36:10.375Z</time></trkpt><trkpt lat="45.8627983" lon="8.6398783"><ele>233.0</ele><time>2026-04-04T06:36:11.376Z</time></trkpt><trkpt lat="45.8627917" lon="8.639975"><ele>235.00000000000003</ele><time>2026-04-04T06:36:12.375Z</time></trkpt><trkpt lat="45.8627833" lon="8.64015"><ele>237.00000000000003</ele><time>2026-04-04T06:36:14.375Z</time></trkpt><trkpt lat="45.8627917" lon="8.6402983"><ele>239.0</ele><time>2026-04-04T06:36:16.375Z</time></trkpt><trkpt lat="45.8627567" lon="8.6404017"><ele>241.0</ele><time>2026-04-04T06:36:18.375Z</time></trkpt><trkpt lat="45.8628017" lon="8.64049"><ele>243.0</ele><time>2026-04-04T06:36:21.376Z</time></trkpt><trkpt lat="45.8628933" lon="8.6404983"><ele>245.00000000000003</ele><time>2026-04-04T06:36:23.375Z</time></trkpt><trkpt lat="45.8629983" lon="8.640525"><ele>247.00000000000003</ele><time>2026-04-04T06:36:25.376Z</time></trkpt><trkpt lat="45.863125" lon="8.6405567"><ele>249.0</ele><time>2026-04-04T06:36:27.376Z</time></trkpt><trkpt lat="45.8632217" lon="8.6405967"><ele>251.0</ele><time>2026-04-04T06:36:29.376Z</time></trkpt><trkpt lat="45.8632983" lon="8.6406283"><ele>251.00000000000003</ele><time>2026-04-04T06:36:31.376Z</time></trkpt><trkpt lat="45.8633767" lon="8.6406633"><ele>251.0</ele><time>2026-04-04T06:36:33.375Z</time></trkpt><trkpt lat="45.8634367" lon="8.6407433"><ele>251.0</ele><time>2026-04-04T06:36:35.376Z</time></trkpt><trkpt lat="45.8634417" lon="8.640835"><ele>251.0</ele><time>2026-04-04T06:36:37.375Z</time></trkpt><trkpt lat="45.8634" lon="8.6409383"><ele>251.00000000000003</ele><time>2026-04-04T06:36:39.375Z</time></trkpt><trkpt lat="45.8633667" lon="8.64104"><ele>251.0</ele><time>2026-04-04T06:36:41.376Z</time></trkpt><trkpt lat="45.863355" lon="8.6411733"><ele>253.16666666666669</ele><time>2026-04-04T06:36:43.376Z</time></trkpt><trkpt lat="45.863335" lon="8.64131"><ele>255.33333333333334</ele><time>2026-04-04T06:36:45.376Z</time></trkpt><trkpt lat="45.8633183" lon="8.6414333"><ele>257.5</ele><time>2026-04-04T06:36:47.376Z</time></trkpt><trkpt lat="45.863305" lon="8.64157"><ele>259.6666666666667</ele><time>2026-04-04T06:36:49.375Z</time></trkpt><trkpt lat="45.8633" lon="8.641665"><ele>261.8333333333333</ele><time>2026-04-04T06:36:50.376Z</time></trkpt><trkpt lat="45.8633067" lon="8.641805"><ele>264.0</ele><time>2026-04-04T06:36:52.376Z</time></trkpt><trkpt lat="45.8632717" lon="8.6418883"><ele>264.0</ele><time>2026-04-04T06:36:54.375Z</time></trkpt><trkpt lat="45.8631967" lon="8.6419033"><ele>264.0</ele><time>2026-04-04T06:36:57.375Z</time></trkpt><trkpt lat="45.863125" lon="8.6419117"><ele>264.0</ele><time>2026-04-04T06:36:59.376Z</time></trkpt><trkpt lat="45.8630483" lon="8.641895"><ele>264.0</ele><time>2026-04-04T06:37:01.375Z</time></trkpt><trkpt lat="45.862975" lon="8.6418767"><ele>264.0</ele><time>2026-04-04T06:37:03.376Z</time></trkpt><trkpt lat="45.862865" lon="8.6418683"><ele>264.0</ele><time>2026-04-04T06:37:05.376Z</time></trkpt><trkpt lat="45.8627683" lon="8.64189"><ele>264.0</ele><time>2026-04-04T06:37:07.375Z</time></trkpt><trkpt lat="45.8626817" lon="8.6418883"><ele>264.0</ele><time>2026-04-04T06:37:08.375Z</time></trkpt><trkpt lat="45.862585" lon="8.641885"><ele>264.0</ele><time>2026-04-04T06:37:10.375Z</time></trkpt><trkpt lat="45.86248" lon="8.6419167"><ele>264.0</ele><time>2026-04-04T06:37:12.375Z</time></trkpt><trkpt lat="45.8623883" lon="8.6419733"><ele>264.0</ele><time>2026-04-04T06:37:14.376Z</time></trkpt><trkpt lat="45.862325" lon="8.6420183"><ele>267.7142857142857</ele><time>2026-04-04T06:37:16.375Z</time></trkpt><trkpt lat="45.8622683" lon="8.6420583"><ele>271.42857142857144</ele><time>2026-04-04T06:37:17.375Z</time></trkpt><trkpt lat="45.8622067" lon="8.6421117"><ele>275.14285714285717</ele><time>2026-04-04T06:37:19.376Z</time></trkpt><trkpt lat="45.8621417" lon="8.6421733"><ele>278.8571428571429</ele><time>2026-04-04T06:37:21.375Z</time></trkpt><trkpt lat="45.862075" lon="8.6422083"><ele>282.5714285714286</ele><time>2026-04-04T06:37:24.375Z</time></trkpt><trkpt lat="45.8620117" lon="8.64224"><ele>286.2857142857143</ele><time>2026-04-04T06:37:26.375Z</time></trkpt><trkpt lat="45.861935" lon="8.6422933"><ele>290.0</ele><time>2026-04-04T06:37:28.376Z</time></trkpt><trkpt lat="45.86185" lon="8.6423567"><ele>290.0</ele><time>2026-04-04T06:37:30.375Z</time></trkpt><trkpt lat="45.86179" lon="8.6423933"><ele>290.0</ele><time>2026-04-04T06:37:31.375Z</time></trkpt><trkpt lat="45.86173" lon="8.6424317"><ele>290.0</ele><time>2026-04-04T06:37:32.376Z</time></trkpt><trkpt lat="45.8616383" lon="8.6425133"><ele>290.0</ele><time>2026-04-04T06:37:34.376Z</time></trkpt><trkpt lat="45.8615683" lon="8.6425933"><ele>290.0</ele><time>2026-04-04T06:37:36.376Z</time></trkpt><trkpt lat="45.861495" lon="8.6426667"><ele>290.0</ele><time>2026-04-04T06:37:38.376Z</time></trkpt><trkpt lat="45.861415" lon="8.642765"><ele>291.5</ele><time>2026-04-04T06:37:40.376Z</time></trkpt><trkpt lat="45.8613567" lon="8.6429083"><ele>293.0</ele><time>2026-04-04T06:37:42.376Z</time></trkpt><trkpt lat="45.861305" lon="8.64306"><ele>294.5</ele><time>2026-04-04T06:37:44.376Z</time></trkpt><trkpt lat="45.8612817" lon="8.6432317"><ele>296.0</ele><time>2026-04-04T06:37:46.376Z</time></trkpt><trkpt lat="45.8612867" lon="8.6434133"><ele>296.0</ele><time>2026-04-04T06:37:48.376Z</time></trkpt><trkpt lat="45.8612867" lon="8.6435083"><ele>296.0</ele><time>2026-04-04T06:37:49.375Z</time></trkpt><trkpt lat="45.861285" lon="8.6436233"><ele>296.0</ele><time>2026-04-04T06:37:50.375Z</time></trkpt><trkpt lat="45.8612883" lon="8.6437167"><ele>296.0</ele><time>2026-04-04T06:37:51.376Z</time></trkpt><trkpt lat="45.86132" lon="8.64386"><ele>296.0</ele><time>2026-04-04T06:37:53.376Z</time></trkpt><trkpt lat="45.861365" lon="8.64394"><ele>296.0</ele><time>2026-04-04T06:37:55.376Z</time></trkpt><trkpt lat="45.86143" lon="8.6440367"><ele>296.33333333333337</ele><time>2026-04-04T06:38:05.375Z</time></trkpt><trkpt lat="45.8614917" lon="8.643955"><ele>296.6666666666667</ele><time>2026-04-04T06:38:13.376Z</time></trkpt><trkpt lat="45.8615083" lon="8.6438667"><ele>297.0</ele><time>2026-04-04T06:38:15.375Z</time></trkpt><trkpt lat="45.8616" lon="8.64383"><ele>297.3333333333333</ele><time>2026-04-04T06:38:18.375Z</time></trkpt><trkpt lat="45.8617183" lon="8.6438433"><ele>297.66666666666663</ele><time>2026-04-04T06:38:20.375Z</time></trkpt><trkpt lat="45.8617883" lon="8.643835"><ele>298.0</ele><time>2026-04-04T06:38:21.376Z</time></trkpt><trkpt lat="45.86186" lon="8.64381"><ele>299.0</ele><time>2026-04-04T06:38:22.375Z</time></trkpt><trkpt lat="45.8619267" lon="8.6437767"><ele>300.0</ele><time>2026-04-04T06:38:23.375Z</time></trkpt><trkpt lat="45.8620217" lon="8.6437083"><ele>301.0</ele><time>2026-04-04T06:38:25.376Z</time></trkpt><trkpt lat="45.8620767" lon="8.6436133"><ele>302.0</ele><time>2026-04-04T06:38:27.375Z</time></trkpt><trkpt lat="45.86213" lon="8.6435167"><ele>303.0</ele><time>2026-04-04T06:38:29.376Z</time></trkpt><trkpt lat="45.8621883" lon="8.6434333"><ele>304.0</ele><time>2026-04-04T06:38:31.376Z</time></trkpt><trkpt lat="45.862245" lon="8.64335"><ele>304.0</ele><time>2026-04-04T06:38:33.376Z</time></trkpt><trkpt lat="45.8623333" lon="8.6433117"><ele>304.0</ele><time>2026-04-04T06:38:36.375Z</time></trkpt><trkpt lat="45.8624183" lon="8.643315"><ele>304.0</ele><time>2026-04-04T06:38:39.376Z</time></trkpt><trkpt lat="45.8625067" lon="8.64326"><ele>304.0</ele><time>2026-04-04T06:38:41.375Z</time></trkpt><trkpt lat="45.8625933" lon="8.6432083"><ele>304.0</ele><time>2026-04-04T06:38:43.376Z</time></trkpt><trkpt lat="45.862665" lon="8.6431967"><ele>304.0</ele><time>2026-04-04T06:38:45.375Z</time></trkpt><trkpt lat="45.8627317" lon="8.6431817"><ele>304.4</ele><time>2026-04-04T06:38:49.375Z</time></trkpt><trkpt lat="45.86285" lon="8.6431533"><ele>304.79999999999995</ele><time>2026-04-04T06:38:54.375Z</time></trkpt><trkpt lat="45.8629217" lon="8.64316"><ele>305.20000000000005</ele><time>2026-04-04T06:38:55.376Z</time></trkpt><trkpt lat="45.8630033" lon="8.64318"><ele>305.6</ele><time>2026-04-04T06:38:56.375Z</time></trkpt><trkpt lat="45.8631" lon="8.6431983"><ele>306.0</ele><time>2026-04-04T06:38:57.375Z</time></trkpt><trkpt lat="45.863195" lon="8.6432083"><ele>306.0</ele><time>2026-04-04T06:38:58.376Z</time></trkpt><trkpt lat="45.86327" lon="8.6432217"><ele>306.0</ele><time>2026-04-04T06:38:59.376Z</time></trkpt><trkpt lat="45.8633483" lon="8.643245"><ele>306.0</ele><time>2026-04-04T06:39:00.376Z</time></trkpt><trkpt lat="45.8634183" lon="8.643275"><ele>306.0</ele><time>2026-04-04T06:39:01.376Z</time></trkpt><trkpt lat="45.8634833" lon="8.6433217"><ele>306.0</ele><time>2026-04-04T06:39:02.375Z</time></trkpt><trkpt lat="45.8635367" lon="8.64339"><ele>306.0</ele><time>2026-04-04T06:39:03.376Z</time></trkpt><trkpt lat="45.86358" lon="8.64347"><ele>306.0</ele><time>2026-04-04T06:39:04.375Z</time></trkpt><trkpt lat="45.863615" lon="8.6435717"><ele>306.0</ele><time>2026-04-04T06:39:05.375Z</time></trkpt><trkpt lat="45.863655" lon="8.6436967"><ele>306.0</ele><time>2026-04-04T06:39:06.376Z</time></trkpt><trkpt lat="45.8636933" lon="8.6438117"><ele>306.0</ele><time>2026-04-04T06:39:07.376Z</time></trkpt><trkpt lat="45.8637417" lon="8.6439167"><ele>306.0</ele><time>2026-04-04T06:39:08.375Z</time></trkpt><trkpt lat="45.863805" lon="8.64402"><ele>306.0</ele><time>2026-04-04T06:39:09.376Z</time></trkpt><trkpt lat="45.8638683" lon="8.6441167"><ele>306.0</ele><time>2026-04-04T06:39:10.375Z</time></trkpt><trkpt lat="45.8639217" lon="8.6441983"><ele>306.0</ele><time>2026-04-04T06:39:11.375Z</time></trkpt><trkpt lat="45.8639733" lon="8.6442833"><ele>306.0</ele><time>2026-04-04T06:39:12.375Z</time></trkpt><trkpt lat="45.864025" lon="8.644365"><ele>306.0</ele><time>2026-04-04T06:39:13.376Z</time></trkpt><trkpt lat="45.8640783" lon="8.6444483"><ele>306.0</ele><time>2026-04-04T06:39:14.375Z</time></trkpt><trkpt lat="45.8641433" lon="8.644535"><ele>306.0</ele><time>2026-04-04T06:39:15.376Z</time></trkpt><trkpt lat="45.8642117" lon="8.64463"><ele>304.0</ele><time>2026-04-04T06:39:16.375Z</time></trkpt><trkpt lat="45.8642833" lon="8.6447183"><ele>302.0</ele><time>2026-04-04T06:39:17.376Z</time></trkpt><trkpt lat="45.8643567" lon="8.6447983"><ele>300.0</ele><time>2026-04-04T06:39:18.376Z</time></trkpt><trkpt lat="45.86442" lon="8.6448667"><ele>298.0</ele><time>2026-04-04T06:39:19.375Z</time></trkpt><trkpt lat="45.8644733" lon="8.64493"><ele>296.0</ele><time>2026-04-04T06:39:20.375Z</time></trkpt><trkpt lat="45.8645267" lon="8.644995"><ele>294.0</ele><time>2026-04-04T06:39:21.376Z</time></trkpt><trkpt lat="45.864575" lon="8.6450767"><ele>294.0</ele><time>2026-04-04T06:39:22.375Z</time></trkpt><trkpt lat="45.86462" lon="8.64516"><ele>294.0</ele><time>2026-04-04T06:39:23.375Z</time></trkpt><trkpt lat="45.8646683" lon="8.6452483"><ele>294.0</ele><time>2026-04-04T06:39:24.375Z</time></trkpt><trkpt lat="45.864725" lon="8.6453417"><ele>294.0</ele><time>2026-04-04T06:39:25.375Z</time></trkpt><trkpt lat="45.86479" lon="8.6454333"><ele>294.0</ele><time>2026-04-04T06:39:26.375Z</time></trkpt><trkpt lat="45.864845" lon="8.6455333"><ele>294.0</ele><time>2026-04-04T06:39:27.375Z</time></trkpt><trkpt lat="45.8648983" lon="8.6456367"><ele>295.3333333333333</ele><time>2026-04-04T06:39:28.377Z</time></trkpt><trkpt lat="45.8649467" lon="8.64574"><ele>296.6666666666667</ele><time>2026-04-04T06:39:29.376Z</time></trkpt><trkpt lat="45.8649933" lon="8.6458283"><ele>298.0</ele><time>2026-04-04T06:39:30.377Z</time></trkpt><trkpt lat="45.8650433" lon="8.645915"><ele>299.33333333333337</ele><time>2026-04-04T06:39:31.377Z</time></trkpt><trkpt lat="45.86509" lon="8.6460117"><ele>300.6666666666667</ele><time>2026-04-04T06:39:32.376Z</time></trkpt><trkpt lat="45.8651417" lon="8.646105"><ele>302.0</ele><time>2026-04-04T06:39:33.377Z</time></trkpt><trkpt lat="45.8651867" lon="8.6462183"><ele>297.5</ele><time>2026-04-04T06:39:34.376Z</time></trkpt><trkpt lat="45.865235" lon="8.6463667"><ele>293.0</ele><time>2026-04-04T06:39:35.376Z</time></trkpt><trkpt lat="45.86527" lon="8.64652"><ele>288.5</ele><time>2026-04-04T06:39:36.376Z</time></trkpt><trkpt lat="45.8653133" lon="8.6466867"><ele>284.0</ele><time>2026-04-04T06:39:37.377Z</time></trkpt><trkpt lat="45.865345" lon="8.6468317"><ele>285.2</ele><time>2026-04-04T06:39:38.376Z</time></trkpt><trkpt lat="45.8653667" lon="8.6469767"><ele>286.4</ele><time>2026-04-04T06:39:39.377Z</time></trkpt><trkpt lat="45.86538" lon="8.6471067"><ele>287.6</ele><time>2026-04-04T06:39:40.377Z</time></trkpt><trkpt lat="45.865385" lon="8.64725"><ele>288.8</ele><time>2026-04-04T06:39:41.377Z</time></trkpt><trkpt lat="45.8653783" lon="8.647405"><ele>290.0</ele><time>2026-04-04T06:39:42.376Z</time></trkpt><trkpt lat="45.8653667" lon="8.647545"><ele>290.0</ele><time>2026-04-04T06:39:43.376Z</time></trkpt><trkpt lat="45.8653583" lon="8.6476683"><ele>290.0</ele><time>2026-04-04T06:39:44.376Z</time></trkpt><trkpt lat="45.8653433" lon="8.6477817"><ele>290.0</ele><time>2026-04-04T06:39:45.377Z</time></trkpt><trkpt lat="45.865325" lon="8.6478833"><ele>290.0</ele><time>2026-04-04T06:39:46.376Z</time></trkpt><trkpt lat="45.8653083" lon="8.6480017"><ele>290.0</ele><time>2026-04-04T06:39:47.377Z</time></trkpt><trkpt lat="45.8652983" lon="8.6481333"><ele>290.0</ele><time>2026-04-04T06:39:48.377Z</time></trkpt><trkpt lat="45.8653033" lon="8.648295"><ele>289.6666666666667</ele><time>2026-04-04T06:39:49.377Z</time></trkpt><trkpt lat="45.86529" lon="8.64845"><ele>289.33333333333337</ele><time>2026-04-04T06:39:50.376Z</time></trkpt><trkpt lat="45.8652767" lon="8.6485583"><ele>289.0</ele><time>2026-04-04T06:39:51.377Z</time></trkpt><trkpt lat="45.8652633" lon="8.6486633"><ele>288.6666666666667</ele><time>2026-04-04T06:39:52.376Z</time></trkpt><trkpt lat="45.8652383" lon="8.6488133"><ele>288.3333333333333</ele><time>2026-04-04T06:39:54.376Z</time></trkpt><trkpt lat="45.8651983" lon="8.6489083"><ele>288.0</ele><time>2026-04-04T06:39:56.376Z</time></trkpt><trkpt lat="45.86515" lon="8.6490483"><ele>290.6666666666667</ele><time>2026-04-04T06:39:58.377Z</time></trkpt><trkpt lat="45.8650817" lon="8.6491833"><ele>293.3333333333333</ele><time>2026-04-04T06:40:00.377Z</time></trkpt><trkpt lat="45.86502" lon="8.649275"><ele>296.0</ele><time>2026-04-04T06:40:02.376Z</time></trkpt><trkpt lat="45.8649567" lon="8.64932"><ele>298.66666666666663</ele><time>2026-04-04T06:40:04.376Z</time></trkpt><trkpt lat="45.8648867" lon="8.64936"><ele>301.3333333333333</ele><time>2026-04-04T06:40:06.376Z</time></trkpt><trkpt lat="45.8648433" lon="8.6494433"><ele>304.0</ele><time>2026-04-04T06:40:09.376Z</time></trkpt><trkpt lat="45.86492" lon="8.64951"><ele>304.0</ele><time>2026-04-04T06:40:12.376Z</time></trkpt><trkpt lat="45.8650133" lon="8.6495367"><ele>304.0</ele><time>2026-04-04T06:40:14.376Z</time></trkpt><trkpt lat="45.865095" lon="8.6496083"><ele>304.0</ele><time>2026-04-04T06:40:16.376Z</time></trkpt><trkpt lat="45.865175" lon="8.6496967"><ele>304.0</ele><time>2026-04-04T06:40:18.377Z</time></trkpt><trkpt lat="45.86524" lon="8.6497833"><ele>304.0</ele><time>2026-04-04T06:40:20.376Z</time></trkpt><trkpt lat="45.8652933" lon="8.6498683"><ele>301.4</ele><time>2026-04-04T06:40:22.376Z</time></trkpt><trkpt lat="45.8653317" lon="8.64998"><ele>298.79999999999995</ele><time>2026-04-04T06:40:24.377Z</time></trkpt><trkpt lat="45.8653417" lon="8.6501417"><ele>296.20000000000005</ele><time>2026-04-04T06:40:26.377Z</time></trkpt><trkpt lat="45.86537" lon="8.6502983"><ele>293.6</ele><time>2026-04-04T06:40:28.376Z</time></trkpt><trkpt lat="45.8654083" lon="8.6504267"><ele>291.0</ele><time>2026-04-04T06:40:30.377Z</time></trkpt><trkpt lat="45.8654067" lon="8.650595"><ele>291.0</ele><time>2026-04-04T06:40:32.376Z</time></trkpt><trkpt lat="45.8654117" lon="8.6506933"><ele>291.0</ele><time>2026-04-04T06:40:33.376Z</time></trkpt><trkpt lat="45.8654183" lon="8.6507883"><ele>291.0</ele><time>2026-04-04T06:40:34.376Z</time></trkpt><trkpt lat="45.865425" lon="8.6508833"><ele>291.0</ele><time>2026-04-04T06:40:35.377Z</time></trkpt><trkpt lat="45.8654317" lon="8.6509883"><ele>291.0</ele><time>2026-04-04T06:40:36.376Z</time></trkpt><trkpt lat="45.865435" lon="8.651115"><ele>291.0</ele><time>2026-04-04T06:40:37.376Z</time></trkpt><trkpt lat="45.865445" lon="8.6512717"><ele>290.75</ele><time>2026-04-04T06:40:38.377Z</time></trkpt><trkpt lat="45.86547" lon="8.6514617"><ele>290.5</ele><time>2026-04-04T06:40:39.376Z</time></trkpt><trkpt lat="45.8654783" lon="8.6516667"><ele>290.25</ele><time>2026-04-04T06:40:40.376Z</time></trkpt><trkpt lat="45.8654867" lon="8.6518417"><ele>290.0</ele><time>2026-04-04T06:40:41.377Z</time></trkpt><trkpt lat="45.8654917" lon="8.65199"><ele>288.8</ele><time>2026-04-04T06:40:42.376Z</time></trkpt><trkpt lat="45.865495" lon="8.6521167"><ele>287.6</ele><time>2026-04-04T06:40:43.376Z</time></trkpt><trkpt lat="45.8654967" lon="8.6522167"><ele>286.4</ele><time>2026-04-04T06:40:44.377Z</time></trkpt><trkpt lat="45.8654733" lon="8.652355"><ele>285.2</ele><time>2026-04-04T06:40:46.377Z</time></trkpt><trkpt lat="45.8653783" lon="8.6524083"><ele>284.0</ele><time>2026-04-04T06:40:48.377Z</time></trkpt><trkpt lat="45.865275" lon="8.65248"><ele>284.0</ele><time>2026-04-04T06:40:50.377Z</time></trkpt><trkpt lat="45.8652317" lon="8.65255"><ele>284.0</ele><time>2026-04-04T06:40:51.376Z</time></trkpt><trkpt lat="45.8652017" lon="8.6526583"><ele>284.0</ele><time>2026-04-04T06:40:52.377Z</time></trkpt><trkpt lat="45.8651733" lon="8.6527833"><ele>284.0</ele><time>2026-04-04T06:40:53.376Z</time></trkpt><trkpt lat="45.8651483" lon="8.6529017"><ele>284.0</ele><time>2026-04-04T06:40:54.376Z</time></trkpt><trkpt lat="45.8651217" lon="8.6530483"><ele>284.0</ele><time>2026-04-04T06:40:55.377Z</time></trkpt><trkpt lat="45.8651" lon="8.6531867"><ele>286.6666666666667</ele><time>2026-04-04T06:40:56.376Z</time></trkpt><trkpt lat="45.8650767" lon="8.653325"><ele>289.33333333333337</ele><time>2026-04-04T06:40:57.377Z</time></trkpt><trkpt lat="45.8650517" lon="8.653445"><ele>292.0</ele><time>2026-04-04T06:40:58.377Z</time></trkpt><trkpt lat="45.865035" lon="8.6535467"><ele>294.6666666666667</ele><time>2026-04-04T06:40:59.377Z</time></trkpt><trkpt lat="45.8650167" lon="8.65364"><ele>297.3333333333333</ele><time>2026-04-04T06:41:00.377Z</time></trkpt><trkpt lat="45.8650067" lon="8.6537367"><ele>300.0</ele><time>2026-04-04T06:41:01.376Z</time></trkpt><trkpt lat="45.865015" lon="8.6538567"><ele>300.0</ele><time>2026-04-04T06:41:02.377Z</time></trkpt><trkpt lat="45.8650333" lon="8.6539767"><ele>300.0</ele><time>2026-04-04T06:41:03.376Z</time></trkpt><trkpt lat="45.8650433" lon="8.6540867"><ele>300.0</ele><time>2026-04-04T06:41:04.376Z</time></trkpt><trkpt lat="45.86505" lon="8.6541783"><ele>300.0</ele><time>2026-04-04T06:41:05.377Z</time></trkpt><trkpt lat="45.8650667" lon="8.6542733"><ele>300.0</ele><time>2026-04-04T06:41:07.377Z</time></trkpt><trkpt lat="45.86508" lon="8.6544133"><ele>300.0</ele><time>2026-04-04T06:41:10.376Z</time></trkpt><trkpt lat="45.8651167" lon="8.6545483"><ele>295.6666666666667</ele><time>2026-04-04T06:41:12.376Z</time></trkpt><trkpt lat="45.8651367" lon="8.6546617"><ele>291.3333333333333</ele><time>2026-04-04T06:41:14.376Z</time></trkpt><trkpt lat="45.8651383" lon="8.6547983"><ele>287.0</ele><time>2026-04-04T06:41:17.377Z</time></trkpt><trkpt lat="45.8651467" lon="8.65489"><ele>282.66666666666663</ele><time>2026-04-04T06:41:19.377Z</time></trkpt><trkpt lat="45.8651817" lon="8.654995"><ele>278.3333333333333</ele><time>2026-04-04T06:41:22.376Z</time></trkpt><trkpt lat="45.86522" lon="8.6550717"><ele>274.0</ele><time>2026-04-04T06:41:24.377Z</time></trkpt><trkpt lat="45.8652267" lon="8.6551933"><ele>273.4</ele><time>2026-04-04T06:41:26.376Z</time></trkpt><trkpt lat="45.86523" lon="8.6553583"><ele>272.79999999999995</ele><time>2026-04-04T06:41:28.376Z</time></trkpt><trkpt lat="45.86524" lon="8.6555467"><ele>272.20000000000005</ele><time>2026-04-04T06:41:30.376Z</time></trkpt><trkpt lat="45.8652483" lon="8.6556633"><ele>271.6</ele><time>2026-04-04T06:41:31.376Z</time></trkpt><trkpt lat="45.865255" lon="8.6557867"><ele>271.0</ele><time>2026-04-04T06:41:32.376Z</time></trkpt><trkpt lat="45.8652583" lon="8.6559217"><ele>271.0</ele><time>2026-04-04T06:41:33.376Z</time></trkpt><trkpt lat="45.865255" lon="8.656065"><ele>271.0</ele><time>2026-04-04T06:41:34.377Z</time></trkpt><trkpt lat="45.8652417" lon="8.6562017"><ele>271.0</ele><time>2026-04-04T06:41:35.377Z</time></trkpt><trkpt lat="45.8652283" lon="8.65633"><ele>271.0</ele><time>2026-04-04T06:41:36.377Z</time></trkpt><trkpt lat="45.8652217" lon="8.65645"><ele>271.0</ele><time>2026-04-04T06:41:37.376Z</time></trkpt><trkpt lat="45.8652067" lon="8.656565"><ele>270.8333333333333</ele><time>2026-04-04T06:41:38.377Z</time></trkpt><trkpt lat="45.8651883" lon="8.6566617"><ele>270.66666666666663</ele><time>2026-04-04T06:41:39.376Z</time></trkpt><trkpt lat="45.8651533" lon="8.6567667"><ele>270.5</ele><time>2026-04-04T06:41:40.376Z</time></trkpt><trkpt lat="45.8651067" lon="8.6568783"><ele>270.3333333333333</ele><time>2026-04-04T06:41:41.377Z</time></trkpt><trkpt lat="45.865055" lon="8.657005"><ele>270.1666666666667</ele><time>2026-04-04T06:41:42.377Z</time></trkpt><trkpt lat="45.8650033" lon="8.6571367"><ele>270.0</ele><time>2026-04-04T06:41:43.376Z</time></trkpt><trkpt lat="45.864955" lon="8.65726"><ele>274.57142857142856</ele><time>2026-04-04T06:41:44.376Z</time></trkpt><trkpt lat="45.8649183" lon="8.657355"><ele>279.1428571428571</ele><time>2026-04-04T06:41:45.376Z</time></trkpt><trkpt lat="45.8648833" lon="8.6574333"><ele>283.7142857142857</ele><time>2026-04-04T06:41:46.376Z</time></trkpt><trkpt lat="45.864845" lon="8.6575067"><ele>288.2857142857143</ele><time>2026-04-04T06:41:47.376Z</time></trkpt><trkpt lat="45.8647967" lon="8.6575683"><ele>292.8571428571429</ele><time>2026-04-04T06:41:48.376Z</time></trkpt><trkpt lat="45.8647433" lon="8.65765"><ele>297.42857142857144</ele><time>2026-04-04T06:41:49.377Z</time></trkpt><trkpt lat="45.8646933" lon="8.65771"><ele>302.0</ele><time>2026-04-04T06:41:50.376Z</time></trkpt><trkpt lat="45.8645967" lon="8.6578017"><ele>302.0</ele><time>2026-04-04T06:41:52.376Z</time></trkpt><trkpt lat="45.8644817" lon="8.6579233"><ele>302.0</ele><time>2026-04-04T06:41:54.377Z</time></trkpt><trkpt lat="45.8644167" lon="8.65803"><ele>302.0</ele><time>2026-04-04T06:41:55.376Z</time></trkpt><trkpt lat="45.8643733" lon="8.6581467"><ele>302.0</ele><time>2026-04-04T06:41:56.376Z</time></trkpt><trkpt lat="45.8643433" lon="8.6582683"><ele>302.0</ele><time>2026-04-04T06:41:57.376Z</time></trkpt><trkpt lat="45.8643167" lon="8.658395"><ele>302.00000000000006</ele><time>2026-04-04T06:41:58.377Z</time></trkpt><trkpt lat="45.86429" lon="8.6585133"><ele>302.0</ele><time>2026-04-04T06:41:59.377Z</time></trkpt><trkpt lat="45.864265" lon="8.6586167"><ele>302.0</ele><time>2026-04-04T06:42:00.377Z</time></trkpt><trkpt lat="45.86425" lon="8.6587067"><ele>302.0</ele><time>2026-04-04T06:42:01.376Z</time></trkpt><trkpt lat="45.8642433" lon="8.6587967"><ele>302.0</ele><time>2026-04-04T06:42:02.376Z</time></trkpt><trkpt lat="45.86423" lon="8.6588917"><ele>302.00000000000006</ele><time>2026-04-04T06:42:03.376Z</time></trkpt><trkpt lat="45.8642183" lon="8.658995"><ele>302.0</ele><time>2026-04-04T06:42:04.376Z</time></trkpt><trkpt lat="45.8641833" lon="8.6591017"><ele>303.42857142857144</ele><time>2026-04-04T06:42:05.377Z</time></trkpt><trkpt lat="45.8641467" lon="8.6592083"><ele>304.8571428571429</ele><time>2026-04-04T06:42:06.376Z</time></trkpt><trkpt lat="45.8641133" lon="8.6593017"><ele>306.28571428571433</ele><time>2026-04-04T06:42:07.377Z</time></trkpt><trkpt lat="45.8640733" lon="8.6593817"><ele>307.7142857142857</ele><time>2026-04-04T06:42:08.377Z</time></trkpt><trkpt lat="45.864025" lon="8.6594467"><ele>309.1428571428571</ele><time>2026-04-04T06:42:09.377Z</time></trkpt><trkpt lat="45.8639717" lon="8.6595017"><ele>310.5714285714286</ele><time>2026-04-04T06:42:10.376Z</time></trkpt><trkpt lat="45.8639183" lon="8.6595567"><ele>312.0</ele><time>2026-04-04T06:42:11.377Z</time></trkpt><trkpt lat="45.8638617" lon="8.6596217"><ele>312.0</ele><time>2026-04-04T06:42:12.377Z</time></trkpt><trkpt lat="45.863805" lon="8.659685"><ele>312.0</ele><time>2026-04-04T06:42:13.377Z</time></trkpt><trkpt lat="45.8637433" lon="8.659745"><ele>312.0</ele><time>2026-04-04T06:42:14.377Z</time></trkpt><trkpt lat="45.8636767" lon="8.6598"><ele>312.0</ele><time>2026-04-04T06:42:15.376Z</time></trkpt><trkpt lat="45.8636133" lon="8.6598533"><ele>312.0</ele><time>2026-04-04T06:42:16.377Z</time></trkpt><trkpt lat="45.8635567" lon="8.6599083"><ele>312.0</ele><time>2026-04-04T06:42:17.376Z</time></trkpt><trkpt lat="45.863475" lon="8.6599967"><ele>313.8333333333333</ele><time>2026-04-04T06:42:19.377Z</time></trkpt><trkpt lat="45.8633983" lon="8.6600017"><ele>315.6666666666667</ele><time>2026-04-04T06:42:22.376Z</time></trkpt><trkpt lat="45.8633967" lon="8.6598683"><ele>317.5</ele><time>2026-04-04T06:42:25.377Z</time></trkpt><trkpt lat="45.8634383" lon="8.6597367"><ele>319.33333333333337</ele><time>2026-04-04T06:42:27.376Z</time></trkpt><trkpt lat="45.8634333" lon="8.659635"><ele>321.1666666666667</ele><time>2026-04-04T06:42:29.376Z</time></trkpt><trkpt lat="45.863365" lon="8.6595733"><ele>323.0</ele><time>2026-04-04T06:42:31.377Z</time></trkpt><trkpt lat="45.863295" lon="8.6595467"><ele>323.0</ele><time>2026-04-04T06:42:32.377Z</time></trkpt><trkpt lat="45.8631967" lon="8.6595167"><ele>323.0</ele><time>2026-04-04T06:42:33.376Z</time></trkpt><trkpt lat="45.8631" lon="8.659485"><ele>323.0</ele><time>2026-04-04T06:42:34.377Z</time></trkpt><trkpt lat="45.8629917" lon="8.6594583"><ele>323.0</ele><time>2026-04-04T06:42:35.376Z</time></trkpt><trkpt lat="45.8628783" lon="8.65945"><ele>323.0</ele><time>2026-04-04T06:42:36.377Z</time></trkpt><trkpt lat="45.8627783" lon="8.65944"><ele>324.14285714285717</ele><time>2026-04-04T06:42:37.377Z</time></trkpt><trkpt lat="45.8626867" lon="8.6594317"><ele>325.2857142857143</ele><time>2026-04-04T06:42:38.376Z</time></trkpt><trkpt lat="45.8626117" lon="8.6594283"><ele>326.42857142857144</ele><time>2026-04-04T06:42:39.376Z</time></trkpt><trkpt lat="45.8625467" lon="8.6594217"><ele>327.57142857142856</ele><time>2026-04-04T06:42:40.377Z</time></trkpt><trkpt lat="45.8624717" lon="8.6594033"><ele>328.7142857142857</ele><time>2026-04-04T06:42:41.376Z</time></trkpt><trkpt lat="45.8623983" lon="8.6593933"><ele>329.8571428571429</ele><time>2026-04-04T06:42:42.377Z</time></trkpt><trkpt lat="45.8623333" lon="8.65938"><ele>331.0</ele><time>2026-04-04T06:42:43.376Z</time></trkpt><trkpt lat="45.8622267" lon="8.6593167"><ele>332.5</ele><time>2026-04-04T06:42:45.376Z</time></trkpt><trkpt lat="45.8621633" lon="8.6592717"><ele>334.0</ele><time>2026-04-04T06:42:46.376Z</time></trkpt><trkpt lat="45.8620967" lon="8.6592333"><ele>335.5</ele><time>2026-04-04T06:42:47.376Z</time></trkpt><trkpt lat="45.8620317" lon="8.6592017"><ele>337.0</ele><time>2026-04-04T06:42:48.377Z</time></trkpt><trkpt lat="45.8619333" lon="8.6591533"><ele>338.5</ele><time>2026-04-04T06:42:50.377Z</time></trkpt><trkpt lat="45.8618467" lon="8.6590833"><ele>340.0</ele><time>2026-04-04T06:42:52.376Z</time></trkpt><trkpt lat="45.8617483" lon="8.6590367"><ele>340.6</ele><time>2026-04-04T06:42:54.377Z</time></trkpt><trkpt lat="45.8616433" lon="8.6589483"><ele>341.2</ele><time>2026-04-04T06:42:56.377Z</time></trkpt><trkpt lat="45.8615833" lon="8.6588783"><ele>341.79999999999995</ele><time>2026-04-04T06:42:57.377Z</time></trkpt><trkpt lat="45.861515" lon="8.6588017"><ele>342.4</ele><time>2026-04-04T06:42:58.376Z</time></trkpt><trkpt lat="45.8614333" lon="8.658725"><ele>343.0</ele><time>2026-04-04T06:42:59.377Z</time></trkpt><trkpt lat="45.86134" lon="8.658655"><ele>343.0</ele><time>2026-04-04T06:43:00.377Z</time></trkpt><trkpt lat="45.861265" lon="8.6586017"><ele>343.0</ele><time>2026-04-04T06:43:01.377Z</time></trkpt><trkpt lat="45.8611533" lon="8.6585467"><ele>343.0</ele><time>2026-04-04T06:43:03.376Z</time></trkpt><trkpt lat="45.8610367" lon="8.65857"><ele>343.0</ele><time>2026-04-04T06:43:05.377Z</time></trkpt><trkpt lat="45.8609617" lon="8.65862"><ele>343.0</ele><time>2026-04-04T06:43:06.376Z</time></trkpt><trkpt lat="45.860885" lon="8.6586633"><ele>343.0</ele><time>2026-04-04T06:43:07.376Z</time></trkpt><trkpt lat="45.8608017" lon="8.6586917"><ele>343.0</ele><time>2026-04-04T06:43:08.376Z</time></trkpt><trkpt lat="45.8607117" lon="8.6587033"><ele>343.0</ele><time>2026-04-04T06:43:09.377Z</time></trkpt><trkpt lat="45.8606267" lon="8.6587017"><ele>343.0</ele><time>2026-04-04T06:43:10.377Z</time></trkpt><trkpt lat="45.8605617" lon="8.6586983"><ele>343.0</ele><time>2026-04-04T06:43:11.376Z</time></trkpt><trkpt lat="45.8604783" lon="8.658655"><ele>343.0</ele><time>2026-04-04T06:43:13.376Z</time></trkpt><trkpt lat="45.86045" lon="8.6585183"><ele>344.0</ele><time>2026-04-04T06:43:16.376Z</time></trkpt><trkpt lat="45.86038" lon="8.6583967"><ele>345.0</ele><time>2026-04-04T06:43:18.376Z</time></trkpt><trkpt lat="45.8603117" lon="8.6583267"><ele>346.0</ele><time>2026-04-04T06:43:19.376Z</time></trkpt><trkpt lat="45.860235" lon="8.6582517"><ele>347.0</ele><time>2026-04-04T06:43:20.377Z</time></trkpt><trkpt lat="45.860165" lon="8.6581867"><ele>348.0</ele><time>2026-04-04T06:43:21.377Z</time></trkpt><trkpt lat="45.8600967" lon="8.6581317"><ele>349.0</ele><time>2026-04-04T06:43:22.376Z</time></trkpt><trkpt lat="45.8600367" lon="8.6580817"><ele>349.0</ele><time>2026-04-04T06:43:23.376Z</time></trkpt><trkpt lat="45.8599783" lon="8.6580067"><ele>349.0</ele><time>2026-04-04T06:43:25.376Z</time></trkpt><trkpt lat="45.8600733" lon="8.6579367"><ele>349.0</ele><time>2026-04-04T06:43:29.377Z</time></trkpt><trkpt lat="45.8601517" lon="8.6578683"><ele>349.0</ele><time>2026-04-04T06:43:31.376Z</time></trkpt><trkpt lat="45.8602083" lon="8.65781"><ele>349.0</ele><time>2026-04-04T06:43:33.376Z</time></trkpt><trkpt lat="45.86027" lon="8.6577383"><ele>349.0</ele><time>2026-04-04T06:43:35.376Z</time></trkpt><trkpt lat="45.860325" lon="8.6576767"><ele>350.2857142857143</ele><time>2026-04-04T06:43:37.377Z</time></trkpt><trkpt lat="45.8603833" lon="8.6576283"><ele>351.57142857142856</ele><time>2026-04-04T06:43:39.376Z</time></trkpt><trkpt lat="45.8604433" lon="8.6575733"><ele>352.8571428571429</ele><time>2026-04-04T06:43:42.377Z</time></trkpt><trkpt lat="45.8604867" lon="8.6575017"><ele>354.1428571428571</ele><time>2026-04-04T06:43:44.377Z</time></trkpt><trkpt lat="45.86053" lon="8.6573983"><ele>355.42857142857144</ele><time>2026-04-04T06:43:46.376Z</time></trkpt><trkpt lat="45.8605717" lon="8.6573133"><ele>356.7142857142857</ele><time>2026-04-04T06:43:48.377Z</time></trkpt><trkpt lat="45.8606283" lon="8.6572383"><ele>358.0</ele><time>2026-04-04T06:43:50.376Z</time></trkpt><trkpt lat="45.8607133" lon="8.6571467"><ele>358.0</ele><time>2026-04-04T06:43:52.376Z</time></trkpt><trkpt lat="45.8607683" lon="8.6571017"><ele>358.0</ele><time>2026-04-04T06:43:53.376Z</time></trkpt><trkpt lat="45.8608267" lon="8.65705"><ele>358.0</ele><time>2026-04-04T06:43:54.377Z</time></trkpt><trkpt lat="45.8608983" lon="8.6569933"><ele>358.0</ele><time>2026-04-04T06:43:55.377Z</time></trkpt><trkpt lat="45.86098" lon="8.6569433"><ele>358.0</ele><time>2026-04-04T06:43:56.376Z</time></trkpt><trkpt lat="45.8610583" lon="8.656905"><ele>358.0</ele><time>2026-04-04T06:43:57.376Z</time></trkpt><trkpt lat="45.8611317" lon="8.6568767"><ele>358.16666666666663</ele><time>2026-04-04T06:43:58.377Z</time></trkpt><trkpt lat="45.8611983" lon="8.6568633"><ele>358.3333333333333</ele><time>2026-04-04T06:43:59.377Z</time></trkpt><trkpt lat="45.861265" lon="8.6568767"><ele>358.5</ele><time>2026-04-04T06:44:00.376Z</time></trkpt><trkpt lat="45.8613317" lon="8.6569017"><ele>358.6666666666667</ele><time>2026-04-04T06:44:01.377Z</time></trkpt><trkpt lat="45.861445" lon="8.6569167"><ele>358.83333333333337</ele><time>2026-04-04T06:44:03.377Z</time></trkpt><trkpt lat="45.8615333" lon="8.6569"><ele>359.0</ele><time>2026-04-04T06:44:05.376Z</time></trkpt><trkpt lat="45.861605" lon="8.6568517"><ele>359.0</ele><time>2026-04-04T06:44:07.377Z</time></trkpt><trkpt lat="45.8617217" lon="8.656795"><ele>359.0</ele><time>2026-04-04T06:44:09.376Z</time></trkpt><trkpt lat="45.861795" lon="8.6567617"><ele>359.0</ele><time>2026-04-04T06:44:10.376Z</time></trkpt><trkpt lat="45.8618583" lon="8.656725"><ele>359.0</ele><time>2026-04-04T06:44:11.376Z</time></trkpt><trkpt lat="45.8619733" lon="8.6566833"><ele>359.0</ele><time>2026-04-04T06:44:13.376Z</time></trkpt><trkpt lat="45.8620767" lon="8.6567017"><ele>359.75</ele><time>2026-04-04T06:44:15.376Z</time></trkpt><trkpt lat="45.8621733" lon="8.656695"><ele>360.5</ele><time>2026-04-04T06:44:17.377Z</time></trkpt><trkpt lat="45.8622917" lon="8.65669"><ele>361.25</ele><time>2026-04-04T06:44:19.376Z</time></trkpt><trkpt lat="45.8624067" lon="8.6566283"><ele>362.0</ele><time>2026-04-04T06:44:21.377Z</time></trkpt><trkpt lat="45.8625217" lon="8.6565883"><ele>361.20000000000005</ele><time>2026-04-04T06:44:23.376Z</time></trkpt><trkpt lat="45.862655" lon="8.6565633"><ele>360.4</ele><time>2026-04-04T06:44:25.376Z</time></trkpt><trkpt lat="45.8627317" lon="8.6565567"><ele>359.6</ele><time>2026-04-04T06:44:26.377Z</time></trkpt><trkpt lat="45.8628183" lon="8.656545"><ele>358.79999999999995</ele><time>2026-04-04T06:44:27.376Z</time></trkpt><trkpt lat="45.8629167" lon="8.656525"><ele>358.0</ele><time>2026-04-04T06:44:28.377Z</time></trkpt><trkpt lat="45.8630183" lon="8.6565117"><ele>358.0</ele><time>2026-04-04T06:44:29.376Z</time></trkpt><trkpt lat="45.8631167" lon="8.6564967"><ele>358.0</ele><time>2026-04-04T06:44:30.377Z</time></trkpt><trkpt lat="45.86321" lon="8.6564833"><ele>358.0</ele><time>2026-04-04T06:44:31.376Z</time></trkpt><trkpt lat="45.86329" lon="8.6564667"><ele>358.0</ele><time>2026-04-04T06:44:32.377Z</time></trkpt><trkpt lat="45.8633567" lon="8.6564517"><ele>358.0</ele><time>2026-04-04T06:44:33.376Z</time></trkpt><trkpt lat="45.8634567" lon="8.6564117"><ele>358.0</ele><time>2026-04-04T06:44:35.377Z</time></trkpt><trkpt lat="45.86353" lon="8.6563017"><ele>356.16666666666663</ele><time>2026-04-04T06:44:37.376Z</time></trkpt><trkpt lat="45.863575" lon="8.6562167"><ele>354.3333333333333</ele><time>2026-04-04T06:44:38.376Z</time></trkpt><trkpt lat="45.86361" lon="8.6560883"><ele>352.5</ele><time>2026-04-04T06:44:39.376Z</time></trkpt><trkpt lat="45.8636483" lon="8.6559517"><ele>350.6666666666667</ele><time>2026-04-04T06:44:40.377Z</time></trkpt><trkpt lat="45.8636783" lon="8.6558317"><ele>348.83333333333337</ele><time>2026-04-04T06:44:41.376Z</time></trkpt><trkpt lat="45.86371" lon="8.655745"><ele>347.0</ele><time>2026-04-04T06:44:42.376Z</time></trkpt><trkpt lat="45.863725" lon="8.6555917"><ele>346.8</ele><time>2026-04-04T06:44:44.376Z</time></trkpt><trkpt lat="45.8636683" lon="8.6555367"><ele>346.6</ele><time>2026-04-04T06:44:45.376Z</time></trkpt><trkpt lat="45.863615" lon="8.655465"><ele>346.40000000000003</ele><time>2026-04-04T06:44:46.376Z</time></trkpt><trkpt lat="45.8635183" lon="8.65535"><ele>346.20000000000005</ele><time>2026-04-04T06:44:48.377Z</time></trkpt><trkpt lat="45.8634633" lon="8.6552333"><ele>346.0</ele><time>2026-04-04T06:44:50.376Z</time></trkpt><trkpt lat="45.8634983" lon="8.6551217"><ele>345.0</ele><time>2026-04-04T06:44:53.376Z</time></trkpt><trkpt lat="45.8635817" lon="8.65506"><ele>344.0</ele><time>2026-04-04T06:44:55.377Z</time></trkpt><trkpt lat="45.8636633" lon="8.6549783"><ele>343.0</ele><time>2026-04-04T06:44:57.376Z</time></trkpt><trkpt lat="45.8637167" lon="8.65493"><ele>342.0</ele><time>2026-04-04T06:44:58.376Z</time></trkpt><trkpt lat="45.8637617" lon="8.6548633"><ele>341.0</ele><time>2026-04-04T06:44:59.376Z</time></trkpt><trkpt lat="45.8638117" lon="8.6547983"><ele>340.0</ele><time>2026-04-04T06:45:00.376Z</time></trkpt><trkpt lat="45.86386" lon="8.6547283"><ele>340.0</ele><time>2026-04-04T06:45:01.376Z</time></trkpt><trkpt lat="45.8639583" lon="8.6546317"><ele>340.0</ele><time>2026-04-04T06:45:03.376Z</time></trkpt><trkpt lat="45.864045" lon="8.6545417"><ele>340.0</ele><time>2026-04-04T06:45:05.376Z</time></trkpt><trkpt lat="45.8641117" lon="8.654425"><ele>340.0</ele><time>2026-04-04T06:45:07.376Z</time></trkpt><trkpt lat="45.8641667" lon="8.654315"><ele>340.0</ele><time>2026-04-04T06:45:09.376Z</time></trkpt><trkpt lat="45.8641883" lon="8.6541867"><ele>339.0</ele><time>2026-04-04T06:45:11.376Z</time></trkpt><trkpt lat="45.86418" lon="8.6540783"><ele>338.0</ele><time>2026-04-04T06:45:12.377Z</time></trkpt><trkpt lat="45.8641617" lon="8.653945"><ele>337.0</ele><time>2026-04-04T06:45:13.376Z</time></trkpt><trkpt lat="45.8641417" lon="8.6538183"><ele>336.0</ele><time>2026-04-04T06:45:14.377Z</time></trkpt><trkpt lat="45.8640933" lon="8.653705"><ele>335.0</ele><time>2026-04-04T06:45:15.376Z</time></trkpt><trkpt lat="45.864045" lon="8.6536"><ele>334.0</ele><time>2026-04-04T06:45:16.376Z</time></trkpt><trkpt lat="45.8639883" lon="8.6535033"><ele>332.8333333333333</ele><time>2026-04-04T06:45:17.376Z</time></trkpt><trkpt lat="45.8639267" lon="8.653425"><ele>331.66666666666663</ele><time>2026-04-04T06:45:18.376Z</time></trkpt><trkpt lat="45.8638733" lon="8.6533583"><ele>330.5</ele><time>2026-04-04T06:45:19.377Z</time></trkpt><trkpt lat="45.8638233" lon="8.6532833"><ele>329.3333333333333</ele><time>2026-04-04T06:45:20.377Z</time></trkpt><trkpt lat="45.863775" lon="8.6531367"><ele>328.1666666666667</ele><time>2026-04-04T06:45:22.376Z</time></trkpt><trkpt lat="45.8637867" lon="8.6530067"><ele>327.0</ele><time>2026-04-04T06:45:24.376Z</time></trkpt><trkpt lat="45.8638533" lon="8.6528633"><ele>326.1666666666667</ele><time>2026-04-04T06:45:26.376Z</time></trkpt><trkpt lat="45.863905" lon="8.652785"><ele>325.3333333333333</ele><time>2026-04-04T06:45:27.376Z</time></trkpt><trkpt lat="45.8639667" lon="8.6527"><ele>324.5</ele><time>2026-04-04T06:45:28.376Z</time></trkpt><trkpt lat="45.8640283" lon="8.6526083"><ele>323.66666666666663</ele><time>2026-04-04T06:45:29.377Z</time></trkpt><trkpt lat="45.8640783" lon="8.6525283"><ele>322.8333333333333</ele><time>2026-04-04T06:45:30.376Z</time></trkpt><trkpt lat="45.8641267" lon="8.652455"><ele>322.0</ele><time>2026-04-04T06:45:31.376Z</time></trkpt><trkpt lat="45.8642017" lon="8.65234"><ele>322.0</ele><time>2026-04-04T06:45:33.376Z</time></trkpt><trkpt lat="45.8642433" lon="8.6522367"><ele>322.0</ele><time>2026-04-04T06:45:36.377Z</time></trkpt><trkpt lat="45.8642133" lon="8.6521517"><ele>322.0</ele><time>2026-04-04T06:45:38.376Z</time></trkpt><trkpt lat="45.86413" lon="8.6520683"><ele>322.0</ele><time>2026-04-04T06:45:40.376Z</time></trkpt><trkpt lat="45.8640333" lon="8.6519717"><ele>322.0</ele><time>2026-04-04T06:45:42.376Z</time></trkpt><trkpt lat="45.86397" lon="8.6518583"><ele>321.0</ele><time>2026-04-04T06:45:44.376Z</time></trkpt><trkpt lat="45.8639483" lon="8.6517317"><ele>320.0</ele><time>2026-04-04T06:45:46.376Z</time></trkpt><trkpt lat="45.8639267" lon="8.6515983"><ele>319.0</ele><time>2026-04-04T06:45:48.377Z</time></trkpt><trkpt lat="45.8638833" lon="8.651455"><ele>318.0</ele><time>2026-04-04T06:45:50.376Z</time></trkpt><trkpt lat="45.8638133" lon="8.651355"><ele>317.0</ele><time>2026-04-04T06:45:52.376Z</time></trkpt><trkpt lat="45.8637283" lon="8.65127"><ele>317.0</ele><time>2026-04-04T06:45:54.376Z</time></trkpt><trkpt lat="45.86367" lon="8.6511783"><ele>317.0</ele><time>2026-04-04T06:45:55.376Z</time></trkpt><trkpt lat="45.86363" lon="8.651085"><ele>317.0</ele><time>2026-04-04T06:45:56.377Z</time></trkpt><trkpt lat="45.8635817" lon="8.650975"><ele>317.0</ele><time>2026-04-04T06:45:57.377Z</time></trkpt><trkpt lat="45.86354" lon="8.6508783"><ele>317.0</ele><time>2026-04-04T06:45:58.376Z</time></trkpt><trkpt lat="45.8635033" lon="8.6507417"><ele>317.0</ele><time>2026-04-04T06:46:00.376Z</time></trkpt><trkpt lat="45.8634917" lon="8.6506367"><ele>315.8</ele><time>2026-04-04T06:46:03.376Z</time></trkpt><trkpt lat="45.8635583" lon="8.6505583"><ele>314.6</ele><time>2026-04-04T06:46:05.377Z</time></trkpt><trkpt lat="45.8636467" lon="8.6504767"><ele>313.40000000000003</ele><time>2026-04-04T06:46:07.377Z</time></trkpt><trkpt lat="45.8637567" lon="8.6503733"><ele>312.2</ele><time>2026-04-04T06:46:09.377Z</time></trkpt><trkpt lat="45.8638167" lon="8.650315"><ele>311.0</ele><time>2026-04-04T06:46:10.376Z</time></trkpt><trkpt lat="45.863885" lon="8.650255"><ele>311.0</ele><time>2026-04-04T06:46:11.376Z</time></trkpt><trkpt lat="45.8639567" lon="8.6501967"><ele>311.0</ele><time>2026-04-04T06:46:12.376Z</time></trkpt><trkpt lat="45.86403" lon="8.6501367"><ele>311.0</ele><time>2026-04-04T06:46:13.376Z</time></trkpt><trkpt lat="45.8641033" lon="8.6500717"><ele>311.0</ele><time>2026-04-04T06:46:14.377Z</time></trkpt><trkpt lat="45.8641667" lon="8.65"><ele>311.0</ele><time>2026-04-04T06:46:15.377Z</time></trkpt><trkpt lat="45.8642283" lon="8.64992"><ele>311.0</ele><time>2026-04-04T06:46:16.376Z</time></trkpt><trkpt lat="45.8643033" lon="8.6498417"><ele>309.83333333333337</ele><time>2026-04-04T06:46:17.376Z</time></trkpt><trkpt lat="45.8643733" lon="8.6497717"><ele>308.6666666666667</ele><time>2026-04-04T06:46:18.377Z</time></trkpt><trkpt lat="45.8644383" lon="8.6497133"><ele>307.5</ele><time>2026-04-04T06:46:19.377Z</time></trkpt><trkpt lat="45.8645117" lon="8.649665"><ele>306.3333333333333</ele><time>2026-04-04T06:46:20.376Z</time></trkpt><trkpt lat="45.8645783" lon="8.649625"><ele>305.16666666666663</ele><time>2026-04-04T06:46:21.376Z</time></trkpt><trkpt lat="45.864635" lon="8.6495833"><ele>304.0</ele><time>2026-04-04T06:46:22.376Z</time></trkpt><trkpt lat="45.86474" lon="8.6495333"><ele>304.0</ele><time>2026-04-04T06:46:24.376Z</time></trkpt><trkpt lat="45.8648367" lon="8.6495417"><ele>304.0</ele><time>2026-04-04T06:46:26.376Z</time></trkpt><trkpt lat="45.8649383" lon="8.6495867"><ele>304.0</ele><time>2026-04-04T06:46:28.376Z</time></trkpt><trkpt lat="45.8650417" lon="8.6496267"><ele>304.0</ele><time>2026-04-04T06:46:30.376Z</time></trkpt><trkpt lat="45.8651083" lon="8.6496867"><ele>304.0</ele><time>2026-04-04T06:46:32.377Z</time></trkpt><trkpt lat="45.8651783" lon="8.649755"><ele>301.8333333333333</ele><time>2026-04-04T06:46:34.376Z</time></trkpt><trkpt lat="45.86524" lon="8.6498417"><ele>299.66666666666663</ele><time>2026-04-04T06:46:36.376Z</time></trkpt><trkpt lat="45.8652883" lon="8.649935"><ele>297.5</ele><time>2026-04-04T06:46:38.377Z</time></trkpt><trkpt lat="45.86533" lon="8.650055"><ele>295.3333333333333</ele><time>2026-04-04T06:46:40.376Z</time></trkpt><trkpt lat="45.8653433" lon="8.6501533"><ele>293.1666666666667</ele><time>2026-04-04T06:46:41.376Z</time></trkpt><trkpt lat="45.8653583" lon="8.65026"><ele>291.0</ele><time>2026-04-04T06:46:42.377Z</time></trkpt><trkpt lat="45.8653817" lon="8.6503483"><ele>291.0</ele><time>2026-04-04T06:46:43.376Z</time></trkpt><trkpt lat="45.86542" lon="8.6504933"><ele>291.0</ele><time>2026-04-04T06:46:45.377Z</time></trkpt><trkpt lat="45.8654267" lon="8.6506183"><ele>291.0</ele><time>2026-04-04T06:46:47.376Z</time></trkpt><trkpt lat="45.8654367" lon="8.65078"><ele>291.0</ele><time>2026-04-04T06:46:49.376Z</time></trkpt><trkpt lat="45.8654483" lon="8.6509533"><ele>291.0</ele><time>2026-04-04T06:46:51.377Z</time></trkpt><trkpt lat="45.86545" lon="8.6510483"><ele>290.85714285714283</ele><time>2026-04-04T06:46:52.376Z</time></trkpt><trkpt lat="45.865445" lon="8.6511433"><ele>290.71428571428567</ele><time>2026-04-04T06:46:53.377Z</time></trkpt><trkpt lat="45.86545" lon="8.6512483"><ele>290.57142857142856</ele><time>2026-04-04T06:46:54.376Z</time></trkpt><trkpt lat="45.8654567" lon="8.65134"><ele>290.42857142857144</ele><time>2026-04-04T06:46:55.377Z</time></trkpt><trkpt lat="45.8654683" lon="8.651445"><ele>290.28571428571433</ele><time>2026-04-04T06:46:56.376Z</time></trkpt><trkpt lat="45.8654783" lon="8.6515567"><ele>290.14285714285717</ele><time>2026-04-04T06:46:57.377Z</time></trkpt><trkpt lat="45.86549" lon="8.65168"><ele>290.0</ele><time>2026-04-04T06:46:58.377Z</time></trkpt><trkpt lat="45.8655017" lon="8.6518183"><ele>290.0</ele><time>2026-04-04T06:46:59.376Z</time></trkpt><trkpt lat="45.8655167" lon="8.6519517"><ele>290.0</ele><time>2026-04-04T06:47:00.377Z</time></trkpt><trkpt lat="45.8655317" lon="8.6520717"><ele>290.0</ele><time>2026-04-04T06:47:01.377Z</time></trkpt><trkpt lat="45.865545" lon="8.652175"><ele>290.0</ele><time>2026-04-04T06:47:02.377Z</time></trkpt><trkpt lat="45.8655567" lon="8.6522683"><ele>290.0</ele><time>2026-04-04T06:47:03.377Z</time></trkpt><trkpt lat="45.8655383" lon="8.6523817"><ele>290.0</ele><time>2026-04-04T06:47:05.377Z</time></trkpt><trkpt lat="45.865435" lon="8.65243"><ele>288.8</ele><time>2026-04-04T06:47:07.376Z</time></trkpt><trkpt lat="45.86533" lon="8.6525233"><ele>287.6</ele><time>2026-04-04T06:47:09.376Z</time></trkpt><trkpt lat="45.8652883" lon="8.652615"><ele>286.4</ele><time>2026-04-04T06:47:10.376Z</time></trkpt><trkpt lat="45.8652533" lon="8.65272"><ele>285.2</ele><time>2026-04-04T06:47:11.377Z</time></trkpt><trkpt lat="45.8652333" lon="8.6528267"><ele>284.0</ele><time>2026-04-04T06:47:12.377Z</time></trkpt><trkpt lat="45.865205" lon="8.6529533"><ele>282.59999999999997</ele><time>2026-04-04T06:47:13.376Z</time></trkpt><trkpt lat="45.86518" lon="8.6530783"><ele>281.2</ele><time>2026-04-04T06:47:14.376Z</time></trkpt><trkpt lat="45.865145" lon="8.653215"><ele>279.79999999999995</ele><time>2026-04-04T06:47:15.376Z</time></trkpt><trkpt lat="45.865105" lon="8.65335"><ele>278.4</ele><time>2026-04-04T06:47:16.377Z</time></trkpt><trkpt lat="45.86507" lon="8.653465"><ele>277.0</ele><time>2026-04-04T06:47:17.376Z</time></trkpt><trkpt lat="45.8650517" lon="8.6535783"><ele>280.8333333333333</ele><time>2026-04-04T06:47:18.376Z</time></trkpt><trkpt lat="45.86504" lon="8.65367"><ele>284.66666666666663</ele><time>2026-04-04T06:47:19.376Z</time></trkpt><trkpt lat="45.865025" lon="8.65377"><ele>288.5</ele><time>2026-04-04T06:47:20.376Z</time></trkpt><trkpt lat="45.8650183" lon="8.653875"><ele>292.3333333333333</ele><time>2026-04-04T06:47:21.377Z</time></trkpt><trkpt lat="45.8650283" lon="8.6539983"><ele>296.1666666666667</ele><time>2026-04-04T06:47:22.376Z</time></trkpt><trkpt lat="45.8650417" lon="8.654135"><ele>300.0</ele><time>2026-04-04T06:47:23.376Z</time></trkpt><trkpt lat="45.86506" lon="8.6543033"><ele>301.0</ele><time>2026-04-04T06:47:24.376Z</time></trkpt><trkpt lat="45.865075" lon="8.6544767"><ele>302.0</ele><time>2026-04-04T06:47:25.376Z</time></trkpt><trkpt lat="45.8650933" lon="8.6546233"><ele>303.0</ele><time>2026-04-04T06:47:26.376Z</time></trkpt><trkpt lat="45.865115" lon="8.65475"><ele>304.0</ele><time>2026-04-04T06:47:27.376Z</time></trkpt><trkpt lat="45.86513" lon="8.6548583"><ele>305.0</ele><time>2026-04-04T06:47:28.376Z</time></trkpt><trkpt lat="45.865165" lon="8.6549883"><ele>300.1666666666667</ele><time>2026-04-04T06:47:30.376Z</time></trkpt><trkpt lat="45.8652433" lon="8.6549733"><ele>295.33333333333337</ele><time>2026-04-04T06:47:34.376Z</time></trkpt><trkpt lat="45.86526" lon="8.6548733"><ele>290.5</ele><time>2026-04-04T06:47:36.376Z</time></trkpt><trkpt lat="45.86528" lon="8.654765"><ele>285.6666666666667</ele><time>2026-04-04T06:47:38.376Z</time></trkpt><trkpt lat="45.8653017" lon="8.6546233"><ele>280.8333333333333</ele><time>2026-04-04T06:47:40.377Z</time></trkpt><trkpt lat="45.86531" lon="8.654485"><ele>276.0</ele><time>2026-04-04T06:47:42.376Z</time></trkpt><trkpt lat="45.8653167" lon="8.6543317"><ele>276.0</ele><time>2026-04-04T06:47:44.376Z</time></trkpt><trkpt lat="45.8653217" lon="8.6541783"><ele>276.0</ele><time>2026-04-04T06:47:46.377Z</time></trkpt><trkpt lat="45.8653183" lon="8.6540433"><ele>276.0</ele><time>2026-04-04T06:47:48.376Z</time></trkpt><trkpt lat="45.8653333" lon="8.653945"><ele>276.0</ele><time>2026-04-04T06:47:50.376Z</time></trkpt><trkpt lat="45.865385" lon="8.65387"><ele>276.0</ele><time>2026-04-04T06:47:52.376Z</time></trkpt><trkpt lat="45.8654433" lon="8.6538033"><ele>276.0</ele><time>2026-04-04T06:47:54.376Z</time></trkpt><trkpt lat="45.8655217" lon="8.6537583"><ele>276.0</ele><time>2026-04-04T06:47:56.376Z</time></trkpt><trkpt lat="45.86563" lon="8.65373"><ele>276.0</ele><time>2026-04-04T06:47:58.376Z</time></trkpt><trkpt lat="45.8657333" lon="8.6537117"><ele>276.0</ele><time>2026-04-04T06:48:00.377Z</time></trkpt><trkpt lat="45.8658117" lon="8.6537533"><ele>276.0</ele><time>2026-04-04T06:48:02.377Z</time></trkpt><trkpt lat="45.8658933" lon="8.6538483"><ele>276.0</ele><time>2026-04-04T06:48:04.376Z</time></trkpt><trkpt lat="45.8659583" lon="8.6539333"><ele>272.0</ele><time>2026-04-04T06:48:06.376Z</time></trkpt><trkpt lat="45.8660533" lon="8.6539533"><ele>268.0</ele><time>2026-04-04T06:48:08.376Z</time></trkpt><trkpt lat="45.8661683" lon="8.6539217"><ele>264.0</ele><time>2026-04-04T06:48:10.376Z</time></trkpt><trkpt lat="45.8662667" lon="8.6539083"><ele>260.0</ele><time>2026-04-04T06:48:12.376Z</time></trkpt><trkpt lat="45.8663717" lon="8.6539267"><ele>256.0</ele><time>2026-04-04T06:48:14.376Z</time></trkpt><trkpt lat="45.8664417" lon="8.6539567"><ele>255.99999999999997</ele><time>2026-04-04T06:48:15.376Z</time></trkpt><trkpt lat="45.86655" lon="8.6539833"><ele>256.0</ele><time>2026-04-04T06:48:17.377Z</time></trkpt><trkpt lat="45.8666133" lon="8.6540233"><ele>256.0</ele><time>2026-04-04T06:48:20.377Z</time></trkpt><trkpt lat="45.86658" lon="8.6541533"><ele>256.0</ele><time>2026-04-04T06:48:22.377Z</time></trkpt><trkpt lat="45.8665483" lon="8.654235"><ele>255.99999999999997</ele><time>2026-04-04T06:48:23.377Z</time></trkpt><trkpt lat="45.8665117" lon="8.6543367"><ele>256.0</ele><time>2026-04-04T06:48:24.376Z</time></trkpt><trkpt lat="45.8664683" lon="8.654435"><ele>254.99999999999997</ele><time>2026-04-04T06:48:25.376Z</time></trkpt><trkpt lat="45.8664333" lon="8.6545317"><ele>254.0</ele><time>2026-04-04T06:48:26.376Z</time></trkpt><trkpt lat="45.866405" lon="8.6546217"><ele>253.0</ele><time>2026-04-04T06:48:27.376Z</time></trkpt><trkpt lat="45.866385" lon="8.65472"><ele>252.0</ele><time>2026-04-04T06:48:28.377Z</time></trkpt><trkpt lat="45.8663617" lon="8.6548283"><ele>250.99999999999997</ele><time>2026-04-04T06:48:29.377Z</time></trkpt><trkpt lat="45.8663317" lon="8.6549383"><ele>250.0</ele><time>2026-04-04T06:48:30.377Z</time></trkpt><trkpt lat="45.8662983" lon="8.6550533"><ele>249.99999999999997</ele><time>2026-04-04T06:48:31.377Z</time></trkpt><trkpt lat="45.8662683" lon="8.6551617"><ele>250.0</ele><time>2026-04-04T06:48:32.376Z</time></trkpt><trkpt lat="45.8662367" lon="8.655275"><ele>250.0</ele><time>2026-04-04T06:48:33.376Z</time></trkpt><trkpt lat="45.8662067" lon="8.655395"><ele>250.0</ele><time>2026-04-04T06:48:34.377Z</time></trkpt><trkpt lat="45.8661817" lon="8.6554967"><ele>249.99999999999997</ele><time>2026-04-04T06:48:35.376Z</time></trkpt><trkpt lat="45.866155" lon="8.655595"><ele>250.0</ele><time>2026-04-04T06:48:36.376Z</time></trkpt><trkpt lat="45.8661333" lon="8.655695"><ele>249.99999999999997</ele><time>2026-04-04T06:48:37.377Z</time></trkpt><trkpt lat="45.8661167" lon="8.6557867"><ele>250.0</ele><time>2026-04-04T06:48:38.377Z</time></trkpt><trkpt lat="45.8661" lon="8.6558867"><ele>250.0</ele><time>2026-04-04T06:48:39.377Z</time></trkpt><trkpt lat="45.8660783" lon="8.655995"><ele>250.0</ele><time>2026-04-04T06:48:40.377Z</time></trkpt><trkpt lat="45.8660667" lon="8.6561017"><ele>249.99999999999997</ele><time>2026-04-04T06:48:41.377Z</time></trkpt><trkpt lat="45.8660567" lon="8.6562283"><ele>250.0</ele><time>2026-04-04T06:48:42.376Z</time></trkpt><trkpt lat="45.8660667" lon="8.6563833"><ele>250.0</ele><time>2026-04-04T06:48:43.376Z</time></trkpt><trkpt lat="45.8660767" lon="8.6565417"><ele>250.0</ele><time>2026-04-04T06:48:44.376Z</time></trkpt><trkpt lat="45.86609" lon="8.6567083"><ele>250.0</ele><time>2026-04-04T06:48:45.376Z</time></trkpt><trkpt lat="45.86611" lon="8.65688"><ele>250.0</ele><time>2026-04-04T06:48:46.376Z</time></trkpt><trkpt lat="45.8661233" lon="8.657045"><ele>249.0</ele><time>2026-04-04T06:48:47.376Z</time></trkpt><trkpt lat="45.8661367" lon="8.6571967"><ele>248.0</ele><time>2026-04-04T06:48:48.377Z</time></trkpt><trkpt lat="45.8661417" lon="8.6573517"><ele>247.0</ele><time>2026-04-04T06:48:49.376Z</time></trkpt><trkpt lat="45.866155" lon="8.6575067"><ele>246.0</ele><time>2026-04-04T06:48:50.376Z</time></trkpt><trkpt lat="45.8661833" lon="8.6576983"><ele>243.33333333333331</ele><time>2026-04-04T06:48:51.376Z</time></trkpt><trkpt lat="45.866215" lon="8.65791"><ele>240.66666666666666</ele><time>2026-04-04T06:48:52.376Z</time></trkpt><trkpt lat="45.8662317" lon="8.658135"><ele>238.0</ele><time>2026-04-04T06:48:53.377Z</time></trkpt><trkpt lat="45.8662533" lon="8.6583433"><ele>238.0</ele><time>2026-04-04T06:48:54.377Z</time></trkpt><trkpt lat="45.8662683" lon="8.65853"><ele>238.0</ele><time>2026-04-04T06:48:55.376Z</time></trkpt><trkpt lat="45.8662783" lon="8.6587"><ele>238.0</ele><time>2026-04-04T06:48:56.376Z</time></trkpt><trkpt lat="45.866285" lon="8.6588633"><ele>238.0</ele><time>2026-04-04T06:48:57.376Z</time></trkpt><trkpt lat="45.8662917" lon="8.6590267"><ele>237.60000000000002</ele><time>2026-04-04T06:48:58.376Z</time></trkpt><trkpt lat="45.8662983" lon="8.65917"><ele>237.20000000000002</ele><time>2026-04-04T06:48:59.377Z</time></trkpt><trkpt lat="45.8663" lon="8.6593067"><ele>236.8</ele><time>2026-04-04T06:49:00.376Z</time></trkpt><trkpt lat="45.8662967" lon="8.6594467"><ele>236.4</ele><time>2026-04-04T06:49:01.377Z</time></trkpt><trkpt lat="45.8662817" lon="8.659605"><ele>236.0</ele><time>2026-04-04T06:49:02.377Z</time></trkpt><trkpt lat="45.8662517" lon="8.6597733"><ele>236.0</ele><time>2026-04-04T06:49:03.376Z</time></trkpt><trkpt lat="45.8662267" lon="8.6599333"><ele>236.0</ele><time>2026-04-04T06:49:04.376Z</time></trkpt><trkpt lat="45.8661917" lon="8.6600883"><ele>236.0</ele><time>2026-04-04T06:49:05.376Z</time></trkpt><trkpt lat="45.8661683" lon="8.66025"><ele>236.0</ele><time>2026-04-04T06:49:06.376Z</time></trkpt><trkpt lat="45.8661483" lon="8.6604133"><ele>235.8</ele><time>2026-04-04T06:49:07.376Z</time></trkpt><trkpt lat="45.8661233" lon="8.6605583"><ele>235.60000000000002</ele><time>2026-04-04T06:49:08.376Z</time></trkpt><trkpt lat="45.8661033" lon="8.6606817"><ele>235.4</ele><time>2026-04-04T06:49:09.377Z</time></trkpt><trkpt lat="45.86609" lon="8.6607983"><ele>235.2</ele><time>2026-04-04T06:49:10.376Z</time></trkpt><trkpt lat="45.8660867" lon="8.66093"><ele>235.0</ele><time>2026-04-04T06:49:11.377Z</time></trkpt><trkpt lat="45.8660967" lon="8.661085"><ele>236.0</ele><time>2026-04-04T06:49:12.376Z</time></trkpt><trkpt lat="45.866115" lon="8.6612633"><ele>237.0</ele><time>2026-04-04T06:49:13.377Z</time></trkpt><trkpt lat="45.8661433" lon="8.6614533"><ele>238.0</ele><time>2026-04-04T06:49:14.377Z</time></trkpt><trkpt lat="45.8661817" lon="8.6616417"><ele>239.0</ele><time>2026-04-04T06:49:15.376Z</time></trkpt><trkpt lat="45.8662267" lon="8.661825"><ele>239.0</ele><time>2026-04-04T06:49:16.376Z</time></trkpt><trkpt lat="45.8662867" lon="8.6620083"><ele>239.0</ele><time>2026-04-04T06:49:17.377Z</time></trkpt><trkpt lat="45.8663267" lon="8.6621733"><ele>239.0</ele><time>2026-04-04T06:49:18.377Z</time></trkpt><trkpt lat="45.86635" lon="8.6623433"><ele>239.0</ele><time>2026-04-04T06:49:19.376Z</time></trkpt><trkpt lat="45.8663667" lon="8.6625067"><ele>239.00000000000003</ele><time>2026-04-04T06:49:20.376Z</time></trkpt><trkpt lat="45.8663683" lon="8.6626567"><ele>239.0</ele><time>2026-04-04T06:49:21.377Z</time></trkpt><trkpt lat="45.866365" lon="8.6628017"><ele>239.0</ele><time>2026-04-04T06:49:22.376Z</time></trkpt><trkpt lat="45.8663517" lon="8.6629233"><ele>239.0</ele><time>2026-04-04T06:49:23.377Z</time></trkpt><trkpt lat="45.8663317" lon="8.6630317"><ele>239.00000000000003</ele><time>2026-04-04T06:49:24.376Z</time></trkpt><trkpt lat="45.8663" lon="8.66313"><ele>239.0</ele><time>2026-04-04T06:49:25.376Z</time></trkpt><trkpt lat="45.8662467" lon="8.663255"><ele>239.0</ele><time>2026-04-04T06:49:26.376Z</time></trkpt><trkpt lat="45.86618" lon="8.6633817"><ele>238.99999999999997</ele><time>2026-04-04T06:49:27.376Z</time></trkpt><trkpt lat="45.8661083" lon="8.6635083"><ele>238.99999999999997</ele><time>2026-04-04T06:49:28.376Z</time></trkpt><trkpt lat="45.86604" lon="8.6636183"><ele>239.0</ele><time>2026-04-04T06:49:29.376Z</time></trkpt><trkpt lat="45.8659683" lon="8.66373"><ele>239.0</ele><time>2026-04-04T06:49:30.377Z</time></trkpt><trkpt lat="45.8658783" lon="8.66385"><ele>240.75</ele><time>2026-04-04T06:49:31.376Z</time></trkpt><trkpt lat="45.865775" lon="8.663985"><ele>242.5</ele><time>2026-04-04T06:49:32.377Z</time></trkpt><trkpt lat="45.8656783" lon="8.6641233"><ele>244.25</ele><time>2026-04-04T06:49:33.377Z</time></trkpt><trkpt lat="45.8655817" lon="8.6642633"><ele>246.0</ele><time>2026-04-04T06:49:34.376Z</time></trkpt><trkpt lat="45.86548" lon="8.6644033"><ele>244.0</ele><time>2026-04-04T06:49:35.377Z</time></trkpt><trkpt lat="45.8653867" lon="8.6645467"><ele>242.0</ele><time>2026-04-04T06:49:36.376Z</time></trkpt><trkpt lat="45.8653033" lon="8.66467"><ele>240.0</ele><time>2026-04-04T06:49:37.376Z</time></trkpt><trkpt lat="45.8652183" lon="8.6647583"><ele>238.0</ele><time>2026-04-04T06:49:38.376Z</time></trkpt><trkpt lat="45.8651433" lon="8.6648433"><ele>239.4</ele><time>2026-04-04T06:49:39.376Z</time></trkpt><trkpt lat="45.8650583" lon="8.6649067"><ele>240.8</ele><time>2026-04-04T06:49:40.377Z</time></trkpt><trkpt lat="45.8649767" lon="8.6649683"><ele>242.2</ele><time>2026-04-04T06:49:41.376Z</time></trkpt><trkpt lat="45.8648883" lon="8.66503"><ele>243.6</ele><time>2026-04-04T06:49:42.377Z</time></trkpt><trkpt lat="45.864815" lon="8.6650917"><ele>245.0</ele><time>2026-04-04T06:49:43.377Z</time></trkpt><trkpt lat="45.864745" lon="8.6651667"><ele>245.0</ele><time>2026-04-04T06:49:44.377Z</time></trkpt><trkpt lat="45.8646717" lon="8.6652733"><ele>245.0</ele><time>2026-04-04T06:49:45.376Z</time></trkpt><trkpt lat="45.8646033" lon="8.6653917"><ele>245.0</ele><time>2026-04-04T06:49:46.376Z</time></trkpt><trkpt lat="45.86453" lon="8.6654983"><ele>245.0</ele><time>2026-04-04T06:49:47.377Z</time></trkpt><trkpt lat="45.864445" lon="8.665595"><ele>245.0</ele><time>2026-04-04T06:49:48.376Z</time></trkpt><trkpt lat="45.8643633" lon="8.6656933"><ele>245.8</ele><time>2026-04-04T06:49:49.376Z</time></trkpt><trkpt lat="45.8642917" lon="8.665805"><ele>246.6</ele><time>2026-04-04T06:49:50.376Z</time></trkpt><trkpt lat="45.8642317" lon="8.6659183"><ele>247.39999999999998</ele><time>2026-04-04T06:49:51.376Z</time></trkpt><trkpt lat="45.8641817" lon="8.6660383"><ele>248.2</ele><time>2026-04-04T06:49:52.376Z</time></trkpt><trkpt lat="45.86412" lon="8.6661633"><ele>249.0</ele><time>2026-04-04T06:49:53.376Z</time></trkpt><trkpt lat="45.8640567" lon="8.6662783"><ele>246.25</ele><time>2026-04-04T06:49:54.377Z</time></trkpt><trkpt lat="45.8639717" lon="8.6663933"><ele>243.5</ele><time>2026-04-04T06:49:55.376Z</time></trkpt><trkpt lat="45.8638683" lon="8.66652"><ele>240.75</ele><time>2026-04-04T06:49:56.377Z</time></trkpt><trkpt lat="45.8637583" lon="8.6666683"><ele>238.0</ele><time>2026-04-04T06:49:57.376Z</time></trkpt><trkpt lat="45.8636483" lon="8.6668033"><ele>238.0</ele><time>2026-04-04T06:49:58.377Z</time></trkpt><trkpt lat="45.8635417" lon="8.666925"><ele>238.0</ele><time>2026-04-04T06:49:59.377Z</time></trkpt><trkpt lat="45.8634417" lon="8.667045"><ele>238.0</ele><time>2026-04-04T06:50:00.377Z</time></trkpt><trkpt lat="45.863325" lon="8.6671717"><ele>238.0</ele><time>2026-04-04T06:50:01.377Z</time></trkpt><trkpt lat="45.8632117" lon="8.667295"><ele>238.5</ele><time>2026-04-04T06:50:02.377Z</time></trkpt><trkpt lat="45.8631067" lon="8.6674"><ele>239.0</ele><time>2026-04-04T06:50:03.376Z</time></trkpt><trkpt lat="45.8629983" lon="8.6675117"><ele>239.5</ele><time>2026-04-04T06:50:04.376Z</time></trkpt><trkpt lat="45.8628867" lon="8.6676233"><ele>240.0</ele><time>2026-04-04T06:50:05.376Z</time></trkpt><trkpt lat="45.8627817" lon="8.667725"><ele>239.75</ele><time>2026-04-04T06:50:06.376Z</time></trkpt><trkpt lat="45.8626717" lon="8.6678567"><ele>239.5</ele><time>2026-04-04T06:50:07.377Z</time></trkpt><trkpt lat="45.86256" lon="8.6679983"><ele>239.25</ele><time>2026-04-04T06:50:08.376Z</time></trkpt><trkpt lat="45.8624583" lon="8.6681283"><ele>239.0</ele><time>2026-04-04T06:50:09.376Z</time></trkpt><trkpt lat="45.8623633" lon="8.66824"><ele>239.0</ele><time>2026-04-04T06:50:10.377Z</time></trkpt><trkpt lat="45.862275" lon="8.668345"><ele>239.0</ele><time>2026-04-04T06:50:11.377Z</time></trkpt><trkpt lat="45.862185" lon="8.6684467"><ele>239.0</ele><time>2026-04-04T06:50:12.376Z</time></trkpt><trkpt lat="45.8620917" lon="8.668555"><ele>239.0</ele><time>2026-04-04T06:50:13.376Z</time></trkpt><trkpt lat="45.8620117" lon="8.66866"><ele>239.39999999999998</ele><time>2026-04-04T06:50:14.376Z</time></trkpt><trkpt lat="45.8619333" lon="8.6687483"><ele>239.79999999999998</ele><time>2026-04-04T06:50:15.376Z</time></trkpt><trkpt lat="45.86187" lon="8.668845"><ele>240.20000000000002</ele><time>2026-04-04T06:50:16.376Z</time></trkpt><trkpt lat="45.86182" lon="8.6689433"><ele>240.60000000000002</ele><time>2026-04-04T06:50:17.376Z</time></trkpt><trkpt lat="45.861775" lon="8.6690217"><ele>241.0</ele><time>2026-04-04T06:50:18.377Z</time></trkpt><trkpt lat="45.8617067" lon="8.66915"><ele>241.0</ele><time>2026-04-04T06:50:20.376Z</time></trkpt><trkpt lat="45.8616517" lon="8.6692467"><ele>241.00000000000003</ele><time>2026-04-04T06:50:22.377Z</time></trkpt><trkpt lat="45.8615583" lon="8.6693583"><ele>241.00000000000003</ele><time>2026-04-04T06:50:24.376Z</time></trkpt><trkpt lat="45.8614883" lon="8.6694267"><ele>241.0</ele><time>2026-04-04T06:50:25.376Z</time></trkpt><trkpt lat="45.8614117" lon="8.6694933"><ele>241.0</ele><time>2026-04-04T06:50:26.377Z</time></trkpt><trkpt lat="45.8613283" lon="8.6695617"><ele>240.8</ele><time>2026-04-04T06:50:27.376Z</time></trkpt><trkpt lat="45.8612383" lon="8.6696367"><ele>240.60000000000002</ele><time>2026-04-04T06:50:28.376Z</time></trkpt><trkpt lat="45.861155" lon="8.6697133"><ele>240.4</ele><time>2026-04-04T06:50:29.376Z</time></trkpt><trkpt lat="45.8610817" lon="8.66977"><ele>240.2</ele><time>2026-04-04T06:50:30.376Z</time></trkpt><trkpt lat="45.8610133" lon="8.6698267"><ele>240.0</ele><time>2026-04-04T06:50:31.376Z</time></trkpt><trkpt lat="45.8609383" lon="8.6698883"><ele>240.0</ele><time>2026-04-04T06:50:32.377Z</time></trkpt><trkpt lat="45.86086" lon="8.66996"><ele>240.0</ele><time>2026-04-04T06:50:33.377Z</time></trkpt><trkpt lat="45.860775" lon="8.6700267"><ele>240.0</ele><time>2026-04-04T06:50:34.376Z</time></trkpt><trkpt lat="45.8606933" lon="8.6700933"><ele>240.0</ele><time>2026-04-04T06:50:35.377Z</time></trkpt><trkpt lat="45.8606133" lon="8.670155"><ele>240.0</ele><time>2026-04-04T06:50:36.377Z</time></trkpt><trkpt lat="45.860535" lon="8.670225"><ele>239.0</ele><time>2026-04-04T06:50:37.377Z</time></trkpt><trkpt lat="45.8604517" lon="8.670295"><ele>238.0</ele><time>2026-04-04T06:50:38.376Z</time></trkpt><trkpt lat="45.8603783" lon="8.6703583"><ele>237.0</ele><time>2026-04-04T06:50:39.376Z</time></trkpt><trkpt lat="45.8603117" lon="8.670415"><ele>236.0</ele><time>2026-04-04T06:50:40.376Z</time></trkpt><trkpt lat="45.86025" lon="8.6704683"><ele>235.0</ele><time>2026-04-04T06:50:41.376Z</time></trkpt><trkpt lat="45.86014" lon="8.67053"><ele>235.66666666666666</ele><time>2026-04-04T06:50:43.376Z</time></trkpt><trkpt lat="45.8600433" lon="8.6705367"><ele>236.33333333333331</ele><time>2026-04-04T06:50:45.376Z</time></trkpt><trkpt lat="45.8599733" lon="8.6705217"><ele>237.0</ele><time>2026-04-04T06:50:47.377Z</time></trkpt><trkpt lat="45.859905" lon="8.6705067"><ele>237.66666666666669</ele><time>2026-04-04T06:50:49.376Z</time></trkpt><trkpt lat="45.8598417" lon="8.6705667"><ele>238.33333333333334</ele><time>2026-04-04T06:54:22.377Z</time></trkpt><trkpt lat="45.8598117" lon="8.6706483"><ele>239.0</ele><time>2026-04-04T06:54:24.378Z</time></trkpt><trkpt lat="45.8597467" lon="8.6707733"><ele>239.00000000000003</ele><time>2026-04-04T06:54:26.377Z</time></trkpt><trkpt lat="45.859695" lon="8.6708933"><ele>239.0</ele><time>2026-04-04T06:54:28.378Z</time></trkpt><trkpt lat="45.8596133" lon="8.6710217"><ele>239.0</ele><time>2026-04-04T06:54:30.378Z</time></trkpt><trkpt lat="45.8595517" lon="8.6710783"><ele>239.0</ele><time>2026-04-04T06:54:31.378Z</time></trkpt><trkpt lat="45.8594867" lon="8.671135"><ele>239.00000000000003</ele><time>2026-04-04T06:54:32.378Z</time></trkpt><trkpt lat="45.85942" lon="8.6711967"><ele>239.0</ele><time>2026-04-04T06:54:33.377Z</time></trkpt><trkpt lat="45.8593467" lon="8.6712567"><ele>239.00000000000003</ele><time>2026-04-04T06:54:34.377Z</time></trkpt><trkpt lat="45.8592767" lon="8.6713133"><ele>239.0</ele><time>2026-04-04T06:54:35.377Z</time></trkpt><trkpt lat="45.85921" lon="8.671375"><ele>239.00000000000003</ele><time>2026-04-04T06:54:36.378Z</time></trkpt><trkpt lat="45.8591467" lon="8.6714317"><ele>239.00000000000003</ele><time>2026-04-04T06:54:37.377Z</time></trkpt><trkpt lat="45.8590883" lon="8.6714817"><ele>239.0</ele><time>2026-04-04T06:54:38.377Z</time></trkpt><trkpt lat="45.8590267" lon="8.67153"><ele>239.00000000000003</ele><time>2026-04-04T06:54:39.378Z</time></trkpt><trkpt lat="45.85897" lon="8.6715733"><ele>239.00000000000003</ele><time>2026-04-04T06:54:40.377Z</time></trkpt><trkpt lat="45.85886" lon="8.67167"><ele>239.00000000000003</ele><time>2026-04-04T06:54:42.378Z</time></trkpt><trkpt lat="45.8588017" lon="8.67172"><ele>239.0</ele><time>2026-04-04T06:54:43.377Z</time></trkpt><trkpt lat="45.8587433" lon="8.6717733"><ele>239.0</ele><time>2026-04-04T06:54:44.377Z</time></trkpt><trkpt lat="45.85869" lon="8.671825"><ele>239.0</ele><time>2026-04-04T06:54:45.378Z</time></trkpt><trkpt lat="45.8586" lon="8.671945"><ele>239.00000000000003</ele><time>2026-04-04T06:54:47.378Z</time></trkpt><trkpt lat="45.858505" lon="8.672045"><ele>239.0</ele><time>2026-04-04T06:54:49.377Z</time></trkpt><trkpt lat="45.85844" lon="8.6720683"><ele>238.66666666666669</ele><time>2026-04-04T06:54:50.377Z</time></trkpt><trkpt lat="45.858375" lon="8.67207"><ele>238.33333333333334</ele><time>2026-04-04T06:54:51.377Z</time></trkpt><trkpt lat="45.8582983" lon="8.6720367"><ele>238.0</ele><time>2026-04-04T06:54:52.377Z</time></trkpt><trkpt lat="45.8582317" lon="8.6719917"><ele>237.66666666666669</ele><time>2026-04-04T06:54:53.377Z</time></trkpt><trkpt lat="45.8581617" lon="8.6719483"><ele>237.33333333333334</ele><time>2026-04-04T06:54:54.378Z</time></trkpt><trkpt lat="45.858085" lon="8.6719067"><ele>237.0</ele><time>2026-04-04T06:54:55.378Z</time></trkpt><trkpt lat="45.8580133" lon="8.67188"><ele>238.0</ele><time>2026-04-04T06:54:56.378Z</time></trkpt><trkpt lat="45.857945" lon="8.671865"><ele>239.0</ele><time>2026-04-04T06:54:57.377Z</time></trkpt><trkpt lat="45.85788" lon="8.671845"><ele>240.0</ele><time>2026-04-04T06:54:58.378Z</time></trkpt><trkpt lat="45.85781" lon="8.6718283"><ele>241.0</ele><time>2026-04-04T06:54:59.378Z</time></trkpt><trkpt lat="45.8577467" lon="8.671805"><ele>242.0</ele><time>2026-04-04T06:55:00.377Z</time></trkpt><trkpt lat="45.8576867" lon="8.671775"><ele>243.0</ele><time>2026-04-04T06:55:01.377Z</time></trkpt><trkpt lat="45.857585" lon="8.6716883"><ele>243.0</ele><time>2026-04-04T06:55:03.377Z</time></trkpt><trkpt lat="45.857485" lon="8.67157"><ele>243.0</ele><time>2026-04-04T06:55:05.377Z</time></trkpt><trkpt lat="45.857435" lon="8.6715017"><ele>243.0</ele><time>2026-04-04T06:55:06.378Z</time></trkpt><trkpt lat="45.857375" lon="8.6714267"><ele>243.0</ele><time>2026-04-04T06:55:07.377Z</time></trkpt><trkpt lat="45.8572983" lon="8.6713367"><ele>243.0</ele><time>2026-04-04T06:55:08.377Z</time></trkpt><trkpt lat="45.8572183" lon="8.6712467"><ele>243.0</ele><time>2026-04-04T06:55:09.377Z</time></trkpt><trkpt lat="45.8571333" lon="8.6711733"><ele>243.0</ele><time>2026-04-04T06:55:10.378Z</time></trkpt><trkpt lat="45.857045" lon="8.6710933"><ele>243.0</ele><time>2026-04-04T06:55:11.377Z</time></trkpt><trkpt lat="45.8569633" lon="8.6710183"><ele>243.0</ele><time>2026-04-04T06:55:12.377Z</time></trkpt><trkpt lat="45.856885" lon="8.6709533"><ele>243.0</ele><time>2026-04-04T06:55:13.378Z</time></trkpt><trkpt lat="45.8568167" lon="8.6708917"><ele>242.60000000000002</ele><time>2026-04-04T06:55:14.377Z</time></trkpt><trkpt lat="45.856735" lon="8.6708317"><ele>242.20000000000002</ele><time>2026-04-04T06:55:15.378Z</time></trkpt><trkpt lat="45.8566617" lon="8.6707717"><ele>241.8</ele><time>2026-04-04T06:55:16.377Z</time></trkpt><trkpt lat="45.8565767" lon="8.6706967"><ele>241.4</ele><time>2026-04-04T06:55:17.377Z</time></trkpt><trkpt lat="45.8564933" lon="8.6706283"><ele>241.0</ele><time>2026-04-04T06:55:18.377Z</time></trkpt><trkpt lat="45.8564" lon="8.6705633"><ele>241.0</ele><time>2026-04-04T06:55:19.378Z</time></trkpt><trkpt lat="45.8563133" lon="8.6705017"><ele>241.00000000000003</ele><time>2026-04-04T06:55:20.377Z</time></trkpt><trkpt lat="45.8562267" lon="8.6704583"><ele>241.00000000000003</ele><time>2026-04-04T06:55:21.377Z</time></trkpt><trkpt lat="45.8561417" lon="8.670435"><ele>241.0</ele><time>2026-04-04T06:55:22.378Z</time></trkpt><trkpt lat="45.8560533" lon="8.6704333"><ele>241.0</ele><time>2026-04-04T06:55:23.377Z</time></trkpt><trkpt lat="45.8559667" lon="8.67046"><ele>242.20000000000002</ele><time>2026-04-04T06:55:24.377Z</time></trkpt><trkpt lat="45.85589" lon="8.6705133"><ele>243.40000000000003</ele><time>2026-04-04T06:55:25.377Z</time></trkpt><trkpt lat="45.8558183" lon="8.6705883"><ele>244.6</ele><time>2026-04-04T06:55:26.378Z</time></trkpt><trkpt lat="45.8557467" lon="8.6706867"><ele>245.8</ele><time>2026-04-04T06:55:27.378Z</time></trkpt><trkpt lat="45.85568" lon="8.6708083"><ele>247.0</ele><time>2026-04-04T06:55:28.377Z</time></trkpt><trkpt lat="45.8556133" lon="8.6709333"><ele>247.0</ele><time>2026-04-04T06:55:29.377Z</time></trkpt><trkpt lat="45.85556" lon="8.6710517"><ele>247.0</ele><time>2026-04-04T06:55:30.377Z</time></trkpt><trkpt lat="45.855505" lon="8.671165"><ele>247.0</ele><time>2026-04-04T06:55:31.378Z</time></trkpt><trkpt lat="45.8554583" lon="8.6712833"><ele>247.0</ele><time>2026-04-04T06:55:32.378Z</time></trkpt><trkpt lat="45.8554067" lon="8.6714"><ele>247.0</ele><time>2026-04-04T06:55:33.377Z</time></trkpt><trkpt lat="45.85536" lon="8.6715217"><ele>247.99999999999997</ele><time>2026-04-04T06:55:34.377Z</time></trkpt><trkpt lat="45.8553167" lon="8.6716367"><ele>249.0</ele><time>2026-04-04T06:55:35.377Z</time></trkpt><trkpt lat="45.8552733" lon="8.6717467"><ele>250.0</ele><time>2026-04-04T06:55:36.378Z</time></trkpt><trkpt lat="45.8552333" lon="8.671855"><ele>251.0</ele><time>2026-04-04T06:55:37.377Z</time></trkpt><trkpt lat="45.8551883" lon="8.67196"><ele>251.99999999999997</ele><time>2026-04-04T06:55:38.377Z</time></trkpt><trkpt lat="45.8551483" lon="8.6720567"><ele>253.0</ele><time>2026-04-04T06:55:39.377Z</time></trkpt><trkpt lat="45.8551033" lon="8.67215"><ele>252.99999999999997</ele><time>2026-04-04T06:55:40.377Z</time></trkpt><trkpt lat="45.8550633" lon="8.67224"><ele>253.0</ele><time>2026-04-04T06:55:41.377Z</time></trkpt><trkpt lat="45.8549933" lon="8.672365"><ele>253.0</ele><time>2026-04-04T06:55:43.378Z</time></trkpt><trkpt lat="45.854915" lon="8.6723067"><ele>253.0</ele><time>2026-04-04T06:55:45.377Z</time></trkpt><trkpt lat="45.85487" lon="8.6722333"><ele>252.99999999999997</ele><time>2026-04-04T06:55:46.378Z</time></trkpt><trkpt lat="45.8548183" lon="8.672155"><ele>253.0</ele><time>2026-04-04T06:55:47.377Z</time></trkpt><trkpt lat="45.8547583" lon="8.67209"><ele>252.99999999999997</ele><time>2026-04-04T06:55:48.377Z</time></trkpt><trkpt lat="45.8546933" lon="8.67203"><ele>253.0</ele><time>2026-04-04T06:55:49.377Z</time></trkpt><trkpt lat="45.8546367" lon="8.6719867"><ele>253.0</ele><time>2026-04-04T06:55:50.378Z</time></trkpt><trkpt lat="45.85458" lon="8.6719467"><ele>253.0</ele><time>2026-04-04T06:55:51.378Z</time></trkpt><trkpt lat="45.8545217" lon="8.6719033"><ele>252.99999999999997</ele><time>2026-04-04T06:55:52.377Z</time></trkpt><trkpt lat="45.854465" lon="8.6718633"><ele>253.0</ele><time>2026-04-04T06:55:53.378Z</time></trkpt><trkpt lat="45.85436" lon="8.6717867"><ele>254.66666666666666</ele><time>2026-04-04T06:55:55.378Z</time></trkpt><trkpt lat="45.8542567" lon="8.671745"><ele>256.3333333333333</ele><time>2026-04-04T06:55:57.377Z</time></trkpt><trkpt lat="45.8541583" lon="8.67175"><ele>258.0</ele><time>2026-04-04T06:55:59.377Z</time></trkpt><trkpt lat="45.85408" lon="8.6717717"><ele>259.6666666666667</ele><time>2026-04-04T06:56:01.378Z</time></trkpt><trkpt lat="45.8540133" lon="8.67174"><ele>261.33333333333337</ele><time>2026-04-04T06:56:03.378Z</time></trkpt><trkpt lat="45.853975" lon="8.6716283"><ele>263.0</ele><time>2026-04-04T06:56:05.377Z</time></trkpt><trkpt lat="45.8540317" lon="8.6715433"><ele>263.0</ele><time>2026-04-04T06:56:07.377Z</time></trkpt><trkpt lat="45.854125" lon="8.6714633"><ele>263.0</ele><time>2026-04-04T06:56:09.378Z</time></trkpt><trkpt lat="45.8542183" lon="8.6713567"><ele>263.0</ele><time>2026-04-04T06:56:11.377Z</time></trkpt><trkpt lat="45.8542967" lon="8.6712383"><ele>263.0</ele><time>2026-04-04T06:56:13.378Z</time></trkpt><trkpt lat="45.8543883" lon="8.6711167"><ele>263.1428571428571</ele><time>2026-04-04T06:56:15.378Z</time></trkpt><trkpt lat="45.8544383" lon="8.671045"><ele>263.2857142857143</ele><time>2026-04-04T06:56:16.378Z</time></trkpt><trkpt lat="45.85449" lon="8.67097"><ele>263.42857142857144</ele><time>2026-04-04T06:56:17.377Z</time></trkpt><trkpt lat="45.8545433" lon="8.6708983"><ele>263.57142857142856</ele><time>2026-04-04T06:56:18.377Z</time></trkpt><trkpt lat="45.854595" lon="8.67082"><ele>263.7142857142857</ele><time>2026-04-04T06:56:19.377Z</time></trkpt><trkpt lat="45.8546467" lon="8.6707367"><ele>263.85714285714283</ele><time>2026-04-04T06:56:20.377Z</time></trkpt><trkpt lat="45.8546933" lon="8.6706517"><ele>264.0</ele><time>2026-04-04T06:56:21.377Z</time></trkpt><trkpt lat="45.854735" lon="8.6705667"><ele>264.0</ele><time>2026-04-04T06:56:22.378Z</time></trkpt><trkpt lat="45.8547983" lon="8.6704317"><ele>264.0</ele><time>2026-04-04T06:56:24.378Z</time></trkpt><trkpt lat="45.8548517" lon="8.6702933"><ele>264.0</ele><time>2026-04-04T06:56:26.378Z</time></trkpt><trkpt lat="45.8548883" lon="8.67021"><ele>264.0</ele><time>2026-04-04T06:56:27.378Z</time></trkpt><trkpt lat="45.8549417" lon="8.6700567"><ele>264.0</ele><time>2026-04-04T06:56:29.378Z</time></trkpt><trkpt lat="45.8549733" lon="8.669875"><ele>264.5</ele><time>2026-04-04T06:56:31.378Z</time></trkpt><trkpt lat="45.8549883" lon="8.6697683"><ele>265.0</ele><time>2026-04-04T06:56:32.378Z</time></trkpt><trkpt lat="45.8550133" lon="8.6696567"><ele>265.5</ele><time>2026-04-04T06:56:33.377Z</time></trkpt><trkpt lat="45.8550517" lon="8.6695583"><ele>266.0</ele><time>2026-04-04T06:56:34.377Z</time></trkpt><trkpt lat="45.8550983" lon="8.6694667"><ele>266.5</ele><time>2026-04-04T06:56:35.377Z</time></trkpt><trkpt lat="45.8551633" lon="8.6693683"><ele>267.0</ele><time>2026-04-04T06:56:36.377Z</time></trkpt><trkpt lat="45.8552367" lon="8.669265"><ele>267.0</ele><time>2026-04-04T06:56:37.378Z</time></trkpt><trkpt lat="45.8553033" lon="8.6691617"><ele>267.0</ele><time>2026-04-04T06:56:38.378Z</time></trkpt><trkpt lat="45.8553667" lon="8.66905"><ele>267.0</ele><time>2026-04-04T06:56:39.377Z</time></trkpt><trkpt lat="45.8554167" lon="8.6689317"><ele>267.0</ele><time>2026-04-04T06:56:40.378Z</time></trkpt><trkpt lat="45.8554683" lon="8.6688067"><ele>267.0</ele><time>2026-04-04T06:56:41.377Z</time></trkpt><trkpt lat="45.8555317" lon="8.6686767"><ele>271.0</ele><time>2026-04-04T06:56:42.377Z</time></trkpt><trkpt lat="45.8556017" lon="8.6685417"><ele>275.0</ele><time>2026-04-04T06:56:43.377Z</time></trkpt><trkpt lat="45.8556817" lon="8.668395"><ele>279.0</ele><time>2026-04-04T06:56:44.378Z</time></trkpt><trkpt lat="45.855755" lon="8.668255"><ele>283.0</ele><time>2026-04-04T06:56:45.378Z</time></trkpt><trkpt lat="45.85583" lon="8.6681283"><ele>283.0</ele><time>2026-04-04T06:56:46.377Z</time></trkpt><trkpt lat="45.8558983" lon="8.6680017"><ele>283.0</ele><time>2026-04-04T06:56:47.378Z</time></trkpt><trkpt lat="45.85596" lon="8.6678583"><ele>283.0</ele><time>2026-04-04T06:56:48.377Z</time></trkpt><trkpt lat="45.85603" lon="8.6677267"><ele>283.0</ele><time>2026-04-04T06:56:49.378Z</time></trkpt><trkpt lat="45.856105" lon="8.6676133"><ele>282.0</ele><time>2026-04-04T06:56:50.378Z</time></trkpt><trkpt lat="45.8561733" lon="8.667515"><ele>281.0</ele><time>2026-04-04T06:56:51.377Z</time></trkpt><trkpt lat="45.8562567" lon="8.6674183"><ele>280.0</ele><time>2026-04-04T06:56:52.377Z</time></trkpt><trkpt lat="45.8563317" lon="8.6673283"><ele>279.0</ele><time>2026-04-04T06:56:53.378Z</time></trkpt><trkpt lat="45.856405" lon="8.6672517"><ele>278.0</ele><time>2026-04-04T06:56:54.377Z</time></trkpt><trkpt lat="45.85647" lon="8.6671717"><ele>278.0</ele><time>2026-04-04T06:56:55.378Z</time></trkpt><trkpt lat="45.8565267" lon="8.6670767"><ele>278.0</ele><time>2026-04-04T06:56:56.378Z</time></trkpt><trkpt lat="45.8565833" lon="8.6669683"><ele>278.0</ele><time>2026-04-04T06:56:57.377Z</time></trkpt><trkpt lat="45.856645" lon="8.6668717"><ele>278.0</ele><time>2026-04-04T06:56:58.377Z</time></trkpt><trkpt lat="45.8567067" lon="8.6667733"><ele>278.0</ele><time>2026-04-04T06:56:59.377Z</time></trkpt><trkpt lat="45.8567717" lon="8.6666817"><ele>277.4</ele><time>2026-04-04T06:57:00.378Z</time></trkpt><trkpt lat="45.8568317" lon="8.6665883"><ele>276.8</ele><time>2026-04-04T06:57:01.377Z</time></trkpt><trkpt lat="45.85689" lon="8.6664933"><ele>276.2</ele><time>2026-04-04T06:57:02.377Z</time></trkpt><trkpt lat="45.856955" lon="8.6663783"><ele>275.6</ele><time>2026-04-04T06:57:03.378Z</time></trkpt><trkpt lat="45.857015" lon="8.6662517"><ele>275.0</ele><time>2026-04-04T06:57:04.377Z</time></trkpt><trkpt lat="45.8570667" lon="8.6661483"><ele>277.0</ele><time>2026-04-04T06:57:05.377Z</time></trkpt><trkpt lat="45.8571117" lon="8.666065"><ele>279.0</ele><time>2026-04-04T06:57:06.377Z</time></trkpt><trkpt lat="45.8571783" lon="8.6659883"><ele>281.0</ele><time>2026-04-04T06:57:07.377Z</time></trkpt><trkpt lat="45.857255" lon="8.6659"><ele>283.0</ele><time>2026-04-04T06:57:08.378Z</time></trkpt><trkpt lat="45.8573233" lon="8.6658083"><ele>285.0</ele><time>2026-04-04T06:57:09.377Z</time></trkpt><trkpt lat="45.85738" lon="8.66573"><ele>287.0</ele><time>2026-04-04T06:57:10.378Z</time></trkpt><trkpt lat="45.8574283" lon="8.66565"><ele>287.0</ele><time>2026-04-04T06:57:11.378Z</time></trkpt><trkpt lat="45.85749" lon="8.6655317"><ele>287.0</ele><time>2026-04-04T06:57:13.377Z</time></trkpt><trkpt lat="45.857495" lon="8.6654233"><ele>287.0</ele><time>2026-04-04T06:57:21.378Z</time></trkpt><trkpt lat="45.8574383" lon="8.6653083"><ele>287.0</ele><time>2026-04-04T06:57:24.377Z</time></trkpt><trkpt lat="45.8573617" lon="8.6652267"><ele>287.0</ele><time>2026-04-04T06:57:26.377Z</time></trkpt><trkpt lat="45.8572467" lon="8.6651483"><ele>289.0</ele><time>2026-04-04T06:57:28.377Z</time></trkpt><trkpt lat="45.8571783" lon="8.66511"><ele>291.0</ele><time>2026-04-04T06:57:30.377Z</time></trkpt><trkpt lat="45.857125" lon="8.6650567"><ele>293.0</ele><time>2026-04-04T06:57:33.377Z</time></trkpt><trkpt lat="45.8571683" lon="8.66493"><ele>295.0</ele><time>2026-04-04T06:57:37.377Z</time></trkpt><trkpt lat="45.8572667" lon="8.66484"><ele>297.0</ele><time>2026-04-04T06:57:39.378Z</time></trkpt><trkpt lat="45.8573267" lon="8.6647917"><ele>299.0</ele><time>2026-04-04T06:57:40.377Z</time></trkpt><trkpt lat="45.8573883" lon="8.6647383"><ele>299.0</ele><time>2026-04-04T06:57:41.377Z</time></trkpt><trkpt lat="45.8574983" lon="8.664645"><ele>299.0</ele><time>2026-04-04T06:57:43.377Z</time></trkpt><trkpt lat="45.85755" lon="8.6645917"><ele>299.0</ele><time>2026-04-04T06:57:44.378Z</time></trkpt><trkpt lat="45.8576117" lon="8.6645"><ele>299.0</ele><time>2026-04-04T06:57:45.377Z</time></trkpt><trkpt lat="45.857665" lon="8.6644117"><ele>299.0</ele><time>2026-04-04T06:57:46.378Z</time></trkpt><trkpt lat="45.8577117" lon="8.6643217"><ele>299.0</ele><time>2026-04-04T06:57:47.377Z</time></trkpt><trkpt lat="45.85777" lon="8.6642233"><ele>298.6666666666667</ele><time>2026-04-04T06:57:48.378Z</time></trkpt><trkpt lat="45.857825" lon="8.664135"><ele>298.33333333333337</ele><time>2026-04-04T06:57:49.377Z</time></trkpt><trkpt lat="45.8578817" lon="8.664045"><ele>298.0</ele><time>2026-04-04T06:57:50.377Z</time></trkpt><trkpt lat="45.857935" lon="8.6639483"><ele>297.6666666666667</ele><time>2026-04-04T06:57:51.378Z</time></trkpt><trkpt lat="45.8579867" lon="8.6638317"><ele>297.3333333333333</ele><time>2026-04-04T06:57:52.377Z</time></trkpt><trkpt lat="45.8580383" lon="8.6637233"><ele>297.0</ele><time>2026-04-04T06:57:53.378Z</time></trkpt><trkpt lat="45.8580867" lon="8.6636233"><ele>298.2</ele><time>2026-04-04T06:57:54.377Z</time></trkpt><trkpt lat="45.8581467" lon="8.6635133"><ele>299.4</ele><time>2026-04-04T06:57:55.377Z</time></trkpt><trkpt lat="45.8582083" lon="8.6634133"><ele>300.6</ele><time>2026-04-04T06:57:56.377Z</time></trkpt><trkpt lat="45.858275" lon="8.6633217"><ele>301.8</ele><time>2026-04-04T06:57:57.378Z</time></trkpt><trkpt lat="45.8583367" lon="8.66323"><ele>303.0</ele><time>2026-04-04T06:57:58.377Z</time></trkpt><trkpt lat="45.8584033" lon="8.6631233"><ele>302.8333333333333</ele><time>2026-04-04T06:57:59.377Z</time></trkpt><trkpt lat="45.85846" lon="8.6630183"><ele>302.6666666666667</ele><time>2026-04-04T06:58:00.378Z</time></trkpt><trkpt lat="45.8585117" lon="8.66291"><ele>302.5</ele><time>2026-04-04T06:58:01.378Z</time></trkpt><trkpt lat="45.8585567" lon="8.6628133"><ele>302.33333333333337</ele><time>2026-04-04T06:58:02.378Z</time></trkpt><trkpt lat="45.8585983" lon="8.6627267"><ele>302.1666666666667</ele><time>2026-04-04T06:58:03.378Z</time></trkpt><trkpt lat="45.85864" lon="8.6626433"><ele>302.0</ele><time>2026-04-04T06:58:04.377Z</time></trkpt><trkpt lat="45.85868" lon="8.6625733"><ele>302.0</ele><time>2026-04-04T06:58:05.377Z</time></trkpt><trkpt lat="45.8587717" lon="8.6625117"><ele>302.0</ele><time>2026-04-04T06:58:07.378Z</time></trkpt><trkpt lat="45.8588633" lon="8.66247"><ele>302.0</ele><time>2026-04-04T06:58:09.378Z</time></trkpt><trkpt lat="45.8589233" lon="8.6624083"><ele>302.0</ele><time>2026-04-04T06:58:10.378Z</time></trkpt><trkpt lat="45.85899" lon="8.6623267"><ele>302.0</ele><time>2026-04-04T06:58:11.377Z</time></trkpt><trkpt lat="45.859065" lon="8.662215"><ele>302.0</ele><time>2026-04-04T06:58:12.377Z</time></trkpt><trkpt lat="45.85915" lon="8.66209"><ele>302.0</ele><time>2026-04-04T06:58:13.378Z</time></trkpt><trkpt lat="45.859225" lon="8.6619833"><ele>302.0</ele><time>2026-04-04T06:58:14.378Z</time></trkpt><trkpt lat="45.8592983" lon="8.661885"><ele>302.0</ele><time>2026-04-04T06:58:15.377Z</time></trkpt><trkpt lat="45.859375" lon="8.6617817"><ele>302.0</ele><time>2026-04-04T06:58:16.378Z</time></trkpt><trkpt lat="45.8594617" lon="8.6616783"><ele>303.6</ele><time>2026-04-04T06:58:17.377Z</time></trkpt><trkpt lat="45.8595483" lon="8.66158"><ele>305.2</ele><time>2026-04-04T06:58:18.378Z</time></trkpt><trkpt lat="45.8596317" lon="8.6614767"><ele>306.8</ele><time>2026-04-04T06:58:19.377Z</time></trkpt><trkpt lat="45.8597217" lon="8.6613817"><ele>308.4</ele><time>2026-04-04T06:58:20.377Z</time></trkpt><trkpt lat="45.8598183" lon="8.6612917"><ele>310.0</ele><time>2026-04-04T06:58:21.378Z</time></trkpt><trkpt lat="45.8599317" lon="8.661205"><ele>311.75</ele><time>2026-04-04T06:58:22.378Z</time></trkpt><trkpt lat="45.8600383" lon="8.661115"><ele>313.5</ele><time>2026-04-04T06:58:23.377Z</time></trkpt><trkpt lat="45.8601383" lon="8.6610333"><ele>315.25</ele><time>2026-04-04T06:58:24.377Z</time></trkpt><trkpt lat="45.8602333" lon="8.660945"><ele>317.0</ele><time>2026-04-04T06:58:25.378Z</time></trkpt><trkpt lat="45.86033" lon="8.660865"><ele>317.0</ele><time>2026-04-04T06:58:26.377Z</time></trkpt><trkpt lat="45.8604167" lon="8.6607983"><ele>317.0</ele><time>2026-04-04T06:58:27.377Z</time></trkpt><trkpt lat="45.8604933" lon="8.6607483"><ele>317.0</ele><time>2026-04-04T06:58:28.377Z</time></trkpt><trkpt lat="45.8605517" lon="8.6607083"><ele>317.0</ele><time>2026-04-04T06:58:29.377Z</time></trkpt><trkpt lat="45.8606433" lon="8.6606233"><ele>317.0</ele><time>2026-04-04T06:58:31.378Z</time></trkpt><trkpt lat="45.8607283" lon="8.66054"><ele>317.0</ele><time>2026-04-04T06:58:33.377Z</time></trkpt><trkpt lat="45.8608267" lon="8.6604783"><ele>317.0</ele><time>2026-04-04T06:58:35.377Z</time></trkpt><trkpt lat="45.86093" lon="8.66042"><ele>317.0</ele><time>2026-04-04T06:58:37.378Z</time></trkpt><trkpt lat="45.8610467" lon="8.6603583"><ele>317.0</ele><time>2026-04-04T06:58:39.377Z</time></trkpt><trkpt lat="45.8611683" lon="8.6603133"><ele>317.6</ele><time>2026-04-04T06:58:41.378Z</time></trkpt><trkpt lat="45.861235" lon="8.66031"><ele>318.2</ele><time>2026-04-04T06:58:42.377Z</time></trkpt><trkpt lat="45.861355" lon="8.660295"><ele>318.8</ele><time>2026-04-04T06:58:44.377Z</time></trkpt><trkpt lat="45.8614633" lon="8.66026"><ele>319.4</ele><time>2026-04-04T06:58:46.378Z</time></trkpt><trkpt lat="45.8615533" lon="8.66022"><ele>320.0</ele><time>2026-04-04T06:58:48.378Z</time></trkpt><trkpt lat="45.8616117" lon="8.6601733"><ele>321.33333333333337</ele><time>2026-04-04T06:58:50.378Z</time></trkpt><trkpt lat="45.8616133" lon="8.6600767"><ele>322.6666666666667</ele><time>2026-04-04T06:58:53.378Z</time></trkpt><trkpt lat="45.8616833" lon="8.6600183"><ele>324.0</ele><time>2026-04-04T06:58:57.377Z</time></trkpt><trkpt lat="45.8617533" lon="8.66004"><ele>325.3333333333333</ele><time>2026-04-04T06:58:58.377Z</time></trkpt><trkpt lat="45.8618417" lon="8.660065"><ele>326.66666666666663</ele><time>2026-04-04T06:58:59.378Z</time></trkpt><trkpt lat="45.861915" lon="8.6600833"><ele>328.0</ele><time>2026-04-04T06:59:00.377Z</time></trkpt><trkpt lat="45.8619867" lon="8.660075"><ele>328.0</ele><time>2026-04-04T06:59:01.378Z</time></trkpt><trkpt lat="45.8620567" lon="8.6600667"><ele>328.0</ele><time>2026-04-04T06:59:02.378Z</time></trkpt><trkpt lat="45.8621267" lon="8.6600583"><ele>328.0</ele><time>2026-04-04T06:59:03.377Z</time></trkpt><trkpt lat="45.8622033" lon="8.6600433"><ele>328.0</ele><time>2026-04-04T06:59:04.377Z</time></trkpt><trkpt lat="45.8622767" lon="8.6600133"><ele>328.0</ele><time>2026-04-04T06:59:05.378Z</time></trkpt><trkpt lat="45.86236" lon="8.659975"><ele>328.0</ele><time>2026-04-04T06:59:06.378Z</time></trkpt><trkpt lat="45.86243" lon="8.6599333"><ele>328.0</ele><time>2026-04-04T06:59:07.377Z</time></trkpt><trkpt lat="45.8625017" lon="8.659895"><ele>328.0</ele><time>2026-04-04T06:59:08.377Z</time></trkpt><trkpt lat="45.8625683" lon="8.6598567"><ele>328.0</ele><time>2026-04-04T06:59:09.378Z</time></trkpt><trkpt lat="45.8626483" lon="8.6598033"><ele>328.0</ele><time>2026-04-04T06:59:10.378Z</time></trkpt><trkpt lat="45.86274" lon="8.65975"><ele>328.0</ele><time>2026-04-04T06:59:11.378Z</time></trkpt><trkpt lat="45.8628217" lon="8.659705"><ele>328.0</ele><time>2026-04-04T06:59:12.377Z</time></trkpt><trkpt lat="45.862885" lon="8.659675"><ele>327.16666666666663</ele><time>2026-04-04T06:59:13.377Z</time></trkpt><trkpt lat="45.862975" lon="8.659625"><ele>326.3333333333333</ele><time>2026-04-04T06:59:15.377Z</time></trkpt><trkpt lat="45.86305" lon="8.6595917"><ele>325.5</ele><time>2026-04-04T06:59:17.377Z</time></trkpt><trkpt lat="45.8631467" lon="8.659565"><ele>324.6666666666667</ele><time>2026-04-04T06:59:20.377Z</time></trkpt><trkpt lat="45.863225" lon="8.6595733"><ele>323.83333333333337</ele><time>2026-04-04T06:59:22.377Z</time></trkpt><trkpt lat="45.8633" lon="8.65958"><ele>323.0</ele><time>2026-04-04T06:59:25.377Z</time></trkpt><trkpt lat="45.863365" lon="8.6596433"><ele>323.0</ele><time>2026-04-04T06:59:30.377Z</time></trkpt><trkpt lat="45.863365" lon="8.6597383"><ele>323.0</ele><time>2026-04-04T06:59:33.378Z</time></trkpt><trkpt lat="45.8633467" lon="8.6598717"><ele>323.0</ele><time>2026-04-04T06:59:36.378Z</time></trkpt><trkpt lat="45.8633533" lon="8.6599617"><ele>323.0</ele><time>2026-04-04T06:59:38.377Z</time></trkpt><trkpt lat="45.8634367" lon="8.6599833"><ele>323.0</ele><time>2026-04-04T06:59:41.377Z</time></trkpt><trkpt lat="45.863525" lon="8.6599117"><ele>323.0</ele><time>2026-04-04T06:59:43.377Z</time></trkpt><trkpt lat="45.8635783" lon="8.6598567"><ele>320.79999999999995</ele><time>2026-04-04T06:59:44.378Z</time></trkpt><trkpt lat="45.8636467" lon="8.6597867"><ele>318.59999999999997</ele><time>2026-04-04T06:59:45.377Z</time></trkpt><trkpt lat="45.8637317" lon="8.65971"><ele>316.4</ele><time>2026-04-04T06:59:46.377Z</time></trkpt><trkpt lat="45.8638217" lon="8.6596283"><ele>314.2</ele><time>2026-04-04T06:59:47.378Z</time></trkpt><trkpt lat="45.8639017" lon="8.6595533"><ele>312.0</ele><time>2026-04-04T06:59:48.377Z</time></trkpt><trkpt lat="45.8639767" lon="8.6594717"><ele>313.0</ele><time>2026-04-04T06:59:49.378Z</time></trkpt><trkpt lat="45.8640417" lon="8.659395"><ele>314.0</ele><time>2026-04-04T06:59:50.377Z</time></trkpt><trkpt lat="45.8640867" lon="8.6593033"><ele>315.0</ele><time>2026-04-04T06:59:51.377Z</time></trkpt><trkpt lat="45.8641333" lon="8.6592"><ele>316.0</ele><time>2026-04-04T06:59:52.377Z</time></trkpt><trkpt lat="45.86417" lon="8.6590917"><ele>317.0</ele><time>2026-04-04T06:59:53.378Z</time></trkpt><trkpt lat="45.8641933" lon="8.6589933"><ele>318.0</ele><time>2026-04-04T06:59:54.378Z</time></trkpt><trkpt lat="45.8642167" lon="8.6589"><ele>318.0</ele><time>2026-04-04T06:59:55.378Z</time></trkpt><trkpt lat="45.864255" lon="8.6587283"><ele>318.0</ele><time>2026-04-04T06:59:57.378Z</time></trkpt><trkpt lat="45.8642867" lon="8.6586383"><ele>318.0</ele><time>2026-04-04T06:59:58.377Z</time></trkpt><trkpt lat="45.8643217" lon="8.658545"><ele>318.0</ele><time>2026-04-04T06:59:59.378Z</time></trkpt><trkpt lat="45.864355" lon="8.6584533"><ele>318.0</ele><time>2026-04-04T07:00:00.378Z</time></trkpt><trkpt lat="45.864395" lon="8.6583617"><ele>318.0</ele><time>2026-04-04T07:00:01.377Z</time></trkpt><trkpt lat="45.8644333" lon="8.6582617"><ele>314.8</ele><time>2026-04-04T07:00:02.378Z</time></trkpt><trkpt lat="45.8644767" lon="8.65817"><ele>311.6</ele><time>2026-04-04T07:00:03.378Z</time></trkpt><trkpt lat="45.864525" lon="8.6580933"><ele>308.4</ele><time>2026-04-04T07:00:04.377Z</time></trkpt><trkpt lat="45.86457" lon="8.658025"><ele>305.2</ele><time>2026-04-04T07:00:05.377Z</time></trkpt><trkpt lat="45.864655" lon="8.6579233"><ele>302.0</ele><time>2026-04-04T07:00:07.377Z</time></trkpt><trkpt lat="45.8647483" lon="8.657805"><ele>302.2</ele><time>2026-04-04T07:00:09.377Z</time></trkpt><trkpt lat="45.864795" lon="8.6577367"><ele>302.4</ele><time>2026-04-04T07:00:10.378Z</time></trkpt><trkpt lat="45.8648817" lon="8.657595"><ele>302.6</ele><time>2026-04-04T07:00:12.377Z</time></trkpt><trkpt lat="45.8649583" lon="8.6574433"><ele>302.8</ele><time>2026-04-04T07:00:14.378Z</time></trkpt><trkpt lat="45.865" lon="8.6573383"><ele>303.0</ele><time>2026-04-04T07:00:15.377Z</time></trkpt><trkpt lat="45.8650517" lon="8.6572"><ele>303.0</ele><time>2026-04-04T07:00:16.378Z</time></trkpt><trkpt lat="45.8651083" lon="8.6570517"><ele>303.0</ele><time>2026-04-04T07:00:17.378Z</time></trkpt><trkpt lat="45.8651517" lon="8.656925"><ele>303.0</ele><time>2026-04-04T07:00:18.378Z</time></trkpt><trkpt lat="45.8651917" lon="8.6567983"><ele>303.0</ele><time>2026-04-04T07:00:19.378Z</time></trkpt><trkpt lat="45.8652183" lon="8.6566833"><ele>303.0</ele><time>2026-04-04T07:00:20.378Z</time></trkpt><trkpt lat="45.8652417" lon="8.656525"><ele>295.0</ele><time>2026-04-04T07:00:21.378Z</time></trkpt><trkpt lat="45.8652617" lon="8.6563317"><ele>287.0</ele><time>2026-04-04T07:00:22.377Z</time></trkpt><trkpt lat="45.8652817" lon="8.6561433"><ele>279.0</ele><time>2026-04-04T07:00:23.377Z</time></trkpt><trkpt lat="45.865285" lon="8.6559517"><ele>271.0</ele><time>2026-04-04T07:00:24.377Z</time></trkpt><trkpt lat="45.8652767" lon="8.6557783"><ele>271.0</ele><time>2026-04-04T07:00:25.378Z</time></trkpt><trkpt lat="45.8652717" lon="8.6556283"><ele>271.0</ele><time>2026-04-04T07:00:26.378Z</time></trkpt><trkpt lat="45.8652717" lon="8.655465"><ele>271.0</ele><time>2026-04-04T07:00:27.377Z</time></trkpt><trkpt lat="45.86527" lon="8.65531"><ele>271.0</ele><time>2026-04-04T07:00:28.377Z</time></trkpt><trkpt lat="45.86526" lon="8.6551817"><ele>271.0</ele><time>2026-04-04T07:00:29.378Z</time></trkpt><trkpt lat="45.8652583" lon="8.65507"><ele>271.5</ele><time>2026-04-04T07:00:30.378Z</time></trkpt><trkpt lat="45.86526" lon="8.6549633"><ele>272.0</ele><time>2026-04-04T07:00:31.377Z</time></trkpt><trkpt lat="45.8652633" lon="8.65486"><ele>272.5</ele><time>2026-04-04T07:00:32.377Z</time></trkpt><trkpt lat="45.8652767" lon="8.6547483"><ele>273.0</ele><time>2026-04-04T07:00:33.377Z</time></trkpt><trkpt lat="45.865285" lon="8.6546283"><ele>273.5</ele><time>2026-04-04T07:00:34.377Z</time></trkpt><trkpt lat="45.8652917" lon="8.6545133"><ele>274.0</ele><time>2026-04-04T07:00:35.377Z</time></trkpt><trkpt lat="45.8652933" lon="8.6544017"><ele>274.3333333333333</ele><time>2026-04-04T07:00:36.378Z</time></trkpt><trkpt lat="45.8652917" lon="8.654295"><ele>274.66666666666663</ele><time>2026-04-04T07:00:37.377Z</time></trkpt><trkpt lat="45.8652917" lon="8.65419"><ele>275.0</ele><time>2026-04-04T07:00:38.377Z</time></trkpt><trkpt lat="45.865275" lon="8.6540283"><ele>275.3333333333333</ele><time>2026-04-04T07:00:40.377Z</time></trkpt><trkpt lat="45.8652933" lon="8.6539267"><ele>275.6666666666667</ele><time>2026-04-04T07:00:42.377Z</time></trkpt><trkpt lat="45.8653567" lon="8.653855"><ele>276.0</ele><time>2026-04-04T07:00:44.377Z</time></trkpt><trkpt lat="45.8654317" lon="8.653785"><ele>276.0</ele><time>2026-04-04T07:00:46.377Z</time></trkpt><trkpt lat="45.86552" lon="8.6537517"><ele>276.0</ele><time>2026-04-04T07:00:48.378Z</time></trkpt><trkpt lat="45.8656267" lon="8.653735"><ele>276.0</ele><time>2026-04-04T07:00:50.378Z</time></trkpt><trkpt lat="45.865725" lon="8.653715"><ele>276.0</ele><time>2026-04-04T07:00:52.378Z</time></trkpt><trkpt lat="45.8658267" lon="8.6537433"><ele>276.0</ele><time>2026-04-04T07:00:54.377Z</time></trkpt><trkpt lat="45.8659117" lon="8.65384"><ele>272.0</ele><time>2026-04-04T07:00:56.377Z</time></trkpt><trkpt lat="45.8659833" lon="8.653945"><ele>268.0</ele><time>2026-04-04T07:00:58.377Z</time></trkpt><trkpt lat="45.8660617" lon="8.653975"><ele>264.0</ele><time>2026-04-04T07:01:00.378Z</time></trkpt><trkpt lat="45.86617" lon="8.6539483"><ele>260.0</ele><time>2026-04-04T07:01:02.377Z</time></trkpt><trkpt lat="45.8662783" lon="8.6539217"><ele>256.0</ele><time>2026-04-04T07:01:04.377Z</time></trkpt><trkpt lat="45.866405" lon="8.6539367"><ele>255.99999999999997</ele><time>2026-04-04T07:01:06.378Z</time></trkpt><trkpt lat="45.8664717" lon="8.65396"><ele>256.0</ele><time>2026-04-04T07:01:07.377Z</time></trkpt><trkpt lat="45.8665767" lon="8.6539783"><ele>256.0</ele><time>2026-04-04T07:01:09.377Z</time></trkpt><trkpt lat="45.86663" lon="8.6540883"><ele>256.0</ele><time>2026-04-04T07:01:12.377Z</time></trkpt><trkpt lat="45.8665933" lon="8.6541767"><ele>255.99999999999997</ele><time>2026-04-04T07:01:13.377Z</time></trkpt><trkpt lat="45.86655" lon="8.6542783"><ele>256.0</ele><time>2026-04-04T07:01:14.377Z</time></trkpt><trkpt lat="45.8665083" lon="8.654365"><ele>254.99999999999997</ele><time>2026-04-04T07:01:15.378Z</time></trkpt><trkpt lat="45.8664717" lon="8.6545117"><ele>254.0</ele><time>2026-04-04T07:01:17.377Z</time></trkpt><trkpt lat="45.86654" lon="8.6545633"><ele>253.0</ele><time>2026-04-04T07:01:20.377Z</time></trkpt><trkpt lat="45.86666" lon="8.6545667"><ele>252.0</ele><time>2026-04-04T07:01:22.377Z</time></trkpt><trkpt lat="45.8667267" lon="8.65457"><ele>250.99999999999997</ele><time>2026-04-04T07:01:23.378Z</time></trkpt><trkpt lat="45.8667917" lon="8.65457"><ele>250.0</ele><time>2026-04-04T07:01:24.377Z</time></trkpt><trkpt lat="45.86691" lon="8.654565"><ele>248.5</ele><time>2026-04-04T07:01:26.377Z</time></trkpt><trkpt lat="45.8670317" lon="8.6545317"><ele>247.0</ele><time>2026-04-04T07:01:28.377Z</time></trkpt><trkpt lat="45.8671517" lon="8.6544933"><ele>245.5</ele><time>2026-04-04T07:01:30.377Z</time></trkpt><trkpt lat="45.8672683" lon="8.654465"><ele>244.0</ele><time>2026-04-04T07:01:32.377Z</time></trkpt><trkpt lat="45.8673967" lon="8.6544367"><ele>243.99999999999997</ele><time>2026-04-04T07:01:34.378Z</time></trkpt><trkpt lat="45.8674617" lon="8.65442"><ele>244.0</ele><time>2026-04-04T07:01:35.377Z</time></trkpt><trkpt lat="45.8675267" lon="8.6544133"><ele>243.99999999999997</ele><time>2026-04-04T07:01:36.377Z</time></trkpt><trkpt lat="45.8675933" lon="8.6544183"><ele>243.99999999999997</ele><time>2026-04-04T07:01:37.377Z</time></trkpt><trkpt lat="45.8676633" lon="8.654435"><ele>244.0</ele><time>2026-04-04T07:01:38.378Z</time></trkpt><trkpt lat="45.867725" lon="8.6544617"><ele>243.99999999999997</ele><time>2026-04-04T07:01:39.377Z</time></trkpt><trkpt lat="45.8677883" lon="8.654475"><ele>243.99999999999997</ele><time>2026-04-04T07:01:40.378Z</time></trkpt><trkpt lat="45.8679117" lon="8.6544383"><ele>242.0</ele><time>2026-04-04T07:01:42.377Z</time></trkpt><trkpt lat="45.8679783" lon="8.6543717"><ele>239.99999999999997</ele><time>2026-04-04T07:01:43.377Z</time></trkpt><trkpt lat="45.8680583" lon="8.6542717"><ele>237.99999999999997</ele><time>2026-04-04T07:01:44.378Z</time></trkpt><trkpt lat="45.86814" lon="8.6541767"><ele>236.0</ele><time>2026-04-04T07:01:45.378Z</time></trkpt><trkpt lat="45.868225" lon="8.65407"><ele>234.0</ele><time>2026-04-04T07:01:46.377Z</time></trkpt><trkpt lat="45.8683117" lon="8.65396"><ele>234.0</ele><time>2026-04-04T07:01:47.377Z</time></trkpt><trkpt lat="45.8683933" lon="8.65386"><ele>233.99999999999997</ele><time>2026-04-04T07:01:48.377Z</time></trkpt><trkpt lat="45.8684733" lon="8.65376"><ele>233.99999999999997</ele><time>2026-04-04T07:01:49.377Z</time></trkpt><trkpt lat="45.8685467" lon="8.6536633"><ele>234.0</ele><time>2026-04-04T07:01:50.377Z</time></trkpt><trkpt lat="45.8686183" lon="8.6535783"><ele>234.0</ele><time>2026-04-04T07:01:51.378Z</time></trkpt><trkpt lat="45.8686783" lon="8.6534917"><ele>233.66666666666666</ele><time>2026-04-04T07:01:52.377Z</time></trkpt><trkpt lat="45.8687383" lon="8.6534167"><ele>233.33333333333331</ele><time>2026-04-04T07:01:53.378Z</time></trkpt><trkpt lat="45.8687967" lon="8.6533467"><ele>233.0</ele><time>2026-04-04T07:01:54.378Z</time></trkpt><trkpt lat="45.86885" lon="8.6532833"><ele>232.66666666666666</ele><time>2026-04-04T07:01:55.377Z</time></trkpt><trkpt lat="45.868905" lon="8.6532167"><ele>232.33333333333331</ele><time>2026-04-04T07:01:56.378Z</time></trkpt><trkpt lat="45.8689617" lon="8.653165"><ele>232.0</ele><time>2026-04-04T07:01:57.377Z</time></trkpt><trkpt lat="45.8690767" lon="8.6531233"><ele>232.0</ele><time>2026-04-04T07:01:59.377Z</time></trkpt><trkpt lat="45.8691967" lon="8.6531833"><ele>232.0</ele><time>2026-04-04T07:02:01.378Z</time></trkpt><trkpt lat="45.8692617" lon="8.653255"><ele>232.0</ele><time>2026-04-04T07:02:02.378Z</time></trkpt><trkpt lat="45.8693317" lon="8.65333"><ele>232.0</ele><time>2026-04-04T07:02:03.378Z</time></trkpt><trkpt lat="45.8693917" lon="8.653405"><ele>232.0</ele><time>2026-04-04T07:02:04.377Z</time></trkpt><trkpt lat="45.869445" lon="8.6534817"><ele>231.99999999999997</ele><time>2026-04-04T07:02:05.378Z</time></trkpt><trkpt lat="45.869505" lon="8.653545"><ele>232.0</ele><time>2026-04-04T07:02:06.377Z</time></trkpt><trkpt lat="45.8695717" lon="8.6536183"><ele>232.0</ele><time>2026-04-04T07:02:07.377Z</time></trkpt><trkpt lat="45.8696333" lon="8.6536933"><ele>232.0</ele><time>2026-04-04T07:02:08.377Z</time></trkpt><trkpt lat="45.8697017" lon="8.6537633"><ele>231.99999999999997</ele><time>2026-04-04T07:02:09.378Z</time></trkpt><trkpt lat="45.8697717" lon="8.6538283"><ele>232.0</ele><time>2026-04-04T07:02:10.377Z</time></trkpt><trkpt lat="45.869855" lon="8.6538917"><ele>232.0</ele><time>2026-04-04T07:02:11.377Z</time></trkpt><trkpt lat="45.869945" lon="8.65395"><ele>232.0</ele><time>2026-04-04T07:02:12.377Z</time></trkpt><trkpt lat="45.8700333" lon="8.653995"><ele>232.0</ele><time>2026-04-04T07:02:13.378Z</time></trkpt><trkpt lat="45.8701283" lon="8.6540283"><ele>232.0</ele><time>2026-04-04T07:02:14.378Z</time></trkpt><trkpt lat="45.8702167" lon="8.654065"><ele>232.0</ele><time>2026-04-04T07:02:15.377Z</time></trkpt><trkpt lat="45.8702967" lon="8.6540933"><ele>231.99999999999997</ele><time>2026-04-04T07:02:16.378Z</time></trkpt><trkpt lat="45.8703683" lon="8.65412"><ele>232.0</ele><time>2026-04-04T07:02:17.377Z</time></trkpt><trkpt lat="45.8704483" lon="8.6541383"><ele>232.0</ele><time>2026-04-04T07:02:18.377Z</time></trkpt><trkpt lat="45.870535" lon="8.6541483"><ele>232.0</ele><time>2026-04-04T07:02:19.377Z</time></trkpt><trkpt lat="45.8706183" lon="8.65415"><ele>231.99999999999997</ele><time>2026-04-04T07:02:20.377Z</time></trkpt><trkpt lat="45.8706967" lon="8.6541367"><ele>232.0</ele><time>2026-04-04T07:02:21.377Z</time></trkpt><trkpt lat="45.8707817" lon="8.6541283"><ele>231.99999999999997</ele><time>2026-04-04T07:02:22.377Z</time></trkpt><trkpt lat="45.8708667" lon="8.6541167"><ele>232.0</ele><time>2026-04-04T07:02:23.378Z</time></trkpt><trkpt lat="45.87095" lon="8.6540933"><ele>232.0</ele><time>2026-04-04T07:02:24.377Z</time></trkpt><trkpt lat="45.87103" lon="8.6540883"><ele>232.0</ele><time>2026-04-04T07:02:25.377Z</time></trkpt><trkpt lat="45.8711183" lon="8.654105"><ele>231.99999999999997</ele><time>2026-04-04T07:02:26.377Z</time></trkpt><trkpt lat="45.8712133" lon="8.6541233"><ele>232.0</ele><time>2026-04-04T07:02:27.377Z</time></trkpt><trkpt lat="45.8713167" lon="8.654145"><ele>231.6</ele><time>2026-04-04T07:02:28.378Z</time></trkpt><trkpt lat="45.8714133" lon="8.6541717"><ele>231.2</ele><time>2026-04-04T07:02:29.378Z</time></trkpt><trkpt lat="45.8715167" lon="8.6541967"><ele>230.8</ele><time>2026-04-04T07:02:30.378Z</time></trkpt><trkpt lat="45.8716117" lon="8.6542167"><ele>230.4</ele><time>2026-04-04T07:02:31.377Z</time></trkpt><trkpt lat="45.871705" lon="8.65423"><ele>230.0</ele><time>2026-04-04T07:02:32.377Z</time></trkpt><trkpt lat="45.87179" lon="8.654245"><ele>229.4</ele><time>2026-04-04T07:02:33.377Z</time></trkpt><trkpt lat="45.8718667" lon="8.6542517"><ele>228.8</ele><time>2026-04-04T07:02:34.378Z</time></trkpt><trkpt lat="45.87195" lon="8.6542567"><ele>228.2</ele><time>2026-04-04T07:02:35.377Z</time></trkpt><trkpt lat="45.8720367" lon="8.65423"><ele>227.6</ele><time>2026-04-04T07:02:36.377Z</time></trkpt><trkpt lat="45.8721333" lon="8.6541867"><ele>227.0</ele><time>2026-04-04T07:02:37.377Z</time></trkpt><trkpt lat="45.8722333" lon="8.6541417"><ele>227.0</ele><time>2026-04-04T07:02:38.377Z</time></trkpt><trkpt lat="45.8723333" lon="8.6541167"><ele>227.0</ele><time>2026-04-04T07:02:39.378Z</time></trkpt><trkpt lat="45.8724333" lon="8.6540867"><ele>227.0</ele><time>2026-04-04T07:02:40.377Z</time></trkpt><trkpt lat="45.872535" lon="8.6540583"><ele>227.0</ele><time>2026-04-04T07:02:41.377Z</time></trkpt><trkpt lat="45.872635" lon="8.6540267"><ele>227.0</ele><time>2026-04-04T07:02:42.377Z</time></trkpt><trkpt lat="45.8727383" lon="8.6539917"><ele>227.39999999999998</ele><time>2026-04-04T07:02:43.377Z</time></trkpt><trkpt lat="45.87284" lon="8.6539617"><ele>227.79999999999998</ele><time>2026-04-04T07:02:44.377Z</time></trkpt><trkpt lat="45.8729333" lon="8.6539367"><ele>228.2</ele><time>2026-04-04T07:02:45.378Z</time></trkpt><trkpt lat="45.8730267" lon="8.6539117"><ele>228.6</ele><time>2026-04-04T07:02:46.377Z</time></trkpt><trkpt lat="45.8731133" lon="8.6538967"><ele>229.0</ele><time>2026-04-04T07:02:47.377Z</time></trkpt><trkpt lat="45.87319" lon="8.6538783"><ele>228.99999999999997</ele><time>2026-04-04T07:02:48.378Z</time></trkpt><trkpt lat="45.8732617" lon="8.6538567"><ele>229.0</ele><time>2026-04-04T07:02:49.377Z</time></trkpt><trkpt lat="45.8733233" lon="8.65383"><ele>229.0</ele><time>2026-04-04T07:02:50.378Z</time></trkpt><trkpt lat="45.873425" lon="8.6537867"><ele>229.0</ele><time>2026-04-04T07:02:52.377Z</time></trkpt><trkpt lat="45.8734883" lon="8.653705"><ele>228.99999999999997</ele><time>2026-04-04T07:02:55.377Z</time></trkpt><trkpt lat="45.8735083" lon="8.6535717"><ele>229.0</ele><time>2026-04-04T07:02:57.377Z</time></trkpt><trkpt lat="45.8734983" lon="8.6534"><ele>228.79999999999998</ele><time>2026-04-04T07:02:59.377Z</time></trkpt><trkpt lat="45.873495" lon="8.6532317"><ele>228.59999999999997</ele><time>2026-04-04T07:03:01.378Z</time></trkpt><trkpt lat="45.87357" lon="8.65309"><ele>228.4</ele><time>2026-04-04T07:03:03.377Z</time></trkpt><trkpt lat="45.8736317" lon="8.6530267"><ele>228.2</ele><time>2026-04-04T07:03:04.377Z</time></trkpt><trkpt lat="45.8736967" lon="8.6529667"><ele>228.0</ele><time>2026-04-04T07:03:05.377Z</time></trkpt><trkpt lat="45.8737633" lon="8.6529083"><ele>228.0</ele><time>2026-04-04T07:03:06.378Z</time></trkpt><trkpt lat="45.87382" lon="8.652855"><ele>227.99999999999997</ele><time>2026-04-04T07:03:07.377Z</time></trkpt><trkpt lat="45.873875" lon="8.652795"><ele>228.0</ele><time>2026-04-04T07:03:08.377Z</time></trkpt><trkpt lat="45.8739333" lon="8.65273"><ele>228.0</ele><time>2026-04-04T07:03:09.377Z</time></trkpt><trkpt lat="45.8739917" lon="8.6526683"><ele>227.99999999999997</ele><time>2026-04-04T07:03:10.377Z</time></trkpt><trkpt lat="45.874045" lon="8.6526"><ele>228.0</ele><time>2026-04-04T07:03:11.377Z</time></trkpt><trkpt lat="45.8740983" lon="8.6525183"><ele>228.0</ele><time>2026-04-04T07:03:12.377Z</time></trkpt><trkpt lat="45.8741517" lon="8.6524333"><ele>227.66666666666666</ele><time>2026-04-04T07:03:13.377Z</time></trkpt><trkpt lat="45.874195" lon="8.652345"><ele>227.33333333333331</ele><time>2026-04-04T07:03:14.378Z</time></trkpt><trkpt lat="45.8742333" lon="8.6522517"><ele>227.0</ele><time>2026-04-04T07:03:15.378Z</time></trkpt><trkpt lat="45.8742767" lon="8.6521433"><ele>226.66666666666666</ele><time>2026-04-04T07:03:16.378Z</time></trkpt><trkpt lat="45.8743217" lon="8.652025"><ele>226.33333333333331</ele><time>2026-04-04T07:03:17.378Z</time></trkpt><trkpt lat="45.8743633" lon="8.65191"><ele>226.0</ele><time>2026-04-04T07:03:18.377Z</time></trkpt><trkpt lat="45.8744067" lon="8.6518217"><ele>226.85714285714286</ele><time>2026-04-04T07:03:19.377Z</time></trkpt><trkpt lat="45.8744417" lon="8.6517317"><ele>227.71428571428572</ele><time>2026-04-04T07:03:20.378Z</time></trkpt><trkpt lat="45.87448" lon="8.6516317"><ele>228.57142857142858</ele><time>2026-04-04T07:03:21.377Z</time></trkpt><trkpt lat="45.8745233" lon="8.6515467"><ele>229.42857142857144</ele><time>2026-04-04T07:03:22.377Z</time></trkpt><trkpt lat="45.8745717" lon="8.6514717"><ele>230.28571428571428</ele><time>2026-04-04T07:03:23.377Z</time></trkpt><trkpt lat="45.87463" lon="8.6514083"><ele>231.14285714285717</ele><time>2026-04-04T07:03:24.377Z</time></trkpt><trkpt lat="45.87469" lon="8.6513583"><ele>232.00000000000003</ele><time>2026-04-04T07:03:25.377Z</time></trkpt><trkpt lat="45.874755" lon="8.6513183"><ele>232.0</ele><time>2026-04-04T07:03:26.377Z</time></trkpt><trkpt lat="45.87486" lon="8.65126"><ele>232.0</ele><time>2026-04-04T07:03:28.377Z</time></trkpt><trkpt lat="45.8749317" lon="8.65129"><ele>232.0</ele><time>2026-04-04T07:03:30.377Z</time></trkpt><trkpt lat="45.87502" lon="8.6514083"><ele>232.0</ele><time>2026-04-04T07:03:32.377Z</time></trkpt><trkpt lat="45.87513" lon="8.6514783"><ele>232.0</ele><time>2026-04-04T07:03:34.378Z</time></trkpt><trkpt lat="45.8751933" lon="8.651475"><ele>232.66666666666666</ele><time>2026-04-04T07:03:35.377Z</time></trkpt><trkpt lat="45.8752717" lon="8.6514567"><ele>233.33333333333331</ele><time>2026-04-04T07:03:36.378Z</time></trkpt><trkpt lat="45.8753467" lon="8.6514267"><ele>234.0</ele><time>2026-04-04T07:03:37.377Z</time></trkpt><trkpt lat="45.8754183" lon="8.6513917"><ele>234.66666666666669</ele><time>2026-04-04T07:03:38.377Z</time></trkpt><trkpt lat="45.87549" lon="8.651355"><ele>235.33333333333334</ele><time>2026-04-04T07:03:39.378Z</time></trkpt><trkpt lat="45.87557" lon="8.6513217"><ele>236.0</ele><time>2026-04-04T07:03:40.378Z</time></trkpt><trkpt lat="45.87565" lon="8.6512883"><ele>236.00000000000003</ele><time>2026-04-04T07:03:41.378Z</time></trkpt><trkpt lat="45.8757267" lon="8.6512517"><ele>236.0</ele><time>2026-04-04T07:03:42.377Z</time></trkpt><trkpt lat="45.8758117" lon="8.6512233"><ele>236.0</ele><time>2026-04-04T07:03:43.378Z</time></trkpt><trkpt lat="45.8758933" lon="8.651185"><ele>236.0</ele><time>2026-04-04T07:03:44.378Z</time></trkpt><trkpt lat="45.8759733" lon="8.65115"><ele>236.00000000000003</ele><time>2026-04-04T07:03:45.378Z</time></trkpt><trkpt lat="45.8760533" lon="8.6511117"><ele>236.0</ele><time>2026-04-04T07:03:46.377Z</time></trkpt><trkpt lat="45.8761383" lon="8.6510883"><ele>237.60000000000002</ele><time>2026-04-04T07:03:47.377Z</time></trkpt><trkpt lat="45.876225" lon="8.6510667"><ele>239.20000000000002</ele><time>2026-04-04T07:03:48.377Z</time></trkpt><trkpt lat="45.8763067" lon="8.65105"><ele>240.79999999999998</ele><time>2026-04-04T07:03:49.378Z</time></trkpt><trkpt lat="45.8763817" lon="8.65105"><ele>242.39999999999998</ele><time>2026-04-04T07:03:50.377Z</time></trkpt><trkpt lat="45.8764533" lon="8.651055"><ele>244.0</ele><time>2026-04-04T07:03:51.377Z</time></trkpt><trkpt lat="45.8765717" lon="8.65114"><ele>243.99999999999997</ele><time>2026-04-04T07:03:53.377Z</time></trkpt><trkpt lat="45.8766333" lon="8.6512233"><ele>244.0</ele><time>2026-04-04T07:03:54.377Z</time></trkpt><trkpt lat="45.8766933" lon="8.6513033"><ele>244.0</ele><time>2026-04-04T07:03:55.378Z</time></trkpt><trkpt lat="45.8767617" lon="8.651385"><ele>244.0</ele><time>2026-04-04T07:03:56.378Z</time></trkpt><trkpt lat="45.876835" lon="8.651475"><ele>243.99999999999997</ele><time>2026-04-04T07:03:57.378Z</time></trkpt><trkpt lat="45.876895" lon="8.651565"><ele>244.0</ele><time>2026-04-04T07:03:58.377Z</time></trkpt><trkpt lat="45.876965" lon="8.65164"><ele>245.33333333333331</ele><time>2026-04-04T07:03:59.378Z</time></trkpt><trkpt lat="45.8770333" lon="8.651725"><ele>246.66666666666666</ele><time>2026-04-04T07:04:00.377Z</time></trkpt><trkpt lat="45.8770983" lon="8.65181"><ele>248.0</ele><time>2026-04-04T07:04:01.378Z</time></trkpt><trkpt lat="45.8771633" lon="8.6518967"><ele>249.33333333333331</ele><time>2026-04-04T07:04:02.378Z</time></trkpt><trkpt lat="45.8772283" lon="8.6519783"><ele>250.66666666666666</ele><time>2026-04-04T07:04:03.377Z</time></trkpt><trkpt lat="45.8772933" lon="8.6520467"><ele>252.0</ele><time>2026-04-04T07:04:04.377Z</time></trkpt><trkpt lat="45.87736" lon="8.6521183"><ele>252.0</ele><time>2026-04-04T07:04:05.378Z</time></trkpt><trkpt lat="45.8774317" lon="8.6521783"><ele>252.0</ele><time>2026-04-04T07:04:06.377Z</time></trkpt><trkpt lat="45.8775083" lon="8.6522483"><ele>252.0</ele><time>2026-04-04T07:04:07.377Z</time></trkpt><trkpt lat="45.8775767" lon="8.652325"><ele>252.0</ele><time>2026-04-04T07:04:08.378Z</time></trkpt><trkpt lat="45.877645" lon="8.652415"><ele>252.0</ele><time>2026-04-04T07:04:09.378Z</time></trkpt><trkpt lat="45.8777117" lon="8.652505"><ele>252.0</ele><time>2026-04-04T07:04:10.377Z</time></trkpt><trkpt lat="45.8777733" lon="8.6526033"><ele>253.5</ele><time>2026-04-04T07:04:11.378Z</time></trkpt><trkpt lat="45.877825" lon="8.6527117"><ele>255.0</ele><time>2026-04-04T07:04:12.377Z</time></trkpt><trkpt lat="45.877895" lon="8.652795"><ele>256.5</ele><time>2026-04-04T07:04:13.377Z</time></trkpt><trkpt lat="45.877945" lon="8.6528867"><ele>258.0</ele><time>2026-04-04T07:04:14.377Z</time></trkpt><trkpt lat="45.87799" lon="8.6529817"><ele>259.5</ele><time>2026-04-04T07:04:15.378Z</time></trkpt><trkpt lat="45.8780517" lon="8.6530717"><ele>261.0</ele><time>2026-04-04T07:04:16.378Z</time></trkpt><trkpt lat="45.878115" lon="8.6531617"><ele>261.0</ele><time>2026-04-04T07:04:17.378Z</time></trkpt><trkpt lat="45.878185" lon="8.6532483"><ele>261.0</ele><time>2026-04-04T07:04:18.378Z</time></trkpt><trkpt lat="45.8782483" lon="8.6533333"><ele>261.0</ele><time>2026-04-04T07:04:19.377Z</time></trkpt><trkpt lat="45.8783083" lon="8.6534283"><ele>261.0</ele><time>2026-04-04T07:04:20.377Z</time></trkpt><trkpt lat="45.87836" lon="8.6535433"><ele>261.0</ele><time>2026-04-04T07:04:21.377Z</time></trkpt><trkpt lat="45.8783967" lon="8.65366"><ele>263.6</ele><time>2026-04-04T07:04:22.377Z</time></trkpt><trkpt lat="45.878445" lon="8.6537633"><ele>266.20000000000005</ele><time>2026-04-04T07:04:23.377Z</time></trkpt><trkpt lat="45.8785017" lon="8.6538683"><ele>268.79999999999995</ele><time>2026-04-04T07:04:24.378Z</time></trkpt><trkpt lat="45.8785533" lon="8.6539833"><ele>271.4</ele><time>2026-04-04T07:04:25.378Z</time></trkpt><trkpt lat="45.8786167" lon="8.6540967"><ele>274.0</ele><time>2026-04-04T07:04:26.378Z</time></trkpt><trkpt lat="45.8786783" lon="8.6542117"><ele>274.0</ele><time>2026-04-04T07:04:27.378Z</time></trkpt><trkpt lat="45.8787433" lon="8.6543183"><ele>274.0</ele><time>2026-04-04T07:04:28.377Z</time></trkpt><trkpt lat="45.8788133" lon="8.6544317"><ele>274.0</ele><time>2026-04-04T07:04:29.377Z</time></trkpt><trkpt lat="45.8788817" lon="8.6545433"><ele>274.0</ele><time>2026-04-04T07:04:30.378Z</time></trkpt><trkpt lat="45.87894" lon="8.65466"><ele>274.0</ele><time>2026-04-04T07:04:31.378Z</time></trkpt><trkpt lat="45.879" lon="8.654795"><ele>272.59999999999997</ele><time>2026-04-04T07:04:32.377Z</time></trkpt><trkpt lat="45.87906" lon="8.6549233"><ele>271.2</ele><time>2026-04-04T07:04:33.378Z</time></trkpt><trkpt lat="45.8791033" lon="8.6550633"><ele>269.79999999999995</ele><time>2026-04-04T07:04:34.377Z</time></trkpt><trkpt lat="45.8791483" lon="8.6551783"><ele>268.4</ele><time>2026-04-04T07:04:35.378Z</time></trkpt><trkpt lat="45.87919" lon="8.6552767"><ele>267.0</ele><time>2026-04-04T07:04:36.377Z</time></trkpt><trkpt lat="45.8792383" lon="8.6553633"><ele>268.6666666666667</ele><time>2026-04-04T07:04:37.377Z</time></trkpt><trkpt lat="45.8792767" lon="8.6554683"><ele>270.3333333333333</ele><time>2026-04-04T07:04:38.377Z</time></trkpt><trkpt lat="45.8793167" lon="8.6555783"><ele>272.0</ele><time>2026-04-04T07:04:39.377Z</time></trkpt><trkpt lat="45.87936" lon="8.6557"><ele>273.66666666666663</ele><time>2026-04-04T07:04:40.378Z</time></trkpt><trkpt lat="45.879405" lon="8.655805"><ele>275.3333333333333</ele><time>2026-04-04T07:04:41.378Z</time></trkpt><trkpt lat="45.87945" lon="8.6559167"><ele>277.0</ele><time>2026-04-04T07:04:42.377Z</time></trkpt><trkpt lat="45.8795" lon="8.65602"><ele>277.0</ele><time>2026-04-04T07:04:43.378Z</time></trkpt><trkpt lat="45.8795467" lon="8.6561167"><ele>277.0</ele><time>2026-04-04T07:04:44.377Z</time></trkpt><trkpt lat="45.8795867" lon="8.6562217"><ele>277.0</ele><time>2026-04-04T07:04:45.378Z</time></trkpt><trkpt lat="45.8796683" lon="8.6562633"><ele>277.0</ele><time>2026-04-04T07:04:46.377Z</time></trkpt><trkpt lat="45.8797317" lon="8.6563367"><ele>277.0</ele><time>2026-04-04T07:04:47.377Z</time></trkpt><trkpt lat="45.8797917" lon="8.65641"><ele>277.0</ele><time>2026-04-04T07:04:48.377Z</time></trkpt><trkpt lat="45.8798433" lon="8.6564867"><ele>276.3333333333333</ele><time>2026-04-04T07:04:49.377Z</time></trkpt><trkpt lat="45.8799017" lon="8.6565683"><ele>275.66666666666663</ele><time>2026-04-04T07:04:50.378Z</time></trkpt><trkpt lat="45.8799567" lon="8.65665"><ele>275.0</ele><time>2026-04-04T07:04:51.377Z</time></trkpt><trkpt lat="45.8800117" lon="8.6567383"><ele>274.3333333333333</ele><time>2026-04-04T07:04:52.378Z</time></trkpt><trkpt lat="45.88005" lon="8.6568567"><ele>273.6666666666667</ele><time>2026-04-04T07:04:53.377Z</time></trkpt><trkpt lat="45.8800767" lon="8.6569867"><ele>273.0</ele><time>2026-04-04T07:04:54.377Z</time></trkpt><trkpt lat="45.8801" lon="8.6571267"><ele>275.0</ele><time>2026-04-04T07:04:55.377Z</time></trkpt><trkpt lat="45.880115" lon="8.6572683"><ele>277.0</ele><time>2026-04-04T07:04:56.378Z</time></trkpt><trkpt lat="45.8801317" lon="8.657405"><ele>279.0</ele><time>2026-04-04T07:04:57.377Z</time></trkpt><trkpt lat="45.8801417" lon="8.6575383"><ele>281.0</ele><time>2026-04-04T07:04:58.377Z</time></trkpt><trkpt lat="45.88015" lon="8.6576683"><ele>283.0</ele><time>2026-04-04T07:04:59.377Z</time></trkpt><trkpt lat="45.8801617" lon="8.6578117"><ele>283.0</ele><time>2026-04-04T07:05:00.377Z</time></trkpt><trkpt lat="45.8801767" lon="8.6579483"><ele>283.0</ele><time>2026-04-04T07:05:01.378Z</time></trkpt><trkpt lat="45.8801933" lon="8.658085"><ele>283.0</ele><time>2026-04-04T07:05:02.377Z</time></trkpt><trkpt lat="45.8802033" lon="8.65822"><ele>283.0</ele><time>2026-04-04T07:05:03.378Z</time></trkpt><trkpt lat="45.8802167" lon="8.6583433"><ele>283.0</ele><time>2026-04-04T07:05:04.377Z</time></trkpt><trkpt lat="45.88023" lon="8.658465"><ele>283.0</ele><time>2026-04-04T07:05:05.378Z</time></trkpt><trkpt lat="45.880235" lon="8.6585817"><ele>283.0</ele><time>2026-04-04T07:05:06.377Z</time></trkpt><trkpt lat="45.8802583" lon="8.658705"><ele>283.0</ele><time>2026-04-04T07:05:07.377Z</time></trkpt><trkpt lat="45.880265" lon="8.6588217"><ele>283.0</ele><time>2026-04-04T07:05:08.377Z</time></trkpt><trkpt lat="45.8802733" lon="8.658925"><ele>283.0</ele><time>2026-04-04T07:05:09.377Z</time></trkpt><trkpt lat="45.8802867" lon="8.65903"><ele>283.0</ele><time>2026-04-04T07:05:10.378Z</time></trkpt><trkpt lat="45.8802983" lon="8.65915"><ele>282.5</ele><time>2026-04-04T07:05:11.378Z</time></trkpt><trkpt lat="45.8803117" lon="8.6592783"><ele>282.0</ele><time>2026-04-04T07:05:12.378Z</time></trkpt><trkpt lat="45.8803267" lon="8.6594"><ele>281.5</ele><time>2026-04-04T07:05:13.377Z</time></trkpt><trkpt lat="45.88033" lon="8.6595117"><ele>281.0</ele><time>2026-04-04T07:05:14.377Z</time></trkpt><trkpt lat="45.8803367" lon="8.659615"><ele>280.5</ele><time>2026-04-04T07:05:15.378Z</time></trkpt><trkpt lat="45.8803483" lon="8.659715"><ele>280.0</ele><time>2026-04-04T07:05:16.377Z</time></trkpt><trkpt lat="45.88036" lon="8.6598083"><ele>278.5</ele><time>2026-04-04T07:05:17.377Z</time></trkpt><trkpt lat="45.8804067" lon="8.6599533"><ele>277.0</ele><time>2026-04-04T07:05:19.377Z</time></trkpt><trkpt lat="45.880505" lon="8.6599883"><ele>275.5</ele><time>2026-04-04T07:05:21.377Z</time></trkpt><trkpt lat="45.8806533" lon="8.6599717"><ele>274.0</ele><time>2026-04-04T07:05:23.377Z</time></trkpt><trkpt lat="45.8807517" lon="8.6599683"><ele>274.0</ele><time>2026-04-04T07:05:24.378Z</time></trkpt><trkpt lat="45.8808483" lon="8.65996"><ele>274.0</ele><time>2026-04-04T07:05:25.377Z</time></trkpt><trkpt lat="45.8809333" lon="8.6599617"><ele>274.0</ele><time>2026-04-04T07:05:26.377Z</time></trkpt><trkpt lat="45.8810183" lon="8.6599633"><ele>274.0</ele><time>2026-04-04T07:05:27.377Z</time></trkpt><trkpt lat="45.88111" lon="8.6599783"><ele>274.0</ele><time>2026-04-04T07:05:28.377Z</time></trkpt><trkpt lat="45.8812017" lon="8.6599717"><ele>275.2</ele><time>2026-04-04T07:05:29.377Z</time></trkpt><trkpt lat="45.88129" lon="8.6599833"><ele>276.4</ele><time>2026-04-04T07:05:30.378Z</time></trkpt><trkpt lat="45.8813833" lon="8.660005"><ele>277.6</ele><time>2026-04-04T07:05:31.377Z</time></trkpt><trkpt lat="45.8814733" lon="8.6600083"><ele>278.8</ele><time>2026-04-04T07:05:32.377Z</time></trkpt><trkpt lat="45.8815683" lon="8.660025"><ele>280.0</ele><time>2026-04-04T07:05:33.377Z</time></trkpt><trkpt lat="45.8816517" lon="8.6600417"><ele>280.0</ele><time>2026-04-04T07:05:34.378Z</time></trkpt><trkpt lat="45.8817367" lon="8.6600617"><ele>280.0</ele><time>2026-04-04T07:05:35.377Z</time></trkpt><trkpt lat="45.8818133" lon="8.660075"><ele>280.0</ele><time>2026-04-04T07:05:36.377Z</time></trkpt><trkpt lat="45.8818917" lon="8.660105"><ele>280.0</ele><time>2026-04-04T07:05:37.378Z</time></trkpt><trkpt lat="45.88196" lon="8.66013"><ele>280.0</ele><time>2026-04-04T07:05:38.378Z</time></trkpt><trkpt lat="45.882035" lon="8.66016"><ele>280.0</ele><time>2026-04-04T07:05:39.378Z</time></trkpt><trkpt lat="45.8821117" lon="8.6601767"><ele>280.16666666666663</ele><time>2026-04-04T07:05:40.377Z</time></trkpt><trkpt lat="45.8821917" lon="8.6602067"><ele>280.3333333333333</ele><time>2026-04-04T07:05:41.378Z</time></trkpt><trkpt lat="45.8822633" lon="8.6602317"><ele>280.5</ele><time>2026-04-04T07:05:42.377Z</time></trkpt><trkpt lat="45.882335" lon="8.6602667"><ele>280.6666666666667</ele><time>2026-04-04T07:05:43.378Z</time></trkpt><trkpt lat="45.8824133" lon="8.6603"><ele>280.83333333333337</ele><time>2026-04-04T07:05:44.378Z</time></trkpt><trkpt lat="45.882495" lon="8.6603333"><ele>281.0</ele><time>2026-04-04T07:05:45.377Z</time></trkpt><trkpt lat="45.8825733" lon="8.66037"><ele>279.83333333333337</ele><time>2026-04-04T07:05:46.377Z</time></trkpt><trkpt lat="45.882665" lon="8.6603983"><ele>278.6666666666667</ele><time>2026-04-04T07:05:47.377Z</time></trkpt><trkpt lat="45.882755" lon="8.6604233"><ele>277.5</ele><time>2026-04-04T07:05:48.378Z</time></trkpt><trkpt lat="45.8828383" lon="8.660445"><ele>276.3333333333333</ele><time>2026-04-04T07:05:49.377Z</time></trkpt><trkpt lat="45.8829183" lon="8.6604633"><ele>275.16666666666663</ele><time>2026-04-04T07:05:50.378Z</time></trkpt><trkpt lat="45.8829933" lon="8.6604733"><ele>274.0</ele><time>2026-04-04T07:05:51.378Z</time></trkpt><trkpt lat="45.883075" lon="8.6604817"><ele>274.0</ele><time>2026-04-04T07:05:52.379Z</time></trkpt><trkpt lat="45.8831583" lon="8.6604833"><ele>274.0</ele><time>2026-04-04T07:05:53.378Z</time></trkpt><trkpt lat="45.883245" lon="8.6604733"><ele>274.0</ele><time>2026-04-04T07:05:54.379Z</time></trkpt><trkpt lat="45.8833367" lon="8.6604567"><ele>274.0</ele><time>2026-04-04T07:05:55.378Z</time></trkpt><trkpt lat="45.8834283" lon="8.6604267"><ele>274.0</ele><time>2026-04-04T07:05:56.379Z</time></trkpt><trkpt lat="45.88353" lon="8.6604"><ele>275.16666666666663</ele><time>2026-04-04T07:05:57.378Z</time></trkpt><trkpt lat="45.88362" lon="8.6603717"><ele>276.3333333333333</ele><time>2026-04-04T07:05:58.379Z</time></trkpt><trkpt lat="45.8837117" lon="8.6603483"><ele>277.5</ele><time>2026-04-04T07:05:59.379Z</time></trkpt><trkpt lat="45.8838" lon="8.6603283"><ele>278.6666666666667</ele><time>2026-04-04T07:06:00.379Z</time></trkpt><trkpt lat="45.8838833" lon="8.6603217"><ele>279.83333333333337</ele><time>2026-04-04T07:06:01.378Z</time></trkpt><trkpt lat="45.8839717" lon="8.660315"><ele>281.0</ele><time>2026-04-04T07:06:02.378Z</time></trkpt><trkpt lat="45.88406" lon="8.6602983"><ele>281.0</ele><time>2026-04-04T07:06:03.379Z</time></trkpt><trkpt lat="45.884135" lon="8.6602917"><ele>281.0</ele><time>2026-04-04T07:06:04.378Z</time></trkpt><trkpt lat="45.88421" lon="8.660285"><ele>281.0</ele><time>2026-04-04T07:06:05.379Z</time></trkpt><trkpt lat="45.8842917" lon="8.6602683"><ele>281.0</ele><time>2026-04-04T07:06:06.379Z</time></trkpt><trkpt lat="45.88438" lon="8.660255"><ele>281.0</ele><time>2026-04-04T07:06:07.378Z</time></trkpt><trkpt lat="45.8844567" lon="8.6602517"><ele>281.0</ele><time>2026-04-04T07:06:08.379Z</time></trkpt><trkpt lat="45.884545" lon="8.660245"><ele>286.0</ele><time>2026-04-04T07:06:09.378Z</time></trkpt><trkpt lat="45.8846317" lon="8.6602517"><ele>291.0</ele><time>2026-04-04T07:06:10.379Z</time></trkpt><trkpt lat="45.8846967" lon="8.660275"><ele>296.0</ele><time>2026-04-04T07:06:11.378Z</time></trkpt><trkpt lat="45.88479" lon="8.6602817"><ele>301.0</ele><time>2026-04-04T07:06:13.379Z</time></trkpt><trkpt lat="45.8848867" lon="8.66023"><ele>306.0</ele><time>2026-04-04T07:06:16.378Z</time></trkpt><trkpt lat="45.8849883" lon="8.660175"><ele>306.1666666666667</ele><time>2026-04-04T07:06:18.378Z</time></trkpt><trkpt lat="45.8851117" lon="8.6601867"><ele>306.3333333333333</ele><time>2026-04-04T07:06:20.378Z</time></trkpt><trkpt lat="45.885175" lon="8.6602017"><ele>306.5</ele><time>2026-04-04T07:06:21.379Z</time></trkpt><trkpt lat="45.8852367" lon="8.6602417"><ele>306.66666666666663</ele><time>2026-04-04T07:06:22.378Z</time></trkpt><trkpt lat="45.8852867" lon="8.6603033"><ele>306.8333333333333</ele><time>2026-04-04T07:06:23.378Z</time></trkpt><trkpt lat="45.88534" lon="8.660365"><ele>307.0</ele><time>2026-04-04T07:06:24.378Z</time></trkpt><trkpt lat="45.88539" lon="8.6604417"><ele>307.0</ele><time>2026-04-04T07:06:25.378Z</time></trkpt><trkpt lat="45.88545" lon="8.6605317"><ele>307.0</ele><time>2026-04-04T07:06:26.378Z</time></trkpt><trkpt lat="45.885505" lon="8.6606233"><ele>307.0</ele><time>2026-04-04T07:06:27.379Z</time></trkpt><trkpt lat="45.88557" lon="8.6607217"><ele>307.0</ele><time>2026-04-04T07:06:28.378Z</time></trkpt><trkpt lat="45.8856467" lon="8.660815"><ele>307.0</ele><time>2026-04-04T07:06:29.379Z</time></trkpt><trkpt lat="45.8857183" lon="8.6609083"><ele>307.0</ele><time>2026-04-04T07:06:30.378Z</time></trkpt><trkpt lat="45.8857933" lon="8.661"><ele>307.0</ele><time>2026-04-04T07:06:31.378Z</time></trkpt><trkpt lat="45.8858817" lon="8.6610783"><ele>307.0</ele><time>2026-04-04T07:06:32.379Z</time></trkpt><trkpt lat="45.8859633" lon="8.6611583"><ele>307.0</ele><time>2026-04-04T07:06:33.378Z</time></trkpt><trkpt lat="45.886045" lon="8.6612317"><ele>307.0</ele><time>2026-04-04T07:06:34.379Z</time></trkpt><trkpt lat="45.8861267" lon="8.6612883"><ele>307.66666666666663</ele><time>2026-04-04T07:06:35.379Z</time></trkpt><trkpt lat="45.8862083" lon="8.6613367"><ele>308.3333333333333</ele><time>2026-04-04T07:06:36.379Z</time></trkpt><trkpt lat="45.8862867" lon="8.661385"><ele>309.0</ele><time>2026-04-04T07:06:37.378Z</time></trkpt><trkpt lat="45.8863583" lon="8.6614467"><ele>309.6666666666667</ele><time>2026-04-04T07:06:38.379Z</time></trkpt><trkpt lat="45.8864183" lon="8.661515"><ele>310.33333333333337</ele><time>2026-04-04T07:06:39.378Z</time></trkpt><trkpt lat="45.886495" lon="8.6616317"><ele>311.0</ele><time>2026-04-04T07:06:41.379Z</time></trkpt><trkpt lat="45.8865583" lon="8.6617533"><ele>311.0</ele><time>2026-04-04T07:06:43.378Z</time></trkpt><trkpt lat="45.8866333" lon="8.6617317"><ele>311.0</ele><time>2026-04-04T07:06:46.379Z</time></trkpt><trkpt lat="45.8866117" lon="8.66158"><ele>311.0</ele><time>2026-04-04T07:06:48.378Z</time></trkpt><trkpt lat="45.8865667" lon="8.6614867"><ele>311.0</ele><time>2026-04-04T07:06:49.379Z</time></trkpt><trkpt lat="45.8865217" lon="8.6613783"><ele>311.0</ele><time>2026-04-04T07:06:50.378Z</time></trkpt><trkpt lat="45.8864867" lon="8.6612583"><ele>311.0</ele><time>2026-04-04T07:06:51.378Z</time></trkpt><trkpt lat="45.886455" lon="8.6611217"><ele>312.2</ele><time>2026-04-04T07:06:52.378Z</time></trkpt><trkpt lat="45.8864283" lon="8.6609583"><ele>313.40000000000003</ele><time>2026-04-04T07:06:53.378Z</time></trkpt><trkpt lat="45.88641" lon="8.6608067"><ele>314.6</ele><time>2026-04-04T07:06:54.379Z</time></trkpt><trkpt lat="45.8864083" lon="8.6606567"><ele>315.8</ele><time>2026-04-04T07:06:55.379Z</time></trkpt><trkpt lat="45.8864183" lon="8.660525"><ele>317.0</ele><time>2026-04-04T07:06:56.379Z</time></trkpt><trkpt lat="45.88642" lon="8.6604117"><ele>317.0</ele><time>2026-04-04T07:06:57.379Z</time></trkpt><trkpt lat="45.8863867" lon="8.6602983"><ele>317.0</ele><time>2026-04-04T07:06:58.378Z</time></trkpt><trkpt lat="45.8863333" lon="8.6601833"><ele>317.0</ele><time>2026-04-04T07:06:59.379Z</time></trkpt><trkpt lat="45.8862867" lon="8.66007"><ele>317.0</ele><time>2026-04-04T07:07:00.378Z</time></trkpt><trkpt lat="45.886255" lon="8.6599417"><ele>317.0</ele><time>2026-04-04T07:07:01.378Z</time></trkpt><trkpt lat="45.886225" lon="8.65979"><ele>317.75</ele><time>2026-04-04T07:07:02.378Z</time></trkpt><trkpt lat="45.886205" lon="8.6596017"><ele>318.5</ele><time>2026-04-04T07:07:03.379Z</time></trkpt><trkpt lat="45.8861833" lon="8.6594233"><ele>319.25</ele><time>2026-04-04T07:07:04.378Z</time></trkpt><trkpt lat="45.886165" lon="8.6592583"><ele>320.0</ele><time>2026-04-04T07:07:05.378Z</time></trkpt><trkpt lat="45.8861533" lon="8.6591033"><ele>320.0</ele><time>2026-04-04T07:07:06.378Z</time></trkpt><trkpt lat="45.886135" lon="8.65896"><ele>320.0</ele><time>2026-04-04T07:07:07.378Z</time></trkpt><trkpt lat="45.88611" lon="8.6588133"><ele>320.0</ele><time>2026-04-04T07:07:08.378Z</time></trkpt><trkpt lat="45.886095" lon="8.658665"><ele>320.0</ele><time>2026-04-04T07:07:09.379Z</time></trkpt><trkpt lat="45.88609" lon="8.6585083"><ele>320.0</ele><time>2026-04-04T07:07:10.378Z</time></trkpt><trkpt lat="45.88609" lon="8.6583533"><ele>318.6</ele><time>2026-04-04T07:07:11.379Z</time></trkpt><trkpt lat="45.8860833" lon="8.65822"><ele>317.2</ele><time>2026-04-04T07:07:12.378Z</time></trkpt><trkpt lat="45.8860733" lon="8.6580967"><ele>315.8</ele><time>2026-04-04T07:07:13.378Z</time></trkpt><trkpt lat="45.88605" lon="8.6579817"><ele>314.4</ele><time>2026-04-04T07:07:14.378Z</time></trkpt><trkpt lat="45.886015" lon="8.6578617"><ele>313.0</ele><time>2026-04-04T07:07:15.378Z</time></trkpt><trkpt lat="45.8859667" lon="8.65774"><ele>316.4</ele><time>2026-04-04T07:07:16.379Z</time></trkpt><trkpt lat="45.8859117" lon="8.6576267"><ele>319.8</ele><time>2026-04-04T07:07:17.379Z</time></trkpt><trkpt lat="45.8858517" lon="8.6575217"><ele>323.2</ele><time>2026-04-04T07:07:18.379Z</time></trkpt><trkpt lat="45.88579" lon="8.6574067"><ele>326.6</ele><time>2026-04-04T07:07:19.379Z</time></trkpt><trkpt lat="45.8857317" lon="8.65728"><ele>330.0</ele><time>2026-04-04T07:07:20.379Z</time></trkpt><trkpt lat="45.8856683" lon="8.65716"><ele>330.0</ele><time>2026-04-04T07:07:21.378Z</time></trkpt><trkpt lat="45.885615" lon="8.6570517"><ele>330.0</ele><time>2026-04-04T07:07:22.378Z</time></trkpt><trkpt lat="45.8855517" lon="8.6569617"><ele>330.0</ele><time>2026-04-04T07:07:23.379Z</time></trkpt><trkpt lat="45.8854817" lon="8.6568967"><ele>330.0</ele><time>2026-04-04T07:07:24.378Z</time></trkpt><trkpt lat="45.8854033" lon="8.6568433"><ele>330.0</ele><time>2026-04-04T07:07:25.378Z</time></trkpt><trkpt lat="45.885325" lon="8.6567917"><ele>330.0</ele><time>2026-04-04T07:07:26.378Z</time></trkpt><trkpt lat="45.8852383" lon="8.6567267"><ele>328.8</ele><time>2026-04-04T07:07:27.378Z</time></trkpt><trkpt lat="45.88515" lon="8.6566567"><ele>327.6</ele><time>2026-04-04T07:07:28.378Z</time></trkpt><trkpt lat="45.8850567" lon="8.6565817"><ele>326.4</ele><time>2026-04-04T07:07:29.378Z</time></trkpt><trkpt lat="45.884975" lon="8.6565333"><ele>325.2</ele><time>2026-04-04T07:07:30.378Z</time></trkpt><trkpt lat="45.8848833" lon="8.6564667"><ele>324.0</ele><time>2026-04-04T07:07:31.378Z</time></trkpt><trkpt lat="45.8848067" lon="8.6564083"><ele>328.3333333333333</ele><time>2026-04-04T07:07:32.378Z</time></trkpt><trkpt lat="45.8847417" lon="8.65636"><ele>332.6666666666667</ele><time>2026-04-04T07:07:33.379Z</time></trkpt><trkpt lat="45.884635" lon="8.6563317"><ele>337.0</ele><time>2026-04-04T07:07:35.379Z</time></trkpt><trkpt lat="45.88453" lon="8.656375"><ele>341.33333333333337</ele><time>2026-04-04T07:07:37.378Z</time></trkpt><trkpt lat="45.884465" lon="8.65641"><ele>345.6666666666667</ele><time>2026-04-04T07:07:38.379Z</time></trkpt><trkpt lat="45.8843917" lon="8.65644"><ele>350.0</ele><time>2026-04-04T07:07:39.379Z</time></trkpt><trkpt lat="45.8843283" lon="8.656455"><ele>352.6666666666667</ele><time>2026-04-04T07:07:40.378Z</time></trkpt><trkpt lat="45.8842183" lon="8.6564167"><ele>355.33333333333337</ele><time>2026-04-04T07:07:42.379Z</time></trkpt><trkpt lat="45.884155" lon="8.656355"><ele>358.0</ele><time>2026-04-04T07:07:43.378Z</time></trkpt><trkpt lat="45.8840933" lon="8.6562883"><ele>360.6666666666667</ele><time>2026-04-04T07:07:44.378Z</time></trkpt><trkpt lat="45.88404" lon="8.65623"><ele>363.3333333333333</ele><time>2026-04-04T07:07:45.378Z</time></trkpt><trkpt lat="45.883935" lon="8.6562"><ele>366.0</ele><time>2026-04-04T07:07:47.379Z</time></trkpt><trkpt lat="45.8838633" lon="8.6562167"><ele>366.0</ele><time>2026-04-04T07:07:48.379Z</time></trkpt><trkpt lat="45.8837867" lon="8.656245"><ele>366.0</ele><time>2026-04-04T07:07:49.378Z</time></trkpt><trkpt lat="45.8837167" lon="8.6562683"><ele>366.0</ele><time>2026-04-04T07:07:50.379Z</time></trkpt><trkpt lat="45.8835917" lon="8.656225"><ele>366.0</ele><time>2026-04-04T07:07:52.378Z</time></trkpt><trkpt lat="45.8835167" lon="8.6561817"><ele>366.0</ele><time>2026-04-04T07:07:53.378Z</time></trkpt><trkpt lat="45.8834417" lon="8.65615"><ele>366.0</ele><time>2026-04-04T07:07:54.378Z</time></trkpt><trkpt lat="45.8833783" lon="8.6561117"><ele>367.8333333333333</ele><time>2026-04-04T07:07:55.379Z</time></trkpt><trkpt lat="45.883275" lon="8.65606"><ele>369.6666666666667</ele><time>2026-04-04T07:07:57.379Z</time></trkpt><trkpt lat="45.88319" lon="8.6559917"><ele>371.5</ele><time>2026-04-04T07:07:59.378Z</time></trkpt><trkpt lat="45.88314" lon="8.6559267"><ele>373.33333333333337</ele><time>2026-04-04T07:08:00.379Z</time></trkpt><trkpt lat="45.8830833" lon="8.655855"><ele>375.1666666666667</ele><time>2026-04-04T07:08:01.378Z</time></trkpt><trkpt lat="45.8830233" lon="8.6557817"><ele>377.0</ele><time>2026-04-04T07:08:02.378Z</time></trkpt><trkpt lat="45.8829717" lon="8.6557133"><ele>377.0</ele><time>2026-04-04T07:08:03.378Z</time></trkpt><trkpt lat="45.8829317" lon="8.6556417"><ele>377.0</ele><time>2026-04-04T07:08:04.378Z</time></trkpt><trkpt lat="45.8828733" lon="8.6554733"><ele>377.0</ele><time>2026-04-04T07:08:06.378Z</time></trkpt><trkpt lat="45.8828483" lon="8.655385"><ele>377.0</ele><time>2026-04-04T07:08:07.378Z</time></trkpt><trkpt lat="45.88277" lon="8.65529"><ele>377.0</ele><time>2026-04-04T07:08:09.378Z</time></trkpt><trkpt lat="45.8826833" lon="8.65526"><ele>378.75</ele><time>2026-04-04T07:08:11.379Z</time></trkpt><trkpt lat="45.8825817" lon="8.6552433"><ele>380.5</ele><time>2026-04-04T07:08:13.378Z</time></trkpt><trkpt lat="45.882455" lon="8.65515"><ele>382.25</ele><time>2026-04-04T07:08:15.378Z</time></trkpt><trkpt lat="45.8823617" lon="8.655075"><ele>384.0</ele><time>2026-04-04T07:08:16.378Z</time></trkpt><trkpt lat="45.8822467" lon="8.6550117"><ele>384.0</ele><time>2026-04-04T07:08:17.379Z</time></trkpt><trkpt lat="45.8821417" lon="8.654955"><ele>384.0</ele><time>2026-04-04T07:08:18.378Z</time></trkpt><trkpt lat="45.8820417" lon="8.6549117"><ele>384.0</ele><time>2026-04-04T07:08:19.379Z</time></trkpt><trkpt lat="45.88198" lon="8.6548633"><ele>384.0</ele><time>2026-04-04T07:08:20.378Z</time></trkpt><trkpt lat="45.8819117" lon="8.6547417"><ele>384.0</ele><time>2026-04-04T07:08:22.378Z</time></trkpt><trkpt lat="45.8818783" lon="8.6546533"><ele>384.0</ele><time>2026-04-04T07:08:23.378Z</time></trkpt><trkpt lat="45.8818417" lon="8.654545"><ele>384.0</ele><time>2026-04-04T07:08:24.378Z</time></trkpt><trkpt lat="45.8818017" lon="8.6544217"><ele>384.0</ele><time>2026-04-04T07:08:25.379Z</time></trkpt><trkpt lat="45.881755" lon="8.6542867"><ele>384.0</ele><time>2026-04-04T07:08:26.378Z</time></trkpt><trkpt lat="45.881705" lon="8.6541517"><ele>384.0</ele><time>2026-04-04T07:08:27.378Z</time></trkpt><trkpt lat="45.8816517" lon="8.6540317"><ele>384.5</ele><time>2026-04-04T07:08:28.378Z</time></trkpt><trkpt lat="45.8816017" lon="8.6539167"><ele>385.0</ele><time>2026-04-04T07:08:29.378Z</time></trkpt><trkpt lat="45.8815583" lon="8.6538183"><ele>385.5</ele><time>2026-04-04T07:08:30.378Z</time></trkpt><trkpt lat="45.8815133" lon="8.6537317"><ele>386.0</ele><time>2026-04-04T07:08:31.378Z</time></trkpt><trkpt lat="45.8814717" lon="8.653655"><ele>386.5</ele><time>2026-04-04T07:08:32.379Z</time></trkpt><trkpt lat="45.881425" lon="8.6535817"><ele>387.0</ele><time>2026-04-04T07:08:33.379Z</time></trkpt><trkpt lat="45.8813767" lon="8.6535067"><ele>386.14285714285717</ele><time>2026-04-04T07:08:34.379Z</time></trkpt><trkpt lat="45.8813283" lon="8.653435"><ele>385.28571428571433</ele><time>2026-04-04T07:08:35.378Z</time></trkpt><trkpt lat="45.8812767" lon="8.653375"><ele>384.42857142857144</ele><time>2026-04-04T07:08:36.378Z</time></trkpt><trkpt lat="45.8812217" lon="8.6533217"><ele>383.57142857142856</ele><time>2026-04-04T07:08:37.379Z</time></trkpt><trkpt lat="45.881165" lon="8.653265"><ele>382.7142857142857</ele><time>2026-04-04T07:08:38.379Z</time></trkpt><trkpt lat="45.88111" lon="8.6531933"><ele>381.85714285714283</ele><time>2026-04-04T07:08:39.379Z</time></trkpt><trkpt lat="45.8810667" lon="8.653125"><ele>381.0</ele><time>2026-04-04T07:08:40.378Z</time></trkpt><trkpt lat="45.88103" lon="8.653035"><ele>381.0</ele><time>2026-04-04T07:08:41.379Z</time></trkpt><trkpt lat="45.8810017" lon="8.6529117"><ele>381.0</ele><time>2026-04-04T07:08:42.379Z</time></trkpt><trkpt lat="45.880975" lon="8.6527683"><ele>381.0</ele><time>2026-04-04T07:08:43.378Z</time></trkpt><trkpt lat="45.880945" lon="8.6526133"><ele>381.0</ele><time>2026-04-04T07:08:44.378Z</time></trkpt><trkpt lat="45.88091" lon="8.6524783"><ele>381.0</ele><time>2026-04-04T07:08:45.378Z</time></trkpt><trkpt lat="45.88086" lon="8.652345"><ele>381.6</ele><time>2026-04-04T07:08:46.379Z</time></trkpt><trkpt lat="45.8807967" lon="8.6522117"><ele>382.20000000000005</ele><time>2026-04-04T07:08:47.379Z</time></trkpt><trkpt lat="45.880725" lon="8.6520933"><ele>382.79999999999995</ele><time>2026-04-04T07:08:48.379Z</time></trkpt><trkpt lat="45.88066" lon="8.6519917"><ele>383.4</ele><time>2026-04-04T07:08:49.379Z</time></trkpt><trkpt lat="45.8805817" lon="8.6519133"><ele>384.0</ele><time>2026-04-04T07:08:50.378Z</time></trkpt><trkpt lat="45.8805117" lon="8.65184"><ele>384.0</ele><time>2026-04-04T07:08:51.378Z</time></trkpt><trkpt lat="45.880445" lon="8.6517483"><ele>384.0</ele><time>2026-04-04T07:08:52.379Z</time></trkpt><trkpt lat="45.880385" lon="8.65165"><ele>384.0</ele><time>2026-04-04T07:08:53.379Z</time></trkpt><trkpt lat="45.8803283" lon="8.6515217"><ele>384.0</ele><time>2026-04-04T07:08:54.379Z</time></trkpt><trkpt lat="45.880275" lon="8.6513633"><ele>384.0</ele><time>2026-04-04T07:08:55.378Z</time></trkpt><trkpt lat="45.8802367" lon="8.6512033"><ele>384.8333333333333</ele><time>2026-04-04T07:08:56.379Z</time></trkpt><trkpt lat="45.880195" lon="8.6510633"><ele>385.66666666666663</ele><time>2026-04-04T07:08:57.379Z</time></trkpt><trkpt lat="45.88016" lon="8.6509267"><ele>386.5</ele><time>2026-04-04T07:08:58.379Z</time></trkpt><trkpt lat="45.880135" lon="8.6508067"><ele>387.3333333333333</ele><time>2026-04-04T07:08:59.378Z</time></trkpt><trkpt lat="45.8801067" lon="8.6507033"><ele>388.16666666666663</ele><time>2026-04-04T07:09:00.378Z</time></trkpt><trkpt lat="45.8800733" lon="8.650615"><ele>389.0</ele><time>2026-04-04T07:09:01.379Z</time></trkpt><trkpt lat="45.880035" lon="8.6505383"><ele>386.99999999999994</ele><time>2026-04-04T07:09:02.379Z</time></trkpt><trkpt lat="45.8799917" lon="8.650455"><ele>385.0</ele><time>2026-04-04T07:09:03.379Z</time></trkpt><trkpt lat="45.8799433" lon="8.65037"><ele>383.0</ele><time>2026-04-04T07:09:04.378Z</time></trkpt><trkpt lat="45.8798967" lon="8.6502783"><ele>381.0</ele><time>2026-04-04T07:09:05.378Z</time></trkpt><trkpt lat="45.879835" lon="8.6501717"><ele>379.0</ele><time>2026-04-04T07:09:06.379Z</time></trkpt><trkpt lat="45.879775" lon="8.6500417"><ele>377.0</ele><time>2026-04-04T07:09:07.379Z</time></trkpt><trkpt lat="45.879715" lon="8.64991"><ele>377.0</ele><time>2026-04-04T07:09:08.378Z</time></trkpt><trkpt lat="45.87967" lon="8.64978"><ele>377.0</ele><time>2026-04-04T07:09:09.378Z</time></trkpt><trkpt lat="45.8796267" lon="8.6496567"><ele>377.0</ele><time>2026-04-04T07:09:10.378Z</time></trkpt><trkpt lat="45.879585" lon="8.649545"><ele>377.0</ele><time>2026-04-04T07:09:11.379Z</time></trkpt><trkpt lat="45.8795433" lon="8.6494433"><ele>377.0</ele><time>2026-04-04T07:09:12.379Z</time></trkpt><trkpt lat="45.8795083" lon="8.6493583"><ele>377.0</ele><time>2026-04-04T07:09:13.378Z</time></trkpt><trkpt lat="45.8794667" lon="8.649215"><ele>377.0</ele><time>2026-04-04T07:09:15.378Z</time></trkpt><trkpt lat="45.879475" lon="8.64907"><ele>377.0</ele><time>2026-04-04T07:09:17.379Z</time></trkpt><trkpt lat="45.8794983" lon="8.6489717"><ele>377.0</ele><time>2026-04-04T07:09:18.378Z</time></trkpt><trkpt lat="45.8795167" lon="8.6488767"><ele>377.0</ele><time>2026-04-04T07:09:19.378Z</time></trkpt><trkpt lat="45.87953" lon="8.6487817"><ele>377.0</ele><time>2026-04-04T07:09:20.378Z</time></trkpt><trkpt lat="45.8795283" lon="8.6485883"><ele>377.0</ele><time>2026-04-04T07:09:22.379Z</time></trkpt><trkpt lat="45.8795233" lon="8.6484683"><ele>377.0</ele><time>2026-04-04T07:09:23.378Z</time></trkpt><trkpt lat="45.8795183" lon="8.64834"><ele>377.0</ele><time>2026-04-04T07:09:24.378Z</time></trkpt><trkpt lat="45.8795167" lon="8.6482017"><ele>377.0</ele><time>2026-04-04T07:09:25.379Z</time></trkpt><trkpt lat="45.8795267" lon="8.6480617"><ele>377.0</ele><time>2026-04-04T07:09:26.378Z</time></trkpt><trkpt lat="45.8795367" lon="8.6479217"><ele>377.0</ele><time>2026-04-04T07:09:27.379Z</time></trkpt><trkpt lat="45.8795483" lon="8.6477917"><ele>376.0</ele><time>2026-04-04T07:09:28.378Z</time></trkpt><trkpt lat="45.879555" lon="8.647675"><ele>375.0</ele><time>2026-04-04T07:09:29.378Z</time></trkpt><trkpt lat="45.879555" lon="8.64757"><ele>374.0</ele><time>2026-04-04T07:09:30.379Z</time></trkpt><trkpt lat="45.8795483" lon="8.64748"><ele>373.0</ele><time>2026-04-04T07:09:31.378Z</time></trkpt><trkpt lat="45.87953" lon="8.647335"><ele>372.0</ele><time>2026-04-04T07:09:33.378Z</time></trkpt><trkpt lat="45.8795233" lon="8.6472067"><ele>371.0</ele><time>2026-04-04T07:09:35.379Z</time></trkpt><trkpt lat="45.879555" lon="8.647095"><ele>371.0</ele><time>2026-04-04T07:09:37.378Z</time></trkpt><trkpt lat="45.8796183" lon="8.6470083"><ele>371.0</ele><time>2026-04-04T07:09:39.379Z</time></trkpt><trkpt lat="45.8797133" lon="8.64693"><ele>371.0</ele><time>2026-04-04T07:09:41.378Z</time></trkpt><trkpt lat="45.879795" lon="8.6468583"><ele>371.0</ele><time>2026-04-04T07:09:43.379Z</time></trkpt><trkpt lat="45.8798567" lon="8.646775"><ele>371.0</ele><time>2026-04-04T07:09:45.379Z</time></trkpt><trkpt lat="45.8798817" lon="8.6466517"><ele>371.0</ele><time>2026-04-04T07:09:47.379Z</time></trkpt><trkpt lat="45.879885" lon="8.6464517"><ele>371.0</ele><time>2026-04-04T07:09:49.379Z</time></trkpt><trkpt lat="45.8798817" lon="8.6463467"><ele>371.0</ele><time>2026-04-04T07:09:50.378Z</time></trkpt><trkpt lat="45.8798833" lon="8.6462433"><ele>371.0</ele><time>2026-04-04T07:09:51.378Z</time></trkpt><trkpt lat="45.8798883" lon="8.6461217"><ele>371.0</ele><time>2026-04-04T07:09:52.379Z</time></trkpt><trkpt lat="45.8798917" lon="8.6460017"><ele>371.0</ele><time>2026-04-04T07:09:53.379Z</time></trkpt><trkpt lat="45.8798983" lon="8.6458883"><ele>371.0</ele><time>2026-04-04T07:09:54.379Z</time></trkpt><trkpt lat="45.8798983" lon="8.6457733"><ele>371.0</ele><time>2026-04-04T07:09:55.379Z</time></trkpt><trkpt lat="45.8798983" lon="8.64566"><ele>371.0</ele><time>2026-04-04T07:09:56.378Z</time></trkpt><trkpt lat="45.8798867" lon="8.6455133"><ele>371.0</ele><time>2026-04-04T07:09:58.379Z</time></trkpt><trkpt lat="45.8798967" lon="8.6453717"><ele>371.0</ele><time>2026-04-04T07:10:10.378Z</time></trkpt><trkpt lat="45.8799483" lon="8.6452467"><ele>372.83333333333337</ele><time>2026-04-04T07:10:12.379Z</time></trkpt><trkpt lat="45.8799933" lon="8.6451033"><ele>374.6666666666667</ele><time>2026-04-04T07:10:14.379Z</time></trkpt><trkpt lat="45.8800267" lon="8.6449983"><ele>376.5</ele><time>2026-04-04T07:10:16.378Z</time></trkpt><trkpt lat="45.8800383" lon="8.644905"><ele>378.3333333333333</ele><time>2026-04-04T07:10:18.378Z</time></trkpt><trkpt lat="45.8800383" lon="8.6448067"><ele>380.16666666666663</ele><time>2026-04-04T07:10:20.378Z</time></trkpt><trkpt lat="45.8800383" lon="8.644705"><ele>382.0</ele><time>2026-04-04T07:10:22.378Z</time></trkpt><trkpt lat="45.8800317" lon="8.6445983"><ele>382.0</ele><time>2026-04-04T07:10:24.378Z</time></trkpt><trkpt lat="45.8799983" lon="8.644495"><ele>382.0</ele><time>2026-04-04T07:10:26.379Z</time></trkpt><trkpt lat="45.8799317" lon="8.644395"><ele>382.0</ele><time>2026-04-04T07:10:28.378Z</time></trkpt><trkpt lat="45.879855" lon="8.6443133"><ele>382.0</ele><time>2026-04-04T07:10:30.379Z</time></trkpt><trkpt lat="45.87979" lon="8.644255"><ele>382.0</ele><time>2026-04-04T07:10:32.378Z</time></trkpt><trkpt lat="45.8797283" lon="8.6442067"><ele>382.0</ele><time>2026-04-04T07:10:34.379Z</time></trkpt><trkpt lat="45.8796583" lon="8.6441317"><ele>382.0</ele><time>2026-04-04T07:10:37.378Z</time></trkpt><trkpt lat="45.879625" lon="8.6440367"><ele>382.0</ele><time>2026-04-04T07:10:40.379Z</time></trkpt><trkpt lat="45.8796033" lon="8.6439133"><ele>382.0</ele><time>2026-04-04T07:10:43.379Z</time></trkpt><trkpt lat="45.87959" lon="8.6437933"><ele>382.0</ele><time>2026-04-04T07:10:45.378Z</time></trkpt><trkpt lat="45.8795833" lon="8.6436833"><ele>382.0</ele><time>2026-04-04T07:10:47.378Z</time></trkpt><trkpt lat="45.8796" lon="8.6435833"><ele>382.0</ele><time>2026-04-04T07:10:49.379Z</time></trkpt><trkpt lat="45.8796317" lon="8.6434617"><ele>382.0</ele><time>2026-04-04T07:10:51.379Z</time></trkpt><trkpt lat="45.879655" lon="8.6433317"><ele>382.0</ele><time>2026-04-04T07:10:53.379Z</time></trkpt><trkpt lat="45.87968" lon="8.6432167"><ele>382.0</ele><time>2026-04-04T07:10:55.379Z</time></trkpt><trkpt lat="45.8796983" lon="8.6430983"><ele>382.0</ele><time>2026-04-04T07:10:57.378Z</time></trkpt><trkpt lat="45.8797083" lon="8.6429833"><ele>382.0</ele><time>2026-04-04T07:10:59.378Z</time></trkpt><trkpt lat="45.8796983" lon="8.6428617"><ele>382.0</ele><time>2026-04-04T07:11:01.379Z</time></trkpt><trkpt lat="45.87969" lon="8.64273"><ele>382.3333333333333</ele><time>2026-04-04T07:11:03.378Z</time></trkpt><trkpt lat="45.879675" lon="8.6426067"><ele>382.66666666666663</ele><time>2026-04-04T07:11:05.379Z</time></trkpt><trkpt lat="45.8796617" lon="8.642475"><ele>383.0</ele><time>2026-04-04T07:11:07.378Z</time></trkpt><trkpt lat="45.879665" lon="8.6423683"><ele>383.3333333333333</ele><time>2026-04-04T07:11:09.378Z</time></trkpt><trkpt lat="45.8796917" lon="8.6422683"><ele>383.6666666666667</ele><time>2026-04-04T07:11:11.379Z</time></trkpt><trkpt lat="45.87972" lon="8.642165"><ele>384.0</ele><time>2026-04-04T07:11:13.378Z</time></trkpt><trkpt lat="45.8797533" lon="8.6420233"><ele>386.0</ele><time>2026-04-04T07:11:15.378Z</time></trkpt><trkpt lat="45.879805" lon="8.64194"><ele>388.0</ele><time>2026-04-04T07:11:17.378Z</time></trkpt><trkpt lat="45.8798733" lon="8.6418667"><ele>390.0</ele><time>2026-04-04T07:11:19.378Z</time></trkpt><trkpt lat="45.879955" lon="8.6417667"><ele>392.0</ele><time>2026-04-04T07:11:21.378Z</time></trkpt><trkpt lat="45.879995" lon="8.6416533"><ele>394.0</ele><time>2026-04-04T07:11:23.379Z</time></trkpt><trkpt lat="45.8800267" lon="8.6415183"><ele>394.0</ele><time>2026-04-04T07:11:25.378Z</time></trkpt><trkpt lat="45.8800267" lon="8.641365"><ele>394.0</ele><time>2026-04-04T07:11:27.378Z</time></trkpt><trkpt lat="45.8799967" lon="8.6412267"><ele>394.0</ele><time>2026-04-04T07:11:29.378Z</time></trkpt><trkpt lat="45.8799517" lon="8.64109"><ele>394.0</ele><time>2026-04-04T07:11:31.378Z</time></trkpt><trkpt lat="45.8799217" lon="8.6409683"><ele>394.0</ele><time>2026-04-04T07:11:33.378Z</time></trkpt><trkpt lat="45.8798867" lon="8.6408883"><ele>397.1666666666667</ele><time>2026-04-04T07:11:35.378Z</time></trkpt><trkpt lat="45.8798917" lon="8.6407967"><ele>400.33333333333337</ele><time>2026-04-04T07:11:38.379Z</time></trkpt><trkpt lat="45.87993" lon="8.6407067"><ele>403.5</ele><time>2026-04-04T07:11:53.378Z</time></trkpt><trkpt lat="45.8799483" lon="8.640615"><ele>406.66666666666663</ele><time>2026-04-04T07:11:56.379Z</time></trkpt><trkpt lat="45.8799083" lon="8.64052"><ele>409.8333333333333</ele><time>2026-04-04T07:11:59.378Z</time></trkpt><trkpt lat="45.8797996" lon="8.6404698"><ele>413.0</ele><time>2026-04-04T07:13:32.459Z</time></trkpt><trkpt lat="45.8797087" lon="8.6404802"><ele>413.0</ele><time>2026-04-04T07:13:33.378Z</time></trkpt><trkpt lat="45.8796305" lon="8.6404981"><ele>413.0</ele><time>2026-04-04T07:13:34.379Z</time></trkpt><trkpt lat="45.8795417" lon="8.6405417"><ele>413.0</ele><time>2026-04-04T07:13:35.379Z</time></trkpt><trkpt lat="45.8794867" lon="8.64059"><ele>413.0</ele><time>2026-04-04T07:13:36.378Z</time></trkpt><trkpt lat="45.879385" lon="8.6406583"><ele>413.0</ele><time>2026-04-04T07:13:38.378Z</time></trkpt><trkpt lat="45.8792717" lon="8.64071"><ele>411.59999999999997</ele><time>2026-04-04T07:13:40.379Z</time></trkpt><trkpt lat="45.8791633" lon="8.6407317"><ele>410.2</ele><time>2026-04-04T07:13:42.379Z</time></trkpt><trkpt lat="45.879065" lon="8.6407017"><ele>408.8</ele><time>2026-04-04T07:13:44.378Z</time></trkpt><trkpt lat="45.8790067" lon="8.6406467"><ele>407.4</ele><time>2026-04-04T07:13:46.379Z</time></trkpt><trkpt lat="45.8789817" lon="8.640535"><ele>406.0</ele><time>2026-04-04T07:13:49.378Z</time></trkpt><trkpt lat="45.8790367" lon="8.6404283"><ele>406.0</ele><time>2026-04-04T07:13:51.378Z</time></trkpt><trkpt lat="45.87914" lon="8.6403083"><ele>406.0</ele><time>2026-04-04T07:13:53.379Z</time></trkpt><trkpt lat="45.87919" lon="8.6402483"><ele>406.0</ele><time>2026-04-04T07:13:54.378Z</time></trkpt><trkpt lat="45.8792717" lon="8.6401133"><ele>406.0</ele><time>2026-04-04T07:13:56.378Z</time></trkpt><trkpt lat="45.8793633" lon="8.6399917"><ele>406.0</ele><time>2026-04-04T07:13:58.379Z</time></trkpt><trkpt lat="45.8794683" lon="8.63994"><ele>410.00000000000006</ele><time>2026-04-04T07:14:00.378Z</time></trkpt><trkpt lat="45.8795383" lon="8.6399483"><ele>414.0</ele><time>2026-04-04T07:14:01.379Z</time></trkpt><trkpt lat="45.8796167" lon="8.639965"><ele>418.0</ele><time>2026-04-04T07:14:02.378Z</time></trkpt><trkpt lat="45.8796867" lon="8.6399717"><ele>422.0</ele><time>2026-04-04T07:14:03.378Z</time></trkpt><trkpt lat="45.8797533" lon="8.6399533"><ele>426.00000000000006</ele><time>2026-04-04T07:14:04.378Z</time></trkpt><trkpt lat="45.8798483" lon="8.6398617"><ele>430.0</ele><time>2026-04-04T07:14:06.378Z</time></trkpt><trkpt lat="45.879895" lon="8.6396883"><ele>430.0</ele><time>2026-04-04T07:14:08.379Z</time></trkpt><trkpt lat="45.8799" lon="8.6395967"><ele>430.0</ele><time>2026-04-04T07:14:09.379Z</time></trkpt><trkpt lat="45.879895" lon="8.639485"><ele>430.0</ele><time>2026-04-04T07:14:10.378Z</time></trkpt><trkpt lat="45.8798867" lon="8.6393783"><ele>430.0</ele><time>2026-04-04T07:14:11.378Z</time></trkpt><trkpt lat="45.8798767" lon="8.6392717"><ele>430.0</ele><time>2026-04-04T07:14:12.378Z</time></trkpt><trkpt lat="45.8798683" lon="8.63916"><ele>430.0</ele><time>2026-04-04T07:14:13.379Z</time></trkpt><trkpt lat="45.87985" lon="8.6390517"><ele>430.0</ele><time>2026-04-04T07:14:14.379Z</time></trkpt><trkpt lat="45.8798367" lon="8.638945"><ele>432.1666666666667</ele><time>2026-04-04T07:14:15.378Z</time></trkpt><trkpt lat="45.8798233" lon="8.63884"><ele>434.33333333333337</ele><time>2026-04-04T07:14:16.378Z</time></trkpt><trkpt lat="45.8798117" lon="8.63873"><ele>436.5</ele><time>2026-04-04T07:14:17.378Z</time></trkpt><trkpt lat="45.8798" lon="8.6386167"><ele>438.66666666666663</ele><time>2026-04-04T07:14:18.379Z</time></trkpt><trkpt lat="45.8797917" lon="8.6385017"><ele>440.8333333333333</ele><time>2026-04-04T07:14:19.378Z</time></trkpt><trkpt lat="45.8797783" lon="8.6383833"><ele>443.0</ele><time>2026-04-04T07:14:20.378Z</time></trkpt><trkpt lat="45.879765" lon="8.6382633"><ele>443.99999999999994</ele><time>2026-04-04T07:14:21.379Z</time></trkpt><trkpt lat="45.8797567" lon="8.6381483"><ele>445.0</ele><time>2026-04-04T07:14:22.378Z</time></trkpt><trkpt lat="45.879745" lon="8.63803"><ele>446.0</ele><time>2026-04-04T07:14:23.379Z</time></trkpt><trkpt lat="45.879735" lon="8.6379183"><ele>447.0</ele><time>2026-04-04T07:14:24.378Z</time></trkpt><trkpt lat="45.8797183" lon="8.6378017"><ele>447.99999999999994</ele><time>2026-04-04T07:14:25.378Z</time></trkpt><trkpt lat="45.8797033" lon="8.6376883"><ele>449.0</ele><time>2026-04-04T07:14:26.378Z</time></trkpt><trkpt lat="45.87969" lon="8.6375767"><ele>449.49999999999994</ele><time>2026-04-04T07:14:27.379Z</time></trkpt><trkpt lat="45.87967" lon="8.6374633"><ele>450.0</ele><time>2026-04-04T07:14:28.378Z</time></trkpt><trkpt lat="45.879645" lon="8.637345"><ele>450.5</ele><time>2026-04-04T07:14:29.378Z</time></trkpt><trkpt lat="45.8796267" lon="8.6372317"><ele>451.0</ele><time>2026-04-04T07:14:30.378Z</time></trkpt><trkpt lat="45.87963" lon="8.6371317"><ele>451.49999999999994</ele><time>2026-04-04T07:14:31.378Z</time></trkpt><trkpt lat="45.8796533" lon="8.6370383"><ele>452.0</ele><time>2026-04-04T07:14:32.379Z</time></trkpt><trkpt lat="45.8796967" lon="8.6369533"><ele>452.3333333333333</ele><time>2026-04-04T07:14:33.379Z</time></trkpt><trkpt lat="45.8797517" lon="8.6368733"><ele>452.66666666666663</ele><time>2026-04-04T07:14:34.379Z</time></trkpt><trkpt lat="45.87981" lon="8.6367817"><ele>453.0</ele><time>2026-04-04T07:14:35.379Z</time></trkpt><trkpt lat="45.879865" lon="8.636675"><ele>453.33333333333337</ele><time>2026-04-04T07:14:36.379Z</time></trkpt><trkpt lat="45.8799217" lon="8.6365633"><ele>453.6666666666667</ele><time>2026-04-04T07:14:37.378Z</time></trkpt><trkpt lat="45.8799733" lon="8.636455"><ele>454.0</ele><time>2026-04-04T07:14:38.379Z</time></trkpt><trkpt lat="45.880015" lon="8.63635"><ele>454.0</ele><time>2026-04-04T07:14:39.378Z</time></trkpt><trkpt lat="45.8800567" lon="8.6362667"><ele>454.0</ele><time>2026-04-04T07:14:40.378Z</time></trkpt><trkpt lat="45.88012" lon="8.63614"><ele>454.0</ele><time>2026-04-04T07:14:42.378Z</time></trkpt><trkpt lat="45.880185" lon="8.6360333"><ele>454.0</ele><time>2026-04-04T07:14:44.379Z</time></trkpt><trkpt lat="45.880275" lon="8.635945"><ele>454.0</ele><time>2026-04-04T07:14:46.379Z</time></trkpt><trkpt lat="45.880355" lon="8.6358733"><ele>452.79999999999995</ele><time>2026-04-04T07:14:48.378Z</time></trkpt><trkpt lat="45.8803933" lon="8.6357667"><ele>451.59999999999997</ele><time>2026-04-04T07:14:50.378Z</time></trkpt><trkpt lat="45.8804167" lon="8.6356283"><ele>450.4</ele><time>2026-04-04T07:14:52.379Z</time></trkpt><trkpt lat="45.880425" lon="8.6354717"><ele>449.2</ele><time>2026-04-04T07:14:54.378Z</time></trkpt><trkpt lat="45.8804383" lon="8.6352967"><ele>448.0</ele><time>2026-04-04T07:14:56.379Z</time></trkpt><trkpt lat="45.8804617" lon="8.63518"><ele>448.00000000000006</ele><time>2026-04-04T07:14:57.378Z</time></trkpt><trkpt lat="45.8804933" lon="8.6350717"><ele>448.0</ele><time>2026-04-04T07:14:58.378Z</time></trkpt><trkpt lat="45.88052" lon="8.6349717"><ele>448.0</ele><time>2026-04-04T07:14:59.378Z</time></trkpt><trkpt lat="45.88053" lon="8.6348767"><ele>448.0</ele><time>2026-04-04T07:15:00.378Z</time></trkpt><trkpt lat="45.88052" lon="8.6347183"><ele>448.00000000000006</ele><time>2026-04-04T07:15:02.378Z</time></trkpt><trkpt lat="45.8804783" lon="8.6346167"><ele>448.0</ele><time>2026-04-04T07:15:03.378Z</time></trkpt><trkpt lat="45.8804383" lon="8.634525"><ele>447.33333333333337</ele><time>2026-04-04T07:15:04.378Z</time></trkpt><trkpt lat="45.8803983" lon="8.6344533"><ele>446.6666666666667</ele><time>2026-04-04T07:15:05.378Z</time></trkpt><trkpt lat="45.88035" lon="8.634365"><ele>446.0</ele><time>2026-04-04T07:15:07.379Z</time></trkpt><trkpt lat="45.8804383" lon="8.6343083"><ele>445.33333333333337</ele><time>2026-04-04T07:15:11.378Z</time></trkpt><trkpt lat="45.8804883" lon="8.6342533"><ele>444.6666666666667</ele><time>2026-04-04T07:15:13.378Z</time></trkpt><trkpt lat="45.8805333" lon="8.6341417"><ele>444.0</ele><time>2026-04-04T07:15:16.378Z</time></trkpt><trkpt lat="45.880565" lon="8.6340483"><ele>444.0</ele><time>2026-04-04T07:15:19.378Z</time></trkpt><trkpt lat="45.8806483" lon="8.634055"><ele>444.0</ele><time>2026-04-04T07:15:23.379Z</time></trkpt><trkpt lat="45.880785" lon="8.63408"><ele>444.0</ele><time>2026-04-04T07:15:25.378Z</time></trkpt><trkpt lat="45.880875" lon="8.6340917"><ele>444.0</ele><time>2026-04-04T07:15:26.378Z</time></trkpt><trkpt lat="45.8809717" lon="8.6340983"><ele>444.0</ele><time>2026-04-04T07:15:27.378Z</time></trkpt><trkpt lat="45.8810817" lon="8.6341083"><ele>444.1666666666667</ele><time>2026-04-04T07:15:28.378Z</time></trkpt><trkpt lat="45.881185" lon="8.6340967"><ele>444.33333333333337</ele><time>2026-04-04T07:15:29.378Z</time></trkpt><trkpt lat="45.881275" lon="8.6340767"><ele>444.5</ele><time>2026-04-04T07:15:30.378Z</time></trkpt><trkpt lat="45.8813583" lon="8.6340583"><ele>444.6666666666667</ele><time>2026-04-04T07:15:31.378Z</time></trkpt><trkpt lat="45.881425" lon="8.6340333"><ele>444.83333333333337</ele><time>2026-04-04T07:15:32.378Z</time></trkpt><trkpt lat="45.8814833" lon="8.6339933"><ele>445.0</ele><time>2026-04-04T07:15:33.378Z</time></trkpt><trkpt lat="45.881555" lon="8.6339367"><ele>445.0</ele><time>2026-04-04T07:15:34.379Z</time></trkpt><trkpt lat="45.881625" lon="8.6338467"><ele>445.0</ele><time>2026-04-04T07:15:35.379Z</time></trkpt><trkpt lat="45.881695" lon="8.6337483"><ele>445.0</ele><time>2026-04-04T07:15:36.378Z</time></trkpt><trkpt lat="45.881765" lon="8.6336283"><ele>445.0</ele><time>2026-04-04T07:15:37.378Z</time></trkpt><trkpt lat="45.8818167" lon="8.633525"><ele>445.0</ele><time>2026-04-04T07:15:38.378Z</time></trkpt><trkpt lat="45.8818683" lon="8.6334217"><ele>443.50000000000006</ele><time>2026-04-04T07:15:39.379Z</time></trkpt><trkpt lat="45.881915" lon="8.63336"><ele>442.0</ele><time>2026-04-04T07:15:40.379Z</time></trkpt><trkpt lat="45.8819933" lon="8.6333233"><ele>440.5</ele><time>2026-04-04T07:15:42.378Z</time></trkpt><trkpt lat="45.8820533" lon="8.633295"><ele>439.0</ele><time>2026-04-04T07:15:44.379Z</time></trkpt><trkpt lat="45.8821183" lon="8.6333383"><ele>437.50000000000006</ele><time>2026-04-04T07:15:46.378Z</time></trkpt><trkpt lat="45.8822083" lon="8.6334167"><ele>436.0</ele><time>2026-04-04T07:15:48.379Z</time></trkpt><trkpt lat="45.8823067" lon="8.6334867"><ele>436.0</ele><time>2026-04-04T07:15:50.378Z</time></trkpt><trkpt lat="45.882375" lon="8.63353"><ele>436.0</ele><time>2026-04-04T07:15:53.379Z</time></trkpt><trkpt lat="45.8824967" lon="8.6336117"><ele>436.0</ele><time>2026-04-04T07:16:50.378Z</time></trkpt><trkpt lat="45.8825917" lon="8.63366"><ele>436.0</ele><time>2026-04-04T07:16:52.378Z</time></trkpt><trkpt lat="45.882655" lon="8.633675"><ele>436.0</ele><time>2026-04-04T07:16:53.379Z</time></trkpt><trkpt lat="45.8827783" lon="8.6336933"><ele>434.6</ele><time>2026-04-04T07:16:55.378Z</time></trkpt><trkpt lat="45.8828917" lon="8.6337183"><ele>433.20000000000005</ele><time>2026-04-04T07:16:57.379Z</time></trkpt><trkpt lat="45.88298" lon="8.6337483"><ele>431.79999999999995</ele><time>2026-04-04T07:16:59.378Z</time></trkpt><trkpt lat="45.883075" lon="8.6337617"><ele>430.4</ele><time>2026-04-04T07:17:01.378Z</time></trkpt><trkpt lat="45.883165" lon="8.633775"><ele>429.0</ele><time>2026-04-04T07:17:03.378Z</time></trkpt><trkpt lat="45.8832533" lon="8.63386"><ele>429.0</ele><time>2026-04-04T07:17:05.379Z</time></trkpt><trkpt lat="45.883345" lon="8.63397"><ele>429.0</ele><time>2026-04-04T07:17:07.378Z</time></trkpt><trkpt lat="45.8834267" lon="8.6340683"><ele>429.0</ele><time>2026-04-04T07:17:09.378Z</time></trkpt><trkpt lat="45.8835183" lon="8.6341217"><ele>429.0</ele><time>2026-04-04T07:17:11.378Z</time></trkpt><trkpt lat="45.88359" lon="8.634185"><ele>429.0</ele><time>2026-04-04T07:17:13.378Z</time></trkpt><trkpt lat="45.8836717" lon="8.6342517"><ele>427.6</ele><time>2026-04-04T07:17:15.379Z</time></trkpt><trkpt lat="45.883755" lon="8.6343033"><ele>426.2</ele><time>2026-04-04T07:17:17.379Z</time></trkpt><trkpt lat="45.8838417" lon="8.634365"><ele>424.8</ele><time>2026-04-04T07:17:19.378Z</time></trkpt><trkpt lat="45.8839367" lon="8.6344633"><ele>423.40000000000003</ele><time>2026-04-04T07:17:21.379Z</time></trkpt><trkpt lat="45.8840233" lon="8.6345417"><ele>422.0</ele><time>2026-04-04T07:17:23.379Z</time></trkpt><trkpt lat="45.8840983" lon="8.63458"><ele>422.0</ele><time>2026-04-04T07:17:25.378Z</time></trkpt><trkpt lat="45.8841533" lon="8.63465"><ele>422.0</ele><time>2026-04-04T07:17:27.378Z</time></trkpt><trkpt lat="45.8842283" lon="8.6347017"><ele>422.0</ele><time>2026-04-04T07:17:29.379Z</time></trkpt><trkpt lat="45.8843233" lon="8.634725"><ele>422.0</ele><time>2026-04-04T07:17:32.378Z</time></trkpt><trkpt lat="45.8844133" lon="8.63475"><ele>422.0</ele><time>2026-04-04T07:17:34.379Z</time></trkpt><trkpt lat="45.88452" lon="8.6347783"><ele>417.66666666666663</ele><time>2026-04-04T07:17:36.378Z</time></trkpt><trkpt lat="45.8846133" lon="8.6348117"><ele>413.3333333333333</ele><time>2026-04-04T07:17:38.378Z</time></trkpt><trkpt lat="45.88469" lon="8.634855"><ele>409.0</ele><time>2026-04-04T07:17:40.378Z</time></trkpt><trkpt lat="45.88475" lon="8.63493"><ele>404.66666666666663</ele><time>2026-04-04T07:17:42.379Z</time></trkpt><trkpt lat="45.8848117" lon="8.6350217"><ele>400.3333333333333</ele><time>2026-04-04T07:17:44.378Z</time></trkpt><trkpt lat="45.884865" lon="8.635105"><ele>396.0</ele><time>2026-04-04T07:17:46.379Z</time></trkpt><trkpt lat="45.88493" lon="8.6351783"><ele>396.0</ele><time>2026-04-04T07:17:48.379Z</time></trkpt><trkpt lat="45.8849967" lon="8.63524"><ele>396.0</ele><time>2026-04-04T07:17:50.379Z</time></trkpt><trkpt lat="45.8850567" lon="8.635315"><ele>396.0</ele><time>2026-04-04T07:17:52.379Z</time></trkpt><trkpt lat="45.8851417" lon="8.6354417"><ele>396.0</ele><time>2026-04-04T07:17:54.378Z</time></trkpt><trkpt lat="45.885195" lon="8.635505"><ele>396.0</ele><time>2026-04-04T07:17:55.379Z</time></trkpt><trkpt lat="45.8852433" lon="8.6355733"><ele>396.0</ele><time>2026-04-04T07:17:56.378Z</time></trkpt><trkpt lat="45.8852933" lon="8.6356617"><ele>394.5</ele><time>2026-04-04T07:17:57.378Z</time></trkpt><trkpt lat="45.8853333" lon="8.6357383"><ele>393.0</ele><time>2026-04-04T07:17:58.379Z</time></trkpt><trkpt lat="45.8854033" lon="8.6358717"><ele>391.5</ele><time>2026-04-04T07:18:00.378Z</time></trkpt><trkpt lat="45.885475" lon="8.6360217"><ele>390.0</ele><time>2026-04-04T07:18:02.378Z</time></trkpt><trkpt lat="45.885515" lon="8.6361017"><ele>388.5</ele><time>2026-04-04T07:18:03.378Z</time></trkpt><trkpt lat="45.885545" lon="8.6361883"><ele>387.0</ele><time>2026-04-04T07:18:04.378Z</time></trkpt><trkpt lat="45.88558" lon="8.6362667"><ele>387.0</ele><time>2026-04-04T07:18:05.379Z</time></trkpt><trkpt lat="45.8856283" lon="8.6364"><ele>387.0</ele><time>2026-04-04T07:18:07.378Z</time></trkpt><trkpt lat="45.8856967" lon="8.6364817"><ele>387.0</ele><time>2026-04-04T07:18:09.378Z</time></trkpt><trkpt lat="45.8857967" lon="8.6365817"><ele>387.0</ele><time>2026-04-04T07:18:11.379Z</time></trkpt><trkpt lat="45.8858533" lon="8.6366617"><ele>387.0</ele><time>2026-04-04T07:18:12.378Z</time></trkpt><trkpt lat="45.8859133" lon="8.6367483"><ele>385.5</ele><time>2026-04-04T07:18:13.379Z</time></trkpt><trkpt lat="45.8859633" lon="8.6368433"><ele>384.0</ele><time>2026-04-04T07:18:14.378Z</time></trkpt><trkpt lat="45.8860217" lon="8.6369267"><ele>382.5</ele><time>2026-04-04T07:18:15.378Z</time></trkpt><trkpt lat="45.88607" lon="8.6369983"><ele>381.0</ele><time>2026-04-04T07:18:16.379Z</time></trkpt><trkpt lat="45.886135" lon="8.637115"><ele>379.5</ele><time>2026-04-04T07:18:18.378Z</time></trkpt><trkpt lat="45.8861967" lon="8.63722"><ele>378.0</ele><time>2026-04-04T07:18:20.378Z</time></trkpt><trkpt lat="45.8862567" lon="8.6373417"><ele>378.0</ele><time>2026-04-04T07:18:22.378Z</time></trkpt><trkpt lat="45.8863183" lon="8.63743"><ele>378.0</ele><time>2026-04-04T07:18:24.379Z</time></trkpt><trkpt lat="45.8863583" lon="8.63751"><ele>378.0</ele><time>2026-04-04T07:18:26.379Z</time></trkpt><trkpt lat="45.88642" lon="8.6375317"><ele>378.0</ele><time>2026-04-04T07:18:28.379Z</time></trkpt><trkpt lat="45.8865133" lon="8.6375233"><ele>378.0</ele><time>2026-04-04T07:18:30.379Z</time></trkpt><trkpt lat="45.8865933" lon="8.6375517"><ele>378.0</ele><time>2026-04-04T07:18:32.379Z</time></trkpt><trkpt lat="45.886665" lon="8.6375533"><ele>378.0</ele><time>2026-04-04T07:18:34.379Z</time></trkpt><trkpt lat="45.88675" lon="8.6375433"><ele>378.0</ele><time>2026-04-04T07:18:36.379Z</time></trkpt><trkpt lat="45.8868217" lon="8.6375617"><ele>378.0</ele><time>2026-04-04T07:18:38.379Z</time></trkpt><trkpt lat="45.886875" lon="8.63761"><ele>378.0</ele><time>2026-04-04T07:18:40.378Z</time></trkpt><trkpt lat="45.8869317" lon="8.63769"><ele>378.0</ele><time>2026-04-04T07:18:42.379Z</time></trkpt><trkpt lat="45.8869883" lon="8.637805"><ele>378.0</ele><time>2026-04-04T07:18:44.378Z</time></trkpt><trkpt lat="45.8870433" lon="8.6379317"><ele>377.0</ele><time>2026-04-04T07:18:46.378Z</time></trkpt><trkpt lat="45.88708" lon="8.6380133"><ele>376.0</ele><time>2026-04-04T07:18:47.379Z</time></trkpt><trkpt lat="45.8871267" lon="8.6381017"><ele>375.0</ele><time>2026-04-04T07:18:48.379Z</time></trkpt><trkpt lat="45.88718" lon="8.6382017"><ele>374.0</ele><time>2026-04-04T07:18:49.378Z</time></trkpt><trkpt lat="45.8872283" lon="8.63833"><ele>373.0</ele><time>2026-04-04T07:18:50.379Z</time></trkpt><trkpt lat="45.8872883" lon="8.6384583"><ele>372.0</ele><time>2026-04-04T07:18:51.378Z</time></trkpt><trkpt lat="45.8873317" lon="8.63858"><ele>373.5</ele><time>2026-04-04T07:18:52.379Z</time></trkpt><trkpt lat="45.887365" lon="8.638675"><ele>375.0</ele><time>2026-04-04T07:18:53.378Z</time></trkpt><trkpt lat="45.8874083" lon="8.63879"><ele>376.5</ele><time>2026-04-04T07:18:55.379Z</time></trkpt><trkpt lat="45.8874417" lon="8.638925"><ele>378.0</ele><time>2026-04-04T07:18:58.379Z</time></trkpt><trkpt lat="45.8874883" lon="8.6390433"><ele>379.5</ele><time>2026-04-04T07:19:00.379Z</time></trkpt><trkpt lat="45.8875417" lon="8.639115"><ele>381.0</ele><time>2026-04-04T07:19:03.379Z</time></trkpt><trkpt lat="45.8876467" lon="8.6390067"><ele>375.3333333333333</ele><time>2026-04-04T07:19:28.378Z</time></trkpt><trkpt lat="45.88769" lon="8.638815"><ele>369.6666666666667</ele><time>2026-04-04T07:19:57.379Z</time></trkpt><trkpt lat="45.8877033" lon="8.63871"><ele>364.0</ele><time>2026-04-04T07:19:59.379Z</time></trkpt><trkpt lat="45.8877133" lon="8.638585"><ele>358.33333333333337</ele><time>2026-04-04T07:20:02.378Z</time></trkpt><trkpt lat="45.8877433" lon="8.6385033"><ele>352.6666666666667</ele><time>2026-04-04T07:20:05.379Z</time></trkpt><trkpt lat="45.88777" lon="8.6384183"><ele>347.0</ele><time>2026-04-04T07:20:08.378Z</time></trkpt><trkpt lat="45.88779" lon="8.6383283"><ele>346.0</ele><time>2026-04-04T07:20:10.378Z</time></trkpt><trkpt lat="45.8878117" lon="8.638215"><ele>345.0</ele><time>2026-04-04T07:20:13.378Z</time></trkpt><trkpt lat="45.8878533" lon="8.6381217"><ele>344.0</ele><time>2026-04-04T07:20:16.379Z</time></trkpt><trkpt lat="45.887885" lon="8.638035"><ele>343.0</ele><time>2026-04-04T07:20:18.378Z</time></trkpt><trkpt lat="45.8879133" lon="8.637925"><ele>342.0</ele><time>2026-04-04T07:20:20.378Z</time></trkpt><trkpt lat="45.8879483" lon="8.6378183"><ele>341.0</ele><time>2026-04-04T07:20:22.378Z</time></trkpt><trkpt lat="45.88798" lon="8.6377317"><ele>339.42857142857144</ele><time>2026-04-04T07:20:24.378Z</time></trkpt><trkpt lat="45.8879683" lon="8.6376"><ele>337.8571428571429</ele><time>2026-04-04T07:20:27.379Z</time></trkpt><trkpt lat="45.88796" lon="8.6374967"><ele>336.28571428571433</ele><time>2026-04-04T07:20:29.378Z</time></trkpt><trkpt lat="45.8879567" lon="8.6374033"><ele>334.7142857142857</ele><time>2026-04-04T07:20:31.378Z</time></trkpt><trkpt lat="45.8879367" lon="8.637315"><ele>333.14285714285717</ele><time>2026-04-04T07:20:39.378Z</time></trkpt><trkpt lat="45.887955" lon="8.6372067"><ele>331.5714285714286</ele><time>2026-04-04T07:22:12.378Z</time></trkpt><trkpt lat="45.88793" lon="8.63711"><ele>330.0</ele><time>2026-04-04T07:22:17.379Z</time></trkpt><trkpt lat="45.887885" lon="8.6370367"><ele>328.0</ele><time>2026-04-04T07:22:21.379Z</time></trkpt><trkpt lat="45.8879" lon="8.636935"><ele>326.0</ele><time>2026-04-04T07:22:26.378Z</time></trkpt><trkpt lat="45.8879533" lon="8.6368533"><ele>324.0</ele><time>2026-04-04T07:22:30.379Z</time></trkpt><trkpt lat="45.8880217" lon="8.6367617"><ele>322.0</ele><time>2026-04-04T07:22:33.378Z</time></trkpt><trkpt lat="45.8880967" lon="8.6366983"><ele>320.0</ele><time>2026-04-04T07:22:36.378Z</time></trkpt><trkpt lat="45.8881583" lon="8.6366783"><ele>318.0</ele><time>2026-04-04T07:22:38.378Z</time></trkpt><trkpt lat="45.8882217" lon="8.63666"><ele>318.0</ele><time>2026-04-04T07:22:48.379Z</time></trkpt><trkpt lat="45.88823" lon="8.6365467"><ele>318.0</ele><time>2026-04-04T07:22:53.378Z</time></trkpt><trkpt lat="45.88822" lon="8.6364383"><ele>318.0</ele><time>2026-04-04T07:22:55.378Z</time></trkpt><trkpt lat="45.8882017" lon="8.6363133"><ele>318.0</ele><time>2026-04-04T07:22:57.378Z</time></trkpt><trkpt lat="45.88817" lon="8.636195"><ele>318.0</ele><time>2026-04-04T07:22:59.378Z</time></trkpt><trkpt lat="45.8881317" lon="8.6360967"><ele>318.0</ele><time>2026-04-04T07:23:01.379Z</time></trkpt><trkpt lat="45.88809" lon="8.6360267"><ele>315.57142857142856</ele><time>2026-04-04T07:23:03.378Z</time></trkpt><trkpt lat="45.8880267" lon="8.6359683"><ele>313.14285714285717</ele><time>2026-04-04T07:23:05.379Z</time></trkpt><trkpt lat="45.8879617" lon="8.6359267"><ele>310.7142857142857</ele><time>2026-04-04T07:23:07.378Z</time></trkpt><trkpt lat="45.887905" lon="8.6358717"><ele>308.2857142857143</ele><time>2026-04-04T07:23:09.378Z</time></trkpt><trkpt lat="45.8878567" lon="8.6357933"><ele>305.8571428571429</ele><time>2026-04-04T07:23:11.379Z</time></trkpt><trkpt lat="45.8878067" lon="8.6357167"><ele>303.42857142857144</ele><time>2026-04-04T07:23:13.378Z</time></trkpt><trkpt lat="45.8877517" lon="8.63563"><ele>301.0</ele><time>2026-04-04T07:23:15.378Z</time></trkpt><trkpt lat="45.887705" lon="8.63556"><ele>301.0</ele><time>2026-04-04T07:23:20.378Z</time></trkpt><trkpt lat="45.8876767" lon="8.635465"><ele>301.0</ele><time>2026-04-04T07:23:24.378Z</time></trkpt><trkpt lat="45.88771" lon="8.635385"><ele>301.0</ele><time>2026-04-04T07:23:26.378Z</time></trkpt><trkpt lat="45.8877467" lon="8.6353017"><ele>301.0</ele><time>2026-04-04T07:23:28.378Z</time></trkpt><trkpt lat="45.8877867" lon="8.6352117"><ele>301.0</ele><time>2026-04-04T07:23:30.379Z</time></trkpt><trkpt lat="45.8878317" lon="8.6351317"><ele>301.0</ele><time>2026-04-04T07:23:33.378Z</time></trkpt><trkpt lat="45.8878817" lon="8.6350583"><ele>301.0</ele><time>2026-04-04T07:23:39.379Z</time></trkpt><trkpt lat="45.8879483" lon="8.635025"><ele>298.85714285714283</ele><time>2026-04-04T07:23:46.378Z</time></trkpt><trkpt lat="45.8880133" lon="8.6350017"><ele>296.7142857142857</ele><time>2026-04-04T07:23:50.378Z</time></trkpt><trkpt lat="45.8880767" lon="8.6349833"><ele>294.57142857142856</ele><time>2026-04-04T07:23:53.378Z</time></trkpt><trkpt lat="45.8881467" lon="8.6349433"><ele>292.42857142857144</ele><time>2026-04-04T07:23:56.378Z</time></trkpt><trkpt lat="45.8881983" lon="8.63488"><ele>290.2857142857143</ele><time>2026-04-04T07:23:59.378Z</time></trkpt><trkpt lat="45.888235" lon="8.6347967"><ele>288.1428571428571</ele><time>2026-04-04T07:24:02.378Z</time></trkpt><trkpt lat="45.8882867" lon="8.63469"><ele>286.0</ele><time>2026-04-04T07:24:06.378Z</time></trkpt><trkpt lat="45.8883167" lon="8.6345883"><ele>286.0</ele><time>2026-04-04T07:24:08.379Z</time></trkpt><trkpt lat="45.88832" lon="8.6344817"><ele>286.0</ele><time>2026-04-04T07:24:10.378Z</time></trkpt><trkpt lat="45.888315" lon="8.6343883"><ele>286.0</ele><time>2026-04-04T07:24:12.379Z</time></trkpt><trkpt lat="45.8883117" lon="8.6342867"><ele>286.0</ele><time>2026-04-04T07:24:17.378Z</time></trkpt><trkpt lat="45.8883317" lon="8.634165"><ele>286.0</ele><time>2026-04-04T07:24:21.378Z</time></trkpt><trkpt lat="45.888345" lon="8.6340433"><ele>286.0</ele><time>2026-04-04T07:24:24.378Z</time></trkpt><trkpt lat="45.8883617" lon="8.6339233"><ele>284.0</ele><time>2026-04-04T07:24:27.378Z</time></trkpt><trkpt lat="45.8883533" lon="8.6338167"><ele>282.0</ele><time>2026-04-04T07:24:30.379Z</time></trkpt><trkpt lat="45.8882967" lon="8.6337317"><ele>280.0</ele><time>2026-04-04T07:24:33.378Z</time></trkpt><trkpt lat="45.8882917" lon="8.6336167"><ele>278.0</ele><time>2026-04-04T07:24:37.379Z</time></trkpt><trkpt lat="45.8883483" lon="8.6335017"><ele>276.0</ele><time>2026-04-04T07:24:40.378Z</time></trkpt><trkpt lat="45.8884083" lon="8.633405"><ele>274.0</ele><time>2026-04-04T07:24:42.379Z</time></trkpt><trkpt lat="45.8884717" lon="8.6333417"><ele>269.4</ele><time>2026-04-04T07:24:44.378Z</time></trkpt><trkpt lat="45.888555" lon="8.633335"><ele>264.79999999999995</ele><time>2026-04-04T07:24:46.379Z</time></trkpt><trkpt lat="45.8886583" lon="8.6333983"><ele>260.20000000000005</ele><time>2026-04-04T07:24:48.378Z</time></trkpt><trkpt lat="45.888755" lon="8.6335067"><ele>255.60000000000002</ele><time>2026-04-04T07:24:50.379Z</time></trkpt><trkpt lat="45.8888217" lon="8.6335667"><ele>251.0</ele><time>2026-04-04T07:24:51.378Z</time></trkpt><trkpt lat="45.8888833" lon="8.6336383"><ele>250.16666666666669</ele><time>2026-04-04T07:24:52.379Z</time></trkpt><trkpt lat="45.8889367" lon="8.6337017"><ele>249.33333333333334</ele><time>2026-04-04T07:24:53.379Z</time></trkpt><trkpt lat="45.889035" lon="8.6338167"><ele>248.5</ele><time>2026-04-04T07:24:55.379Z</time></trkpt><trkpt lat="45.8890883" lon="8.633885"><ele>247.66666666666669</ele><time>2026-04-04T07:24:56.379Z</time></trkpt><trkpt lat="45.8891433" lon="8.6339533"><ele>246.83333333333334</ele><time>2026-04-04T07:24:57.379Z</time></trkpt><trkpt lat="45.8892317" lon="8.63404"><ele>246.0</ele><time>2026-04-04T07:24:59.379Z</time></trkpt><trkpt lat="45.8892967" lon="8.6341217"><ele>246.0</ele><time>2026-04-04T07:25:02.379Z</time></trkpt><trkpt lat="45.8893117" lon="8.634245"><ele>246.0</ele><time>2026-04-04T07:25:04.378Z</time></trkpt><trkpt lat="45.8893267" lon="8.6343333"><ele>246.0</ele><time>2026-04-04T07:25:05.378Z</time></trkpt><trkpt lat="45.8893567" lon="8.6344467"><ele>246.0</ele><time>2026-04-04T07:25:06.378Z</time></trkpt><trkpt lat="45.8893883" lon="8.6345583"><ele>246.0</ele><time>2026-04-04T07:25:07.378Z</time></trkpt><trkpt lat="45.8894133" lon="8.6346583"><ele>246.0</ele><time>2026-04-04T07:25:08.378Z</time></trkpt><trkpt lat="45.8894417" lon="8.6347567"><ele>247.00000000000003</ele><time>2026-04-04T07:25:09.379Z</time></trkpt><trkpt lat="45.88946" lon="8.63485"><ele>248.0</ele><time>2026-04-04T07:25:10.378Z</time></trkpt><trkpt lat="45.8894833" lon="8.63494"><ele>249.00000000000003</ele><time>2026-04-04T07:25:11.379Z</time></trkpt><trkpt lat="45.8895117" lon="8.6350617"><ele>250.00000000000003</ele><time>2026-04-04T07:25:13.379Z</time></trkpt><trkpt lat="45.8895567" lon="8.6351317"><ele>251.0</ele><time>2026-04-04T07:25:16.378Z</time></trkpt><trkpt lat="45.8896383" lon="8.635155"><ele>252.00000000000003</ele><time>2026-04-04T07:25:23.379Z</time></trkpt><trkpt lat="45.889695" lon="8.6351083"><ele>253.00000000000003</ele><time>2026-04-04T07:25:25.378Z</time></trkpt><trkpt lat="45.8897633" lon="8.6351017"><ele>253.0</ele><time>2026-04-04T07:25:27.378Z</time></trkpt><trkpt lat="45.8898283" lon="8.6351533"><ele>253.0</ele><time>2026-04-04T07:25:29.379Z</time></trkpt><trkpt lat="45.88988" lon="8.6352617"><ele>253.0</ele><time>2026-04-04T07:25:31.378Z</time></trkpt><trkpt lat="45.889945" lon="8.6354233"><ele>253.0</ele><time>2026-04-04T07:25:33.379Z</time></trkpt><trkpt lat="45.8899767" lon="8.6355217"><ele>253.0</ele><time>2026-04-04T07:25:34.378Z</time></trkpt><trkpt lat="45.8900317" lon="8.635625"><ele>254.2</ele><time>2026-04-04T07:25:35.379Z</time></trkpt><trkpt lat="45.890075" lon="8.6357167"><ele>255.4</ele><time>2026-04-04T07:25:36.379Z</time></trkpt><trkpt lat="45.89011" lon="8.6358667"><ele>256.59999999999997</ele><time>2026-04-04T07:25:38.378Z</time></trkpt><trkpt lat="45.890145" lon="8.635975"><ele>257.8</ele><time>2026-04-04T07:25:40.378Z</time></trkpt><trkpt lat="45.8902033" lon="8.6360833"><ele>259.0</ele><time>2026-04-04T07:25:42.379Z</time></trkpt><trkpt lat="45.8902833" lon="8.6362467"><ele>255.75</ele><time>2026-04-04T07:25:44.378Z</time></trkpt><trkpt lat="45.89035" lon="8.636375"><ele>252.5</ele><time>2026-04-04T07:25:45.378Z</time></trkpt><trkpt lat="45.8904" lon="8.6365"><ele>249.25</ele><time>2026-04-04T07:25:46.378Z</time></trkpt><trkpt lat="45.890455" lon="8.6366433"><ele>246.0</ele><time>2026-04-04T07:25:47.379Z</time></trkpt><trkpt lat="45.8905117" lon="8.636805"><ele>246.0</ele><time>2026-04-04T07:25:48.378Z</time></trkpt><trkpt lat="45.8905567" lon="8.6369517"><ele>246.00000000000003</ele><time>2026-04-04T07:25:49.378Z</time></trkpt><trkpt lat="45.8905967" lon="8.6371067"><ele>246.00000000000003</ele><time>2026-04-04T07:25:50.379Z</time></trkpt><trkpt lat="45.8906233" lon="8.6372667"><ele>246.0</ele><time>2026-04-04T07:25:51.379Z</time></trkpt><trkpt lat="45.8906533" lon="8.6374133"><ele>246.0</ele><time>2026-04-04T07:25:52.378Z</time></trkpt><trkpt lat="45.8906717" lon="8.6375333"><ele>245.8</ele><time>2026-04-04T07:25:53.378Z</time></trkpt><trkpt lat="45.8906833" lon="8.6376383"><ele>245.60000000000002</ele><time>2026-04-04T07:25:54.378Z</time></trkpt><trkpt lat="45.8906567" lon="8.6377867"><ele>245.4</ele><time>2026-04-04T07:25:56.378Z</time></trkpt><trkpt lat="45.890615" lon="8.6379483"><ele>245.2</ele><time>2026-04-04T07:25:58.378Z</time></trkpt><trkpt lat="45.8905883" lon="8.6380633"><ele>245.0</ele><time>2026-04-04T07:25:59.378Z</time></trkpt><trkpt lat="45.8905683" lon="8.638195"><ele>245.66666666666669</ele><time>2026-04-04T07:26:00.378Z</time></trkpt><trkpt lat="45.8905517" lon="8.63832"><ele>246.33333333333334</ele><time>2026-04-04T07:26:01.378Z</time></trkpt><trkpt lat="45.8905333" lon="8.6384433"><ele>247.0</ele><time>2026-04-04T07:26:02.378Z</time></trkpt><trkpt lat="45.8905217" lon="8.6385567"><ele>247.66666666666669</ele><time>2026-04-04T07:26:03.378Z</time></trkpt><trkpt lat="45.8905" lon="8.6386483"><ele>248.33333333333334</ele><time>2026-04-04T07:26:04.378Z</time></trkpt><trkpt lat="45.8904617" lon="8.6387267"><ele>249.0</ele><time>2026-04-04T07:26:07.378Z</time></trkpt><trkpt lat="45.8904567" lon="8.6385683"><ele>249.0</ele><time>2026-04-04T07:26:10.378Z</time></trkpt><trkpt lat="45.8904583" lon="8.6384567"><ele>249.0</ele><time>2026-04-04T07:26:11.379Z</time></trkpt><trkpt lat="45.8904467" lon="8.6383333"><ele>249.0</ele><time>2026-04-04T07:26:12.379Z</time></trkpt><trkpt lat="45.8904267" lon="8.63822"><ele>249.0</ele><time>2026-04-04T07:26:13.378Z</time></trkpt><trkpt lat="45.8904017" lon="8.6381317"><ele>249.0</ele><time>2026-04-04T07:26:14.379Z</time></trkpt><trkpt lat="45.8903483" lon="8.6380133"><ele>249.0</ele><time>2026-04-04T07:26:16.378Z</time></trkpt><trkpt lat="45.8902883" lon="8.63792"><ele>249.0</ele><time>2026-04-04T07:26:18.379Z</time></trkpt><trkpt lat="45.890235" lon="8.6378617"><ele>248.99999999999997</ele><time>2026-04-04T07:26:20.378Z</time></trkpt><trkpt lat="45.8902267" lon="8.6379567"><ele>248.99999999999997</ele><time>2026-04-04T07:26:24.378Z</time></trkpt><trkpt lat="45.8902633" lon="8.63814"><ele>249.0</ele><time>2026-04-04T07:26:26.379Z</time></trkpt><trkpt lat="45.8902783" lon="8.63831"><ele>249.0</ele><time>2026-04-04T07:26:28.379Z</time></trkpt><trkpt lat="45.8902717" lon="8.6384783"><ele>249.0</ele><time>2026-04-04T07:26:30.379Z</time></trkpt><trkpt lat="45.8902333" lon="8.6386183"><ele>249.0</ele><time>2026-04-04T07:26:32.379Z</time></trkpt><trkpt lat="45.8901717" lon="8.63876"><ele>249.0</ele><time>2026-04-04T07:26:34.379Z</time></trkpt><trkpt lat="45.8901417" lon="8.63892"><ele>249.0</ele><time>2026-04-04T07:26:36.378Z</time></trkpt><trkpt lat="45.8901733" lon="8.639095"><ele>249.16666666666666</ele><time>2026-04-04T07:26:38.378Z</time></trkpt><trkpt lat="45.89021" lon="8.639195"><ele>249.33333333333331</ele><time>2026-04-04T07:26:39.378Z</time></trkpt><trkpt lat="45.8902433" lon="8.63929"><ele>249.5</ele><time>2026-04-04T07:26:40.378Z</time></trkpt><trkpt lat="45.8902667" lon="8.6393967"><ele>249.66666666666666</ele><time>2026-04-04T07:26:41.379Z</time></trkpt><trkpt lat="45.8902917" lon="8.6395117"><ele>249.83333333333331</ele><time>2026-04-04T07:26:42.378Z</time></trkpt><trkpt lat="45.8903117" lon="8.6396267"><ele>250.0</ele><time>2026-04-04T07:26:43.379Z</time></trkpt><trkpt lat="45.8903267" lon="8.6397317"><ele>249.99999999999997</ele><time>2026-04-04T07:26:44.379Z</time></trkpt><trkpt lat="45.8903183" lon="8.6398283"><ele>250.0</ele><time>2026-04-04T07:26:45.378Z</time></trkpt><trkpt lat="45.8903083" lon="8.6399233"><ele>250.0</ele><time>2026-04-04T07:26:46.378Z</time></trkpt><trkpt lat="45.8903067" lon="8.6400267"><ele>250.0</ele><time>2026-04-04T07:26:47.378Z</time></trkpt><trkpt lat="45.890305" lon="8.64013"><ele>249.99999999999997</ele><time>2026-04-04T07:26:48.379Z</time></trkpt><trkpt lat="45.8903283" lon="8.6403167"><ele>250.0</ele><time>2026-04-04T07:26:50.378Z</time></trkpt><trkpt lat="45.8903317" lon="8.6404233"><ele>249.99999999999997</ele><time>2026-04-04T07:26:51.378Z</time></trkpt><trkpt lat="45.8903333" lon="8.6405417"><ele>250.0</ele><time>2026-04-04T07:26:52.378Z</time></trkpt><trkpt lat="45.8903267" lon="8.6406567"><ele>250.0</ele><time>2026-04-04T07:26:53.379Z</time></trkpt><trkpt lat="45.8903267" lon="8.6407583"><ele>250.0</ele><time>2026-04-04T07:26:54.379Z</time></trkpt><trkpt lat="45.89032" lon="8.6408883"><ele>249.99999999999997</ele><time>2026-04-04T07:26:56.379Z</time></trkpt><trkpt lat="45.8902833" lon="8.6409633"><ele>250.0</ele><time>2026-04-04T07:26:58.378Z</time></trkpt><trkpt lat="45.8902367" lon="8.641025"><ele>250.16666666666666</ele><time>2026-04-04T07:27:01.378Z</time></trkpt><trkpt lat="45.8902467" lon="8.6411583"><ele>250.33333333333331</ele><time>2026-04-04T07:27:07.378Z</time></trkpt><trkpt lat="45.8903067" lon="8.6412767"><ele>250.5</ele><time>2026-04-04T07:27:09.378Z</time></trkpt><trkpt lat="45.890355" lon="8.6413717"><ele>250.66666666666669</ele><time>2026-04-04T07:27:10.378Z</time></trkpt><trkpt lat="45.8903867" lon="8.6414517"><ele>250.83333333333334</ele><time>2026-04-04T07:27:11.378Z</time></trkpt><trkpt lat="45.8904133" lon="8.64155"><ele>251.0</ele><time>2026-04-04T07:27:12.379Z</time></trkpt><trkpt lat="45.8904383" lon="8.6416633"><ele>251.00000000000003</ele><time>2026-04-04T07:27:13.379Z</time></trkpt><trkpt lat="45.8904567" lon="8.6417867"><ele>251.0</ele><time>2026-04-04T07:27:14.379Z</time></trkpt><trkpt lat="45.8904817" lon="8.641925"><ele>251.0</ele><time>2026-04-04T07:27:15.379Z</time></trkpt><trkpt lat="45.8904917" lon="8.6420483"><ele>251.0</ele><time>2026-04-04T07:27:16.378Z</time></trkpt><trkpt lat="45.8904933" lon="8.6421633"><ele>251.00000000000003</ele><time>2026-04-04T07:27:17.379Z</time></trkpt><trkpt lat="45.8904817" lon="8.64227"><ele>251.0</ele><time>2026-04-04T07:27:18.378Z</time></trkpt><trkpt lat="45.8904767" lon="8.6423667"><ele>251.50000000000003</ele><time>2026-04-04T07:27:19.379Z</time></trkpt><trkpt lat="45.89047" lon="8.6424617"><ele>252.0</ele><time>2026-04-04T07:27:20.378Z</time></trkpt><trkpt lat="45.890455" lon="8.64262"><ele>252.5</ele><time>2026-04-04T07:27:22.378Z</time></trkpt><trkpt lat="45.8904483" lon="8.64275"><ele>253.0</ele><time>2026-04-04T07:27:24.379Z</time></trkpt><trkpt lat="45.8904583" lon="8.6429"><ele>253.50000000000003</ele><time>2026-04-04T07:27:26.378Z</time></trkpt><trkpt lat="45.8904667" lon="8.6429983"><ele>254.0</ele><time>2026-04-04T07:27:27.379Z</time></trkpt><trkpt lat="45.8904933" lon="8.643105"><ele>255.16666666666669</ele><time>2026-04-04T07:27:28.379Z</time></trkpt><trkpt lat="45.8905167" lon="8.6432267"><ele>256.33333333333337</ele><time>2026-04-04T07:27:29.379Z</time></trkpt><trkpt lat="45.8905433" lon="8.6433583"><ele>257.5</ele><time>2026-04-04T07:27:30.378Z</time></trkpt><trkpt lat="45.890575" lon="8.6434817"><ele>258.6666666666667</ele><time>2026-04-04T07:27:31.378Z</time></trkpt><trkpt lat="45.8906017" lon="8.64358"><ele>259.8333333333333</ele><time>2026-04-04T07:27:32.379Z</time></trkpt><trkpt lat="45.8906217" lon="8.6436767"><ele>261.0</ele><time>2026-04-04T07:27:33.379Z</time></trkpt><trkpt lat="45.8906383" lon="8.6437783"><ele>263.0</ele><time>2026-04-04T07:27:34.379Z</time></trkpt><trkpt lat="45.8906467" lon="8.64387"><ele>265.0</ele><time>2026-04-04T07:27:35.379Z</time></trkpt><trkpt lat="45.890645" lon="8.6440283"><ele>267.0</ele><time>2026-04-04T07:27:37.378Z</time></trkpt><trkpt lat="45.890685" lon="8.6442"><ele>269.0</ele><time>2026-04-04T07:27:39.378Z</time></trkpt><trkpt lat="45.8907067" lon="8.6443133"><ele>271.0</ele><time>2026-04-04T07:27:40.379Z</time></trkpt><trkpt lat="45.8907167" lon="8.64443"><ele>272.0</ele><time>2026-04-04T07:27:41.379Z</time></trkpt><trkpt lat="45.8907267" lon="8.644525"><ele>273.0</ele><time>2026-04-04T07:27:42.378Z</time></trkpt><trkpt lat="45.8907117" lon="8.6446617"><ele>274.0</ele><time>2026-04-04T07:27:44.379Z</time></trkpt><trkpt lat="45.8906633" lon="8.6447617"><ele>275.0</ele><time>2026-04-04T07:27:46.378Z</time></trkpt><trkpt lat="45.89059" lon="8.6448217"><ele>276.0</ele><time>2026-04-04T07:27:48.379Z</time></trkpt><trkpt lat="45.8905267" lon="8.6448367"><ele>277.0</ele><time>2026-04-04T07:27:50.378Z</time></trkpt><trkpt lat="45.8904967" lon="8.644755"><ele>277.0</ele><time>2026-04-04T07:27:52.379Z</time></trkpt><trkpt lat="45.8904683" lon="8.6446067"><ele>277.0</ele><time>2026-04-04T07:27:54.379Z</time></trkpt><trkpt lat="45.8904017" lon="8.6444483"><ele>277.0</ele><time>2026-04-04T07:27:56.378Z</time></trkpt><trkpt lat="45.8903567" lon="8.6443683"><ele>277.0</ele><time>2026-04-04T07:27:57.378Z</time></trkpt><trkpt lat="45.8902983" lon="8.64429"><ele>277.0</ele><time>2026-04-04T07:27:58.379Z</time></trkpt><trkpt lat="45.8902417" lon="8.6442233"><ele>276.0</ele><time>2026-04-04T07:27:59.378Z</time></trkpt><trkpt lat="45.890175" lon="8.6441633"><ele>275.0</ele><time>2026-04-04T07:28:00.378Z</time></trkpt><trkpt lat="45.8901233" lon="8.64411"><ele>274.0</ele><time>2026-04-04T07:28:01.379Z</time></trkpt><trkpt lat="45.8900767" lon="8.6440467"><ele>273.0</ele><time>2026-04-04T07:28:02.379Z</time></trkpt><trkpt lat="45.8900217" lon="8.6439917"><ele>272.0</ele><time>2026-04-04T07:28:03.379Z</time></trkpt><trkpt lat="45.8899583" lon="8.6439383"><ele>271.0</ele><time>2026-04-04T07:28:04.378Z</time></trkpt><trkpt lat="45.88986" lon="8.64384"><ele>273.40000000000003</ele><time>2026-04-04T07:28:06.378Z</time></trkpt><trkpt lat="45.8897817" lon="8.64373"><ele>275.8</ele><time>2026-04-04T07:28:08.378Z</time></trkpt><trkpt lat="45.88972" lon="8.6436433"><ele>278.20000000000005</ele><time>2026-04-04T07:28:10.378Z</time></trkpt><trkpt lat="45.88964" lon="8.6435917"><ele>280.6</ele><time>2026-04-04T07:28:12.379Z</time></trkpt><trkpt lat="45.88957" lon="8.64352"><ele>283.0</ele><time>2026-04-04T07:28:15.379Z</time></trkpt><trkpt lat="45.8895233" lon="8.64342"><ele>283.0</ele><time>2026-04-04T07:28:17.378Z</time></trkpt><trkpt lat="45.8895083" lon="8.6432383"><ele>283.0</ele><time>2026-04-04T07:28:19.378Z</time></trkpt><trkpt lat="45.8895233" lon="8.6431083"><ele>283.0</ele><time>2026-04-04T07:28:20.378Z</time></trkpt><trkpt lat="45.8895417" lon="8.6429867"><ele>283.0</ele><time>2026-04-04T07:28:21.379Z</time></trkpt><trkpt lat="45.8895433" lon="8.6428733"><ele>283.0</ele><time>2026-04-04T07:28:22.379Z</time></trkpt><trkpt lat="45.889545" lon="8.6427517"><ele>283.0</ele><time>2026-04-04T07:28:23.378Z</time></trkpt><trkpt lat="45.8895367" lon="8.6426583"><ele>283.0</ele><time>2026-04-04T07:28:24.378Z</time></trkpt><trkpt lat="45.8894483" lon="8.642565"><ele>283.0</ele><time>2026-04-04T07:28:30.379Z</time></trkpt><trkpt lat="45.8894017" lon="8.6426467"><ele>283.0</ele><time>2026-04-04T07:28:32.378Z</time></trkpt><trkpt lat="45.8893783" lon="8.6427317"><ele>283.0</ele><time>2026-04-04T07:28:33.379Z</time></trkpt><trkpt lat="45.8893633" lon="8.642835"><ele>283.0</ele><time>2026-04-04T07:28:34.378Z</time></trkpt><trkpt lat="45.8893533" lon="8.6429417"><ele>283.0</ele><time>2026-04-04T07:28:35.379Z</time></trkpt><trkpt lat="45.8893467" lon="8.64305"><ele>283.0</ele><time>2026-04-04T07:28:36.378Z</time></trkpt><trkpt lat="45.889335" lon="8.643165"><ele>283.0</ele><time>2026-04-04T07:28:37.378Z</time></trkpt><trkpt lat="45.889315" lon="8.64326"><ele>283.0</ele><time>2026-04-04T07:28:38.378Z</time></trkpt><trkpt lat="45.8892833" lon="8.6434033"><ele>283.0</ele><time>2026-04-04T07:28:40.378Z</time></trkpt><trkpt lat="45.889305" lon="8.64353"><ele>283.0</ele><time>2026-04-04T07:28:42.378Z</time></trkpt><trkpt lat="45.8893833" lon="8.6437033"><ele>284.66666666666663</ele><time>2026-04-04T07:28:44.379Z</time></trkpt><trkpt lat="45.88944" lon="8.643795"><ele>286.3333333333333</ele><time>2026-04-04T07:28:45.378Z</time></trkpt><trkpt lat="45.8894633" lon="8.6438817"><ele>288.0</ele><time>2026-04-04T07:28:46.378Z</time></trkpt><trkpt lat="45.88949" lon="8.64398"><ele>289.6666666666667</ele><time>2026-04-04T07:28:47.378Z</time></trkpt><trkpt lat="45.8895233" lon="8.6440867"><ele>291.33333333333337</ele><time>2026-04-04T07:28:48.378Z</time></trkpt><trkpt lat="45.8895617" lon="8.64418"><ele>293.0</ele><time>2026-04-04T07:28:49.379Z</time></trkpt><trkpt lat="45.8896017" lon="8.6442733"><ele>293.0</ele><time>2026-04-04T07:28:50.378Z</time></trkpt><trkpt lat="45.889645" lon="8.6443667"><ele>293.0</ele><time>2026-04-04T07:28:51.379Z</time></trkpt><trkpt lat="45.8896933" lon="8.6444733"><ele>293.0</ele><time>2026-04-04T07:28:52.379Z</time></trkpt><trkpt lat="45.8897367" lon="8.6446083"><ele>293.0</ele><time>2026-04-04T07:28:53.378Z</time></trkpt><trkpt lat="45.889775" lon="8.6447333"><ele>293.0</ele><time>2026-04-04T07:28:54.379Z</time></trkpt><trkpt lat="45.8898017" lon="8.6448433"><ele>293.0</ele><time>2026-04-04T07:28:55.378Z</time></trkpt><trkpt lat="45.88983" lon="8.6449417"><ele>293.99999999999994</ele><time>2026-04-04T07:28:56.378Z</time></trkpt><trkpt lat="45.8898517" lon="8.6450583"><ele>295.0</ele><time>2026-04-04T07:28:57.378Z</time></trkpt><trkpt lat="45.8898733" lon="8.6451667"><ele>296.0</ele><time>2026-04-04T07:28:58.379Z</time></trkpt><trkpt lat="45.8898867" lon="8.6452633"><ele>297.0</ele><time>2026-04-04T07:28:59.378Z</time></trkpt><trkpt lat="45.8899" lon="8.64536"><ele>298.0</ele><time>2026-04-04T07:29:00.378Z</time></trkpt><trkpt lat="45.8899033" lon="8.6454633"><ele>298.99999999999994</ele><time>2026-04-04T07:29:01.378Z</time></trkpt><trkpt lat="45.8899033" lon="8.6455667"><ele>300.0</ele><time>2026-04-04T07:29:02.379Z</time></trkpt><trkpt lat="45.8899017" lon="8.64567"><ele>299.99999999999994</ele><time>2026-04-04T07:29:03.379Z</time></trkpt><trkpt lat="45.8898933" lon="8.6457717"><ele>300.0</ele><time>2026-04-04T07:29:04.379Z</time></trkpt><trkpt lat="45.889885" lon="8.64587"><ele>300.0</ele><time>2026-04-04T07:29:05.379Z</time></trkpt><trkpt lat="45.88988" lon="8.64597"><ele>300.0</ele><time>2026-04-04T07:29:06.378Z</time></trkpt><trkpt lat="45.8898733" lon="8.6460767"><ele>300.0</ele><time>2026-04-04T07:29:07.378Z</time></trkpt><trkpt lat="45.8898567" lon="8.64619"><ele>299.99999999999994</ele><time>2026-04-04T07:29:08.378Z</time></trkpt><trkpt lat="45.88984" lon="8.6462933"><ele>300.0</ele><time>2026-04-04T07:29:09.378Z</time></trkpt><trkpt lat="45.8898067" lon="8.6464767"><ele>300.5</ele><time>2026-04-04T07:29:11.379Z</time></trkpt><trkpt lat="45.8897917" lon="8.6465967"><ele>301.0</ele><time>2026-04-04T07:29:12.38Z</time></trkpt><trkpt lat="45.8897817" lon="8.6467233"><ele>301.5</ele><time>2026-04-04T07:29:13.379Z</time></trkpt><trkpt lat="45.8897767" lon="8.6468433"><ele>302.0</ele><time>2026-04-04T07:29:14.379Z</time></trkpt><trkpt lat="45.8897817" lon="8.64695"><ele>302.5</ele><time>2026-04-04T07:29:15.38Z</time></trkpt><trkpt lat="45.889785" lon="8.6471083"><ele>303.0</ele><time>2026-04-04T07:29:17.38Z</time></trkpt><trkpt lat="45.8897933" lon="8.6472483"><ele>303.8</ele><time>2026-04-04T07:29:20.379Z</time></trkpt><trkpt lat="45.8897767" lon="8.6473883"><ele>304.6</ele><time>2026-04-04T07:29:22.38Z</time></trkpt><trkpt lat="45.889765" lon="8.6474783"><ele>305.4</ele><time>2026-04-04T07:29:23.379Z</time></trkpt><trkpt lat="45.889755" lon="8.6476433"><ele>306.2</ele><time>2026-04-04T07:29:25.379Z</time></trkpt><trkpt lat="45.889745" lon="8.647805"><ele>307.0</ele><time>2026-04-04T07:29:27.38Z</time></trkpt><trkpt lat="45.8897333" lon="8.64798"><ele>309.0</ele><time>2026-04-04T07:29:29.38Z</time></trkpt><trkpt lat="45.8897167" lon="8.648135"><ele>311.0</ele><time>2026-04-04T07:29:31.38Z</time></trkpt><trkpt lat="45.889705" lon="8.6482367"><ele>313.0</ele><time>2026-04-04T07:29:32.379Z</time></trkpt><trkpt lat="45.8896983" lon="8.648365"><ele>315.0</ele><time>2026-04-04T07:29:33.38Z</time></trkpt><trkpt lat="45.8897117" lon="8.6485067"><ele>317.0</ele><time>2026-04-04T07:29:34.379Z</time></trkpt><trkpt lat="45.8897067" lon="8.6486483"><ele>318.5</ele><time>2026-04-04T07:29:35.379Z</time></trkpt><trkpt lat="45.8896967" lon="8.6487817"><ele>320.0</ele><time>2026-04-04T07:29:36.379Z</time></trkpt><trkpt lat="45.8896983" lon="8.648925"><ele>321.5</ele><time>2026-04-04T07:29:37.379Z</time></trkpt><trkpt lat="45.8897033" lon="8.64904"><ele>323.0</ele><time>2026-04-04T07:29:38.379Z</time></trkpt><trkpt lat="45.8896983" lon="8.6491533"><ele>324.5</ele><time>2026-04-04T07:29:39.38Z</time></trkpt><trkpt lat="45.8897017" lon="8.6492917"><ele>326.0</ele><time>2026-04-04T07:29:40.379Z</time></trkpt><trkpt lat="45.8897167" lon="8.6494133"><ele>326.6666666666667</ele><time>2026-04-04T07:29:41.38Z</time></trkpt><trkpt lat="45.8897367" lon="8.6495033"><ele>327.33333333333337</ele><time>2026-04-04T07:29:42.38Z</time></trkpt><trkpt lat="45.88974" lon="8.6496283"><ele>328.0</ele><time>2026-04-04T07:29:44.38Z</time></trkpt><trkpt lat="45.8896833" lon="8.649725"><ele>328.6666666666667</ele><time>2026-04-04T07:29:47.38Z</time></trkpt><trkpt lat="45.8896733" lon="8.6498617"><ele>329.3333333333333</ele><time>2026-04-04T07:29:50.379Z</time></trkpt><trkpt lat="45.8897383" lon="8.64998"><ele>330.0</ele><time>2026-04-04T07:29:52.379Z</time></trkpt><trkpt lat="45.8898217" lon="8.65011"><ele>330.0</ele><time>2026-04-04T07:29:54.379Z</time></trkpt><trkpt lat="45.8899083" lon="8.6502083"><ele>330.0</ele><time>2026-04-04T07:29:56.379Z</time></trkpt><trkpt lat="45.8899833" lon="8.6502967"><ele>330.0</ele><time>2026-04-04T07:29:58.38Z</time></trkpt><trkpt lat="45.8900383" lon="8.6504"><ele>330.0</ele><time>2026-04-04T07:30:00.379Z</time></trkpt><trkpt lat="45.8900467" lon="8.6505267"><ele>330.0</ele><time>2026-04-04T07:30:02.38Z</time></trkpt><trkpt lat="45.890075" lon="8.6506333"><ele>326.6</ele><time>2026-04-04T07:30:04.38Z</time></trkpt><trkpt lat="45.890145" lon="8.6507283"><ele>323.2</ele><time>2026-04-04T07:30:06.38Z</time></trkpt><trkpt lat="45.890215" lon="8.6509033"><ele>319.8</ele><time>2026-04-04T07:30:08.379Z</time></trkpt><trkpt lat="45.8902517" lon="8.6510333"><ele>316.4</ele><time>2026-04-04T07:30:09.379Z</time></trkpt><trkpt lat="45.8902833" lon="8.65114"><ele>313.0</ele><time>2026-04-04T07:30:10.38Z</time></trkpt><trkpt lat="45.8903133" lon="8.651225"><ele>313.0</ele><time>2026-04-04T07:30:11.38Z</time></trkpt><trkpt lat="45.8903417" lon="8.6513633"><ele>313.0</ele><time>2026-04-04T07:30:13.379Z</time></trkpt><trkpt lat="45.8903817" lon="8.65145"><ele>313.0</ele><time>2026-04-04T07:30:16.379Z</time></trkpt><trkpt lat="45.8904383" lon="8.6515283"><ele>313.0</ele><time>2026-04-04T07:30:18.38Z</time></trkpt><trkpt lat="45.89048" lon="8.6516333"><ele>313.0</ele><time>2026-04-04T07:30:20.38Z</time></trkpt><trkpt lat="45.890525" lon="8.6517133"><ele>313.0</ele><time>2026-04-04T07:30:22.38Z</time></trkpt><trkpt lat="45.8905967" lon="8.65177"><ele>313.0</ele><time>2026-04-04T07:30:24.379Z</time></trkpt><trkpt lat="45.89066" lon="8.65185"><ele>313.0</ele><time>2026-04-04T07:30:26.38Z</time></trkpt><trkpt lat="45.8907167" lon="8.6519933"><ele>313.0</ele><time>2026-04-04T07:30:28.379Z</time></trkpt><trkpt lat="45.8907633" lon="8.65214"><ele>313.0</ele><time>2026-04-04T07:30:30.38Z</time></trkpt><trkpt lat="45.8907683" lon="8.652285"><ele>313.0</ele><time>2026-04-04T07:30:32.379Z</time></trkpt><trkpt lat="45.8908033" lon="8.6523783"><ele>313.66666666666663</ele><time>2026-04-04T07:30:34.379Z</time></trkpt><trkpt lat="45.89088" lon="8.6524"><ele>314.3333333333333</ele><time>2026-04-04T07:30:36.379Z</time></trkpt><trkpt lat="45.8909633" lon="8.6524383"><ele>315.0</ele><time>2026-04-04T07:30:38.38Z</time></trkpt><trkpt lat="45.8910133" lon="8.6525333"><ele>315.6666666666667</ele><time>2026-04-04T07:30:40.38Z</time></trkpt><trkpt lat="45.8910917" lon="8.652675"><ele>316.33333333333337</ele><time>2026-04-04T07:30:42.38Z</time></trkpt><trkpt lat="45.8911367" lon="8.6527483"><ele>317.0</ele><time>2026-04-04T07:30:43.38Z</time></trkpt><trkpt lat="45.8912217" lon="8.6528633"><ele>313.4</ele><time>2026-04-04T07:30:45.379Z</time></trkpt><trkpt lat="45.891295" lon="8.652975"><ele>309.79999999999995</ele><time>2026-04-04T07:30:47.379Z</time></trkpt><trkpt lat="45.8913583" lon="8.6530633"><ele>306.2</ele><time>2026-04-04T07:30:49.38Z</time></trkpt><trkpt lat="45.89139" lon="8.6531717"><ele>302.59999999999997</ele><time>2026-04-04T07:30:51.379Z</time></trkpt><trkpt lat="45.891475" lon="8.6532917"><ele>299.0</ele><time>2026-04-04T07:30:53.38Z</time></trkpt><trkpt lat="45.891535" lon="8.653345"><ele>299.0</ele><time>2026-04-04T07:30:54.38Z</time></trkpt><trkpt lat="45.89159" lon="8.653395"><ele>299.0</ele><time>2026-04-04T07:30:55.38Z</time></trkpt><trkpt lat="45.8916633" lon="8.6534983"><ele>299.0</ele><time>2026-04-04T07:30:57.38Z</time></trkpt><trkpt lat="45.8917417" lon="8.6536"><ele>299.0</ele><time>2026-04-04T07:30:59.379Z</time></trkpt><trkpt lat="45.8917983" lon="8.6537133"><ele>299.0</ele><time>2026-04-04T07:31:01.379Z</time></trkpt><trkpt lat="45.8918483" lon="8.6538267"><ele>293.0</ele><time>2026-04-04T07:31:03.38Z</time></trkpt><trkpt lat="45.8918867" lon="8.6539333"><ele>287.0</ele><time>2026-04-04T07:31:05.379Z</time></trkpt><trkpt lat="45.891925" lon="8.65407"><ele>281.0</ele><time>2026-04-04T07:31:07.379Z</time></trkpt><trkpt lat="45.8919667" lon="8.6542217"><ele>275.0</ele><time>2026-04-04T07:31:09.379Z</time></trkpt><trkpt lat="45.8919917" lon="8.6543817"><ele>269.0</ele><time>2026-04-04T07:31:11.379Z</time></trkpt><trkpt lat="45.8920017" lon="8.6544717"><ele>269.0</ele><time>2026-04-04T07:31:12.379Z</time></trkpt><trkpt lat="45.8920167" lon="8.654565"><ele>269.0</ele><time>2026-04-04T07:31:13.379Z</time></trkpt><trkpt lat="45.8920517" lon="8.65472"><ele>269.0</ele><time>2026-04-04T07:31:15.38Z</time></trkpt><trkpt lat="45.8920683" lon="8.6548367"><ele>269.0</ele><time>2026-04-04T07:31:17.38Z</time></trkpt><trkpt lat="45.89207" lon="8.6549483"><ele>269.0</ele><time>2026-04-04T07:31:19.379Z</time></trkpt><trkpt lat="45.8920967" lon="8.6550467"><ele>269.0</ele><time>2026-04-04T07:31:21.379Z</time></trkpt><trkpt lat="45.8921233" lon="8.6551567"><ele>269.6666666666667</ele><time>2026-04-04T07:31:23.379Z</time></trkpt><trkpt lat="45.89212" lon="8.6553"><ele>270.33333333333337</ele><time>2026-04-04T07:31:25.38Z</time></trkpt><trkpt lat="45.892115" lon="8.6554083"><ele>271.0</ele><time>2026-04-04T07:31:27.379Z</time></trkpt><trkpt lat="45.8921183" lon="8.6555133"><ele>271.6666666666667</ele><time>2026-04-04T07:31:29.38Z</time></trkpt><trkpt lat="45.8921433" lon="8.6556033"><ele>272.3333333333333</ele><time>2026-04-04T07:31:31.379Z</time></trkpt><trkpt lat="45.892175" lon="8.6557167"><ele>273.0</ele><time>2026-04-04T07:31:33.379Z</time></trkpt><trkpt lat="45.8922083" lon="8.6558283"><ele>273.0</ele><time>2026-04-04T07:31:35.38Z</time></trkpt><trkpt lat="45.8922417" lon="8.6559517"><ele>273.0</ele><time>2026-04-04T07:31:38.379Z</time></trkpt><trkpt lat="45.8922317" lon="8.6560633"><ele>273.0</ele><time>2026-04-04T07:31:41.379Z</time></trkpt><trkpt lat="45.8922267" lon="8.6561667"><ele>273.0</ele><time>2026-04-04T07:31:44.379Z</time></trkpt><trkpt lat="45.8922133" lon="8.6562917"><ele>273.0</ele><time>2026-04-04T07:31:47.379Z</time></trkpt><trkpt lat="45.89222" lon="8.6564333"><ele>273.0</ele><time>2026-04-04T07:31:50.38Z</time></trkpt><trkpt lat="45.8922317" lon="8.656545"><ele>272.5</ele><time>2026-04-04T07:31:52.379Z</time></trkpt><trkpt lat="45.892235" lon="8.6566633"><ele>272.0</ele><time>2026-04-04T07:31:54.379Z</time></trkpt><trkpt lat="45.89225" lon="8.65676"><ele>271.5</ele><time>2026-04-04T07:31:56.38Z</time></trkpt><trkpt lat="45.8922767" lon="8.656895"><ele>271.0</ele><time>2026-04-04T07:31:59.379Z</time></trkpt><trkpt lat="45.8923283" lon="8.6570117"><ele>270.5</ele><time>2026-04-04T07:32:01.379Z</time></trkpt><trkpt lat="45.8923683" lon="8.65712"><ele>270.0</ele><time>2026-04-04T07:32:03.38Z</time></trkpt><trkpt lat="45.892405" lon="8.6572017"><ele>270.0</ele><time>2026-04-04T07:32:05.379Z</time></trkpt><trkpt lat="45.8924333" lon="8.6573"><ele>270.0</ele><time>2026-04-04T07:32:08.379Z</time></trkpt><trkpt lat="45.8924517" lon="8.657415"><ele>270.0</ele><time>2026-04-04T07:32:11.38Z</time></trkpt><trkpt lat="45.8924833" lon="8.65751"><ele>270.0</ele><time>2026-04-04T07:32:13.379Z</time></trkpt><trkpt lat="45.8925133" lon="8.6576033"><ele>270.0</ele><time>2026-04-04T07:32:15.379Z</time></trkpt><trkpt lat="45.8925317" lon="8.6577067"><ele>270.0</ele><time>2026-04-04T07:32:17.38Z</time></trkpt><trkpt lat="45.89256" lon="8.6578317"><ele>265.5</ele><time>2026-04-04T07:32:19.38Z</time></trkpt><trkpt lat="45.8925983" lon="8.6579433"><ele>261.0</ele><time>2026-04-04T07:32:21.379Z</time></trkpt><trkpt lat="45.8926467" lon="8.6580367"><ele>256.5</ele><time>2026-04-04T07:32:23.379Z</time></trkpt><trkpt lat="45.8926817" lon="8.6581283"><ele>252.0</ele><time>2026-04-04T07:32:25.379Z</time></trkpt><trkpt lat="45.8927017" lon="8.6582217"><ele>247.5</ele><time>2026-04-04T07:32:27.379Z</time></trkpt><trkpt lat="45.892725" lon="8.6583217"><ele>243.0</ele><time>2026-04-04T07:32:29.379Z</time></trkpt><trkpt lat="45.8927783" lon="8.6584317"><ele>243.0</ele><time>2026-04-04T07:32:31.38Z</time></trkpt><trkpt lat="45.8928717" lon="8.65854"><ele>243.0</ele><time>2026-04-04T07:32:33.379Z</time></trkpt><trkpt lat="45.892955" lon="8.6586483"><ele>243.0</ele><time>2026-04-04T07:32:35.379Z</time></trkpt><trkpt lat="45.89304" lon="8.65878"><ele>243.0</ele><time>2026-04-04T07:32:37.379Z</time></trkpt><trkpt lat="45.89308" lon="8.6589033"><ele>242.5</ele><time>2026-04-04T07:32:39.38Z</time></trkpt><trkpt lat="45.893115" lon="8.6590067"><ele>242.0</ele><time>2026-04-04T07:32:42.38Z</time></trkpt><trkpt lat="45.8931333" lon="8.6591067"><ele>241.5</ele><time>2026-04-04T07:32:45.38Z</time></trkpt><trkpt lat="45.8931467" lon="8.6592233"><ele>241.0</ele><time>2026-04-04T07:32:48.379Z</time></trkpt><trkpt lat="45.8931417" lon="8.659315"><ele>240.5</ele><time>2026-04-04T07:32:50.38Z</time></trkpt><trkpt lat="45.8931167" lon="8.6594083"><ele>240.0</ele><time>2026-04-04T07:32:53.38Z</time></trkpt><trkpt lat="45.8930317" lon="8.6594533"><ele>240.0</ele><time>2026-04-04T07:32:57.379Z</time></trkpt><trkpt lat="45.8929533" lon="8.65945"><ele>240.0</ele><time>2026-04-04T07:32:59.38Z</time></trkpt><trkpt lat="45.892895" lon="8.659515"><ele>240.0</ele><time>2026-04-04T07:33:01.379Z</time></trkpt><trkpt lat="45.8928533" lon="8.65965"><ele>240.0</ele><time>2026-04-04T07:33:03.38Z</time></trkpt><trkpt lat="45.89282" lon="8.6598133"><ele>240.0</ele><time>2026-04-04T07:33:05.379Z</time></trkpt><trkpt lat="45.8927833" lon="8.659985"><ele>240.0</ele><time>2026-04-04T07:33:07.379Z</time></trkpt><trkpt lat="45.892765" lon="8.6600733"><ele>240.0</ele><time>2026-04-04T07:33:08.38Z</time></trkpt><trkpt lat="45.892725" lon="8.6602483"><ele>240.0</ele><time>2026-04-04T07:33:10.379Z</time></trkpt><trkpt lat="45.8927083" lon="8.6603417"><ele>240.0</ele><time>2026-04-04T07:33:11.379Z</time></trkpt><trkpt lat="45.89269" lon="8.66044"><ele>240.0</ele><time>2026-04-04T07:33:12.38Z</time></trkpt><trkpt lat="45.8926717" lon="8.66054"><ele>240.0</ele><time>2026-04-04T07:33:13.38Z</time></trkpt><trkpt lat="45.8926617" lon="8.660645"><ele>240.66666666666666</ele><time>2026-04-04T07:33:14.38Z</time></trkpt><trkpt lat="45.892665" lon="8.6607583"><ele>241.33333333333331</ele><time>2026-04-04T07:33:15.379Z</time></trkpt><trkpt lat="45.89268" lon="8.660865"><ele>242.0</ele><time>2026-04-04T07:33:16.38Z</time></trkpt><trkpt lat="45.8927017" lon="8.66098"><ele>242.66666666666666</ele><time>2026-04-04T07:33:17.379Z</time></trkpt><trkpt lat="45.8927267" lon="8.6610983"><ele>243.33333333333331</ele><time>2026-04-04T07:33:18.379Z</time></trkpt><trkpt lat="45.8927467" lon="8.661225"><ele>244.0</ele><time>2026-04-04T07:33:19.38Z</time></trkpt><trkpt lat="45.89276" lon="8.6613483"><ele>244.2</ele><time>2026-04-04T07:33:20.379Z</time></trkpt><trkpt lat="45.8927733" lon="8.6614667"><ele>244.39999999999998</ele><time>2026-04-04T07:33:21.379Z</time></trkpt><trkpt lat="45.8927983" lon="8.66159"><ele>244.6</ele><time>2026-04-04T07:33:22.38Z</time></trkpt><trkpt lat="45.89281" lon="8.6617217"><ele>244.8</ele><time>2026-04-04T07:33:23.38Z</time></trkpt><trkpt lat="45.8928167" lon="8.6618583"><ele>245.0</ele><time>2026-04-04T07:33:24.38Z</time></trkpt><trkpt lat="45.89282" lon="8.6619933"><ele>245.2</ele><time>2026-04-04T07:33:25.379Z</time></trkpt><trkpt lat="45.89282" lon="8.6621417"><ele>245.4</ele><time>2026-04-04T07:33:26.379Z</time></trkpt><trkpt lat="45.8928233" lon="8.6622883"><ele>245.60000000000002</ele><time>2026-04-04T07:33:27.38Z</time></trkpt><trkpt lat="45.8928317" lon="8.6624267"><ele>245.8</ele><time>2026-04-04T07:33:28.38Z</time></trkpt><trkpt lat="45.8928417" lon="8.6625583"><ele>246.0</ele><time>2026-04-04T07:33:29.38Z</time></trkpt><trkpt lat="45.8928617" lon="8.6626883"><ele>247.16666666666666</ele><time>2026-04-04T07:33:30.379Z</time></trkpt><trkpt lat="45.8928717" lon="8.6628133"><ele>248.33333333333331</ele><time>2026-04-04T07:33:31.379Z</time></trkpt><trkpt lat="45.8928883" lon="8.6629167"><ele>249.5</ele><time>2026-04-04T07:33:32.38Z</time></trkpt><trkpt lat="45.8929033" lon="8.6630667"><ele>250.66666666666666</ele><time>2026-04-04T07:33:34.38Z</time></trkpt><trkpt lat="45.89285" lon="8.6631433"><ele>251.83333333333331</ele><time>2026-04-04T07:33:36.38Z</time></trkpt><trkpt lat="45.8927683" lon="8.6631967"><ele>253.0</ele><time>2026-04-04T07:33:38.38Z</time></trkpt><trkpt lat="45.8927133" lon="8.66328"><ele>253.0</ele><time>2026-04-04T07:33:40.38Z</time></trkpt><trkpt lat="45.8927183" lon="8.6634233"><ele>253.0</ele><time>2026-04-04T07:33:42.379Z</time></trkpt><trkpt lat="45.8927417" lon="8.6635633"><ele>253.0</ele><time>2026-04-04T07:33:44.379Z</time></trkpt><trkpt lat="45.89276" lon="8.6636933"><ele>253.0</ele><time>2026-04-04T07:33:46.38Z</time></trkpt><trkpt lat="45.8927783" lon="8.6638133"><ele>253.0</ele><time>2026-04-04T07:33:48.379Z</time></trkpt><trkpt lat="45.8928017" lon="8.6639567"><ele>253.16666666666666</ele><time>2026-04-04T07:33:50.38Z</time></trkpt><trkpt lat="45.8928483" lon="8.66411"><ele>253.33333333333331</ele><time>2026-04-04T07:33:52.38Z</time></trkpt><trkpt lat="45.892905" lon="8.6642483"><ele>253.5</ele><time>2026-04-04T07:33:54.38Z</time></trkpt><trkpt lat="45.8929383" lon="8.6643333"><ele>253.66666666666669</ele><time>2026-04-04T07:33:55.379Z</time></trkpt><trkpt lat="45.892985" lon="8.664405"><ele>253.83333333333334</ele><time>2026-04-04T07:33:56.379Z</time></trkpt><trkpt lat="45.8930317" lon="8.6644683"><ele>254.0</ele><time>2026-04-04T07:33:57.38Z</time></trkpt><trkpt lat="45.8930767" lon="8.6645417"><ele>253.57142857142858</ele><time>2026-04-04T07:33:58.379Z</time></trkpt><trkpt lat="45.8931333" lon="8.66463"><ele>253.1428571428571</ele><time>2026-04-04T07:33:59.38Z</time></trkpt><trkpt lat="45.893175" lon="8.66473"><ele>252.7142857142857</ele><time>2026-04-04T07:34:00.379Z</time></trkpt><trkpt lat="45.89321" lon="8.66482"><ele>252.28571428571428</ele><time>2026-04-04T07:34:01.379Z</time></trkpt><trkpt lat="45.8932333" lon="8.6649083"><ele>251.85714285714283</ele><time>2026-04-04T07:34:02.38Z</time></trkpt><trkpt lat="45.89326" lon="8.6650017"><ele>251.4285714285714</ele><time>2026-04-04T07:34:03.379Z</time></trkpt><trkpt lat="45.8932833" lon="8.6651067"><ele>250.99999999999997</ele><time>2026-04-04T07:34:04.379Z</time></trkpt><trkpt lat="45.893305" lon="8.6652133"><ele>250.16666666666669</ele><time>2026-04-04T07:34:05.38Z</time></trkpt><trkpt lat="45.8933283" lon="8.6653217"><ele>249.33333333333334</ele><time>2026-04-04T07:34:06.379Z</time></trkpt><trkpt lat="45.8933433" lon="8.6654283"><ele>248.5</ele><time>2026-04-04T07:34:07.379Z</time></trkpt><trkpt lat="45.8933567" lon="8.6655383"><ele>247.66666666666669</ele><time>2026-04-04T07:34:08.38Z</time></trkpt><trkpt lat="45.8933683" lon="8.66565"><ele>246.83333333333334</ele><time>2026-04-04T07:34:09.38Z</time></trkpt><trkpt lat="45.89338" lon="8.66575"><ele>246.0</ele><time>2026-04-04T07:34:10.379Z</time></trkpt><trkpt lat="45.8933967" lon="8.6658533"><ele>246.0</ele><time>2026-04-04T07:34:11.379Z</time></trkpt><trkpt lat="45.8934133" lon="8.6659567"><ele>246.0</ele><time>2026-04-04T07:34:12.38Z</time></trkpt><trkpt lat="45.8934283" lon="8.6660583"><ele>246.0</ele><time>2026-04-04T07:34:13.38Z</time></trkpt><trkpt lat="45.8934433" lon="8.66616"><ele>246.0</ele><time>2026-04-04T07:34:14.379Z</time></trkpt><trkpt lat="45.89346" lon="8.66626"><ele>246.0</ele><time>2026-04-04T07:34:15.379Z</time></trkpt><trkpt lat="45.8934733" lon="8.6664183"><ele>246.0</ele><time>2026-04-04T07:34:17.38Z</time></trkpt><trkpt lat="45.8934233" lon="8.6664983"><ele>245.8</ele><time>2026-04-04T07:34:19.379Z</time></trkpt><trkpt lat="45.8933533" lon="8.6665483"><ele>245.60000000000002</ele><time>2026-04-04T07:34:21.38Z</time></trkpt><trkpt lat="45.893295" lon="8.66661"><ele>245.4</ele><time>2026-04-04T07:34:23.38Z</time></trkpt><trkpt lat="45.89323" lon="8.6667"><ele>245.2</ele><time>2026-04-04T07:34:25.38Z</time></trkpt><trkpt lat="45.8931067" lon="8.66679"><ele>245.0</ele><time>2026-04-04T07:34:27.379Z</time></trkpt><trkpt lat="45.893035" lon="8.6668333"><ele>245.0</ele><time>2026-04-04T07:34:28.379Z</time></trkpt><trkpt lat="45.8929633" lon="8.666875"><ele>245.0</ele><time>2026-04-04T07:34:29.38Z</time></trkpt><trkpt lat="45.8928917" lon="8.6669117"><ele>245.0</ele><time>2026-04-04T07:34:30.38Z</time></trkpt><trkpt lat="45.8928233" lon="8.66694"><ele>245.0</ele><time>2026-04-04T07:34:31.38Z</time></trkpt><trkpt lat="45.8927567" lon="8.6669633"><ele>245.0</ele><time>2026-04-04T07:34:32.38Z</time></trkpt><trkpt lat="45.8926883" lon="8.666985"><ele>245.0</ele><time>2026-04-04T07:34:33.379Z</time></trkpt><trkpt lat="45.8926217" lon="8.667015"><ele>245.0</ele><time>2026-04-04T07:34:34.379Z</time></trkpt><trkpt lat="45.8925517" lon="8.6670517"><ele>244.83333333333334</ele><time>2026-04-04T07:34:35.379Z</time></trkpt><trkpt lat="45.8924867" lon="8.6670817"><ele>244.66666666666669</ele><time>2026-04-04T07:34:36.379Z</time></trkpt><trkpt lat="45.89242" lon="8.66711"><ele>244.5</ele><time>2026-04-04T07:34:37.38Z</time></trkpt><trkpt lat="45.89234" lon="8.66714"><ele>244.33333333333331</ele><time>2026-04-04T07:34:38.38Z</time></trkpt><trkpt lat="45.89226" lon="8.667175"><ele>244.16666666666666</ele><time>2026-04-04T07:34:39.379Z</time></trkpt><trkpt lat="45.8921783" lon="8.667225"><ele>244.0</ele><time>2026-04-04T07:34:40.379Z</time></trkpt><trkpt lat="45.8920933" lon="8.66727"><ele>243.99999999999997</ele><time>2026-04-04T07:34:41.379Z</time></trkpt><trkpt lat="45.8920117" lon="8.66732"><ele>244.0</ele><time>2026-04-04T07:34:42.379Z</time></trkpt><trkpt lat="45.891935" lon="8.66737"><ele>244.0</ele><time>2026-04-04T07:34:43.379Z</time></trkpt><trkpt lat="45.8918567" lon="8.6674167"><ele>244.0</ele><time>2026-04-04T07:34:44.379Z</time></trkpt><trkpt lat="45.8917783" lon="8.6674633"><ele>243.99999999999997</ele><time>2026-04-04T07:34:45.379Z</time></trkpt><trkpt lat="45.8916983" lon="8.6675267"><ele>244.0</ele><time>2026-04-04T07:34:46.379Z</time></trkpt><trkpt lat="45.8916133" lon="8.6675917"><ele>244.33333333333331</ele><time>2026-04-04T07:34:47.379Z</time></trkpt><trkpt lat="45.8915333" lon="8.6676483"><ele>244.66666666666666</ele><time>2026-04-04T07:34:48.379Z</time></trkpt><trkpt lat="45.89146" lon="8.6677067"><ele>245.0</ele><time>2026-04-04T07:34:49.38Z</time></trkpt><trkpt lat="45.891385" lon="8.6677667"><ele>245.33333333333331</ele><time>2026-04-04T07:34:50.379Z</time></trkpt><trkpt lat="45.8913067" lon="8.6678267"><ele>245.66666666666666</ele><time>2026-04-04T07:34:51.38Z</time></trkpt><trkpt lat="45.89123" lon="8.66789"><ele>246.0</ele><time>2026-04-04T07:34:52.38Z</time></trkpt><trkpt lat="45.8911467" lon="8.6679417"><ele>246.0</ele><time>2026-04-04T07:34:53.379Z</time></trkpt><trkpt lat="45.8910733" lon="8.6679917"><ele>246.0</ele><time>2026-04-04T07:34:54.38Z</time></trkpt><trkpt lat="45.8910017" lon="8.668035"><ele>246.0</ele><time>2026-04-04T07:34:55.379Z</time></trkpt><trkpt lat="45.890935" lon="8.66807"><ele>246.0</ele><time>2026-04-04T07:34:56.38Z</time></trkpt><trkpt lat="45.8908617" lon="8.6681083"><ele>246.0</ele><time>2026-04-04T07:34:57.38Z</time></trkpt><trkpt lat="45.8907783" lon="8.6681567"><ele>246.0</ele><time>2026-04-04T07:34:58.379Z</time></trkpt><trkpt lat="45.8907" lon="8.6682"><ele>246.5</ele><time>2026-04-04T07:34:59.379Z</time></trkpt><trkpt lat="45.8906317" lon="8.668245"><ele>247.0</ele><time>2026-04-04T07:35:00.38Z</time></trkpt><trkpt lat="45.8905617" lon="8.6682767"><ele>247.5</ele><time>2026-04-04T07:35:01.379Z</time></trkpt><trkpt lat="45.890485" lon="8.6683117"><ele>248.0</ele><time>2026-04-04T07:35:02.379Z</time></trkpt><trkpt lat="45.8903867" lon="8.6683467"><ele>248.5</ele><time>2026-04-04T07:35:03.379Z</time></trkpt><trkpt lat="45.8902783" lon="8.6683867"><ele>249.0</ele><time>2026-04-04T07:35:04.379Z</time></trkpt><trkpt lat="45.8901717" lon="8.6684333"><ele>249.0</ele><time>2026-04-04T07:35:05.38Z</time></trkpt><trkpt lat="45.8900717" lon="8.6684683"><ele>248.99999999999997</ele><time>2026-04-04T07:35:06.379Z</time></trkpt><trkpt lat="45.88998" lon="8.6685067"><ele>248.99999999999997</ele><time>2026-04-04T07:35:07.38Z</time></trkpt><trkpt lat="45.8899017" lon="8.6685367"><ele>249.0</ele><time>2026-04-04T07:35:08.379Z</time></trkpt><trkpt lat="45.8898167" lon="8.6685617"><ele>249.0</ele><time>2026-04-04T07:35:09.38Z</time></trkpt><trkpt lat="45.8897333" lon="8.6685867"><ele>248.6</ele><time>2026-04-04T07:35:10.38Z</time></trkpt><trkpt lat="45.8896367" lon="8.6686117"><ele>248.2</ele><time>2026-04-04T07:35:11.379Z</time></trkpt><trkpt lat="45.88954" lon="8.668635"><ele>247.79999999999998</ele><time>2026-04-04T07:35:12.379Z</time></trkpt><trkpt lat="45.8894433" lon="8.668665"><ele>247.39999999999998</ele><time>2026-04-04T07:35:13.38Z</time></trkpt><trkpt lat="45.8893417" lon="8.6686967"><ele>247.0</ele><time>2026-04-04T07:35:14.38Z</time></trkpt><trkpt lat="45.8892433" lon="8.6687283"><ele>247.0</ele><time>2026-04-04T07:35:15.379Z</time></trkpt><trkpt lat="45.88914" lon="8.6687617"><ele>247.0</ele><time>2026-04-04T07:35:16.379Z</time></trkpt><trkpt lat="45.8890467" lon="8.6687917"><ele>247.0</ele><time>2026-04-04T07:35:17.38Z</time></trkpt><trkpt lat="45.8889583" lon="8.6688183"><ele>247.0</ele><time>2026-04-04T07:35:18.38Z</time></trkpt><trkpt lat="45.8888767" lon="8.6688467"><ele>247.0</ele><time>2026-04-04T07:35:19.379Z</time></trkpt><trkpt lat="45.888795" lon="8.668875"><ele>247.0</ele><time>2026-04-04T07:35:20.379Z</time></trkpt><trkpt lat="45.8887083" lon="8.6689067"><ele>247.0</ele><time>2026-04-04T07:35:21.379Z</time></trkpt><trkpt lat="45.8886133" lon="8.6689283"><ele>247.0</ele><time>2026-04-04T07:35:22.38Z</time></trkpt><trkpt lat="45.888515" lon="8.6689533"><ele>247.0</ele><time>2026-04-04T07:35:23.38Z</time></trkpt><trkpt lat="45.8884133" lon="8.6689783"><ele>247.0</ele><time>2026-04-04T07:35:24.379Z</time></trkpt><trkpt lat="45.8883033" lon="8.6690033"><ele>247.2</ele><time>2026-04-04T07:35:25.379Z</time></trkpt><trkpt lat="45.8881967" lon="8.6690367"><ele>247.39999999999998</ele><time>2026-04-04T07:35:26.379Z</time></trkpt><trkpt lat="45.8881" lon="8.6690583"><ele>247.60000000000002</ele><time>2026-04-04T07:35:27.379Z</time></trkpt><trkpt lat="45.888005" lon="8.6690817"><ele>247.8</ele><time>2026-04-04T07:35:28.38Z</time></trkpt><trkpt lat="45.8879117" lon="8.66911"><ele>248.0</ele><time>2026-04-04T07:35:29.379Z</time></trkpt><trkpt lat="45.88782" lon="8.6691383"><ele>248.0</ele><time>2026-04-04T07:35:30.379Z</time></trkpt><trkpt lat="45.8877333" lon="8.6691667"><ele>248.0</ele><time>2026-04-04T07:35:31.379Z</time></trkpt><trkpt lat="45.887645" lon="8.6691883"><ele>248.0</ele><time>2026-04-04T07:35:32.38Z</time></trkpt><trkpt lat="45.8875517" lon="8.6692167"><ele>248.0</ele><time>2026-04-04T07:35:33.38Z</time></trkpt><trkpt lat="45.8874517" lon="8.6692383"><ele>248.0</ele><time>2026-04-04T07:35:34.379Z</time></trkpt><trkpt lat="45.8873583" lon="8.6692717"><ele>248.00000000000003</ele><time>2026-04-04T07:35:35.38Z</time></trkpt><trkpt lat="45.88726" lon="8.6692967"><ele>248.0</ele><time>2026-04-04T07:35:36.38Z</time></trkpt><trkpt lat="45.8871767" lon="8.6693117"><ele>248.0</ele><time>2026-04-04T07:35:37.379Z</time></trkpt><trkpt lat="45.88709" lon="8.6693233"><ele>248.0</ele><time>2026-04-04T07:35:38.379Z</time></trkpt><trkpt lat="45.8870067" lon="8.6693283"><ele>248.00000000000003</ele><time>2026-04-04T07:35:39.379Z</time></trkpt><trkpt lat="45.8869433" lon="8.6693267"><ele>248.0</ele><time>2026-04-04T07:35:40.379Z</time></trkpt><trkpt lat="45.886845" lon="8.6693183"><ele>248.00000000000003</ele><time>2026-04-04T07:35:42.38Z</time></trkpt><trkpt lat="45.8867933" lon="8.6694167"><ele>248.0</ele><time>2026-04-04T07:35:45.379Z</time></trkpt><trkpt lat="45.88684" lon="8.6695717"><ele>248.0</ele><time>2026-04-04T07:35:47.38Z</time></trkpt><trkpt lat="45.8868783" lon="8.6696683"><ele>248.0</ele><time>2026-04-04T07:35:48.379Z</time></trkpt><trkpt lat="45.8869167" lon="8.669765"><ele>248.00000000000003</ele><time>2026-04-04T07:35:49.38Z</time></trkpt><trkpt lat="45.88695" lon="8.6698567"><ele>248.0</ele><time>2026-04-04T07:35:50.38Z</time></trkpt><trkpt lat="45.8869933" lon="8.6699517"><ele>248.00000000000003</ele><time>2026-04-04T07:35:51.38Z</time></trkpt><trkpt lat="45.887035" lon="8.67005"><ele>248.0</ele><time>2026-04-04T07:35:52.379Z</time></trkpt><trkpt lat="45.8870733" lon="8.6701417"><ele>248.0</ele><time>2026-04-04T07:35:53.38Z</time></trkpt><trkpt lat="45.887105" lon="8.67022"><ele>248.0</ele><time>2026-04-04T07:35:54.38Z</time></trkpt><trkpt lat="45.8871433" lon="8.6703683"><ele>248.00000000000003</ele><time>2026-04-04T07:35:56.379Z</time></trkpt><trkpt lat="45.8871667" lon="8.6705183"><ele>248.0</ele><time>2026-04-04T07:35:58.38Z</time></trkpt><trkpt lat="45.887135" lon="8.670615"><ele>248.50000000000003</ele><time>2026-04-04T07:36:00.379Z</time></trkpt><trkpt lat="45.887055" lon="8.6706833"><ele>249.0</ele><time>2026-04-04T07:36:02.379Z</time></trkpt><trkpt lat="45.88699" lon="8.670705"><ele>249.5</ele><time>2026-04-04T07:36:03.38Z</time></trkpt><trkpt lat="45.8869133" lon="8.6707217"><ele>250.0</ele><time>2026-04-04T07:36:04.38Z</time></trkpt><trkpt lat="45.886825" lon="8.67074"><ele>250.50000000000003</ele><time>2026-04-04T07:36:05.379Z</time></trkpt><trkpt lat="45.8867417" lon="8.6707583"><ele>251.0</ele><time>2026-04-04T07:36:06.379Z</time></trkpt><trkpt lat="45.8866567" lon="8.67077"><ele>251.66666666666669</ele><time>2026-04-04T07:36:07.379Z</time></trkpt><trkpt lat="45.8865783" lon="8.67078"><ele>252.33333333333334</ele><time>2026-04-04T07:36:08.379Z</time></trkpt><trkpt lat="45.8865083" lon="8.6707633"><ele>253.0</ele><time>2026-04-04T07:36:09.38Z</time></trkpt><trkpt lat="45.8864233" lon="8.67078"><ele>253.66666666666669</ele><time>2026-04-04T07:36:10.38Z</time></trkpt><trkpt lat="45.8863367" lon="8.6708017"><ele>254.33333333333334</ele><time>2026-04-04T07:36:11.379Z</time></trkpt><trkpt lat="45.88625" lon="8.6708233"><ele>255.0</ele><time>2026-04-04T07:36:12.379Z</time></trkpt><trkpt lat="45.8861467" lon="8.6708383"><ele>255.0</ele><time>2026-04-04T07:36:13.379Z</time></trkpt><trkpt lat="45.8860467" lon="8.6708667"><ele>255.0</ele><time>2026-04-04T07:36:14.379Z</time></trkpt><trkpt lat="45.88595" lon="8.6708983"><ele>255.0</ele><time>2026-04-04T07:36:15.38Z</time></trkpt><trkpt lat="45.8858583" lon="8.6709217"><ele>255.0</ele><time>2026-04-04T07:36:16.379Z</time></trkpt><trkpt lat="45.8857783" lon="8.670935"><ele>255.0</ele><time>2026-04-04T07:36:17.38Z</time></trkpt><trkpt lat="45.8857117" lon="8.6709483"><ele>255.0</ele><time>2026-04-04T07:36:18.379Z</time></trkpt><trkpt lat="45.8856217" lon="8.670985"><ele>255.33333333333334</ele><time>2026-04-04T07:36:20.38Z</time></trkpt><trkpt lat="45.8855783" lon="8.67106"><ele>255.66666666666669</ele><time>2026-04-04T07:36:22.379Z</time></trkpt><trkpt lat="45.8855867" lon="8.6711533"><ele>256.0</ele><time>2026-04-04T07:36:24.379Z</time></trkpt><trkpt lat="45.8856017" lon="8.6712483"><ele>256.33333333333337</ele><time>2026-04-04T07:36:26.379Z</time></trkpt><trkpt lat="45.8855917" lon="8.6713767"><ele>256.6666666666667</ele><time>2026-04-04T07:36:29.38Z</time></trkpt><trkpt lat="45.8855983" lon="8.6715217"><ele>257.0</ele><time>2026-04-04T07:36:31.379Z</time></trkpt><trkpt lat="45.8856217" lon="8.6716783"><ele>258.6</ele><time>2026-04-04T07:36:33.38Z</time></trkpt><trkpt lat="45.8856567" lon="8.6717783"><ele>260.2</ele><time>2026-04-04T07:36:34.38Z</time></trkpt><trkpt lat="45.8856883" lon="8.671895"><ele>261.8</ele><time>2026-04-04T07:36:35.379Z</time></trkpt><trkpt lat="45.8857067" lon="8.67203"><ele>263.4</ele><time>2026-04-04T07:36:36.379Z</time></trkpt><trkpt lat="45.8857217" lon="8.6721867"><ele>265.0</ele><time>2026-04-04T07:36:37.379Z</time></trkpt><trkpt lat="45.8857433" lon="8.6723083"><ele>265.66666666666663</ele><time>2026-04-04T07:36:38.379Z</time></trkpt><trkpt lat="45.8857617" lon="8.672425"><ele>266.3333333333333</ele><time>2026-04-04T07:36:39.379Z</time></trkpt><trkpt lat="45.8857667" lon="8.6725283"><ele>267.0</ele><time>2026-04-04T07:36:40.38Z</time></trkpt><trkpt lat="45.88576" lon="8.6726283"><ele>267.6666666666667</ele><time>2026-04-04T07:36:41.379Z</time></trkpt><trkpt lat="45.88573" lon="8.6727233"><ele>268.33333333333337</ele><time>2026-04-04T07:36:42.379Z</time></trkpt><trkpt lat="45.8856717" lon="8.672815"><ele>269.0</ele><time>2026-04-04T07:36:43.379Z</time></trkpt><trkpt lat="45.8856083" lon="8.6729167"><ele>270.4</ele><time>2026-04-04T07:36:44.38Z</time></trkpt><trkpt lat="45.88554" lon="8.6730133"><ele>271.79999999999995</ele><time>2026-04-04T07:36:45.379Z</time></trkpt><trkpt lat="45.88548" lon="8.6731217"><ele>273.20000000000005</ele><time>2026-04-04T07:36:46.38Z</time></trkpt><trkpt lat="45.8854233" lon="8.67322"><ele>274.6</ele><time>2026-04-04T07:36:47.379Z</time></trkpt><trkpt lat="45.88537" lon="8.673325"><ele>276.0</ele><time>2026-04-04T07:36:48.379Z</time></trkpt><trkpt lat="45.8853167" lon="8.673415"><ele>276.0</ele><time>2026-04-04T07:36:49.379Z</time></trkpt><trkpt lat="45.885265" lon="8.6734917"><ele>276.0</ele><time>2026-04-04T07:36:50.379Z</time></trkpt><trkpt lat="45.885235" lon="8.6735917"><ele>276.0</ele><time>2026-04-04T07:36:52.379Z</time></trkpt><trkpt lat="45.8852917" lon="8.67369"><ele>276.0</ele><time>2026-04-04T07:36:54.379Z</time></trkpt><trkpt lat="45.8853783" lon="8.6738267"><ele>276.0</ele><time>2026-04-04T07:36:56.379Z</time></trkpt><trkpt lat="45.8854283" lon="8.673935"><ele>277.0</ele><time>2026-04-04T07:36:57.38Z</time></trkpt><trkpt lat="45.8854783" lon="8.6740683"><ele>278.0</ele><time>2026-04-04T07:36:58.379Z</time></trkpt><trkpt lat="45.8855367" lon="8.6741917"><ele>279.0</ele><time>2026-04-04T07:36:59.379Z</time></trkpt><trkpt lat="45.885595" lon="8.6743333"><ele>280.0</ele><time>2026-04-04T07:37:00.379Z</time></trkpt><trkpt lat="45.8856417" lon="8.6744883"><ele>281.0</ele><time>2026-04-04T07:37:01.379Z</time></trkpt><trkpt lat="45.8856967" lon="8.67464"><ele>282.5</ele><time>2026-04-04T07:37:02.38Z</time></trkpt><trkpt lat="45.8857583" lon="8.6748017"><ele>284.0</ele><time>2026-04-04T07:37:03.379Z</time></trkpt><trkpt lat="45.8858183" lon="8.6749533"><ele>285.5</ele><time>2026-04-04T07:37:04.379Z</time></trkpt><trkpt lat="45.88587" lon="8.6750917"><ele>287.0</ele><time>2026-04-04T07:37:05.379Z</time></trkpt><trkpt lat="45.8859183" lon="8.6752267"><ele>287.0</ele><time>2026-04-04T07:37:06.379Z</time></trkpt><trkpt lat="45.88596" lon="8.6753633"><ele>287.0</ele><time>2026-04-04T07:37:07.38Z</time></trkpt><trkpt lat="45.88601" lon="8.6755"><ele>287.0</ele><time>2026-04-04T07:37:08.379Z</time></trkpt><trkpt lat="45.8860633" lon="8.6756333"><ele>287.0</ele><time>2026-04-04T07:37:09.38Z</time></trkpt><trkpt lat="45.88611" lon="8.67575"><ele>287.0</ele><time>2026-04-04T07:37:10.379Z</time></trkpt><trkpt lat="45.8861583" lon="8.6758617"><ele>287.0</ele><time>2026-04-04T07:37:11.379Z</time></trkpt><trkpt lat="45.8862067" lon="8.6759683"><ele>287.0</ele><time>2026-04-04T07:37:12.38Z</time></trkpt><trkpt lat="45.8862583" lon="8.676065"><ele>287.0</ele><time>2026-04-04T07:37:13.379Z</time></trkpt><trkpt lat="45.8863017" lon="8.6761367"><ele>287.0</ele><time>2026-04-04T07:37:14.379Z</time></trkpt><trkpt lat="45.8864133" lon="8.6762233"><ele>287.0</ele><time>2026-04-04T07:37:16.379Z</time></trkpt><trkpt lat="45.8864883" lon="8.676255"><ele>287.0</ele><time>2026-04-04T07:37:17.379Z</time></trkpt><trkpt lat="45.8865717" lon="8.6763"><ele>288.2</ele><time>2026-04-04T07:37:18.379Z</time></trkpt><trkpt lat="45.8866583" lon="8.6763667"><ele>289.4</ele><time>2026-04-04T07:37:19.379Z</time></trkpt><trkpt lat="45.88673" lon="8.6764483"><ele>290.6</ele><time>2026-04-04T07:37:20.38Z</time></trkpt><trkpt lat="45.8868017" lon="8.6765367"><ele>291.8</ele><time>2026-04-04T07:37:21.379Z</time></trkpt><trkpt lat="45.8868733" lon="8.6766383"><ele>293.0</ele><time>2026-04-04T07:37:22.379Z</time></trkpt><trkpt lat="45.8869467" lon="8.6767467"><ele>293.0</ele><time>2026-04-04T07:37:23.38Z</time></trkpt><trkpt lat="45.887015" lon="8.676855"><ele>293.0</ele><time>2026-04-04T07:37:24.38Z</time></trkpt><trkpt lat="45.887085" lon="8.6769633"><ele>293.0</ele><time>2026-04-04T07:37:25.38Z</time></trkpt><trkpt lat="45.8871483" lon="8.6770567"><ele>293.0</ele><time>2026-04-04T07:37:26.38Z</time></trkpt><trkpt lat="45.887205" lon="8.6771517"><ele>293.0</ele><time>2026-04-04T07:37:27.379Z</time></trkpt><trkpt lat="45.88726" lon="8.67724"><ele>294.0</ele><time>2026-04-04T07:37:28.379Z</time></trkpt><trkpt lat="45.8873033" lon="8.67734"><ele>295.0</ele><time>2026-04-04T07:37:29.38Z</time></trkpt><trkpt lat="45.88734" lon="8.67745"><ele>296.0</ele><time>2026-04-04T07:37:30.379Z</time></trkpt><trkpt lat="45.8873783" lon="8.6775883"><ele>297.0</ele><time>2026-04-04T07:37:31.38Z</time></trkpt><trkpt lat="45.887405" lon="8.677725"><ele>298.0</ele><time>2026-04-04T07:37:32.38Z</time></trkpt><trkpt lat="45.8874333" lon="8.6778717"><ele>298.8</ele><time>2026-04-04T07:37:33.38Z</time></trkpt><trkpt lat="45.887465" lon="8.6780117"><ele>299.6</ele><time>2026-04-04T07:37:34.379Z</time></trkpt><trkpt lat="45.8874917" lon="8.67814"><ele>300.4</ele><time>2026-04-04T07:37:35.38Z</time></trkpt><trkpt lat="45.8875233" lon="8.678255"><ele>301.2</ele><time>2026-04-04T07:37:36.38Z</time></trkpt><trkpt lat="45.88755" lon="8.67838"><ele>302.0</ele><time>2026-04-04T07:37:37.38Z</time></trkpt><trkpt lat="45.88757" lon="8.6784917"><ele>302.0</ele><time>2026-04-04T07:37:38.38Z</time></trkpt><trkpt lat="45.88758" lon="8.6785833"><ele>302.0</ele><time>2026-04-04T07:37:39.379Z</time></trkpt><trkpt lat="45.8875383" lon="8.67871"><ele>302.0</ele><time>2026-04-04T07:37:41.379Z</time></trkpt><trkpt lat="45.8874167" lon="8.67879"><ele>302.0</ele><time>2026-04-04T07:37:43.38Z</time></trkpt><trkpt lat="45.8873417" lon="8.6788317"><ele>302.0</ele><time>2026-04-04T07:37:44.38Z</time></trkpt><trkpt lat="45.88727" lon="8.6788883"><ele>302.1666666666667</ele><time>2026-04-04T07:37:45.379Z</time></trkpt><trkpt lat="45.8872117" lon="8.6789667"><ele>302.33333333333337</ele><time>2026-04-04T07:37:46.38Z</time></trkpt><trkpt lat="45.887185" lon="8.6790717"><ele>302.5</ele><time>2026-04-04T07:37:47.379Z</time></trkpt><trkpt lat="45.8871833" lon="8.6791783"><ele>302.6666666666667</ele><time>2026-04-04T07:37:48.379Z</time></trkpt><trkpt lat="45.88719" lon="8.6792783"><ele>302.8333333333333</ele><time>2026-04-04T07:37:49.38Z</time></trkpt><trkpt lat="45.887155" lon="8.6794217"><ele>303.0</ele><time>2026-04-04T07:37:51.38Z</time></trkpt><trkpt lat="45.8870583" lon="8.6794967"><ele>303.6666666666667</ele><time>2026-04-04T07:37:53.379Z</time></trkpt><trkpt lat="45.8869317" lon="8.6795417"><ele>304.3333333333333</ele><time>2026-04-04T07:37:55.379Z</time></trkpt><trkpt lat="45.8868633" lon="8.6795667"><ele>305.0</ele><time>2026-04-04T07:37:56.379Z</time></trkpt><trkpt lat="45.8868017" lon="8.67959"><ele>305.66666666666663</ele><time>2026-04-04T07:37:57.38Z</time></trkpt><trkpt lat="45.88674" lon="8.6796083"><ele>306.3333333333333</ele><time>2026-04-04T07:37:58.379Z</time></trkpt><trkpt lat="45.88664" lon="8.6796483"><ele>307.0</ele><time>2026-04-04T07:38:00.38Z</time></trkpt><trkpt lat="45.886565" lon="8.679685"><ele>307.6</ele><time>2026-04-04T07:38:02.379Z</time></trkpt><trkpt lat="45.8865083" lon="8.679785"><ele>308.2</ele><time>2026-04-04T07:38:04.379Z</time></trkpt><trkpt lat="45.8864867" lon="8.6799817"><ele>308.8</ele><time>2026-04-04T07:38:06.379Z</time></trkpt><trkpt lat="45.886475" lon="8.6801067"><ele>309.4</ele><time>2026-04-04T07:38:07.38Z</time></trkpt><trkpt lat="45.8864583" lon="8.680235"><ele>310.0</ele><time>2026-04-04T07:38:08.379Z</time></trkpt><trkpt lat="45.8864217" lon="8.6803533"><ele>311.66666666666663</ele><time>2026-04-04T07:38:09.38Z</time></trkpt><trkpt lat="45.8863733" lon="8.680465"><ele>313.3333333333333</ele><time>2026-04-04T07:38:10.379Z</time></trkpt><trkpt lat="45.8863283" lon="8.6805667"><ele>315.0</ele><time>2026-04-04T07:38:11.379Z</time></trkpt><trkpt lat="45.8862717" lon="8.6806967"><ele>316.6666666666667</ele><time>2026-04-04T07:38:13.379Z</time></trkpt><trkpt lat="45.8862317" lon="8.6807733"><ele>318.33333333333337</ele><time>2026-04-04T07:38:16.379Z</time></trkpt><trkpt lat="45.886285" lon="8.6808567"><ele>320.0</ele><time>2026-04-04T07:38:18.379Z</time></trkpt><trkpt lat="45.8863483" lon="8.68091"><ele>320.0</ele><time>2026-04-04T07:38:19.38Z</time></trkpt><trkpt lat="45.8864217" lon="8.6809633"><ele>320.0</ele><time>2026-04-04T07:38:20.379Z</time></trkpt><trkpt lat="45.88649" lon="8.681025"><ele>320.0</ele><time>2026-04-04T07:38:21.379Z</time></trkpt><trkpt lat="45.8865517" lon="8.6810883"><ele>320.0</ele><time>2026-04-04T07:38:22.379Z</time></trkpt><trkpt lat="45.88661" lon="8.6811517"><ele>320.0</ele><time>2026-04-04T07:38:23.379Z</time></trkpt><trkpt lat="45.8866617" lon="8.6812233"><ele>320.0</ele><time>2026-04-04T07:38:24.38Z</time></trkpt><trkpt lat="45.8867083" lon="8.6813083"><ele>319.6666666666667</ele><time>2026-04-04T07:38:25.379Z</time></trkpt><trkpt lat="45.8867433" lon="8.6814017"><ele>319.33333333333337</ele><time>2026-04-04T07:38:26.379Z</time></trkpt><trkpt lat="45.886775" lon="8.6815017"><ele>319.0</ele><time>2026-04-04T07:38:27.38Z</time></trkpt><trkpt lat="45.8867983" lon="8.6816"><ele>318.6666666666667</ele><time>2026-04-04T07:38:28.38Z</time></trkpt><trkpt lat="45.8868183" lon="8.6817033"><ele>318.3333333333333</ele><time>2026-04-04T07:38:29.38Z</time></trkpt><trkpt lat="45.8868383" lon="8.6818"><ele>318.0</ele><time>2026-04-04T07:38:30.38Z</time></trkpt><trkpt lat="45.886835" lon="8.6819717"><ele>319.6</ele><time>2026-04-04T07:38:32.379Z</time></trkpt><trkpt lat="45.8868233" lon="8.6820983"><ele>321.20000000000005</ele><time>2026-04-04T07:38:34.38Z</time></trkpt><trkpt lat="45.8868583" lon="8.6821933"><ele>322.8</ele><time>2026-04-04T07:38:36.379Z</time></trkpt><trkpt lat="45.886945" lon="8.682335"><ele>324.40000000000003</ele><time>2026-04-04T07:38:38.379Z</time></trkpt><trkpt lat="45.8870033" lon="8.6824283"><ele>326.0</ele><time>2026-04-04T07:38:39.379Z</time></trkpt><trkpt lat="45.8870617" lon="8.6825383"><ele>326.0</ele><time>2026-04-04T07:38:40.38Z</time></trkpt><trkpt lat="45.88711" lon="8.6826433"><ele>326.0</ele><time>2026-04-04T07:38:41.379Z</time></trkpt><trkpt lat="45.8871583" lon="8.6827417"><ele>326.0</ele><time>2026-04-04T07:38:42.38Z</time></trkpt><trkpt lat="45.8872017" lon="8.682825"><ele>326.0</ele><time>2026-04-04T07:38:43.38Z</time></trkpt><trkpt lat="45.8872583" lon="8.682965"><ele>326.0</ele><time>2026-04-04T07:38:45.38Z</time></trkpt><trkpt lat="45.8873017" lon="8.6830633"><ele>326.0</ele><time>2026-04-04T07:38:46.379Z</time></trkpt><trkpt lat="45.8873483" lon="8.683165"><ele>327.1666666666667</ele><time>2026-04-04T07:38:47.38Z</time></trkpt><trkpt lat="45.8873983" lon="8.6832617"><ele>328.33333333333337</ele><time>2026-04-04T07:38:48.379Z</time></trkpt><trkpt lat="45.8874467" lon="8.68337"><ele>329.5</ele><time>2026-04-04T07:38:49.379Z</time></trkpt><trkpt lat="45.8874983" lon="8.6834817"><ele>330.6666666666667</ele><time>2026-04-04T07:38:50.38Z</time></trkpt><trkpt lat="45.887545" lon="8.6835717"><ele>331.8333333333333</ele><time>2026-04-04T07:38:51.379Z</time></trkpt><trkpt lat="45.8875967" lon="8.683655"><ele>333.0</ele><time>2026-04-04T07:38:52.379Z</time></trkpt><trkpt lat="45.8876367" lon="8.6837383"><ele>333.0</ele><time>2026-04-04T07:38:53.379Z</time></trkpt><trkpt lat="45.8877" lon="8.6838717"><ele>333.0</ele><time>2026-04-04T07:38:55.379Z</time></trkpt><trkpt lat="45.887735" lon="8.6840383"><ele>333.0</ele><time>2026-04-04T07:38:57.379Z</time></trkpt><trkpt lat="45.88775" lon="8.6841367"><ele>333.0</ele><time>2026-04-04T07:38:58.38Z</time></trkpt><trkpt lat="45.8877733" lon="8.6842283"><ele>333.0</ele><time>2026-04-04T07:38:59.379Z</time></trkpt><trkpt lat="45.8878033" lon="8.6843083"><ele>333.0</ele><time>2026-04-04T07:39:00.379Z</time></trkpt><trkpt lat="45.8878417" lon="8.6843917"><ele>333.59999999999997</ele><time>2026-04-04T07:39:01.38Z</time></trkpt><trkpt lat="45.8878983" lon="8.6844883"><ele>334.2</ele><time>2026-04-04T07:39:02.38Z</time></trkpt><trkpt lat="45.8879767" lon="8.6845883"><ele>334.8</ele><time>2026-04-04T07:39:03.38Z</time></trkpt><trkpt lat="45.888055" lon="8.684685"><ele>335.4</ele><time>2026-04-04T07:39:04.379Z</time></trkpt><trkpt lat="45.8881167" lon="8.6847833"><ele>336.0</ele><time>2026-04-04T07:39:05.38Z</time></trkpt><trkpt lat="45.8881633" lon="8.684865"><ele>336.0</ele><time>2026-04-04T07:39:06.379Z</time></trkpt><trkpt lat="45.8882117" lon="8.6849467"><ele>336.0</ele><time>2026-04-04T07:39:07.379Z</time></trkpt><trkpt lat="45.8882767" lon="8.685015"><ele>336.0</ele><time>2026-04-04T07:39:08.379Z</time></trkpt><trkpt lat="45.888335" lon="8.6850783"><ele>336.0</ele><time>2026-04-04T07:39:09.38Z</time></trkpt><trkpt lat="45.888385" lon="8.68516"><ele>336.0</ele><time>2026-04-04T07:39:10.38Z</time></trkpt><trkpt lat="45.88842" lon="8.6852667"><ele>336.0</ele><time>2026-04-04T07:39:11.38Z</time></trkpt><trkpt lat="45.8884433" lon="8.6853767"><ele>334.6666666666667</ele><time>2026-04-04T07:39:12.38Z</time></trkpt><trkpt lat="45.888465" lon="8.6854817"><ele>333.3333333333333</ele><time>2026-04-04T07:39:13.379Z</time></trkpt><trkpt lat="45.88848" lon="8.68559"><ele>332.0</ele><time>2026-04-04T07:39:14.38Z</time></trkpt><trkpt lat="45.8884867" lon="8.6857017"><ele>330.66666666666663</ele><time>2026-04-04T07:39:15.379Z</time></trkpt><trkpt lat="45.8884933" lon="8.6858083"><ele>329.3333333333333</ele><time>2026-04-04T07:39:16.38Z</time></trkpt><trkpt lat="45.8885067" lon="8.6859167"><ele>328.0</ele><time>2026-04-04T07:39:17.379Z</time></trkpt><trkpt lat="45.8885333" lon="8.6860267"><ele>328.2</ele><time>2026-04-04T07:39:18.379Z</time></trkpt><trkpt lat="45.8885817" lon="8.6861333"><ele>328.4</ele><time>2026-04-04T07:39:19.38Z</time></trkpt><trkpt lat="45.8886383" lon="8.6862383"><ele>328.59999999999997</ele><time>2026-04-04T07:39:20.38Z</time></trkpt><trkpt lat="45.88868" lon="8.686355"><ele>328.79999999999995</ele><time>2026-04-04T07:39:21.379Z</time></trkpt><trkpt lat="45.88871" lon="8.686495"><ele>329.0</ele><time>2026-04-04T07:39:22.379Z</time></trkpt><trkpt lat="45.888725" lon="8.6866417"><ele>329.0</ele><time>2026-04-04T07:39:23.379Z</time></trkpt><trkpt lat="45.8887367" lon="8.6867717"><ele>329.0</ele><time>2026-04-04T07:39:24.38Z</time></trkpt><trkpt lat="45.88874" lon="8.6868867"><ele>329.0</ele><time>2026-04-04T07:39:25.38Z</time></trkpt><trkpt lat="45.8887333" lon="8.6869933"><ele>329.0</ele><time>2026-04-04T07:39:26.38Z</time></trkpt><trkpt lat="45.888725" lon="8.687085"><ele>329.0</ele><time>2026-04-04T07:39:27.379Z</time></trkpt><trkpt lat="45.8887267" lon="8.6872433"><ele>329.0</ele><time>2026-04-04T07:39:29.38Z</time></trkpt><trkpt lat="45.88873" lon="8.6873417"><ele>328.75</ele><time>2026-04-04T07:39:30.379Z</time></trkpt><trkpt lat="45.8887317" lon="8.6875283"><ele>328.5</ele><time>2026-04-04T07:39:32.38Z</time></trkpt><trkpt lat="45.8887167" lon="8.68769"><ele>328.25</ele><time>2026-04-04T07:39:34.38Z</time></trkpt><trkpt lat="45.8887083" lon="8.6878583"><ele>328.0</ele><time>2026-04-04T07:39:36.38Z</time></trkpt><trkpt lat="45.8886967" lon="8.6880383"><ele>328.4</ele><time>2026-04-04T07:39:38.38Z</time></trkpt><trkpt lat="45.8887083" lon="8.6881367"><ele>328.79999999999995</ele><time>2026-04-04T07:39:39.38Z</time></trkpt><trkpt lat="45.8887367" lon="8.68826"><ele>329.2</ele><time>2026-04-04T07:39:40.379Z</time></trkpt><trkpt lat="45.888765" lon="8.6884133"><ele>329.6</ele><time>2026-04-04T07:39:41.379Z</time></trkpt><trkpt lat="45.888785" lon="8.6885633"><ele>330.0</ele><time>2026-04-04T07:39:42.38Z</time></trkpt><trkpt lat="45.8888033" lon="8.6886983"><ele>330.0</ele><time>2026-04-04T07:39:43.38Z</time></trkpt><trkpt lat="45.88882" lon="8.6888217"><ele>330.0</ele><time>2026-04-04T07:39:44.38Z</time></trkpt><trkpt lat="45.88885" lon="8.6889417"><ele>330.0</ele><time>2026-04-04T07:39:45.379Z</time></trkpt><trkpt lat="45.8888733" lon="8.6890683"><ele>330.0</ele><time>2026-04-04T07:39:46.38Z</time></trkpt><trkpt lat="45.8888917" lon="8.68921"><ele>330.0</ele><time>2026-04-04T07:39:47.38Z</time></trkpt><trkpt lat="45.8889067" lon="8.6893417"><ele>330.4</ele><time>2026-04-04T07:39:48.379Z</time></trkpt><trkpt lat="45.88892" lon="8.68949"><ele>330.8</ele><time>2026-04-04T07:39:49.379Z</time></trkpt><trkpt lat="45.888925" lon="8.6896317"><ele>331.20000000000005</ele><time>2026-04-04T07:39:50.379Z</time></trkpt><trkpt lat="45.8889333" lon="8.689765"><ele>331.6</ele><time>2026-04-04T07:39:51.38Z</time></trkpt><trkpt lat="45.88894" lon="8.689895"><ele>332.0</ele><time>2026-04-04T07:39:52.379Z</time></trkpt><trkpt lat="45.8889517" lon="8.6900417"><ele>332.0</ele><time>2026-04-04T07:39:53.379Z</time></trkpt><trkpt lat="45.8889617" lon="8.6901717"><ele>332.0</ele><time>2026-04-04T07:39:54.379Z</time></trkpt><trkpt lat="45.8889717" lon="8.6903117"><ele>332.0</ele><time>2026-04-04T07:39:55.38Z</time></trkpt><trkpt lat="45.8889833" lon="8.690435"><ele>332.0</ele><time>2026-04-04T07:39:56.379Z</time></trkpt><trkpt lat="45.889" lon="8.69055"><ele>332.0</ele><time>2026-04-04T07:39:57.379Z</time></trkpt><trkpt lat="45.889015" lon="8.6906567"><ele>332.0</ele><time>2026-04-04T07:39:58.379Z</time></trkpt><trkpt lat="45.8890367" lon="8.6907733"><ele>332.0</ele><time>2026-04-04T07:39:59.38Z</time></trkpt><trkpt lat="45.8890533" lon="8.6908817"><ele>332.0</ele><time>2026-04-04T07:40:00.379Z</time></trkpt><trkpt lat="45.8890583" lon="8.69098"><ele>332.0</ele><time>2026-04-04T07:40:01.379Z</time></trkpt><trkpt lat="45.8890517" lon="8.6910733"><ele>332.0</ele><time>2026-04-04T07:40:02.379Z</time></trkpt><trkpt lat="45.889035" lon="8.691165"><ele>332.0</ele><time>2026-04-04T07:40:03.38Z</time></trkpt><trkpt lat="45.8890067" lon="8.6912667"><ele>332.0</ele><time>2026-04-04T07:40:04.379Z</time></trkpt><trkpt lat="45.888975" lon="8.691385"><ele>332.0</ele><time>2026-04-04T07:40:05.379Z</time></trkpt><trkpt lat="45.8889467" lon="8.69149"><ele>332.0</ele><time>2026-04-04T07:40:06.379Z</time></trkpt><trkpt lat="45.8889167" lon="8.6915917"><ele>332.0</ele><time>2026-04-04T07:40:07.38Z</time></trkpt><trkpt lat="45.8888783" lon="8.69169"><ele>332.0</ele><time>2026-04-04T07:40:08.379Z</time></trkpt><trkpt lat="45.888845" lon="8.6917783"><ele>332.0</ele><time>2026-04-04T07:40:09.379Z</time></trkpt><trkpt lat="45.8888133" lon="8.69186"><ele>332.0</ele><time>2026-04-04T07:40:10.38Z</time></trkpt><trkpt lat="45.8887883" lon="8.6919533"><ele>332.0</ele><time>2026-04-04T07:40:11.379Z</time></trkpt><trkpt lat="45.888755" lon="8.6920533"><ele>332.0</ele><time>2026-04-04T07:40:12.379Z</time></trkpt><trkpt lat="45.8887167" lon="8.6921517"><ele>332.0</ele><time>2026-04-04T07:40:13.379Z</time></trkpt><trkpt lat="45.8886783" lon="8.6922267"><ele>332.0</ele><time>2026-04-04T07:40:14.379Z</time></trkpt><trkpt lat="45.88861" lon="8.6923017"><ele>332.0</ele><time>2026-04-04T07:40:16.379Z</time></trkpt><trkpt lat="45.8885133" lon="8.6923283"><ele>332.0</ele><time>2026-04-04T07:40:18.379Z</time></trkpt><trkpt lat="45.88838" lon="8.6923667"><ele>332.0</ele><time>2026-04-04T07:40:20.379Z</time></trkpt><trkpt lat="45.8882917" lon="8.6923967"><ele>334.1666666666667</ele><time>2026-04-04T07:40:21.38Z</time></trkpt><trkpt lat="45.8881983" lon="8.6924217"><ele>336.33333333333337</ele><time>2026-04-04T07:40:22.38Z</time></trkpt><trkpt lat="45.8881117" lon="8.6924533"><ele>338.5</ele><time>2026-04-04T07:40:23.38Z</time></trkpt><trkpt lat="45.8880417" lon="8.692465"><ele>340.6666666666667</ele><time>2026-04-04T07:40:24.379Z</time></trkpt><trkpt lat="45.8879717" lon="8.6924683"><ele>342.8333333333333</ele><time>2026-04-04T07:40:25.38Z</time></trkpt><trkpt lat="45.8878717" lon="8.6924417"><ele>345.0</ele><time>2026-04-04T07:40:26.379Z</time></trkpt><trkpt lat="45.8877833" lon="8.6924083"><ele>345.0</ele><time>2026-04-04T07:40:27.38Z</time></trkpt><trkpt lat="45.8876617" lon="8.6923767"><ele>345.0</ele><time>2026-04-04T07:40:28.38Z</time></trkpt><trkpt lat="45.887535" lon="8.692355"><ele>345.0</ele><time>2026-04-04T07:40:29.379Z</time></trkpt><trkpt lat="45.8874117" lon="8.692335"><ele>345.0</ele><time>2026-04-04T07:40:30.379Z</time></trkpt><trkpt lat="45.8873067" lon="8.692305"><ele>345.5</ele><time>2026-04-04T07:40:31.379Z</time></trkpt><trkpt lat="45.8872117" lon="8.692265"><ele>346.0</ele><time>2026-04-04T07:40:32.379Z</time></trkpt><trkpt lat="45.88712" lon="8.6922233"><ele>346.5</ele><time>2026-04-04T07:40:33.38Z</time></trkpt><trkpt lat="45.88704" lon="8.6921983"><ele>347.0</ele><time>2026-04-04T07:40:34.379Z</time></trkpt><trkpt lat="45.886965" lon="8.692195"><ele>347.5</ele><time>2026-04-04T07:40:35.379Z</time></trkpt><trkpt lat="45.8868967" lon="8.6922183"><ele>348.0</ele><time>2026-04-04T07:40:36.379Z</time></trkpt><trkpt lat="45.8868333" lon="8.69226"><ele>348.0</ele><time>2026-04-04T07:40:37.38Z</time></trkpt><trkpt lat="45.88676" lon="8.692355"><ele>348.0</ele><time>2026-04-04T07:40:39.38Z</time></trkpt><trkpt lat="45.8867783" lon="8.6925317"><ele>348.0</ele><time>2026-04-04T07:40:41.379Z</time></trkpt><trkpt lat="45.8868383" lon="8.6926617"><ele>348.0</ele><time>2026-04-04T07:40:42.379Z</time></trkpt><trkpt lat="45.8868867" lon="8.6927833"><ele>348.0</ele><time>2026-04-04T07:40:43.379Z</time></trkpt><trkpt lat="45.8869183" lon="8.692875"><ele>347.59999999999997</ele><time>2026-04-04T07:40:44.379Z</time></trkpt><trkpt lat="45.8869167" lon="8.693015"><ele>347.2</ele><time>2026-04-04T07:40:46.379Z</time></trkpt><trkpt lat="45.8868583" lon="8.6931817"><ele>346.8</ele><time>2026-04-04T07:40:48.379Z</time></trkpt><trkpt lat="45.88686" lon="8.69332"><ele>346.4</ele><time>2026-04-04T07:40:50.379Z</time></trkpt><trkpt lat="45.8869083" lon="8.6934233"><ele>346.0</ele><time>2026-04-04T07:40:52.379Z</time></trkpt><trkpt lat="45.8869733" lon="8.6935417"><ele>347.0</ele><time>2026-04-04T07:40:54.38Z</time></trkpt><trkpt lat="45.8870017" lon="8.69363"><ele>348.0</ele><time>2026-04-04T07:40:55.379Z</time></trkpt><trkpt lat="45.88703" lon="8.69375"><ele>349.0</ele><time>2026-04-04T07:40:56.38Z</time></trkpt><trkpt lat="45.8870583" lon="8.6938983"><ele>350.0</ele><time>2026-04-04T07:40:57.379Z</time></trkpt><trkpt lat="45.8870883" lon="8.6940367"><ele>351.0</ele><time>2026-04-04T07:40:58.379Z</time></trkpt><trkpt lat="45.8871" lon="8.6941733"><ele>351.0</ele><time>2026-04-04T07:40:59.38Z</time></trkpt><trkpt lat="45.8871283" lon="8.6943217"><ele>351.0</ele><time>2026-04-04T07:41:00.38Z</time></trkpt><trkpt lat="45.8871617" lon="8.6944717"><ele>351.0</ele><time>2026-04-04T07:41:01.379Z</time></trkpt><trkpt lat="45.887195" lon="8.6946167"><ele>351.0</ele><time>2026-04-04T07:41:02.379Z</time></trkpt><trkpt lat="45.8872283" lon="8.6947467"><ele>351.0</ele><time>2026-04-04T07:41:03.379Z</time></trkpt><trkpt lat="45.8872667" lon="8.6948667"><ele>351.0</ele><time>2026-04-04T07:41:04.38Z</time></trkpt><trkpt lat="45.8873017" lon="8.6949817"><ele>351.0</ele><time>2026-04-04T07:41:05.379Z</time></trkpt><trkpt lat="45.8873383" lon="8.69509"><ele>351.0</ele><time>2026-04-04T07:41:06.38Z</time></trkpt><trkpt lat="45.8873833" lon="8.6952033"><ele>351.0</ele><time>2026-04-04T07:41:07.38Z</time></trkpt><trkpt lat="45.887435" lon="8.69532"><ele>351.0</ele><time>2026-04-04T07:41:08.379Z</time></trkpt><trkpt lat="45.8874933" lon="8.695425"><ele>351.4</ele><time>2026-04-04T07:41:09.379Z</time></trkpt><trkpt lat="45.88756" lon="8.6955083"><ele>351.8</ele><time>2026-04-04T07:41:10.379Z</time></trkpt><trkpt lat="45.8876267" lon="8.6955683"><ele>352.2</ele><time>2026-04-04T07:41:11.38Z</time></trkpt><trkpt lat="45.8876883" lon="8.69562"><ele>352.59999999999997</ele><time>2026-04-04T07:41:12.38Z</time></trkpt><trkpt lat="45.8877883" lon="8.695715"><ele>353.0</ele><time>2026-04-04T07:41:14.379Z</time></trkpt><trkpt lat="45.8878633" lon="8.69579"><ele>352.0</ele><time>2026-04-04T07:41:16.379Z</time></trkpt><trkpt lat="45.887945" lon="8.6958517"><ele>351.0</ele><time>2026-04-04T07:41:18.38Z</time></trkpt><trkpt lat="45.8880267" lon="8.695865"><ele>350.0</ele><time>2026-04-04T07:41:20.379Z</time></trkpt><trkpt lat="45.888095" lon="8.6958333"><ele>349.0</ele><time>2026-04-04T07:41:22.379Z</time></trkpt><trkpt lat="45.8881767" lon="8.695775"><ele>348.0</ele><time>2026-04-04T07:41:24.379Z</time></trkpt><trkpt lat="45.8882667" lon="8.6956383"><ele>348.0</ele><time>2026-04-04T07:41:26.38Z</time></trkpt><trkpt lat="45.8883083" lon="8.6955617"><ele>348.0</ele><time>2026-04-04T07:41:27.379Z</time></trkpt><trkpt lat="45.8883617" lon="8.6954667"><ele>348.0</ele><time>2026-04-04T07:41:28.379Z</time></trkpt><trkpt lat="45.8884167" lon="8.69538"><ele>348.0</ele><time>2026-04-04T07:41:29.379Z</time></trkpt><trkpt lat="45.8884617" lon="8.6953133"><ele>348.0</ele><time>2026-04-04T07:41:30.379Z</time></trkpt><trkpt lat="45.8885483" lon="8.6952367"><ele>348.0</ele><time>2026-04-04T07:41:32.379Z</time></trkpt><trkpt lat="45.8886467" lon="8.6952"><ele>346.1666666666667</ele><time>2026-04-04T07:41:34.379Z</time></trkpt><trkpt lat="45.88874" lon="8.6951483"><ele>344.3333333333333</ele><time>2026-04-04T07:41:36.38Z</time></trkpt><trkpt lat="45.888795" lon="8.6950817"><ele>342.5</ele><time>2026-04-04T07:41:38.379Z</time></trkpt><trkpt lat="45.8888267" lon="8.694995"><ele>340.66666666666663</ele><time>2026-04-04T07:41:40.38Z</time></trkpt><trkpt lat="45.888835" lon="8.6948633"><ele>338.8333333333333</ele><time>2026-04-04T07:41:42.379Z</time></trkpt><trkpt lat="45.8888317" lon="8.69471"><ele>337.0</ele><time>2026-04-04T07:41:44.379Z</time></trkpt><trkpt lat="45.8888383" lon="8.694605"><ele>337.0</ele><time>2026-04-04T07:41:46.38Z</time></trkpt><trkpt lat="45.8888467" lon="8.6944867"><ele>337.0</ele><time>2026-04-04T07:41:48.379Z</time></trkpt><trkpt lat="45.8888617" lon="8.6943417"><ele>337.0</ele><time>2026-04-04T07:41:50.38Z</time></trkpt><trkpt lat="45.888875" lon="8.6942"><ele>337.0</ele><time>2026-04-04T07:41:52.379Z</time></trkpt><trkpt lat="45.8888833" lon="8.694075"><ele>337.0</ele><time>2026-04-04T07:41:54.379Z</time></trkpt><trkpt lat="45.888905" lon="8.6939583"><ele>336.8</ele><time>2026-04-04T07:41:56.379Z</time></trkpt><trkpt lat="45.88891" lon="8.6938283"><ele>336.6</ele><time>2026-04-04T07:41:58.379Z</time></trkpt><trkpt lat="45.8889033" lon="8.6936917"><ele>336.40000000000003</ele><time>2026-04-04T07:42:00.38Z</time></trkpt><trkpt lat="45.8889067" lon="8.693545"><ele>336.20000000000005</ele><time>2026-04-04T07:42:02.379Z</time></trkpt><trkpt lat="45.8889083" lon="8.6934"><ele>336.0</ele><time>2026-04-04T07:42:04.38Z</time></trkpt><trkpt lat="45.8888867" lon="8.69329"><ele>335.6</ele><time>2026-04-04T07:42:06.379Z</time></trkpt><trkpt lat="45.8888217" lon="8.6931633"><ele>335.20000000000005</ele><time>2026-04-04T07:42:08.379Z</time></trkpt><trkpt lat="45.88876" lon="8.6930633"><ele>334.79999999999995</ele><time>2026-04-04T07:42:09.379Z</time></trkpt><trkpt lat="45.8886933" lon="8.692965"><ele>334.4</ele><time>2026-04-04T07:42:10.38Z</time></trkpt><trkpt lat="45.8886317" lon="8.6928767"><ele>334.0</ele><time>2026-04-04T07:42:11.379Z</time></trkpt><trkpt lat="45.8885767" lon="8.69279"><ele>333.6</ele><time>2026-04-04T07:42:12.38Z</time></trkpt><trkpt lat="45.8885133" lon="8.692705"><ele>333.2</ele><time>2026-04-04T07:42:13.379Z</time></trkpt><trkpt lat="45.8884517" lon="8.6926317"><ele>332.8</ele><time>2026-04-04T07:42:14.379Z</time></trkpt><trkpt lat="45.8883933" lon="8.6925633"><ele>332.40000000000003</ele><time>2026-04-04T07:42:15.379Z</time></trkpt><trkpt lat="45.8883" lon="8.692495"><ele>332.0</ele><time>2026-04-04T07:42:17.379Z</time></trkpt><trkpt lat="45.8881733" lon="8.69249"><ele>334.1666666666667</ele><time>2026-04-04T07:42:19.38Z</time></trkpt><trkpt lat="45.8880933" lon="8.6925083"><ele>336.33333333333337</ele><time>2026-04-04T07:42:20.38Z</time></trkpt><trkpt lat="45.8880217" lon="8.69252"><ele>338.5</ele><time>2026-04-04T07:42:21.379Z</time></trkpt><trkpt lat="45.8879517" lon="8.6925217"><ele>340.6666666666667</ele><time>2026-04-04T07:42:22.379Z</time></trkpt><trkpt lat="45.8878683" lon="8.6924933"><ele>342.8333333333333</ele><time>2026-04-04T07:42:23.38Z</time></trkpt><trkpt lat="45.8877817" lon="8.6924517"><ele>345.0</ele><time>2026-04-04T07:42:24.379Z</time></trkpt><trkpt lat="45.88768" lon="8.6924167"><ele>345.6</ele><time>2026-04-04T07:42:25.379Z</time></trkpt><trkpt lat="45.887565" lon="8.692385"><ele>346.2</ele><time>2026-04-04T07:42:26.38Z</time></trkpt><trkpt lat="45.8874517" lon="8.692355"><ele>346.79999999999995</ele><time>2026-04-04T07:42:27.379Z</time></trkpt><trkpt lat="45.887345" lon="8.69233"><ele>347.4</ele><time>2026-04-04T07:42:28.38Z</time></trkpt><trkpt lat="45.88726" lon="8.6923067"><ele>348.0</ele><time>2026-04-04T07:42:29.38Z</time></trkpt><trkpt lat="45.88718" lon="8.6922667"><ele>348.0</ele><time>2026-04-04T07:42:30.38Z</time></trkpt><trkpt lat="45.887105" lon="8.6922267"><ele>348.0</ele><time>2026-04-04T07:42:31.379Z</time></trkpt><trkpt lat="45.8870417" lon="8.6921967"><ele>348.0</ele><time>2026-04-04T07:42:32.38Z</time></trkpt><trkpt lat="45.8869783" lon="8.69219"><ele>348.0</ele><time>2026-04-04T07:42:33.38Z</time></trkpt><trkpt lat="45.886915" lon="8.6922017"><ele>348.0</ele><time>2026-04-04T07:42:34.379Z</time></trkpt><trkpt lat="45.8868067" lon="8.6922617"><ele>348.0</ele><time>2026-04-04T07:42:36.38Z</time></trkpt><trkpt lat="45.8867433" lon="8.6923717"><ele>348.0</ele><time>2026-04-04T07:42:38.379Z</time></trkpt><trkpt lat="45.886755" lon="8.692465"><ele>348.0</ele><time>2026-04-04T07:42:39.379Z</time></trkpt><trkpt lat="45.886795" lon="8.6925867"><ele>348.0</ele><time>2026-04-04T07:42:40.38Z</time></trkpt><trkpt lat="45.8868433" lon="8.6927117"><ele>348.0</ele><time>2026-04-04T07:42:41.379Z</time></trkpt><trkpt lat="45.8868867" lon="8.6928183"><ele>348.0</ele><time>2026-04-04T07:42:42.38Z</time></trkpt><trkpt lat="45.8869117" lon="8.6929033"><ele>348.0</ele><time>2026-04-04T07:42:43.379Z</time></trkpt><trkpt lat="45.8869133" lon="8.69303"><ele>347.6666666666667</ele><time>2026-04-04T07:42:45.379Z</time></trkpt><trkpt lat="45.8868633" lon="8.6931867"><ele>347.3333333333333</ele><time>2026-04-04T07:42:47.379Z</time></trkpt><trkpt lat="45.8868783" lon="8.693355"><ele>347.0</ele><time>2026-04-04T07:42:49.379Z</time></trkpt><trkpt lat="45.88691" lon="8.6934383"><ele>346.66666666666663</ele><time>2026-04-04T07:42:50.379Z</time></trkpt><trkpt lat="45.8869483" lon="8.6935233"><ele>346.3333333333333</ele><time>2026-04-04T07:42:51.379Z</time></trkpt><trkpt lat="45.8869783" lon="8.6936217"><ele>346.0</ele><time>2026-04-04T07:42:52.379Z</time></trkpt><trkpt lat="45.8870117" lon="8.6937433"><ele>347.0</ele><time>2026-04-04T07:42:53.379Z</time></trkpt><trkpt lat="45.8870517" lon="8.693885"><ele>348.0</ele><time>2026-04-04T07:42:54.38Z</time></trkpt><trkpt lat="45.8870733" lon="8.6940383"><ele>349.0</ele><time>2026-04-04T07:42:55.38Z</time></trkpt><trkpt lat="45.8870867" lon="8.694175"><ele>350.0</ele><time>2026-04-04T07:42:56.38Z</time></trkpt><trkpt lat="45.8871017" lon="8.6943017"><ele>351.0</ele><time>2026-04-04T07:42:57.38Z</time></trkpt><trkpt lat="45.88714" lon="8.6944283"><ele>351.0</ele><time>2026-04-04T07:42:58.379Z</time></trkpt><trkpt lat="45.8871967" lon="8.694555"><ele>351.0</ele><time>2026-04-04T07:42:59.38Z</time></trkpt><trkpt lat="45.8872517" lon="8.6947"><ele>351.0</ele><time>2026-04-04T07:43:00.38Z</time></trkpt><trkpt lat="45.8872967" lon="8.69485"><ele>351.0</ele><time>2026-04-04T07:43:01.379Z</time></trkpt><trkpt lat="45.8873367" lon="8.6949917"><ele>351.0</ele><time>2026-04-04T07:43:02.38Z</time></trkpt><trkpt lat="45.8873817" lon="8.6951267"><ele>351.3333333333333</ele><time>2026-04-04T07:43:03.38Z</time></trkpt><trkpt lat="45.8874233" lon="8.6952567"><ele>351.6666666666667</ele><time>2026-04-04T07:43:04.38Z</time></trkpt><trkpt lat="45.8874683" lon="8.6953733"><ele>352.0</ele><time>2026-04-04T07:43:05.38Z</time></trkpt><trkpt lat="45.8875217" lon="8.6954617"><ele>352.33333333333337</ele><time>2026-04-04T07:43:06.38Z</time></trkpt><trkpt lat="45.8875833" lon="8.6955317"><ele>352.6666666666667</ele><time>2026-04-04T07:43:07.379Z</time></trkpt><trkpt lat="45.8876417" lon="8.695595"><ele>353.0</ele><time>2026-04-04T07:43:08.379Z</time></trkpt><trkpt lat="45.8877" lon="8.6956467"><ele>352.0</ele><time>2026-04-04T07:43:09.38Z</time></trkpt><trkpt lat="45.8877567" lon="8.695695"><ele>351.0</ele><time>2026-04-04T07:43:10.38Z</time></trkpt><trkpt lat="45.88784" lon="8.695795"><ele>350.0</ele><time>2026-04-04T07:43:12.379Z</time></trkpt><trkpt lat="45.8879283" lon="8.6958683"><ele>349.0</ele><time>2026-04-04T07:43:14.379Z</time></trkpt><trkpt lat="45.8880233" lon="8.6958933"><ele>348.0</ele><time>2026-04-04T07:43:16.38Z</time></trkpt><trkpt lat="45.8881133" lon="8.69585"><ele>348.0</ele><time>2026-04-04T07:43:18.38Z</time></trkpt><trkpt lat="45.8881783" lon="8.69586"><ele>348.0</ele><time>2026-04-04T07:43:21.379Z</time></trkpt><trkpt lat="45.8882367" lon="8.6959933"><ele>348.0</ele><time>2026-04-04T07:43:23.38Z</time></trkpt><trkpt lat="45.88828" lon="8.6960867"><ele>348.0</ele><time>2026-04-04T07:43:24.38Z</time></trkpt><trkpt lat="45.888335" lon="8.6961767"><ele>348.0</ele><time>2026-04-04T07:43:25.379Z</time></trkpt><trkpt lat="45.8883817" lon="8.6962717"><ele>348.0</ele><time>2026-04-04T07:43:26.379Z</time></trkpt><trkpt lat="45.888435" lon="8.69637"><ele>346.5</ele><time>2026-04-04T07:43:27.379Z</time></trkpt><trkpt lat="45.88848" lon="8.6964583"><ele>345.0</ele><time>2026-04-04T07:43:28.379Z</time></trkpt><trkpt lat="45.88852" lon="8.69654"><ele>343.5</ele><time>2026-04-04T07:43:29.379Z</time></trkpt><trkpt lat="45.888555" lon="8.6966283"><ele>342.0</ele><time>2026-04-04T07:43:30.38Z</time></trkpt><trkpt lat="45.8885967" lon="8.6967417"><ele>340.5</ele><time>2026-04-04T07:43:31.38Z</time></trkpt><trkpt lat="45.8886333" lon="8.69686"><ele>339.0</ele><time>2026-04-04T07:43:32.38Z</time></trkpt><trkpt lat="45.8886767" lon="8.6969767"><ele>339.0</ele><time>2026-04-04T07:43:33.38Z</time></trkpt><trkpt lat="45.8887183" lon="8.6970867"><ele>339.0</ele><time>2026-04-04T07:43:34.379Z</time></trkpt><trkpt lat="45.8887667" lon="8.697215"><ele>339.0</ele><time>2026-04-04T07:43:35.38Z</time></trkpt><trkpt lat="45.8888117" lon="8.697355"><ele>339.0</ele><time>2026-04-04T07:43:36.379Z</time></trkpt><trkpt lat="45.88885" lon="8.6974817"><ele>339.0</ele><time>2026-04-04T07:43:37.38Z</time></trkpt><trkpt lat="45.888885" lon="8.6975917"><ele>339.0</ele><time>2026-04-04T07:43:38.38Z</time></trkpt><trkpt lat="45.8889117" lon="8.6976967"><ele>339.0</ele><time>2026-04-04T07:43:39.38Z</time></trkpt><trkpt lat="45.88893" lon="8.697795"><ele>339.0</ele><time>2026-04-04T07:43:40.379Z</time></trkpt><trkpt lat="45.88895" lon="8.6978917"><ele>339.0</ele><time>2026-04-04T07:43:41.38Z</time></trkpt><trkpt lat="45.8889733" lon="8.6980067"><ele>339.0</ele><time>2026-04-04T07:43:42.379Z</time></trkpt><trkpt lat="45.8889883" lon="8.698115"><ele>339.0</ele><time>2026-04-04T07:43:43.379Z</time></trkpt><trkpt lat="45.889" lon="8.698235"><ele>339.2</ele><time>2026-04-04T07:43:44.379Z</time></trkpt><trkpt lat="45.8890083" lon="8.6983467"><ele>339.4</ele><time>2026-04-04T07:43:45.379Z</time></trkpt><trkpt lat="45.8890167" lon="8.6984467"><ele>339.6</ele><time>2026-04-04T07:43:46.38Z</time></trkpt><trkpt lat="45.8890267" lon="8.6986183"><ele>339.8</ele><time>2026-04-04T07:43:48.38Z</time></trkpt><trkpt lat="45.8890433" lon="8.6987583"><ele>340.0</ele><time>2026-04-04T07:43:50.379Z</time></trkpt><trkpt lat="45.8890567" lon="8.6988933"><ele>340.0</ele><time>2026-04-04T07:43:52.38Z</time></trkpt><trkpt lat="45.8890717" lon="8.6990083"><ele>340.0</ele><time>2026-04-04T07:43:54.379Z</time></trkpt><trkpt lat="45.889085" lon="8.6991033"><ele>340.0</ele><time>2026-04-04T07:43:56.379Z</time></trkpt><trkpt lat="45.8891" lon="8.6992233"><ele>340.0</ele><time>2026-04-04T07:43:58.379Z</time></trkpt><trkpt lat="45.8890983" lon="8.699345"><ele>340.0</ele><time>2026-04-04T07:44:00.38Z</time></trkpt><trkpt lat="45.8890683" lon="8.6995033"><ele>340.0</ele><time>2026-04-04T07:44:02.38Z</time></trkpt><trkpt lat="45.8890517" lon="8.6995917"><ele>340.14285714285717</ele><time>2026-04-04T07:44:03.379Z</time></trkpt><trkpt lat="45.889045" lon="8.6996833"><ele>340.2857142857143</ele><time>2026-04-04T07:44:04.379Z</time></trkpt><trkpt lat="45.8890383" lon="8.6997733"><ele>340.42857142857144</ele><time>2026-04-04T07:44:05.379Z</time></trkpt><trkpt lat="45.8890317" lon="8.699875"><ele>340.57142857142856</ele><time>2026-04-04T07:44:06.38Z</time></trkpt><trkpt lat="45.889025" lon="8.69997"><ele>340.7142857142857</ele><time>2026-04-04T07:44:07.38Z</time></trkpt><trkpt lat="45.889015" lon="8.7001133"><ele>340.85714285714283</ele><time>2026-04-04T07:44:09.379Z</time></trkpt><trkpt lat="45.8889717" lon="8.700215"><ele>341.0</ele><time>2026-04-04T07:44:11.38Z</time></trkpt><trkpt lat="45.8889383" lon="8.7003158"><ele>341.0</ele><time>2026-04-04T07:44:13.379Z</time></trkpt><trkpt lat="45.8889598" lon="8.7004733"><ele>341.0</ele><time>2026-04-04T07:44:15.38Z</time></trkpt><trkpt lat="45.8889867" lon="8.7005872"><ele>341.0</ele><time>2026-04-04T07:44:16.379Z</time></trkpt><trkpt lat="45.8890079" lon="8.700693"><ele>341.0</ele><time>2026-04-04T07:44:17.379Z</time></trkpt><trkpt lat="45.8890325" lon="8.7007933"><ele>341.0</ele><time>2026-04-04T07:44:18.379Z</time></trkpt><trkpt lat="45.8890551" lon="8.7008872"><ele>341.0</ele><time>2026-04-04T07:44:19.379Z</time></trkpt><trkpt lat="45.8890721" lon="8.7009751"><ele>342.6</ele><time>2026-04-04T07:44:20.379Z</time></trkpt><trkpt lat="45.8890836" lon="8.7011291"><ele>344.20000000000005</ele><time>2026-04-04T07:44:22.38Z</time></trkpt><trkpt lat="45.8890663" lon="8.7012934"><ele>345.79999999999995</ele><time>2026-04-04T07:44:24.38Z</time></trkpt><trkpt lat="45.8890579" lon="8.7014053"><ele>347.4</ele><time>2026-04-04T07:44:26.379Z</time></trkpt><trkpt lat="45.8891298" lon="8.7014519"><ele>349.0</ele><time>2026-04-04T07:44:29.379Z</time></trkpt><trkpt lat="45.8891956" lon="8.7013974"><ele>348.2</ele><time>2026-04-04T07:44:31.379Z</time></trkpt><trkpt lat="45.8892874" lon="8.7013671"><ele>347.4</ele><time>2026-04-04T07:44:33.379Z</time></trkpt><trkpt lat="45.8893912" lon="8.7013566"><ele>346.6</ele><time>2026-04-04T07:44:35.379Z</time></trkpt><trkpt lat="45.8894934" lon="8.7013552"><ele>345.8</ele><time>2026-04-04T07:44:37.379Z</time></trkpt><trkpt lat="45.8895873" lon="8.7013604"><ele>345.0</ele><time>2026-04-04T07:44:39.379Z</time></trkpt><trkpt lat="45.88969" lon="8.7013667"><ele>345.0</ele><time>2026-04-04T07:44:41.379Z</time></trkpt><trkpt lat="45.8897633" lon="8.7013717"><ele>345.0</ele><time>2026-04-04T07:44:42.379Z</time></trkpt><trkpt lat="45.8898333" lon="8.7013633"><ele>345.0</ele><time>2026-04-04T07:44:43.379Z</time></trkpt><trkpt lat="45.8899017" lon="8.7013483"><ele>345.0</ele><time>2026-04-04T07:44:44.38Z</time></trkpt><trkpt lat="45.8899733" lon="8.7013267"><ele>345.0</ele><time>2026-04-04T07:44:45.379Z</time></trkpt><trkpt lat="45.890055" lon="8.7012867"><ele>345.0</ele><time>2026-04-04T07:44:46.38Z</time></trkpt><trkpt lat="45.8901317" lon="8.7012433"><ele>344.0</ele><time>2026-04-04T07:44:47.38Z</time></trkpt><trkpt lat="45.8902017" lon="8.7012"><ele>343.0</ele><time>2026-04-04T07:44:48.379Z</time></trkpt><trkpt lat="45.89029" lon="8.7011333"><ele>342.0</ele><time>2026-04-04T07:44:50.379Z</time></trkpt><trkpt lat="45.8903417" lon="8.7010767"><ele>341.0</ele><time>2026-04-04T07:44:52.379Z</time></trkpt><trkpt lat="45.89041" lon="8.7010283"><ele>340.0</ele><time>2026-04-04T07:44:56.379Z</time></trkpt><trkpt lat="45.890485" lon="8.701005"><ele>339.0</ele><time>2026-04-04T07:44:58.38Z</time></trkpt><trkpt lat="45.89057" lon="8.7010383"><ele>339.0</ele><time>2026-04-04T07:45:00.379Z</time></trkpt><trkpt lat="45.8906417" lon="8.701135"><ele>339.0</ele><time>2026-04-04T07:45:02.38Z</time></trkpt><trkpt lat="45.8906883" lon="8.7012783"><ele>339.0</ele><time>2026-04-04T07:45:04.379Z</time></trkpt><trkpt lat="45.8907033" lon="8.7013683"><ele>339.0</ele><time>2026-04-04T07:45:05.379Z</time></trkpt><trkpt lat="45.8907133" lon="8.701545"><ele>339.0</ele><time>2026-04-04T07:45:07.38Z</time></trkpt><trkpt lat="45.8907367" lon="8.7017133"><ele>339.0</ele><time>2026-04-04T07:45:09.38Z</time></trkpt><trkpt lat="45.8907667" lon="8.7017933"><ele>339.0</ele><time>2026-04-04T07:45:10.379Z</time></trkpt><trkpt lat="45.8908133" lon="8.7018733"><ele>339.0</ele><time>2026-04-04T07:45:11.38Z</time></trkpt><trkpt lat="45.8908717" lon="8.701955"><ele>339.0</ele><time>2026-04-04T07:45:12.379Z</time></trkpt><trkpt lat="45.8909333" lon="8.7020433"><ele>339.0</ele><time>2026-04-04T07:45:13.38Z</time></trkpt><trkpt lat="45.890995" lon="8.7021383"><ele>339.0</ele><time>2026-04-04T07:45:14.379Z</time></trkpt><trkpt lat="45.8910417" lon="8.702235"><ele>338.57142857142856</ele><time>2026-04-04T07:45:15.38Z</time></trkpt><trkpt lat="45.8910767" lon="8.7023317"><ele>338.14285714285717</ele><time>2026-04-04T07:45:16.379Z</time></trkpt><trkpt lat="45.8911067" lon="8.70242"><ele>337.7142857142857</ele><time>2026-04-04T07:45:17.379Z</time></trkpt><trkpt lat="45.8911233" lon="8.7025183"><ele>337.2857142857143</ele><time>2026-04-04T07:45:18.38Z</time></trkpt><trkpt lat="45.8911317" lon="8.7026183"><ele>336.8571428571429</ele><time>2026-04-04T07:45:19.38Z</time></trkpt><trkpt lat="45.8911417" lon="8.7027167"><ele>336.42857142857144</ele><time>2026-04-04T07:45:20.379Z</time></trkpt><trkpt lat="45.8911517" lon="8.7028117"><ele>336.0</ele><time>2026-04-04T07:45:21.379Z</time></trkpt><trkpt lat="45.8911567" lon="8.7029033"><ele>336.0</ele><time>2026-04-04T07:45:22.38Z</time></trkpt><trkpt lat="45.8911817" lon="8.70304"><ele>336.0</ele><time>2026-04-04T07:45:24.379Z</time></trkpt><trkpt lat="45.8912467" lon="8.7032183"><ele>336.0</ele><time>2026-04-04T07:45:26.38Z</time></trkpt><trkpt lat="45.8912783" lon="8.7033367"><ele>336.0</ele><time>2026-04-04T07:45:27.379Z</time></trkpt><trkpt lat="45.8913117" lon="8.703485"><ele>336.0</ele><time>2026-04-04T07:45:28.379Z</time></trkpt><trkpt lat="45.8913617" lon="8.7036367"><ele>337.1666666666667</ele><time>2026-04-04T07:45:29.379Z</time></trkpt><trkpt lat="45.8914033" lon="8.7037733"><ele>338.3333333333333</ele><time>2026-04-04T07:45:30.379Z</time></trkpt><trkpt lat="45.89144" lon="8.7038933"><ele>339.5</ele><time>2026-04-04T07:45:31.38Z</time></trkpt><trkpt lat="45.89147" lon="8.7039983"><ele>340.66666666666663</ele><time>2026-04-04T07:45:32.379Z</time></trkpt><trkpt lat="45.8915" lon="8.7041133"><ele>341.8333333333333</ele><time>2026-04-04T07:45:33.379Z</time></trkpt><trkpt lat="45.8915333" lon="8.704225"><ele>343.0</ele><time>2026-04-04T07:45:34.38Z</time></trkpt><trkpt lat="45.8915733" lon="8.7043483"><ele>345.59999999999997</ele><time>2026-04-04T07:45:35.38Z</time></trkpt><trkpt lat="45.89162" lon="8.7044933"><ele>348.2</ele><time>2026-04-04T07:45:36.38Z</time></trkpt><trkpt lat="45.8916633" lon="8.7046383"><ele>350.8</ele><time>2026-04-04T07:45:37.379Z</time></trkpt><trkpt lat="45.8916983" lon="8.7047617"><ele>353.4</ele><time>2026-04-04T07:45:38.379Z</time></trkpt><trkpt lat="45.8917217" lon="8.7048767"><ele>356.0</ele><time>2026-04-04T07:45:39.38Z</time></trkpt><trkpt lat="45.8917367" lon="8.704995"><ele>351.4</ele><time>2026-04-04T07:45:40.379Z</time></trkpt><trkpt lat="45.8917633" lon="8.705135"><ele>346.8</ele><time>2026-04-04T07:45:41.38Z</time></trkpt><trkpt lat="45.891785" lon="8.70527"><ele>342.2</ele><time>2026-04-04T07:45:42.379Z</time></trkpt><trkpt lat="45.891805" lon="8.7054067"><ele>337.59999999999997</ele><time>2026-04-04T07:45:43.379Z</time></trkpt><trkpt lat="45.8918167" lon="8.7055233"><ele>333.0</ele><time>2026-04-04T07:45:44.379Z</time></trkpt><trkpt lat="45.8918333" lon="8.7056267"><ele>333.0</ele><time>2026-04-04T07:45:45.38Z</time></trkpt><trkpt lat="45.8918717" lon="8.7057967"><ele>333.0</ele><time>2026-04-04T07:45:47.379Z</time></trkpt><trkpt lat="45.8918767" lon="8.7058983"><ele>333.0</ele><time>2026-04-04T07:45:48.38Z</time></trkpt><trkpt lat="45.8918833" lon="8.70601"><ele>333.0</ele><time>2026-04-04T07:45:49.379Z</time></trkpt><trkpt lat="45.891905" lon="8.70611"><ele>333.0</ele><time>2026-04-04T07:45:50.379Z</time></trkpt><trkpt lat="45.8919283" lon="8.7062033"><ele>333.0</ele><time>2026-04-04T07:45:51.38Z</time></trkpt><trkpt lat="45.89196" lon="8.7062867"><ele>334.5714285714286</ele><time>2026-04-04T07:45:52.379Z</time></trkpt><trkpt lat="45.8919917" lon="8.70637"><ele>336.1428571428571</ele><time>2026-04-04T07:45:53.38Z</time></trkpt><trkpt lat="45.8920333" lon="8.70647"><ele>337.7142857142857</ele><time>2026-04-04T07:45:54.38Z</time></trkpt><trkpt lat="45.8920767" lon="8.7065433"><ele>339.28571428571433</ele><time>2026-04-04T07:45:55.379Z</time></trkpt><trkpt lat="45.8921267" lon="8.7066083"><ele>340.8571428571429</ele><time>2026-04-04T07:45:56.38Z</time></trkpt><trkpt lat="45.8921833" lon="8.706655"><ele>342.42857142857144</ele><time>2026-04-04T07:45:57.379Z</time></trkpt><trkpt lat="45.8922467" lon="8.7067067"><ele>344.0</ele><time>2026-04-04T07:45:58.38Z</time></trkpt><trkpt lat="45.892305" lon="8.706775"><ele>344.0</ele><time>2026-04-04T07:45:59.38Z</time></trkpt><trkpt lat="45.8923817" lon="8.7068967"><ele>344.0</ele><time>2026-04-04T07:46:00.379Z</time></trkpt><trkpt lat="45.8924617" lon="8.70704"><ele>344.0</ele><time>2026-04-04T07:46:01.379Z</time></trkpt><trkpt lat="45.8925433" lon="8.70716"><ele>344.0</ele><time>2026-04-04T07:46:02.379Z</time></trkpt><trkpt lat="45.8926217" lon="8.707265"><ele>343.6666666666667</ele><time>2026-04-04T07:46:03.379Z</time></trkpt><trkpt lat="45.8927" lon="8.7073483"><ele>343.33333333333337</ele><time>2026-04-04T07:46:04.379Z</time></trkpt><trkpt lat="45.89278" lon="8.7074083"><ele>343.0</ele><time>2026-04-04T07:46:05.379Z</time></trkpt><trkpt lat="45.89286" lon="8.7074533"><ele>342.6666666666667</ele><time>2026-04-04T07:46:06.379Z</time></trkpt><trkpt lat="45.8929233" lon="8.707485"><ele>342.3333333333333</ele><time>2026-04-04T07:46:07.379Z</time></trkpt><trkpt lat="45.8930017" lon="8.7074983"><ele>342.0</ele><time>2026-04-04T07:46:09.379Z</time></trkpt><trkpt lat="45.8930783" lon="8.707485"><ele>342.0</ele><time>2026-04-04T07:46:12.379Z</time></trkpt><trkpt lat="45.8931583" lon="8.7075083"><ele>342.0</ele><time>2026-04-04T07:46:15.379Z</time></trkpt><trkpt lat="45.8932033" lon="8.7076033"><ele>342.0</ele><time>2026-04-04T07:46:18.38Z</time></trkpt><trkpt lat="45.8932267" lon="8.70769"><ele>342.0</ele><time>2026-04-04T07:46:20.379Z</time></trkpt><trkpt lat="45.8932683" lon="8.7077733"><ele>342.0</ele><time>2026-04-04T07:46:24.379Z</time></trkpt><trkpt lat="45.8933283" lon="8.7076917"><ele>342.0</ele><time>2026-04-04T07:46:27.379Z</time></trkpt><trkpt lat="45.893365" lon="8.7076017"><ele>342.0</ele><time>2026-04-04T07:46:29.38Z</time></trkpt><trkpt lat="45.8934033" lon="8.70749"><ele>342.0</ele><time>2026-04-04T07:46:31.38Z</time></trkpt><trkpt lat="45.8934367" lon="8.7073783"><ele>342.0</ele><time>2026-04-04T07:46:33.379Z</time></trkpt><trkpt lat="45.8934667" lon="8.7072817"><ele>342.0</ele><time>2026-04-04T07:46:35.379Z</time></trkpt><trkpt lat="45.8935017" lon="8.7071967"><ele>342.0</ele><time>2026-04-04T07:46:37.38Z</time></trkpt><trkpt lat="45.8935317" lon="8.7071067"><ele>342.0</ele><time>2026-04-04T07:46:39.379Z</time></trkpt><trkpt lat="45.8935483" lon="8.70701"><ele>337.6666666666667</ele><time>2026-04-04T07:46:41.379Z</time></trkpt><trkpt lat="45.893575" lon="8.706905"><ele>333.3333333333333</ele><time>2026-04-04T07:46:43.38Z</time></trkpt><trkpt lat="45.8936067" lon="8.7067867"><ele>329.0</ele><time>2026-04-04T07:46:45.379Z</time></trkpt><trkpt lat="45.8936417" lon="8.70667"><ele>324.66666666666663</ele><time>2026-04-04T07:46:47.379Z</time></trkpt><trkpt lat="45.893655" lon="8.706565"><ele>320.3333333333333</ele><time>2026-04-04T07:46:49.379Z</time></trkpt><trkpt lat="45.893685" lon="8.7066817"><ele>316.0</ele><time>2026-04-04T07:46:57.38Z</time></trkpt><trkpt lat="45.8936733" lon="8.70679"><ele>316.0</ele><time>2026-04-04T07:46:59.38Z</time></trkpt><trkpt lat="45.8936667" lon="8.7068867"><ele>316.0</ele><time>2026-04-04T07:47:01.379Z</time></trkpt><trkpt lat="45.8936667" lon="8.7069883"><ele>316.0</ele><time>2026-04-04T07:47:03.379Z</time></trkpt><trkpt lat="45.8937267" lon="8.7070717"><ele>316.0</ele><time>2026-04-04T07:47:06.379Z</time></trkpt><trkpt lat="45.89382" lon="8.7070817"><ele>316.0</ele><time>2026-04-04T07:47:08.38Z</time></trkpt><trkpt lat="45.8939217" lon="8.70709"><ele>316.0</ele><time>2026-04-04T07:47:10.379Z</time></trkpt><trkpt lat="45.89401" lon="8.70713"><ele>315.66666666666663</ele><time>2026-04-04T07:47:12.379Z</time></trkpt><trkpt lat="45.894065" lon="8.707215"><ele>315.3333333333333</ele><time>2026-04-04T07:47:14.38Z</time></trkpt><trkpt lat="45.8940817" lon="8.7073583"><ele>315.0</ele><time>2026-04-04T07:47:16.379Z</time></trkpt><trkpt lat="45.8940767" lon="8.7074533"><ele>314.6666666666667</ele><time>2026-04-04T07:47:17.38Z</time></trkpt><trkpt lat="45.8940717" lon="8.707565"><ele>314.33333333333337</ele><time>2026-04-04T07:47:18.379Z</time></trkpt><trkpt lat="45.894065" lon="8.707695"><ele>314.0</ele><time>2026-04-04T07:47:19.379Z</time></trkpt><trkpt lat="45.8940617" lon="8.7078367"><ele>313.6666666666667</ele><time>2026-04-04T07:47:20.379Z</time></trkpt><trkpt lat="45.8940533" lon="8.7079767"><ele>313.33333333333337</ele><time>2026-04-04T07:47:21.38Z</time></trkpt><trkpt lat="45.89405" lon="8.7080967"><ele>313.0</ele><time>2026-04-04T07:47:22.38Z</time></trkpt><trkpt lat="45.8940467" lon="8.7082117"><ele>312.6666666666667</ele><time>2026-04-04T07:47:23.379Z</time></trkpt><trkpt lat="45.894045" lon="8.70832"><ele>312.3333333333333</ele><time>2026-04-04T07:47:24.38Z</time></trkpt><trkpt lat="45.8940383" lon="8.7084333"><ele>312.0</ele><time>2026-04-04T07:47:25.38Z</time></trkpt><trkpt lat="45.8940233" lon="8.7085767"><ele>311.75</ele><time>2026-04-04T07:47:26.379Z</time></trkpt><trkpt lat="45.8940133" lon="8.7087367"><ele>311.5</ele><time>2026-04-04T07:47:27.379Z</time></trkpt><trkpt lat="45.8939983" lon="8.70891"><ele>311.25</ele><time>2026-04-04T07:47:28.38Z</time></trkpt><trkpt lat="45.893985" lon="8.70908"><ele>311.0</ele><time>2026-04-04T07:47:29.379Z</time></trkpt><trkpt lat="45.893975" lon="8.709235"><ele>311.0</ele><time>2026-04-04T07:47:30.379Z</time></trkpt><trkpt lat="45.8939683" lon="8.7093783"><ele>311.0</ele><time>2026-04-04T07:47:31.38Z</time></trkpt><trkpt lat="45.8939517" lon="8.7095"><ele>311.0</ele><time>2026-04-04T07:47:32.38Z</time></trkpt><trkpt lat="45.8939483" lon="8.709615"><ele>311.0</ele><time>2026-04-04T07:47:33.38Z</time></trkpt><trkpt lat="45.893945" lon="8.7097133"><ele>311.0</ele><time>2026-04-04T07:47:34.379Z</time></trkpt><trkpt lat="45.8939533" lon="8.7098183"><ele>311.0</ele><time>2026-04-04T07:47:36.379Z</time></trkpt><trkpt lat="45.8939967" lon="8.7099033"><ele>310.6666666666667</ele><time>2026-04-04T07:47:38.38Z</time></trkpt><trkpt lat="45.8940433" lon="8.7099967"><ele>310.33333333333337</ele><time>2026-04-04T07:47:40.379Z</time></trkpt><trkpt lat="45.8940783" lon="8.7100767"><ele>310.0</ele><time>2026-04-04T07:47:42.38Z</time></trkpt><trkpt lat="45.8941583" lon="8.71003"><ele>309.6666666666667</ele><time>2026-04-04T07:47:47.38Z</time></trkpt><trkpt lat="45.8942233" lon="8.7098717"><ele>309.3333333333333</ele><time>2026-04-04T07:47:49.38Z</time></trkpt><trkpt lat="45.8942583" lon="8.7097833"><ele>309.0</ele><time>2026-04-04T07:47:50.379Z</time></trkpt><trkpt lat="45.894295" lon="8.7097033"><ele>305.3333333333333</ele><time>2026-04-04T07:47:51.379Z</time></trkpt><trkpt lat="45.8943433" lon="8.7096033"><ele>301.6666666666667</ele><time>2026-04-04T07:47:53.379Z</time></trkpt><trkpt lat="45.8944133" lon="8.709545"><ele>298.0</ele><time>2026-04-04T07:47:57.379Z</time></trkpt><trkpt lat="45.8944783" lon="8.7095533"><ele>294.33333333333337</ele><time>2026-04-04T07:47:59.379Z</time></trkpt><trkpt lat="45.8945417" lon="8.70958"><ele>290.6666666666667</ele><time>2026-04-04T07:48:01.379Z</time></trkpt><trkpt lat="45.8946033" lon="8.7096233"><ele>287.0</ele><time>2026-04-04T07:48:03.379Z</time></trkpt><trkpt lat="45.8946783" lon="8.7096917"><ele>287.0</ele><time>2026-04-04T07:48:06.379Z</time></trkpt><trkpt lat="45.8946967" lon="8.7097983"><ele>287.0</ele><time>2026-04-04T07:48:08.38Z</time></trkpt><trkpt lat="45.894685" lon="8.7100033"><ele>287.0</ele><time>2026-04-04T07:48:10.379Z</time></trkpt><trkpt lat="45.8946867" lon="8.7101217"><ele>287.0</ele><time>2026-04-04T07:48:11.38Z</time></trkpt><trkpt lat="45.89469" lon="8.7102267"><ele>287.0</ele><time>2026-04-04T07:48:12.38Z</time></trkpt><trkpt lat="45.894705" lon="8.710315"><ele>287.0</ele><time>2026-04-04T07:48:13.38Z</time></trkpt><trkpt lat="45.894745" lon="8.7103983"><ele>286.6666666666667</ele><time>2026-04-04T07:48:14.38Z</time></trkpt><trkpt lat="45.8948067" lon="8.7104767"><ele>286.33333333333337</ele><time>2026-04-04T07:48:15.379Z</time></trkpt><trkpt lat="45.8948767" lon="8.710545"><ele>286.0</ele><time>2026-04-04T07:48:16.379Z</time></trkpt><trkpt lat="45.8949317" lon="8.7106033"><ele>285.6666666666667</ele><time>2026-04-04T07:48:17.38Z</time></trkpt><trkpt lat="45.8949967" lon="8.7106783"><ele>285.3333333333333</ele><time>2026-04-04T07:48:19.38Z</time></trkpt><trkpt lat="45.895055" lon="8.7107733"><ele>285.0</ele><time>2026-04-04T07:54:35.38Z</time></trkpt><trkpt lat="45.8951167" lon="8.7108467"><ele>283.8</ele><time>2026-04-04T07:54:37.38Z</time></trkpt><trkpt lat="45.8951833" lon="8.7108733"><ele>282.6</ele><time>2026-04-04T07:54:39.38Z</time></trkpt><trkpt lat="45.89527" lon="8.710845"><ele>281.4</ele><time>2026-04-04T07:54:41.381Z</time></trkpt><trkpt lat="45.89536" lon="8.7107583"><ele>280.2</ele><time>2026-04-04T07:54:43.38Z</time></trkpt><trkpt lat="45.8954283" lon="8.7106367"><ele>279.0</ele><time>2026-04-04T07:54:45.38Z</time></trkpt><trkpt lat="45.8954917" lon="8.7105033"><ele>279.0</ele><time>2026-04-04T07:54:47.38Z</time></trkpt><trkpt lat="45.895555" lon="8.7103883"><ele>279.0</ele><time>2026-04-04T07:54:49.38Z</time></trkpt><trkpt lat="45.8956367" lon="8.7102583"><ele>279.0</ele><time>2026-04-04T07:54:51.38Z</time></trkpt><trkpt lat="45.8956983" lon="8.71018"><ele>279.0</ele><time>2026-04-04T07:54:52.381Z</time></trkpt><trkpt lat="45.8957583" lon="8.7100933"><ele>279.0</ele><time>2026-04-04T07:54:53.38Z</time></trkpt><trkpt lat="45.895815" lon="8.7100067"><ele>279.5</ele><time>2026-04-04T07:54:54.38Z</time></trkpt><trkpt lat="45.8958683" lon="8.7099133"><ele>280.0</ele><time>2026-04-04T07:54:55.381Z</time></trkpt><trkpt lat="45.8959267" lon="8.7098217"><ele>280.5</ele><time>2026-04-04T07:54:56.381Z</time></trkpt><trkpt lat="45.8959767" lon="8.7097267"><ele>281.0</ele><time>2026-04-04T07:54:57.38Z</time></trkpt><trkpt lat="45.8960267" lon="8.7096417"><ele>281.5</ele><time>2026-04-04T07:54:58.381Z</time></trkpt><trkpt lat="45.8960817" lon="8.7095567"><ele>282.0</ele><time>2026-04-04T07:54:59.38Z</time></trkpt><trkpt lat="45.8961383" lon="8.7094667"><ele>281.3333333333333</ele><time>2026-04-04T07:55:00.38Z</time></trkpt><trkpt lat="45.8961883" lon="8.7093733"><ele>280.6666666666667</ele><time>2026-04-04T07:55:01.381Z</time></trkpt><trkpt lat="45.8962367" lon="8.709285"><ele>280.0</ele><time>2026-04-04T07:55:02.38Z</time></trkpt><trkpt lat="45.8962867" lon="8.7092017"><ele>279.33333333333337</ele><time>2026-04-04T07:55:03.381Z</time></trkpt><trkpt lat="45.8963367" lon="8.7091133"><ele>278.6666666666667</ele><time>2026-04-04T07:55:04.38Z</time></trkpt><trkpt lat="45.8963933" lon="8.7090183"><ele>278.0</ele><time>2026-04-04T07:55:05.38Z</time></trkpt><trkpt lat="45.8964517" lon="8.7089267"><ele>278.0</ele><time>2026-04-04T07:55:06.38Z</time></trkpt><trkpt lat="45.8965167" lon="8.7088433"><ele>278.0</ele><time>2026-04-04T07:55:07.38Z</time></trkpt><trkpt lat="45.8965783" lon="8.70876"><ele>278.0</ele><time>2026-04-04T07:55:08.381Z</time></trkpt><trkpt lat="45.8966433" lon="8.708665"><ele>278.0</ele><time>2026-04-04T07:55:09.381Z</time></trkpt><trkpt lat="45.8967033" lon="8.7085683"><ele>278.0</ele><time>2026-04-04T07:55:10.381Z</time></trkpt><trkpt lat="45.8967583" lon="8.70847"><ele>278.0</ele><time>2026-04-04T07:55:11.38Z</time></trkpt><trkpt lat="45.8968067" lon="8.7083817"><ele>277.1666666666667</ele><time>2026-04-04T07:55:12.38Z</time></trkpt><trkpt lat="45.89686" lon="8.7082967"><ele>276.33333333333337</ele><time>2026-04-04T07:55:13.38Z</time></trkpt><trkpt lat="45.8968983" lon="8.7082083"><ele>275.5</ele><time>2026-04-04T07:55:14.38Z</time></trkpt><trkpt lat="45.89695" lon="8.7081083"><ele>274.6666666666667</ele><time>2026-04-04T07:55:15.38Z</time></trkpt><trkpt lat="45.896995" lon="8.7080217"><ele>273.8333333333333</ele><time>2026-04-04T07:55:16.381Z</time></trkpt><trkpt lat="45.89704" lon="8.7079383"><ele>273.0</ele><time>2026-04-04T07:55:17.38Z</time></trkpt><trkpt lat="45.8970867" lon="8.7078517"><ele>272.8</ele><time>2026-04-04T07:55:18.381Z</time></trkpt><trkpt lat="45.8971433" lon="8.7077067"><ele>272.6</ele><time>2026-04-04T07:55:20.38Z</time></trkpt><trkpt lat="45.8971583" lon="8.7075267"><ele>272.4</ele><time>2026-04-04T07:55:22.38Z</time></trkpt><trkpt lat="45.8971517" lon="8.7074167"><ele>272.2</ele><time>2026-04-04T07:55:23.381Z</time></trkpt><trkpt lat="45.8971283" lon="8.7072883"><ele>272.0</ele><time>2026-04-04T07:55:24.38Z</time></trkpt><trkpt lat="45.8970917" lon="8.7071567"><ele>272.0</ele><time>2026-04-04T07:55:25.38Z</time></trkpt><trkpt lat="45.8970433" lon="8.707025"><ele>272.0</ele><time>2026-04-04T07:55:26.38Z</time></trkpt><trkpt lat="45.8969883" lon="8.7068917"><ele>272.0</ele><time>2026-04-04T07:55:27.381Z</time></trkpt><trkpt lat="45.8969383" lon="8.70676"><ele>272.0</ele><time>2026-04-04T07:55:28.38Z</time></trkpt><trkpt lat="45.8968983" lon="8.7066517"><ele>272.0</ele><time>2026-04-04T07:55:29.38Z</time></trkpt><trkpt lat="45.8968667" lon="8.7065583"><ele>272.6666666666667</ele><time>2026-04-04T07:55:30.38Z</time></trkpt><trkpt lat="45.896855" lon="8.706465"><ele>273.33333333333337</ele><time>2026-04-04T07:55:31.381Z</time></trkpt><trkpt lat="45.8968583" lon="8.7063717"><ele>274.0</ele><time>2026-04-04T07:55:32.381Z</time></trkpt><trkpt lat="45.89687" lon="8.706255"><ele>274.6666666666667</ele><time>2026-04-04T07:55:33.381Z</time></trkpt><trkpt lat="45.8968883" lon="8.70612"><ele>275.3333333333333</ele><time>2026-04-04T07:55:34.38Z</time></trkpt><trkpt lat="45.8969083" lon="8.7059767"><ele>276.0</ele><time>2026-04-04T07:55:35.38Z</time></trkpt><trkpt lat="45.8969217" lon="8.7058417"><ele>276.1666666666667</ele><time>2026-04-04T07:55:36.381Z</time></trkpt><trkpt lat="45.8969417" lon="8.7057217"><ele>276.3333333333333</ele><time>2026-04-04T07:55:37.38Z</time></trkpt><trkpt lat="45.8969633" lon="8.7056033"><ele>276.5</ele><time>2026-04-04T07:55:38.38Z</time></trkpt><trkpt lat="45.8969817" lon="8.705485"><ele>276.66666666666663</ele><time>2026-04-04T07:55:39.381Z</time></trkpt><trkpt lat="45.8969967" lon="8.705375"><ele>276.8333333333333</ele><time>2026-04-04T07:55:40.38Z</time></trkpt><trkpt lat="45.8970017" lon="8.7052733"><ele>277.0</ele><time>2026-04-04T07:55:41.38Z</time></trkpt><trkpt lat="45.8969933" lon="8.7051717"><ele>278.5</ele><time>2026-04-04T07:55:42.381Z</time></trkpt><trkpt lat="45.8969817" lon="8.70505"><ele>280.0</ele><time>2026-04-04T07:55:43.38Z</time></trkpt><trkpt lat="45.896975" lon="8.704935"><ele>281.5</ele><time>2026-04-04T07:55:44.38Z</time></trkpt><trkpt lat="45.8969767" lon="8.704805"><ele>283.0</ele><time>2026-04-04T07:55:45.381Z</time></trkpt><trkpt lat="45.8969867" lon="8.704675"><ele>284.5</ele><time>2026-04-04T07:55:46.38Z</time></trkpt><trkpt lat="45.8969983" lon="8.70455"><ele>286.0</ele><time>2026-04-04T07:55:47.38Z</time></trkpt><trkpt lat="45.89702" lon="8.70443"><ele>286.99999999999994</ele><time>2026-04-04T07:55:48.38Z</time></trkpt><trkpt lat="45.8970383" lon="8.7043217"><ele>288.0</ele><time>2026-04-04T07:55:49.381Z</time></trkpt><trkpt lat="45.8970617" lon="8.7042117"><ele>289.0</ele><time>2026-04-04T07:55:50.38Z</time></trkpt><trkpt lat="45.8970817" lon="8.704115"><ele>290.0</ele><time>2026-04-04T07:55:51.381Z</time></trkpt><trkpt lat="45.8971083" lon="8.7040217"><ele>291.0</ele><time>2026-04-04T07:55:52.38Z</time></trkpt><trkpt lat="45.8971267" lon="8.703915"><ele>291.99999999999994</ele><time>2026-04-04T07:55:53.38Z</time></trkpt><trkpt lat="45.897145" lon="8.703815"><ele>293.0</ele><time>2026-04-04T07:55:54.38Z</time></trkpt><trkpt lat="45.8971667" lon="8.7037167"><ele>293.0</ele><time>2026-04-04T07:55:55.381Z</time></trkpt><trkpt lat="45.8971867" lon="8.70355"><ele>293.0</ele><time>2026-04-04T07:55:57.38Z</time></trkpt><trkpt lat="45.897195" lon="8.7034183"><ele>293.0</ele><time>2026-04-04T07:55:59.381Z</time></trkpt><trkpt lat="45.8971867" lon="8.7033167"><ele>293.0</ele><time>2026-04-04T07:56:01.381Z</time></trkpt><trkpt lat="45.89713" lon="8.7032233"><ele>293.0</ele><time>2026-04-04T07:56:11.38Z</time></trkpt><trkpt lat="45.8970633" lon="8.7031483"><ele>293.0</ele><time>2026-04-04T07:56:13.38Z</time></trkpt><trkpt lat="45.8970233" lon="8.7030567"><ele>293.0</ele><time>2026-04-04T07:56:15.38Z</time></trkpt><trkpt lat="45.8970783" lon="8.70297"><ele>293.0</ele><time>2026-04-04T07:56:22.381Z</time></trkpt><trkpt lat="45.89706" lon="8.702775"><ele>293.0</ele><time>2026-04-04T07:56:33.38Z</time></trkpt><trkpt lat="45.897" lon="8.70266"><ele>293.0</ele><time>2026-04-04T07:56:34.38Z</time></trkpt><trkpt lat="45.8969" lon="8.70253"><ele>293.25</ele><time>2026-04-04T07:56:35.381Z</time></trkpt><trkpt lat="45.8967933" lon="8.702395"><ele>293.5</ele><time>2026-04-04T07:56:36.38Z</time></trkpt><trkpt lat="45.8966817" lon="8.7022733"><ele>293.75</ele><time>2026-04-04T07:56:37.38Z</time></trkpt><trkpt lat="45.89659" lon="8.7021633"><ele>294.0</ele><time>2026-04-04T07:56:38.38Z</time></trkpt><trkpt lat="45.89652" lon="8.7020817"><ele>293.1666666666667</ele><time>2026-04-04T07:56:39.381Z</time></trkpt><trkpt lat="45.896475" lon="8.7020183"><ele>292.3333333333333</ele><time>2026-04-04T07:56:40.38Z</time></trkpt><trkpt lat="45.8964717" lon="8.701895"><ele>291.5</ele><time>2026-04-04T07:56:42.38Z</time></trkpt><trkpt lat="45.8964467" lon="8.7017867"><ele>290.66666666666663</ele><time>2026-04-04T07:56:44.381Z</time></trkpt><trkpt lat="45.896395" lon="8.7017217"><ele>289.8333333333333</ele><time>2026-04-04T07:56:45.38Z</time></trkpt><trkpt lat="45.8963217" lon="8.7016417"><ele>289.0</ele><time>2026-04-04T07:56:46.38Z</time></trkpt><trkpt lat="45.89624" lon="8.7015517"><ele>288.59999999999997</ele><time>2026-04-04T07:56:47.381Z</time></trkpt><trkpt lat="45.8961617" lon="8.7014583"><ele>288.2</ele><time>2026-04-04T07:56:48.381Z</time></trkpt><trkpt lat="45.8960883" lon="8.70137"><ele>287.79999999999995</ele><time>2026-04-04T07:56:49.381Z</time></trkpt><trkpt lat="45.8960167" lon="8.7012867"><ele>287.4</ele><time>2026-04-04T07:56:50.381Z</time></trkpt><trkpt lat="45.8959483" lon="8.7012033"><ele>287.0</ele><time>2026-04-04T07:56:51.38Z</time></trkpt><trkpt lat="45.8958817" lon="8.7011217"><ele>286.8</ele><time>2026-04-04T07:56:52.38Z</time></trkpt><trkpt lat="45.8958133" lon="8.701035"><ele>286.6</ele><time>2026-04-04T07:56:53.381Z</time></trkpt><trkpt lat="45.8957483" lon="8.7009367"><ele>286.40000000000003</ele><time>2026-04-04T07:56:54.381Z</time></trkpt><trkpt lat="45.89568" lon="8.7008383"><ele>286.2</ele><time>2026-04-04T07:56:55.381Z</time></trkpt><trkpt lat="45.8956117" lon="8.70074"><ele>286.0</ele><time>2026-04-04T07:56:56.38Z</time></trkpt><trkpt lat="45.8955433" lon="8.700645"><ele>286.0</ele><time>2026-04-04T07:56:57.381Z</time></trkpt><trkpt lat="45.8954767" lon="8.700545"><ele>286.0</ele><time>2026-04-04T07:56:58.38Z</time></trkpt><trkpt lat="45.895415" lon="8.7004433"><ele>286.0</ele><time>2026-04-04T07:56:59.38Z</time></trkpt><trkpt lat="45.8953517" lon="8.70034"><ele>286.0</ele><time>2026-04-04T07:57:00.38Z</time></trkpt><trkpt lat="45.8952883" lon="8.70024"><ele>286.0</ele><time>2026-04-04T07:57:01.381Z</time></trkpt><trkpt lat="45.89522" lon="8.7001483"><ele>286.16666666666663</ele><time>2026-04-04T07:57:02.38Z</time></trkpt><trkpt lat="45.8951533" lon="8.7000617"><ele>286.3333333333333</ele><time>2026-04-04T07:57:03.381Z</time></trkpt><trkpt lat="45.8950833" lon="8.6999717"><ele>286.5</ele><time>2026-04-04T07:57:04.38Z</time></trkpt><trkpt lat="45.8950217" lon="8.6998833"><ele>286.6666666666667</ele><time>2026-04-04T07:57:05.381Z</time></trkpt><trkpt lat="45.8949617" lon="8.699805"><ele>286.83333333333337</ele><time>2026-04-04T07:57:06.381Z</time></trkpt><trkpt lat="45.8949117" lon="8.6997267"><ele>287.0</ele><time>2026-04-04T07:57:07.381Z</time></trkpt><trkpt lat="45.8948667" lon="8.6995933"><ele>286.6666666666667</ele><time>2026-04-04T07:57:09.381Z</time></trkpt><trkpt lat="45.8949117" lon="8.6994917"><ele>286.33333333333337</ele><time>2026-04-04T07:57:11.38Z</time></trkpt><trkpt lat="45.8950017" lon="8.6994117"><ele>286.0</ele><time>2026-04-04T07:57:13.381Z</time></trkpt><trkpt lat="45.89511" lon="8.6993267"><ele>285.6666666666667</ele><time>2026-04-04T07:57:15.38Z</time></trkpt><trkpt lat="45.8951633" lon="8.6992733"><ele>285.3333333333333</ele><time>2026-04-04T07:57:16.381Z</time></trkpt><trkpt lat="45.8952183" lon="8.69922"><ele>285.0</ele><time>2026-04-04T07:57:17.38Z</time></trkpt><trkpt lat="45.89527" lon="8.6991633"><ele>285.85714285714283</ele><time>2026-04-04T07:57:18.38Z</time></trkpt><trkpt lat="45.8953233" lon="8.69911"><ele>286.7142857142857</ele><time>2026-04-04T07:57:19.38Z</time></trkpt><trkpt lat="45.8953767" lon="8.6990567"><ele>287.57142857142856</ele><time>2026-04-04T07:57:20.381Z</time></trkpt><trkpt lat="45.895435" lon="8.698995"><ele>288.42857142857144</ele><time>2026-04-04T07:57:21.38Z</time></trkpt><trkpt lat="45.8954967" lon="8.6989283"><ele>289.2857142857143</ele><time>2026-04-04T07:57:22.38Z</time></trkpt><trkpt lat="45.8955583" lon="8.698865"><ele>290.1428571428571</ele><time>2026-04-04T07:57:23.38Z</time></trkpt><trkpt lat="45.89562" lon="8.6987917"><ele>291.0</ele><time>2026-04-04T07:57:24.38Z</time></trkpt><trkpt lat="45.895675" lon="8.698715"><ele>291.0</ele><time>2026-04-04T07:57:25.381Z</time></trkpt><trkpt lat="45.8957317" lon="8.6986333"><ele>291.0</ele><time>2026-04-04T07:57:26.38Z</time></trkpt><trkpt lat="45.8957817" lon="8.69856"><ele>291.0</ele><time>2026-04-04T07:57:27.38Z</time></trkpt><trkpt lat="45.8958483" lon="8.6984267"><ele>291.0</ele><time>2026-04-04T07:57:29.381Z</time></trkpt><trkpt lat="45.8959067" lon="8.6983383"><ele>291.0</ele><time>2026-04-04T07:57:32.38Z</time></trkpt><trkpt lat="45.8959633" lon="8.6982983"><ele>291.0</ele><time>2026-04-04T07:57:35.381Z</time></trkpt><trkpt lat="45.896045" lon="8.6983267"><ele>292.3333333333333</ele><time>2026-04-04T07:57:37.38Z</time></trkpt><trkpt lat="45.8961133" lon="8.6983417"><ele>293.6666666666667</ele><time>2026-04-04T07:57:39.38Z</time></trkpt><trkpt lat="45.8961033" lon="8.6982417"><ele>295.0</ele><time>2026-04-04T07:57:42.38Z</time></trkpt><trkpt lat="45.8960417" lon="8.6981467"><ele>296.33333333333337</ele><time>2026-04-04T07:57:44.381Z</time></trkpt><trkpt lat="45.89608" lon="8.69797"><ele>297.6666666666667</ele><time>2026-04-04T07:57:46.38Z</time></trkpt><trkpt lat="45.89612" lon="8.6978583"><ele>299.0</ele><time>2026-04-04T07:57:47.38Z</time></trkpt><trkpt lat="45.8961483" lon="8.6977417"><ele>300.6666666666667</ele><time>2026-04-04T07:57:48.381Z</time></trkpt><trkpt lat="45.8961683" lon="8.697635"><ele>302.33333333333337</ele><time>2026-04-04T07:57:49.38Z</time></trkpt><trkpt lat="45.8961817" lon="8.6975383"><ele>304.0</ele><time>2026-04-04T07:57:50.38Z</time></trkpt><trkpt lat="45.896195" lon="8.6974383"><ele>305.6666666666667</ele><time>2026-04-04T07:57:51.381Z</time></trkpt><trkpt lat="45.8962133" lon="8.6973483"><ele>307.3333333333333</ele><time>2026-04-04T07:57:52.381Z</time></trkpt><trkpt lat="45.89625" lon="8.69719"><ele>309.0</ele><time>2026-04-04T07:57:54.38Z</time></trkpt><trkpt lat="45.89626" lon="8.6970333"><ele>309.0</ele><time>2026-04-04T07:57:56.38Z</time></trkpt><trkpt lat="45.8962567" lon="8.69692"><ele>309.0</ele><time>2026-04-04T07:57:58.38Z</time></trkpt><trkpt lat="45.8962833" lon="8.6968267"><ele>309.0</ele><time>2026-04-04T07:58:01.381Z</time></trkpt><trkpt lat="45.8963533" lon="8.6967383"><ele>309.0</ele><time>2026-04-04T07:58:03.38Z</time></trkpt><trkpt lat="45.8963983" lon="8.696555"><ele>309.0</ele><time>2026-04-04T07:58:05.38Z</time></trkpt><trkpt lat="45.8964467" lon="8.6964317"><ele>309.5</ele><time>2026-04-04T07:58:06.38Z</time></trkpt><trkpt lat="45.8964833" lon="8.6963283"><ele>310.0</ele><time>2026-04-04T07:58:07.38Z</time></trkpt><trkpt lat="45.896515" lon="8.6962117"><ele>310.5</ele><time>2026-04-04T07:58:08.381Z</time></trkpt><trkpt lat="45.8965567" lon="8.6960833"><ele>311.0</ele><time>2026-04-04T07:58:09.381Z</time></trkpt><trkpt lat="45.8965867" lon="8.6959617"><ele>311.5</ele><time>2026-04-04T07:58:10.381Z</time></trkpt><trkpt lat="45.89662" lon="8.6958433"><ele>312.0</ele><time>2026-04-04T07:58:11.38Z</time></trkpt><trkpt lat="45.8966517" lon="8.6957567"><ele>312.3333333333333</ele><time>2026-04-04T07:58:12.38Z</time></trkpt><trkpt lat="45.8966867" lon="8.6956783"><ele>312.6666666666667</ele><time>2026-04-04T07:58:13.381Z</time></trkpt><trkpt lat="45.8967567" lon="8.6955467"><ele>313.0</ele><time>2026-04-04T07:58:15.38Z</time></trkpt><trkpt lat="45.8968117" lon="8.6954717"><ele>313.33333333333337</ele><time>2026-04-04T07:58:17.38Z</time></trkpt><trkpt lat="45.8968817" lon="8.6954533"><ele>313.6666666666667</ele><time>2026-04-04T07:58:19.381Z</time></trkpt><trkpt lat="45.8969617" lon="8.69548"><ele>314.0</ele><time>2026-04-04T07:58:21.38Z</time></trkpt><trkpt lat="45.897015" lon="8.6954233"><ele>316.0</ele><time>2026-04-04T07:58:23.381Z</time></trkpt><trkpt lat="45.89707" lon="8.695315"><ele>318.0</ele><time>2026-04-04T07:58:25.38Z</time></trkpt><trkpt lat="45.8971567" lon="8.6952217"><ele>320.0</ele><time>2026-04-04T07:58:27.38Z</time></trkpt><trkpt lat="45.8972317" lon="8.6951017"><ele>322.0</ele><time>2026-04-04T07:58:29.38Z</time></trkpt><trkpt lat="45.89724" lon="8.694965"><ele>324.0</ele><time>2026-04-04T07:58:31.381Z</time></trkpt><trkpt lat="45.8972233" lon="8.6948133"><ele>324.4</ele><time>2026-04-04T07:58:33.38Z</time></trkpt><trkpt lat="45.8972" lon="8.69467"><ele>324.79999999999995</ele><time>2026-04-04T07:58:35.38Z</time></trkpt><trkpt lat="45.8971817" lon="8.6945183"><ele>325.20000000000005</ele><time>2026-04-04T07:58:37.38Z</time></trkpt><trkpt lat="45.89715" lon="8.6943833"><ele>325.6</ele><time>2026-04-04T07:58:39.381Z</time></trkpt><trkpt lat="45.8971267" lon="8.6942317"><ele>326.0</ele><time>2026-04-04T07:58:41.38Z</time></trkpt><trkpt lat="45.8971167" lon="8.6940467"><ele>326.4</ele><time>2026-04-04T07:58:43.381Z</time></trkpt><trkpt lat="45.8971267" lon="8.69395"><ele>326.8</ele><time>2026-04-04T07:58:44.381Z</time></trkpt><trkpt lat="45.8971383" lon="8.69379"><ele>327.2</ele><time>2026-04-04T07:58:46.381Z</time></trkpt><trkpt lat="45.8971633" lon="8.6936733"><ele>327.59999999999997</ele><time>2026-04-04T07:58:48.38Z</time></trkpt><trkpt lat="45.8972033" lon="8.69352"><ele>328.0</ele><time>2026-04-04T07:58:50.38Z</time></trkpt><trkpt lat="45.8972433" lon="8.6934283"><ele>328.3333333333333</ele><time>2026-04-04T07:58:51.381Z</time></trkpt><trkpt lat="45.89729" lon="8.6933233"><ele>328.66666666666663</ele><time>2026-04-04T07:58:52.38Z</time></trkpt><trkpt lat="45.8973333" lon="8.6932067"><ele>329.0</ele><time>2026-04-04T07:58:53.38Z</time></trkpt><trkpt lat="45.8973717" lon="8.6930983"><ele>329.3333333333333</ele><time>2026-04-04T07:58:54.381Z</time></trkpt><trkpt lat="45.897415" lon="8.693"><ele>329.6666666666667</ele><time>2026-04-04T07:58:55.38Z</time></trkpt><trkpt lat="45.8974617" lon="8.6928983"><ele>330.0</ele><time>2026-04-04T07:58:56.38Z</time></trkpt><trkpt lat="45.897495" lon="8.6927933"><ele>329.6666666666667</ele><time>2026-04-04T07:58:57.381Z</time></trkpt><trkpt lat="45.897525" lon="8.692685"><ele>329.3333333333333</ele><time>2026-04-04T07:58:58.38Z</time></trkpt><trkpt lat="45.8975467" lon="8.6925967"><ele>329.0</ele><time>2026-04-04T07:58:59.381Z</time></trkpt><trkpt lat="45.8975867" lon="8.692505"><ele>328.66666666666663</ele><time>2026-04-04T07:59:01.381Z</time></trkpt><trkpt lat="45.8976883" lon="8.69249"><ele>328.3333333333333</ele><time>2026-04-04T07:59:04.38Z</time></trkpt><trkpt lat="45.8977867" lon="8.692485"><ele>328.0</ele><time>2026-04-04T07:59:06.38Z</time></trkpt><trkpt lat="45.8978733" lon="8.6924867"><ele>331.0</ele><time>2026-04-04T07:59:08.381Z</time></trkpt><trkpt lat="45.8979733" lon="8.69249"><ele>334.0</ele><time>2026-04-04T07:59:10.381Z</time></trkpt><trkpt lat="45.8980783" lon="8.6924833"><ele>337.0</ele><time>2026-04-04T07:59:12.381Z</time></trkpt><trkpt lat="45.8981817" lon="8.6924467"><ele>340.0</ele><time>2026-04-04T07:59:14.38Z</time></trkpt><trkpt lat="45.8982233" lon="8.6923533"><ele>343.0</ele><time>2026-04-04T07:59:16.38Z</time></trkpt><trkpt lat="45.8982267" lon="8.6922317"><ele>343.0</ele><time>2026-04-04T07:59:18.381Z</time></trkpt><trkpt lat="45.8982317" lon="8.6920833"><ele>343.0</ele><time>2026-04-04T07:59:20.38Z</time></trkpt><trkpt lat="45.8982483" lon="8.691985"><ele>343.0</ele><time>2026-04-04T07:59:21.38Z</time></trkpt><trkpt lat="45.8982717" lon="8.6918867"><ele>343.0</ele><time>2026-04-04T07:59:22.38Z</time></trkpt><trkpt lat="45.8983183" lon="8.6917567"><ele>343.0</ele><time>2026-04-04T07:59:24.38Z</time></trkpt><trkpt lat="45.89839" lon="8.6917233"><ele>343.0</ele><time>2026-04-04T07:59:26.381Z</time></trkpt><trkpt lat="45.8984683" lon="8.69171"><ele>345.3333333333333</ele><time>2026-04-04T07:59:28.38Z</time></trkpt><trkpt lat="45.8985267" lon="8.6916167"><ele>347.66666666666663</ele><time>2026-04-04T07:59:30.38Z</time></trkpt><trkpt lat="45.898585" lon="8.691455"><ele>350.0</ele><time>2026-04-04T07:59:32.38Z</time></trkpt><trkpt lat="45.8986133" lon="8.6913617"><ele>352.3333333333333</ele><time>2026-04-04T07:59:33.38Z</time></trkpt><trkpt lat="45.8986233" lon="8.6912633"><ele>354.6666666666667</ele><time>2026-04-04T07:59:34.38Z</time></trkpt><trkpt lat="45.89862" lon="8.6911583"><ele>357.0</ele><time>2026-04-04T07:59:35.381Z</time></trkpt><trkpt lat="45.8986033" lon="8.6910567"><ele>357.0</ele><time>2026-04-04T07:59:36.381Z</time></trkpt><trkpt lat="45.8985767" lon="8.690965"><ele>357.0</ele><time>2026-04-04T07:59:37.381Z</time></trkpt><trkpt lat="45.8985467" lon="8.6908783"><ele>357.0</ele><time>2026-04-04T07:59:38.38Z</time></trkpt><trkpt lat="45.898505" lon="8.6907133"><ele>357.0</ele><time>2026-04-04T07:59:40.38Z</time></trkpt><trkpt lat="45.898495" lon="8.6905983"><ele>357.0</ele><time>2026-04-04T07:59:41.381Z</time></trkpt><trkpt lat="45.8984883" lon="8.6904717"><ele>357.0</ele><time>2026-04-04T07:59:42.381Z</time></trkpt><trkpt lat="45.89849" lon="8.6903417"><ele>356.1666666666667</ele><time>2026-04-04T07:59:43.381Z</time></trkpt><trkpt lat="45.8984967" lon="8.6902283"><ele>355.3333333333333</ele><time>2026-04-04T07:59:44.38Z</time></trkpt><trkpt lat="45.89851" lon="8.6900817"><ele>354.5</ele><time>2026-04-04T07:59:46.381Z</time></trkpt><trkpt lat="45.8985583" lon="8.69001"><ele>353.66666666666663</ele><time>2026-04-04T07:59:48.38Z</time></trkpt><trkpt lat="45.898675" lon="8.689965"><ele>352.8333333333333</ele><time>2026-04-04T07:59:50.381Z</time></trkpt><trkpt lat="45.8987367" lon="8.6899417"><ele>352.0</ele><time>2026-04-04T07:59:51.38Z</time></trkpt><trkpt lat="45.8988583" lon="8.689915"><ele>352.0</ele><time>2026-04-04T07:59:53.381Z</time></trkpt><trkpt lat="45.8989233" lon="8.68992"><ele>352.0</ele><time>2026-04-04T07:59:54.38Z</time></trkpt><trkpt lat="45.8989867" lon="8.6899367"><ele>352.0</ele><time>2026-04-04T07:59:55.381Z</time></trkpt><trkpt lat="45.899055" lon="8.68996"><ele>352.0</ele><time>2026-04-04T07:59:56.38Z</time></trkpt><trkpt lat="45.8991267" lon="8.6899833"><ele>352.0</ele><time>2026-04-04T07:59:57.381Z</time></trkpt><trkpt lat="45.8992033" lon="8.6899983"><ele>352.0</ele><time>2026-04-04T07:59:58.381Z</time></trkpt><trkpt lat="45.8992817" lon="8.690015"><ele>352.0</ele><time>2026-04-04T07:59:59.381Z</time></trkpt><trkpt lat="45.8993533" lon="8.69004"><ele>353.2857142857143</ele><time>2026-04-04T08:00:00.38Z</time></trkpt><trkpt lat="45.8994167" lon="8.6900817"><ele>354.57142857142856</ele><time>2026-04-04T08:00:01.38Z</time></trkpt><trkpt lat="45.8994667" lon="8.6901517"><ele>355.8571428571429</ele><time>2026-04-04T08:00:02.38Z</time></trkpt><trkpt lat="45.8995067" lon="8.69024"><ele>357.1428571428571</ele><time>2026-04-04T08:00:03.38Z</time></trkpt><trkpt lat="45.8995233" lon="8.6903383"><ele>358.4285714285714</ele><time>2026-04-04T08:00:04.381Z</time></trkpt><trkpt lat="45.8995167" lon="8.6904383"><ele>359.7142857142857</ele><time>2026-04-04T08:00:05.38Z</time></trkpt><trkpt lat="45.8994967" lon="8.6905367"><ele>361.0</ele><time>2026-04-04T08:00:06.38Z</time></trkpt><trkpt lat="45.899485" lon="8.6906517"><ele>361.6</ele><time>2026-04-04T08:00:07.38Z</time></trkpt><trkpt lat="45.8994933" lon="8.6907667"><ele>362.20000000000005</ele><time>2026-04-04T08:00:08.38Z</time></trkpt><trkpt lat="45.8995083" lon="8.69089"><ele>362.79999999999995</ele><time>2026-04-04T08:00:09.381Z</time></trkpt><trkpt lat="45.899535" lon="8.6910333"><ele>363.4</ele><time>2026-04-04T08:00:10.381Z</time></trkpt><trkpt lat="45.89957" lon="8.6911717"><ele>364.0</ele><time>2026-04-04T08:00:11.38Z</time></trkpt><trkpt lat="45.899605" lon="8.6913"><ele>363.6</ele><time>2026-04-04T08:00:12.381Z</time></trkpt><trkpt lat="45.8996433" lon="8.69142"><ele>363.2</ele><time>2026-04-04T08:00:13.381Z</time></trkpt><trkpt lat="45.8996817" lon="8.6915383"><ele>362.8</ele><time>2026-04-04T08:00:14.381Z</time></trkpt><trkpt lat="45.8997383" lon="8.6916683"><ele>362.40000000000003</ele><time>2026-04-04T08:00:15.38Z</time></trkpt><trkpt lat="45.899795" lon="8.691805"><ele>362.0</ele><time>2026-04-04T08:00:16.38Z</time></trkpt><trkpt lat="45.899855" lon="8.69194"><ele>362.0</ele><time>2026-04-04T08:00:17.38Z</time></trkpt><trkpt lat="45.8999083" lon="8.69207"><ele>362.0</ele><time>2026-04-04T08:00:18.381Z</time></trkpt><trkpt lat="45.8999633" lon="8.6921983"><ele>362.0</ele><time>2026-04-04T08:00:19.381Z</time></trkpt><trkpt lat="45.9000133" lon="8.6923133"><ele>362.0</ele><time>2026-04-04T08:00:20.381Z</time></trkpt><trkpt lat="45.9000533" lon="8.692415"><ele>362.0</ele><time>2026-04-04T08:00:21.38Z</time></trkpt><trkpt lat="45.9001033" lon="8.6925533"><ele>365.0</ele><time>2026-04-04T08:00:23.381Z</time></trkpt><trkpt lat="45.9002233" lon="8.692625"><ele>368.0</ele><time>2026-04-04T08:00:25.38Z</time></trkpt><trkpt lat="45.9002983" lon="8.692635"><ele>371.0</ele><time>2026-04-04T08:00:26.38Z</time></trkpt><trkpt lat="45.9003733" lon="8.6926383"><ele>374.0</ele><time>2026-04-04T08:00:27.38Z</time></trkpt><trkpt lat="45.9004467" lon="8.6926333"><ele>377.0</ele><time>2026-04-04T08:00:28.381Z</time></trkpt><trkpt lat="45.9005183" lon="8.6926267"><ele>380.0</ele><time>2026-04-04T08:00:29.38Z</time></trkpt><trkpt lat="45.9005817" lon="8.69263"><ele>380.0</ele><time>2026-04-04T08:00:30.38Z</time></trkpt><trkpt lat="45.9006567" lon="8.69262"><ele>380.0</ele><time>2026-04-04T08:00:31.381Z</time></trkpt><trkpt lat="45.9007283" lon="8.6926117"><ele>380.0</ele><time>2026-04-04T08:00:32.38Z</time></trkpt><trkpt lat="45.9008067" lon="8.69261"><ele>380.0</ele><time>2026-04-04T08:00:33.381Z</time></trkpt><trkpt lat="45.900875" lon="8.6926133"><ele>380.0</ele><time>2026-04-04T08:00:34.381Z</time></trkpt><trkpt lat="45.9009933" lon="8.692695"><ele>380.0</ele><time>2026-04-04T08:00:36.381Z</time></trkpt><trkpt lat="45.9010383" lon="8.6927617"><ele>381.6</ele><time>2026-04-04T08:00:37.38Z</time></trkpt><trkpt lat="45.9011183" lon="8.6928367"><ele>383.2</ele><time>2026-04-04T08:00:39.38Z</time></trkpt><trkpt lat="45.9012433" lon="8.6928133"><ele>384.79999999999995</ele><time>2026-04-04T08:00:41.38Z</time></trkpt><trkpt lat="45.9013217" lon="8.6927833"><ele>386.4</ele><time>2026-04-04T08:00:42.381Z</time></trkpt><trkpt lat="45.9013967" lon="8.6927533"><ele>388.0</ele><time>2026-04-04T08:00:43.381Z</time></trkpt><trkpt lat="45.9014733" lon="8.69272"><ele>388.0</ele><time>2026-04-04T08:00:44.38Z</time></trkpt><trkpt lat="45.901545" lon="8.6926883"><ele>388.0</ele><time>2026-04-04T08:00:45.38Z</time></trkpt><trkpt lat="45.9016133" lon="8.6926767"><ele>388.0</ele><time>2026-04-04T08:00:46.381Z</time></trkpt><trkpt lat="45.90168" lon="8.692695"><ele>388.0</ele><time>2026-04-04T08:00:47.381Z</time></trkpt><trkpt lat="45.9017433" lon="8.6927417"><ele>388.0</ele><time>2026-04-04T08:00:48.381Z</time></trkpt><trkpt lat="45.9018067" lon="8.69279"><ele>388.0</ele><time>2026-04-04T08:00:49.381Z</time></trkpt><trkpt lat="45.9018767" lon="8.6928183"><ele>388.0</ele><time>2026-04-04T08:00:50.381Z</time></trkpt><trkpt lat="45.9019483" lon="8.6928333"><ele>389.83333333333337</ele><time>2026-04-04T08:00:51.38Z</time></trkpt><trkpt lat="45.9020183" lon="8.69283"><ele>391.6666666666667</ele><time>2026-04-04T08:00:52.381Z</time></trkpt><trkpt lat="45.9020883" lon="8.6928283"><ele>393.5</ele><time>2026-04-04T08:00:53.38Z</time></trkpt><trkpt lat="45.9021967" lon="8.6927583"><ele>395.33333333333337</ele><time>2026-04-04T08:00:55.381Z</time></trkpt><trkpt lat="45.9022483" lon="8.6926967"><ele>397.1666666666667</ele><time>2026-04-04T08:00:56.38Z</time></trkpt><trkpt lat="45.9023" lon="8.6926233"><ele>399.0</ele><time>2026-04-04T08:00:57.38Z</time></trkpt><trkpt lat="45.902355" lon="8.6925683"><ele>399.7142857142857</ele><time>2026-04-04T08:00:58.38Z</time></trkpt><trkpt lat="45.9024067" lon="8.6925033"><ele>400.42857142857144</ele><time>2026-04-04T08:00:59.38Z</time></trkpt><trkpt lat="45.9024683" lon="8.6924433"><ele>401.1428571428571</ele><time>2026-04-04T08:01:00.38Z</time></trkpt><trkpt lat="45.9025333" lon="8.6923967"><ele>401.8571428571429</ele><time>2026-04-04T08:01:01.38Z</time></trkpt><trkpt lat="45.9025967" lon="8.6923633"><ele>402.57142857142856</ele><time>2026-04-04T08:01:02.38Z</time></trkpt><trkpt lat="45.9026617" lon="8.69233"><ele>403.2857142857143</ele><time>2026-04-04T08:01:03.38Z</time></trkpt><trkpt lat="45.9027233" lon="8.6922933"><ele>404.0</ele><time>2026-04-04T08:01:04.38Z</time></trkpt><trkpt lat="45.9027817" lon="8.6922467"><ele>406.16666666666663</ele><time>2026-04-04T08:01:05.381Z</time></trkpt><trkpt lat="45.902845" lon="8.6922"><ele>408.3333333333333</ele><time>2026-04-04T08:01:06.38Z</time></trkpt><trkpt lat="45.9029" lon="8.692145"><ele>410.5</ele><time>2026-04-04T08:01:07.381Z</time></trkpt><trkpt lat="45.9029567" lon="8.692085"><ele>412.66666666666663</ele><time>2026-04-04T08:01:08.381Z</time></trkpt><trkpt lat="45.9030267" lon="8.6920133"><ele>414.8333333333333</ele><time>2026-04-04T08:01:10.381Z</time></trkpt><trkpt lat="45.9030483" lon="8.6918933"><ele>417.0</ele><time>2026-04-04T08:01:13.381Z</time></trkpt><trkpt lat="45.9030317" lon="8.6917567"><ele>416.8</ele><time>2026-04-04T08:01:15.38Z</time></trkpt><trkpt lat="45.90304" lon="8.69159"><ele>416.6</ele><time>2026-04-04T08:01:17.38Z</time></trkpt><trkpt lat="45.90307" lon="8.691505"><ele>416.40000000000003</ele><time>2026-04-04T08:01:18.38Z</time></trkpt><trkpt lat="45.9031283" lon="8.6913567"><ele>416.20000000000005</ele><time>2026-04-04T08:01:20.381Z</time></trkpt><trkpt lat="45.9031833" lon="8.6912133"><ele>416.0</ele><time>2026-04-04T08:01:22.38Z</time></trkpt><trkpt lat="45.9032083" lon="8.6910633"><ele>416.0</ele><time>2026-04-04T08:01:24.38Z</time></trkpt><trkpt lat="45.903175" lon="8.6909233"><ele>416.0</ele><time>2026-04-04T08:01:26.38Z</time></trkpt><trkpt lat="45.9030917" lon="8.690795"><ele>416.0</ele><time>2026-04-04T08:01:28.381Z</time></trkpt><trkpt lat="45.902975" lon="8.69074"><ele>416.0</ele><time>2026-04-04T08:01:30.38Z</time></trkpt><trkpt lat="45.902905" lon="8.6907233"><ele>416.0</ele><time>2026-04-04T08:01:31.381Z</time></trkpt><trkpt lat="45.9028317" lon="8.6907217"><ele>416.0</ele><time>2026-04-04T08:01:32.381Z</time></trkpt><trkpt lat="45.9027633" lon="8.6907183"><ele>416.0</ele><time>2026-04-04T08:01:33.381Z</time></trkpt><trkpt lat="45.9027" lon="8.69072"><ele>416.0</ele><time>2026-04-04T08:01:34.38Z</time></trkpt><trkpt lat="45.9025633" lon="8.6907"><ele>416.0</ele><time>2026-04-04T08:01:36.38Z</time></trkpt><trkpt lat="45.9024683" lon="8.6906767"><ele>416.0</ele><time>2026-04-04T08:01:37.38Z</time></trkpt><trkpt lat="45.9023633" lon="8.6906367"><ele>414.16666666666663</ele><time>2026-04-04T08:01:38.381Z</time></trkpt><trkpt lat="45.9022667" lon="8.6906"><ele>412.3333333333333</ele><time>2026-04-04T08:01:39.38Z</time></trkpt><trkpt lat="45.9021867" lon="8.69056"><ele>410.5</ele><time>2026-04-04T08:01:40.381Z</time></trkpt><trkpt lat="45.90211" lon="8.690515"><ele>408.66666666666663</ele><time>2026-04-04T08:01:41.381Z</time></trkpt><trkpt lat="45.9020417" lon="8.6904533"><ele>406.8333333333333</ele><time>2026-04-04T08:01:42.38Z</time></trkpt><trkpt lat="45.9019683" lon="8.69039"><ele>405.0</ele><time>2026-04-04T08:01:43.38Z</time></trkpt><trkpt lat="45.901905" lon="8.690305"><ele>404.1428571428571</ele><time>2026-04-04T08:01:44.38Z</time></trkpt><trkpt lat="45.9018517" lon="8.69023"><ele>403.2857142857143</ele><time>2026-04-04T08:01:45.38Z</time></trkpt><trkpt lat="45.9018083" lon="8.6901517"><ele>402.42857142857144</ele><time>2026-04-04T08:01:46.381Z</time></trkpt><trkpt lat="45.9017783" lon="8.69007"><ele>401.57142857142856</ele><time>2026-04-04T08:01:47.381Z</time></trkpt><trkpt lat="45.9017417" lon="8.6899633"><ele>400.7142857142857</ele><time>2026-04-04T08:01:49.381Z</time></trkpt><trkpt lat="45.9017267" lon="8.6898717"><ele>399.85714285714283</ele><time>2026-04-04T08:01:52.381Z</time></trkpt><trkpt lat="45.9017833" lon="8.6898233"><ele>399.0</ele><time>2026-04-04T08:01:55.38Z</time></trkpt><trkpt lat="45.9018367" lon="8.6897733"><ele>402.5</ele><time>2026-04-04T08:01:57.381Z</time></trkpt><trkpt lat="45.9018767" lon="8.68969"><ele>406.0</ele><time>2026-04-04T08:01:59.381Z</time></trkpt><trkpt lat="45.9019133" lon="8.6895683"><ele>409.5</ele><time>2026-04-04T08:02:01.38Z</time></trkpt><trkpt lat="45.90195" lon="8.689455"><ele>413.0</ele><time>2026-04-04T08:02:03.381Z</time></trkpt><trkpt lat="45.90203" lon="8.6893617"><ele>416.5</ele><time>2026-04-04T08:02:05.381Z</time></trkpt><trkpt lat="45.9021133" lon="8.6893417"><ele>420.0</ele><time>2026-04-04T08:02:07.38Z</time></trkpt><trkpt lat="45.9021883" lon="8.6893917"><ele>420.0</ele><time>2026-04-04T08:02:09.381Z</time></trkpt><trkpt lat="45.902265" lon="8.6894917"><ele>420.0</ele><time>2026-04-04T08:02:11.381Z</time></trkpt><trkpt lat="45.902345" lon="8.689595"><ele>420.0</ele><time>2026-04-04T08:02:13.381Z</time></trkpt><trkpt lat="45.9023967" lon="8.689695"><ele>420.0</ele><time>2026-04-04T08:02:15.38Z</time></trkpt><trkpt lat="45.9024683" lon="8.6897617"><ele>420.0</ele><time>2026-04-04T08:02:17.38Z</time></trkpt><trkpt lat="45.9025583" lon="8.6898233"><ele>422.8</ele><time>2026-04-04T08:02:19.381Z</time></trkpt><trkpt lat="45.9026517" lon="8.6898583"><ele>425.6</ele><time>2026-04-04T08:02:21.38Z</time></trkpt><trkpt lat="45.9027833" lon="8.6899117"><ele>428.4</ele><time>2026-04-04T08:02:23.381Z</time></trkpt><trkpt lat="45.902845" lon="8.6899433"><ele>431.2</ele><time>2026-04-04T08:02:24.38Z</time></trkpt><trkpt lat="45.9029433" lon="8.6899433"><ele>434.0</ele><time>2026-04-04T08:02:26.38Z</time></trkpt><trkpt lat="45.903045" lon="8.68989"><ele>433.99999999999994</ele><time>2026-04-04T08:02:28.381Z</time></trkpt><trkpt lat="45.9031333" lon="8.68983"><ele>434.0</ele><time>2026-04-04T08:02:30.381Z</time></trkpt><trkpt lat="45.9031517" lon="8.689735"><ele>434.0</ele><time>2026-04-04T08:02:32.381Z</time></trkpt><trkpt lat="45.9031717" lon="8.6896133"><ele>434.0</ele><time>2026-04-04T08:02:34.38Z</time></trkpt><trkpt lat="45.9032533" lon="8.68949"><ele>433.99999999999994</ele><time>2026-04-04T08:02:36.38Z</time></trkpt><trkpt lat="45.9032933" lon="8.68942"><ele>434.0</ele><time>2026-04-04T08:02:37.381Z</time></trkpt><trkpt lat="45.9033517" lon="8.6892817"><ele>436.79999999999995</ele><time>2026-04-04T08:02:39.381Z</time></trkpt><trkpt lat="45.903395" lon="8.6891667"><ele>439.59999999999997</ele><time>2026-04-04T08:02:41.38Z</time></trkpt><trkpt lat="45.90344" lon="8.689045"><ele>442.4</ele><time>2026-04-04T08:02:43.381Z</time></trkpt><trkpt lat="45.903495" lon="8.688915"><ele>445.2</ele><time>2026-04-04T08:02:45.381Z</time></trkpt><trkpt lat="45.903565" lon="8.6887717"><ele>448.0</ele><time>2026-04-04T08:02:47.38Z</time></trkpt><trkpt lat="45.9036033" lon="8.6886917"><ele>448.00000000000006</ele><time>2026-04-04T08:02:48.38Z</time></trkpt><trkpt lat="45.903645" lon="8.68861"><ele>448.0</ele><time>2026-04-04T08:02:49.381Z</time></trkpt><trkpt lat="45.9037" lon="8.6885033"><ele>448.0</ele><time>2026-04-04T08:02:50.38Z</time></trkpt><trkpt lat="45.9037467" lon="8.688425"><ele>448.0</ele><time>2026-04-04T08:02:51.381Z</time></trkpt><trkpt lat="45.90378" lon="8.688335"><ele>448.00000000000006</ele><time>2026-04-04T08:02:52.381Z</time></trkpt><trkpt lat="45.90385" lon="8.6881783"><ele>448.0</ele><time>2026-04-04T08:02:54.38Z</time></trkpt><trkpt lat="45.9039117" lon="8.6880667"><ele>452.59999999999997</ele><time>2026-04-04T08:02:56.381Z</time></trkpt><trkpt lat="45.9040017" lon="8.68797"><ele>457.19999999999993</ele><time>2026-04-04T08:02:58.381Z</time></trkpt><trkpt lat="45.9040967" lon="8.68789"><ele>461.8</ele><time>2026-04-04T08:03:00.38Z</time></trkpt><trkpt lat="45.9041617" lon="8.68778"><ele>466.4</ele><time>2026-04-04T08:03:02.38Z</time></trkpt><trkpt lat="45.90422" lon="8.6876467"><ele>471.0</ele><time>2026-04-04T08:03:04.381Z</time></trkpt><trkpt lat="45.90428" lon="8.68753"><ele>473.1666666666667</ele><time>2026-04-04T08:03:06.38Z</time></trkpt><trkpt lat="45.904345" lon="8.687445"><ele>475.33333333333337</ele><time>2026-04-04T08:03:08.381Z</time></trkpt><trkpt lat="45.9044067" lon="8.687375"><ele>477.5</ele><time>2026-04-04T08:03:11.38Z</time></trkpt><trkpt lat="45.9044583" lon="8.6872717"><ele>479.6666666666667</ele><time>2026-04-04T08:03:13.38Z</time></trkpt><trkpt lat="45.9044983" lon="8.6871517"><ele>481.83333333333337</ele><time>2026-04-04T08:03:15.38Z</time></trkpt><trkpt lat="45.9045383" lon="8.6870217"><ele>484.0</ele><time>2026-04-04T08:03:17.381Z</time></trkpt><trkpt lat="45.9046" lon="8.686925"><ele>487.2</ele><time>2026-04-04T08:03:19.38Z</time></trkpt><trkpt lat="45.9046933" lon="8.6868217"><ele>490.4</ele><time>2026-04-04T08:03:21.38Z</time></trkpt><trkpt lat="45.9047967" lon="8.686735"><ele>493.6</ele><time>2026-04-04T08:03:23.381Z</time></trkpt><trkpt lat="45.9049" lon="8.6866317"><ele>496.8</ele><time>2026-04-04T08:03:25.38Z</time></trkpt><trkpt lat="45.9049467" lon="8.6865667"><ele>500.0</ele><time>2026-04-04T08:03:26.381Z</time></trkpt><trkpt lat="45.9050267" lon="8.6864383"><ele>500.0</ele><time>2026-04-04T08:03:28.381Z</time></trkpt><trkpt lat="45.9051167" lon="8.68636"><ele>500.0</ele><time>2026-04-04T08:03:30.381Z</time></trkpt><trkpt lat="45.9052083" lon="8.686295"><ele>500.0</ele><time>2026-04-04T08:03:32.38Z</time></trkpt><trkpt lat="45.9053117" lon="8.6862383"><ele>500.0</ele><time>2026-04-04T08:03:34.381Z</time></trkpt><trkpt lat="45.905405" lon="8.6861867"><ele>500.0</ele><time>2026-04-04T08:03:36.381Z</time></trkpt><trkpt lat="45.9054667" lon="8.686155"><ele>499.99999999999994</ele><time>2026-04-04T08:03:37.381Z</time></trkpt><trkpt lat="45.9055367" lon="8.6861183"><ele>500.0</ele><time>2026-04-04T08:03:38.38Z</time></trkpt><trkpt lat="45.905605" lon="8.6860733"><ele>500.0</ele><time>2026-04-04T08:03:39.381Z</time></trkpt><trkpt lat="45.905695" lon="8.68597"><ele>500.0</ele><time>2026-04-04T08:03:41.38Z</time></trkpt><trkpt lat="45.9057333" lon="8.6858933"><ele>499.99999999999994</ele><time>2026-04-04T08:03:42.381Z</time></trkpt><trkpt lat="45.905775" lon="8.68579"><ele>500.0</ele><time>2026-04-04T08:03:43.381Z</time></trkpt><trkpt lat="45.905815" lon="8.6856917"><ele>503.0</ele><time>2026-04-04T08:03:44.381Z</time></trkpt><trkpt lat="45.9058833" lon="8.6855467"><ele>506.0</ele><time>2026-04-04T08:03:46.38Z</time></trkpt><trkpt lat="45.9059617" lon="8.6854717"><ele>509.0</ele><time>2026-04-04T08:03:48.38Z</time></trkpt><trkpt lat="45.90605" lon="8.6854383"><ele>512.0</ele><time>2026-04-04T08:03:50.38Z</time></trkpt><trkpt lat="45.9061483" lon="8.68543"><ele>515.0</ele><time>2026-04-04T08:03:52.38Z</time></trkpt><trkpt lat="45.906245" lon="8.6854017"><ele>516.3333333333333</ele><time>2026-04-04T08:03:54.38Z</time></trkpt><trkpt lat="45.9063517" lon="8.68533"><ele>517.6666666666666</ele><time>2026-04-04T08:03:56.38Z</time></trkpt><trkpt lat="45.90641" lon="8.68529"><ele>519.0</ele><time>2026-04-04T08:03:57.38Z</time></trkpt><trkpt lat="45.90647" lon="8.6852583"><ele>520.3333333333334</ele><time>2026-04-04T08:03:58.381Z</time></trkpt><trkpt lat="45.90653" lon="8.6852217"><ele>521.6666666666667</ele><time>2026-04-04T08:03:59.38Z</time></trkpt><trkpt lat="45.9066017" lon="8.6851317"><ele>523.0</ele><time>2026-04-04T08:04:01.38Z</time></trkpt><trkpt lat="45.906635" lon="8.68501"><ele>524.3333333333334</ele><time>2026-04-04T08:04:03.381Z</time></trkpt><trkpt lat="45.90661" lon="8.6848467"><ele>525.6666666666667</ele><time>2026-04-04T08:04:05.38Z</time></trkpt><trkpt lat="45.9066017" lon="8.6847417"><ele>527.0</ele><time>2026-04-04T08:04:07.38Z</time></trkpt><trkpt lat="45.9066083" lon="8.6846017"><ele>528.3333333333334</ele><time>2026-04-04T08:06:09.381Z</time></trkpt><trkpt lat="45.9066683" lon="8.6845667"><ele>529.6666666666666</ele><time>2026-04-04T08:06:11.38Z</time></trkpt><trkpt lat="45.9067517" lon="8.6845433"><ele>531.0</ele><time>2026-04-04T08:06:13.38Z</time></trkpt><trkpt lat="45.90682" lon="8.68453"><ele>532.6666666666666</ele><time>2026-04-04T08:06:15.38Z</time></trkpt><trkpt lat="45.9068967" lon="8.6845083"><ele>534.3333333333334</ele><time>2026-04-04T08:06:17.38Z</time></trkpt><trkpt lat="45.9069917" lon="8.6844683"><ele>536.0</ele><time>2026-04-04T08:06:19.381Z</time></trkpt><trkpt lat="45.9071067" lon="8.6843983"><ele>537.6666666666667</ele><time>2026-04-04T08:06:21.381Z</time></trkpt><trkpt lat="45.9071767" lon="8.6843633"><ele>539.3333333333334</ele><time>2026-04-04T08:06:22.38Z</time></trkpt><trkpt lat="45.9072433" lon="8.6843317"><ele>541.0</ele><time>2026-04-04T08:06:23.381Z</time></trkpt><trkpt lat="45.907305" lon="8.6842967"><ele>543.4</ele><time>2026-04-04T08:06:24.38Z</time></trkpt><trkpt lat="45.9074017" lon="8.684275"><ele>545.8</ele><time>2026-04-04T08:06:26.38Z</time></trkpt><trkpt lat="45.9075" lon="8.6843167"><ele>548.1999999999999</ele><time>2026-04-04T08:06:28.38Z</time></trkpt><trkpt lat="45.9076167" lon="8.68438"><ele>550.6</ele><time>2026-04-04T08:06:30.381Z</time></trkpt><trkpt lat="45.90768" lon="8.6844033"><ele>553.0</ele><time>2026-04-04T08:06:31.381Z</time></trkpt><trkpt lat="45.907785" lon="8.684445"><ele>554.6666666666667</ele><time>2026-04-04T08:06:33.381Z</time></trkpt><trkpt lat="45.90788" lon="8.6844317"><ele>556.3333333333334</ele><time>2026-04-04T08:06:36.381Z</time></trkpt><trkpt lat="45.9079533" lon="8.6843383"><ele>558.0</ele><time>2026-04-04T08:06:38.381Z</time></trkpt><trkpt lat="45.908" lon="8.6842767"><ele>559.6666666666666</ele><time>2026-04-04T08:06:39.38Z</time></trkpt><trkpt lat="45.9080733" lon="8.684165"><ele>561.3333333333333</ele><time>2026-04-04T08:06:41.38Z</time></trkpt><trkpt lat="45.9081417" lon="8.6841017"><ele>563.0</ele><time>2026-04-04T08:06:43.381Z</time></trkpt><trkpt lat="45.908215" lon="8.684085"><ele>564.5</ele><time>2026-04-04T08:06:45.38Z</time></trkpt><trkpt lat="45.9082983" lon="8.684105"><ele>566.0</ele><time>2026-04-04T08:06:47.381Z</time></trkpt><trkpt lat="45.908365" lon="8.6840783"><ele>567.5</ele><time>2026-04-04T08:06:49.381Z</time></trkpt><trkpt lat="45.9084183" lon="8.6840117"><ele>569.0</ele><time>2026-04-04T08:06:51.38Z</time></trkpt><trkpt lat="45.9085" lon="8.6839183"><ele>570.5</ele><time>2026-04-04T08:06:53.38Z</time></trkpt><trkpt lat="45.908555" lon="8.6838633"><ele>572.0</ele><time>2026-04-04T08:06:54.38Z</time></trkpt><trkpt lat="45.9086033" lon="8.683805"><ele>577.6</ele><time>2026-04-04T08:06:55.38Z</time></trkpt><trkpt lat="45.9086617" lon="8.6836933"><ele>583.2</ele><time>2026-04-04T08:06:57.38Z</time></trkpt><trkpt lat="45.908695" lon="8.68358"><ele>588.8</ele><time>2026-04-04T08:06:59.381Z</time></trkpt><trkpt lat="45.90873" lon="8.6834267"><ele>594.4</ele><time>2026-04-04T08:07:02.38Z</time></trkpt><trkpt lat="45.908755" lon="8.6832717"><ele>600.0</ele><time>2026-04-04T08:07:04.381Z</time></trkpt><trkpt lat="45.9087733" lon="8.68317"><ele>600.6666666666666</ele><time>2026-04-04T08:07:05.381Z</time></trkpt><trkpt lat="45.908805" lon="8.6830317"><ele>601.3333333333334</ele><time>2026-04-04T08:07:06.38Z</time></trkpt><trkpt lat="45.9088183" lon="8.6829317"><ele>602.0</ele><time>2026-04-04T08:07:07.38Z</time></trkpt><trkpt lat="45.9088417" lon="8.682815"><ele>602.6666666666667</ele><time>2026-04-04T08:07:08.381Z</time></trkpt><trkpt lat="45.9088633" lon="8.6827183"><ele>603.3333333333334</ele><time>2026-04-04T08:07:09.38Z</time></trkpt><trkpt lat="45.9088767" lon="8.6826233"><ele>604.0</ele><time>2026-04-04T08:07:10.381Z</time></trkpt><trkpt lat="45.908885" lon="8.6825233"><ele>605.3333333333334</ele><time>2026-04-04T08:07:11.381Z</time></trkpt><trkpt lat="45.908895" lon="8.68243"><ele>606.6666666666667</ele><time>2026-04-04T08:07:12.38Z</time></trkpt><trkpt lat="45.9089183" lon="8.6822767"><ele>608.0</ele><time>2026-04-04T08:07:14.381Z</time></trkpt><trkpt lat="45.9089483" lon="8.682185"><ele>609.3333333333334</ele><time>2026-04-04T08:07:16.38Z</time></trkpt><trkpt lat="45.909005" lon="8.682265"><ele>610.6666666666666</ele><time>2026-04-04T08:07:20.381Z</time></trkpt><trkpt lat="45.9090583" lon="8.68235"><ele>612.0</ele><time>2026-04-04T08:07:22.38Z</time></trkpt><trkpt lat="45.9091317" lon="8.6824083"><ele>612.0</ele><time>2026-04-04T08:07:24.38Z</time></trkpt><trkpt lat="45.9092417" lon="8.6824617"><ele>612.0</ele><time>2026-04-04T08:07:26.381Z</time></trkpt><trkpt lat="45.9093117" lon="8.6824933"><ele>612.0</ele><time>2026-04-04T08:07:27.38Z</time></trkpt><trkpt lat="45.9093833" lon="8.6825267"><ele>612.0</ele><time>2026-04-04T08:07:28.38Z</time></trkpt><trkpt lat="45.9094483" lon="8.682555"><ele>612.0</ele><time>2026-04-04T08:07:29.38Z</time></trkpt><trkpt lat="45.9095067" lon="8.6825933"><ele>612.0</ele><time>2026-04-04T08:07:30.38Z</time></trkpt><trkpt lat="45.9096" lon="8.6826683"><ele>616.4</ele><time>2026-04-04T08:07:32.381Z</time></trkpt><trkpt lat="45.9096933" lon="8.682765"><ele>620.8000000000001</ele><time>2026-04-04T08:07:34.381Z</time></trkpt><trkpt lat="45.9097983" lon="8.6828483"><ele>625.2</ele><time>2026-04-04T08:07:36.38Z</time></trkpt><trkpt lat="45.909865" lon="8.6828867"><ele>629.6</ele><time>2026-04-04T08:07:37.38Z</time></trkpt><trkpt lat="45.9099383" lon="8.6829283"><ele>634.0</ele><time>2026-04-04T08:07:38.381Z</time></trkpt><trkpt lat="45.910005" lon="8.68298"><ele>634.0</ele><time>2026-04-04T08:07:39.38Z</time></trkpt><trkpt lat="45.9100633" lon="8.6830267"><ele>634.0</ele><time>2026-04-04T08:07:40.38Z</time></trkpt><trkpt lat="45.9101517" lon="8.6831267"><ele>634.0</ele><time>2026-04-04T08:07:42.381Z</time></trkpt><trkpt lat="45.9102267" lon="8.6832383"><ele>634.0</ele><time>2026-04-04T08:07:44.381Z</time></trkpt><trkpt lat="45.9102917" lon="8.6833467"><ele>634.0</ele><time>2026-04-04T08:07:46.38Z</time></trkpt><trkpt lat="45.9103533" lon="8.6834767"><ele>639.0</ele><time>2026-04-04T08:07:48.38Z</time></trkpt><trkpt lat="45.9104183" lon="8.6835867"><ele>644.0</ele><time>2026-04-04T08:07:50.38Z</time></trkpt><trkpt lat="45.9104817" lon="8.6836717"><ele>649.0</ele><time>2026-04-04T08:07:52.381Z</time></trkpt><trkpt lat="45.9105533" lon="8.6837283"><ele>654.0</ele><time>2026-04-04T08:07:54.38Z</time></trkpt><trkpt lat="45.9106167" lon="8.6838017"><ele>659.0</ele><time>2026-04-04T08:07:56.381Z</time></trkpt><trkpt lat="45.91067" lon="8.6838817"><ele>664.0</ele><time>2026-04-04T08:07:58.38Z</time></trkpt><trkpt lat="45.9107567" lon="8.6839783"><ele>664.0</ele><time>2026-04-04T08:08:00.381Z</time></trkpt><trkpt lat="45.9108083" lon="8.684035"><ele>664.0</ele><time>2026-04-04T08:08:01.38Z</time></trkpt><trkpt lat="45.9108733" lon="8.6841167"><ele>664.0</ele><time>2026-04-04T08:08:03.38Z</time></trkpt><trkpt lat="45.910945" lon="8.6841667"><ele>664.0</ele><time>2026-04-04T08:08:05.381Z</time></trkpt><trkpt lat="45.9110367" lon="8.6842333"><ele>664.0</ele><time>2026-04-04T08:08:07.38Z</time></trkpt><trkpt lat="45.9110983" lon="8.6842"><ele>664.0</ele><time>2026-04-04T08:08:10.38Z</time></trkpt><trkpt lat="45.91111" lon="8.68409"><ele>670.8000000000001</ele><time>2026-04-04T08:08:14.381Z</time></trkpt><trkpt lat="45.911125" lon="8.683945"><ele>677.6</ele><time>2026-04-04T08:08:47.381Z</time></trkpt><trkpt lat="45.9111417" lon="8.6838067"><ele>684.4</ele><time>2026-04-04T08:08:49.381Z</time></trkpt><trkpt lat="45.9111617" lon="8.6836267"><ele>691.2</ele><time>2026-04-04T08:08:51.381Z</time></trkpt><trkpt lat="45.911195" lon="8.6834767"><ele>698.0</ele><time>2026-04-04T08:08:53.38Z</time></trkpt><trkpt lat="45.9112517" lon="8.6833983"><ele>698.0</ele><time>2026-04-04T08:08:56.38Z</time></trkpt><trkpt lat="45.911335" lon="8.68337"><ele>698.0</ele><time>2026-04-04T08:08:58.38Z</time></trkpt><trkpt lat="45.91143" lon="8.683395"><ele>698.0</ele><time>2026-04-04T08:09:01.38Z</time></trkpt><trkpt lat="45.9115233" lon="8.6834233"><ele>698.0</ele><time>2026-04-04T08:09:03.381Z</time></trkpt><trkpt lat="45.9115883" lon="8.6834433"><ele>698.0</ele><time>2026-04-04T08:09:04.38Z</time></trkpt><trkpt lat="45.9117117" lon="8.6834567"><ele>701.5999999999999</ele><time>2026-04-04T08:09:06.381Z</time></trkpt><trkpt lat="45.9118133" lon="8.6834767"><ele>705.1999999999999</ele><time>2026-04-04T08:09:08.38Z</time></trkpt><trkpt lat="45.9118917" lon="8.6835167"><ele>708.8</ele><time>2026-04-04T08:09:10.38Z</time></trkpt><trkpt lat="45.9119567" lon="8.6835333"><ele>712.4</ele><time>2026-04-04T08:09:12.38Z</time></trkpt><trkpt lat="45.9120633" lon="8.68355"><ele>716.0</ele><time>2026-04-04T08:09:14.381Z</time></trkpt><trkpt lat="45.912165" lon="8.6835517"><ele>716.0</ele><time>2026-04-04T08:09:16.381Z</time></trkpt><trkpt lat="45.9122283" lon="8.6835617"><ele>716.0</ele><time>2026-04-04T08:09:17.381Z</time></trkpt><trkpt lat="45.9122983" lon="8.6835817"><ele>716.0</ele><time>2026-04-04T08:09:18.38Z</time></trkpt><trkpt lat="45.9123717" lon="8.6836083"><ele>716.0</ele><time>2026-04-04T08:09:19.38Z</time></trkpt><trkpt lat="45.9124333" lon="8.6836283"><ele>716.0</ele><time>2026-04-04T08:09:20.38Z</time></trkpt><trkpt lat="45.9125167" lon="8.68363"><ele>716.0</ele><time>2026-04-04T08:09:22.381Z</time></trkpt><trkpt lat="45.9126467" lon="8.6835683"><ele>716.0</ele><time>2026-04-04T08:11:36.381Z</time></trkpt><trkpt lat="45.912555" lon="8.683555"><ele>716.0</ele><time>2026-04-04T08:12:47.38Z</time></trkpt><trkpt lat="45.9126583" lon="8.6836133"><ele>716.0</ele><time>2026-04-04T08:23:37.381Z</time></trkpt><trkpt lat="45.912575" lon="8.6836117"><ele>716.0</ele><time>2026-04-04T08:23:43.38Z</time></trkpt><trkpt lat="45.9125033" lon="8.6836"><ele>716.0</ele><time>2026-04-04T08:23:47.38Z</time></trkpt><trkpt lat="45.9124367" lon="8.683595"><ele>716.0</ele><time>2026-04-04T08:23:50.38Z</time></trkpt><trkpt lat="45.9123567" lon="8.683575"><ele>716.0</ele><time>2026-04-04T08:23:53.381Z</time></trkpt><trkpt lat="45.91227" lon="8.6835467"><ele>716.0</ele><time>2026-04-04T08:23:56.38Z</time></trkpt><trkpt lat="45.91219" lon="8.6835483"><ele>716.0</ele><time>2026-04-04T08:24:00.38Z</time></trkpt><trkpt lat="45.9121133" lon="8.68353"><ele>716.0</ele><time>2026-04-04T08:24:04.38Z</time></trkpt><trkpt lat="45.91205" lon="8.6834967"><ele>716.0</ele><time>2026-04-04T08:24:07.38Z</time></trkpt><trkpt lat="45.9119833" lon="8.6834667"><ele>716.0</ele><time>2026-04-04T08:24:11.38Z</time></trkpt><trkpt lat="45.9119167" lon="8.683425"><ele>716.0</ele><time>2026-04-04T08:24:15.38Z</time></trkpt><trkpt lat="45.9118383" lon="8.6834367"><ele>716.0</ele><time>2026-04-04T08:24:19.381Z</time></trkpt><trkpt lat="45.911765" lon="8.6834417"><ele>716.0</ele><time>2026-04-04T08:24:23.381Z</time></trkpt><trkpt lat="45.911695" lon="8.6834133"><ele>716.0</ele><time>2026-04-04T08:24:27.38Z</time></trkpt><trkpt lat="45.9116217" lon="8.6833783"><ele>716.0</ele><time>2026-04-04T08:24:31.38Z</time></trkpt><trkpt lat="45.9115417" lon="8.68335"><ele>716.0</ele><time>2026-04-04T08:24:35.381Z</time></trkpt><trkpt lat="45.9114767" lon="8.6833267"><ele>713.5714285714287</ele><time>2026-04-04T08:24:39.38Z</time></trkpt><trkpt lat="45.9114" lon="8.6833083"><ele>711.1428571428571</ele><time>2026-04-04T08:24:43.381Z</time></trkpt><trkpt lat="45.911325" lon="8.68332"><ele>708.7142857142858</ele><time>2026-04-04T08:24:47.38Z</time></trkpt><trkpt lat="45.9112467" lon="8.6833433"><ele>706.2857142857143</ele><time>2026-04-04T08:24:51.38Z</time></trkpt><trkpt lat="45.911185" lon="8.6834"><ele>703.8571428571429</ele><time>2026-04-04T08:24:55.38Z</time></trkpt><trkpt lat="45.911165" lon="8.6834933"><ele>701.4285714285714</ele><time>2026-04-04T08:24:58.38Z</time></trkpt><trkpt lat="45.9111533" lon="8.6835867"><ele>699.0</ele><time>2026-04-04T08:25:02.381Z</time></trkpt><trkpt lat="45.911145" lon="8.6836767"><ele>699.0</ele><time>2026-04-04T08:25:05.381Z</time></trkpt><trkpt lat="45.91113" lon="8.6837783"><ele>699.0</ele><time>2026-04-04T08:25:08.381Z</time></trkpt><trkpt lat="45.9111167" lon="8.6838883"><ele>699.0</ele><time>2026-04-04T08:25:11.38Z</time></trkpt><trkpt lat="45.9111217" lon="8.6839883"><ele>699.0</ele><time>2026-04-04T08:25:14.38Z</time></trkpt><trkpt lat="45.9111283" lon="8.68408"><ele>699.0</ele><time>2026-04-04T08:25:17.38Z</time></trkpt><trkpt lat="45.9111117" lon="8.6841783"><ele>699.0</ele><time>2026-04-04T08:25:23.38Z</time></trkpt><trkpt lat="45.91104" lon="8.68417"><ele>699.0</ele><time>2026-04-04T08:25:31.38Z</time></trkpt><trkpt lat="45.91097" lon="8.68414"><ele>699.0</ele><time>2026-04-04T08:25:36.381Z</time></trkpt><trkpt lat="45.9109083" lon="8.6840967"><ele>699.0</ele><time>2026-04-04T08:25:39.38Z</time></trkpt><trkpt lat="45.9108517" lon="8.6840467"><ele>699.0</ele><time>2026-04-04T08:25:42.38Z</time></trkpt><trkpt lat="45.910805" lon="8.683985"><ele>699.0</ele><time>2026-04-04T08:25:45.38Z</time></trkpt><trkpt lat="45.9107517" lon="8.68391"><ele>699.0</ele><time>2026-04-04T08:25:48.38Z</time></trkpt><trkpt lat="45.9106867" lon="8.683855"><ele>699.0</ele><time>2026-04-04T08:25:51.38Z</time></trkpt><trkpt lat="45.9106183" lon="8.683795"><ele>699.0</ele><time>2026-04-04T08:25:54.38Z</time></trkpt><trkpt lat="45.9105517" lon="8.683745"><ele>694.5714285714286</ele><time>2026-04-04T08:25:57.38Z</time></trkpt><trkpt lat="45.9104917" lon="8.683685"><ele>690.1428571428572</ele><time>2026-04-04T08:26:01.381Z</time></trkpt><trkpt lat="45.910445" lon="8.6836083"><ele>685.7142857142858</ele><time>2026-04-04T08:26:04.38Z</time></trkpt><trkpt lat="45.9104017" lon="8.6835283"><ele>681.2857142857142</ele><time>2026-04-04T08:26:06.381Z</time></trkpt><trkpt lat="45.910365" lon="8.6834517"><ele>676.8571428571429</ele><time>2026-04-04T08:26:08.38Z</time></trkpt><trkpt lat="45.9103317" lon="8.6833583"><ele>672.4285714285714</ele><time>2026-04-04T08:26:10.38Z</time></trkpt><trkpt lat="45.9102867" lon="8.6832617"><ele>668.0</ele><time>2026-04-04T08:26:13.38Z</time></trkpt><trkpt lat="45.9102417" lon="8.6831767"><ele>668.0</ele><time>2026-04-04T08:26:16.38Z</time></trkpt><trkpt lat="45.9101967" lon="8.683095"><ele>668.0</ele><time>2026-04-04T08:26:19.38Z</time></trkpt><trkpt lat="45.9101117" lon="8.683025"><ele>668.0</ele><time>2026-04-04T08:26:22.38Z</time></trkpt><trkpt lat="45.9100533" lon="8.6829883"><ele>668.0</ele><time>2026-04-04T08:26:24.38Z</time></trkpt><trkpt lat="45.9099933" lon="8.6829533"><ele>668.0</ele><time>2026-04-04T08:26:26.38Z</time></trkpt><trkpt lat="45.9099317" lon="8.682915"><ele>668.0</ele><time>2026-04-04T08:26:28.38Z</time></trkpt><trkpt lat="45.9098733" lon="8.682875"><ele>668.0</ele><time>2026-04-04T08:26:30.381Z</time></trkpt><trkpt lat="45.9098067" lon="8.6828317"><ele>663.3333333333333</ele><time>2026-04-04T08:26:32.381Z</time></trkpt><trkpt lat="45.90973" lon="8.682765"><ele>658.6666666666666</ele><time>2026-04-04T08:26:35.381Z</time></trkpt><trkpt lat="45.90967" lon="8.6827217"><ele>654.0</ele><time>2026-04-04T08:26:37.38Z</time></trkpt><trkpt lat="45.9095933" lon="8.6826533"><ele>649.3333333333334</ele><time>2026-04-04T08:26:40.38Z</time></trkpt><trkpt lat="45.9095233" lon="8.6826083"><ele>644.6666666666667</ele><time>2026-04-04T08:26:43.38Z</time></trkpt><trkpt lat="45.9094467" lon="8.6825617"><ele>640.0</ele><time>2026-04-04T08:26:46.381Z</time></trkpt><trkpt lat="45.9093717" lon="8.6825267"><ele>640.0</ele><time>2026-04-04T08:26:49.38Z</time></trkpt><trkpt lat="45.9092817" lon="8.68247"><ele>640.0</ele><time>2026-04-04T08:26:52.38Z</time></trkpt><trkpt lat="45.9092033" lon="8.6824083"><ele>640.0</ele><time>2026-04-04T08:26:55.381Z</time></trkpt><trkpt lat="45.9091367" lon="8.6823617"><ele>640.0</ele><time>2026-04-04T08:26:57.381Z</time></trkpt><trkpt lat="45.909075" lon="8.682275"><ele>640.0</ele><time>2026-04-04T08:27:00.381Z</time></trkpt><trkpt lat="45.9090217" lon="8.6821917"><ele>640.0</ele><time>2026-04-04T08:27:02.38Z</time></trkpt><trkpt lat="45.9089483" lon="8.6822333"><ele>635.3333333333334</ele><time>2026-04-04T08:27:06.381Z</time></trkpt><trkpt lat="45.908925" lon="8.682355"><ele>630.6666666666667</ele><time>2026-04-04T08:27:09.38Z</time></trkpt><trkpt lat="45.9089083" lon="8.6824433"><ele>626.0</ele><time>2026-04-04T08:27:11.38Z</time></trkpt><trkpt lat="45.9088883" lon="8.6825767"><ele>621.3333333333334</ele><time>2026-04-04T08:27:14.38Z</time></trkpt><trkpt lat="45.9088733" lon="8.6826883"><ele>616.6666666666666</ele><time>2026-04-04T08:27:17.38Z</time></trkpt><trkpt lat="45.908835" lon="8.6828017"><ele>612.0</ele><time>2026-04-04T08:27:20.38Z</time></trkpt><trkpt lat="45.9088167" lon="8.6829217"><ele>610.6666666666666</ele><time>2026-04-04T08:27:23.38Z</time></trkpt><trkpt lat="45.908805" lon="8.6830133"><ele>609.3333333333334</ele><time>2026-04-04T08:27:25.381Z</time></trkpt><trkpt lat="45.9087783" lon="8.6831333"><ele>608.0</ele><time>2026-04-04T08:27:28.38Z</time></trkpt><trkpt lat="45.9087617" lon="8.68325"><ele>606.6666666666667</ele><time>2026-04-04T08:27:31.38Z</time></trkpt><trkpt lat="45.9087483" lon="8.6833483"><ele>605.3333333333334</ele><time>2026-04-04T08:27:34.381Z</time></trkpt><trkpt lat="45.90874" lon="8.6834383"><ele>604.0</ele><time>2026-04-04T08:27:38.381Z</time></trkpt><trkpt lat="45.9087283" lon="8.68356"><ele>603.4285714285714</ele><time>2026-04-04T08:27:42.381Z</time></trkpt><trkpt lat="45.908685" lon="8.6836633"><ele>602.8571428571429</ele><time>2026-04-04T08:27:45.381Z</time></trkpt><trkpt lat="45.9086317" lon="8.68372"><ele>602.2857142857142</ele><time>2026-04-04T08:27:48.38Z</time></trkpt><trkpt lat="45.9085733" lon="8.6837933"><ele>601.7142857142858</ele><time>2026-04-04T08:27:51.38Z</time></trkpt><trkpt lat="45.9085233" lon="8.683865"><ele>601.1428571428571</ele><time>2026-04-04T08:27:53.38Z</time></trkpt><trkpt lat="45.908485" lon="8.68394"><ele>600.5714285714286</ele><time>2026-04-04T08:27:55.38Z</time></trkpt><trkpt lat="45.908425" lon="8.684005"><ele>600.0</ele><time>2026-04-04T08:27:58.381Z</time></trkpt><trkpt lat="45.9083433" lon="8.6840017"><ele>595.3333333333334</ele><time>2026-04-04T08:28:01.38Z</time></trkpt><trkpt lat="45.9082733" lon="8.6840033"><ele>590.6666666666666</ele><time>2026-04-04T08:28:04.381Z</time></trkpt><trkpt lat="45.908215" lon="8.6840583"><ele>586.0</ele><time>2026-04-04T08:28:07.38Z</time></trkpt><trkpt lat="45.90814" lon="8.6841317"><ele>581.3333333333333</ele><time>2026-04-04T08:28:10.381Z</time></trkpt><trkpt lat="45.9080917" lon="8.6842017"><ele>576.6666666666666</ele><time>2026-04-04T08:28:12.381Z</time></trkpt><trkpt lat="45.9080183" lon="8.6842833"><ele>572.0</ele><time>2026-04-04T08:28:15.381Z</time></trkpt><trkpt lat="45.907965" lon="8.6843433"><ele>572.0</ele><time>2026-04-04T08:28:18.38Z</time></trkpt><trkpt lat="45.9078933" lon="8.6843783"><ele>572.0</ele><time>2026-04-04T08:28:23.381Z</time></trkpt><trkpt lat="45.9078267" lon="8.68436"><ele>572.0</ele><time>2026-04-04T08:28:25.381Z</time></trkpt><trkpt lat="45.9077433" lon="8.68433"><ele>572.0</ele><time>2026-04-04T08:28:27.38Z</time></trkpt><trkpt lat="45.90767" lon="8.6842833"><ele>572.0</ele><time>2026-04-04T08:28:29.38Z</time></trkpt><trkpt lat="45.907595" lon="8.68424"><ele>572.0</ele><time>2026-04-04T08:28:31.38Z</time></trkpt><trkpt lat="45.907525" lon="8.6842233"><ele>568.8333333333333</ele><time>2026-04-04T08:28:33.381Z</time></trkpt><trkpt lat="45.90744" lon="8.6842317"><ele>565.6666666666666</ele><time>2026-04-04T08:28:35.381Z</time></trkpt><trkpt lat="45.9073617" lon="8.6842317"><ele>562.5</ele><time>2026-04-04T08:28:37.381Z</time></trkpt><trkpt lat="45.9072633" lon="8.6842683"><ele>559.3333333333334</ele><time>2026-04-04T08:28:40.381Z</time></trkpt><trkpt lat="45.90719" lon="8.6842933"><ele>556.1666666666667</ele><time>2026-04-04T08:28:42.381Z</time></trkpt><trkpt lat="45.907115" lon="8.6843267"><ele>553.0</ele><time>2026-04-04T08:28:44.38Z</time></trkpt><trkpt lat="45.907035" lon="8.6843567"><ele>553.0</ele><time>2026-04-04T08:28:46.381Z</time></trkpt><trkpt lat="45.9069367" lon="8.6843917"><ele>553.0</ele><time>2026-04-04T08:28:48.38Z</time></trkpt><trkpt lat="45.9068533" lon="8.6844267"><ele>553.0</ele><time>2026-04-04T08:28:50.381Z</time></trkpt><trkpt lat="45.906785" lon="8.6844483"><ele>553.0</ele><time>2026-04-04T08:28:53.38Z</time></trkpt><trkpt lat="45.9067233" lon="8.68449"><ele>553.0</ele><time>2026-04-04T08:28:55.38Z</time></trkpt><trkpt lat="45.9066867" lon="8.6845683"><ele>553.0</ele><time>2026-04-04T08:28:58.381Z</time></trkpt><trkpt lat="45.9065783" lon="8.6847433"><ele>549.8571428571429</ele><time>2026-04-04T08:29:25.38Z</time></trkpt><trkpt lat="45.9065767" lon="8.6848417"><ele>546.7142857142858</ele><time>2026-04-04T08:29:27.38Z</time></trkpt><trkpt lat="45.90659" lon="8.6849633"><ele>543.5714285714286</ele><time>2026-04-04T08:29:29.38Z</time></trkpt><trkpt lat="45.9065833" lon="8.6850617"><ele>540.4285714285714</ele><time>2026-04-04T08:29:31.38Z</time></trkpt><trkpt lat="45.906535" lon="8.6851233"><ele>537.2857142857143</ele><time>2026-04-04T08:29:34.381Z</time></trkpt><trkpt lat="45.9064767" lon="8.6851583"><ele>534.1428571428571</ele><time>2026-04-04T08:29:36.381Z</time></trkpt><trkpt lat="45.9063883" lon="8.6851867"><ele>531.0</ele><time>2026-04-04T08:29:38.381Z</time></trkpt><trkpt lat="45.9062683" lon="8.685245"><ele>529.6666666666666</ele><time>2026-04-04T08:29:40.38Z</time></trkpt><trkpt lat="45.9061933" lon="8.68528"><ele>528.3333333333334</ele><time>2026-04-04T08:29:41.38Z</time></trkpt><trkpt lat="45.90611" lon="8.6853167"><ele>527.0</ele><time>2026-04-04T08:29:42.381Z</time></trkpt><trkpt lat="45.9060367" lon="8.6853483"><ele>525.6666666666667</ele><time>2026-04-04T08:29:43.38Z</time></trkpt><trkpt lat="45.905975" lon="8.68539"><ele>524.3333333333334</ele><time>2026-04-04T08:29:44.38Z</time></trkpt><trkpt lat="45.90592" lon="8.68544"><ele>523.0</ele><time>2026-04-04T08:29:45.38Z</time></trkpt><trkpt lat="45.9058583" lon="8.6855233"><ele>521.6666666666667</ele><time>2026-04-04T08:29:46.381Z</time></trkpt><trkpt lat="45.905815" lon="8.685615"><ele>520.3333333333334</ele><time>2026-04-04T08:29:47.381Z</time></trkpt><trkpt lat="45.90577" lon="8.6857217"><ele>519.0</ele><time>2026-04-04T08:29:48.38Z</time></trkpt><trkpt lat="45.9057317" lon="8.685815"><ele>517.6666666666666</ele><time>2026-04-04T08:29:49.381Z</time></trkpt><trkpt lat="45.9056917" lon="8.6858983"><ele>516.3333333333333</ele><time>2026-04-04T08:29:50.38Z</time></trkpt><trkpt lat="45.9056133" lon="8.6859983"><ele>515.0</ele><time>2026-04-04T08:29:52.381Z</time></trkpt><trkpt lat="45.9055567" lon="8.6860383"><ele>515.0</ele><time>2026-04-04T08:29:53.381Z</time></trkpt><trkpt lat="45.9054833" lon="8.6860817"><ele>515.0</ele><time>2026-04-04T08:29:54.38Z</time></trkpt><trkpt lat="45.9054083" lon="8.686125"><ele>515.0</ele><time>2026-04-04T08:29:55.381Z</time></trkpt><trkpt lat="45.905335" lon="8.68616"><ele>515.0</ele><time>2026-04-04T08:29:56.381Z</time></trkpt><trkpt lat="45.905265" lon="8.686195"><ele>515.0</ele><time>2026-04-04T08:29:57.381Z</time></trkpt><trkpt lat="45.9052067" lon="8.6862317"><ele>515.0</ele><time>2026-04-04T08:29:58.38Z</time></trkpt><trkpt lat="45.905115" lon="8.6863117"><ele>512.5</ele><time>2026-04-04T08:30:00.381Z</time></trkpt><trkpt lat="45.9050467" lon="8.6863933"><ele>510.0</ele><time>2026-04-04T08:30:02.38Z</time></trkpt><trkpt lat="45.9049917" lon="8.6865117"><ele>507.5</ele><time>2026-04-04T08:30:04.38Z</time></trkpt><trkpt lat="45.904905" lon="8.6866017"><ele>505.0</ele><time>2026-04-04T08:30:06.381Z</time></trkpt><trkpt lat="45.90484" lon="8.6866417"><ele>502.49999999999994</ele><time>2026-04-04T08:30:07.38Z</time></trkpt><trkpt lat="45.904775" lon="8.6866917"><ele>500.0</ele><time>2026-04-04T08:30:08.381Z</time></trkpt><trkpt lat="45.9047117" lon="8.686755"><ele>500.0</ele><time>2026-04-04T08:30:09.38Z</time></trkpt><trkpt lat="45.90466" lon="8.6868267"><ele>500.0</ele><time>2026-04-04T08:30:10.381Z</time></trkpt><trkpt lat="45.9046117" lon="8.686905"><ele>500.0</ele><time>2026-04-04T08:30:11.38Z</time></trkpt><trkpt lat="45.9045433" lon="8.6870517"><ele>500.0</ele><time>2026-04-04T08:30:13.38Z</time></trkpt><trkpt lat="45.9044933" lon="8.6871933"><ele>500.0</ele><time>2026-04-04T08:30:15.381Z</time></trkpt><trkpt lat="45.9044483" lon="8.6872917"><ele>497.99999999999994</ele><time>2026-04-04T08:30:17.381Z</time></trkpt><trkpt lat="45.9043933" lon="8.6873833"><ele>496.0</ele><time>2026-04-04T08:30:19.38Z</time></trkpt><trkpt lat="45.9043383" lon="8.68746"><ele>494.0</ele><time>2026-04-04T08:30:21.38Z</time></trkpt><trkpt lat="45.9042817" lon="8.6875417"><ele>492.0</ele><time>2026-04-04T08:30:23.381Z</time></trkpt><trkpt lat="45.9042283" lon="8.6876383"><ele>489.99999999999994</ele><time>2026-04-04T08:30:25.381Z</time></trkpt><trkpt lat="45.904175" lon="8.687725"><ele>488.0</ele><time>2026-04-04T08:30:27.381Z</time></trkpt><trkpt lat="45.9040933" lon="8.6877783"><ele>485.16666666666663</ele><time>2026-04-04T08:30:29.38Z</time></trkpt><trkpt lat="45.9040067" lon="8.6878417"><ele>482.3333333333333</ele><time>2026-04-04T08:30:31.38Z</time></trkpt><trkpt lat="45.9039117" lon="8.6879533"><ele>479.5</ele><time>2026-04-04T08:30:33.38Z</time></trkpt><trkpt lat="45.9038633" lon="8.6880417"><ele>476.66666666666663</ele><time>2026-04-04T08:30:35.381Z</time></trkpt><trkpt lat="45.9038367" lon="8.6881267"><ele>473.8333333333333</ele><time>2026-04-04T08:30:37.38Z</time></trkpt><trkpt lat="45.9038033" lon="8.688225"><ele>471.0</ele><time>2026-04-04T08:30:39.381Z</time></trkpt><trkpt lat="45.9037633" lon="8.68832"><ele>471.0</ele><time>2026-04-04T08:30:41.381Z</time></trkpt><trkpt lat="45.903705" lon="8.6884133"><ele>471.0</ele><time>2026-04-04T08:30:44.381Z</time></trkpt><trkpt lat="45.9036567" lon="8.6885033"><ele>471.0</ele><time>2026-04-04T08:30:46.38Z</time></trkpt><trkpt lat="45.90362" lon="8.6885833"><ele>471.0</ele><time>2026-04-04T08:30:48.38Z</time></trkpt><trkpt lat="45.9035633" lon="8.6886967"><ele>471.0</ele><time>2026-04-04T08:30:51.38Z</time></trkpt><trkpt lat="45.903525" lon="8.688785"><ele>471.0</ele><time>2026-04-04T08:30:53.38Z</time></trkpt><trkpt lat="45.9034733" lon="8.6888883"><ele>467.3333333333333</ele><time>2026-04-04T08:30:56.38Z</time></trkpt><trkpt lat="45.90343" lon="8.6889917"><ele>463.66666666666663</ele><time>2026-04-04T08:30:59.38Z</time></trkpt><trkpt lat="45.9033933" lon="8.6890833"><ele>460.0</ele><time>2026-04-04T08:31:02.38Z</time></trkpt><trkpt lat="45.9033633" lon="8.6891983"><ele>456.3333333333333</ele><time>2026-04-04T08:31:05.38Z</time></trkpt><trkpt lat="45.9033267" lon="8.6893"><ele>452.66666666666663</ele><time>2026-04-04T08:31:07.381Z</time></trkpt><trkpt lat="45.9032733" lon="8.6894117"><ele>449.0</ele><time>2026-04-04T08:31:09.38Z</time></trkpt><trkpt lat="45.9032283" lon="8.6895167"><ele>446.49999999999994</ele><time>2026-04-04T08:31:11.38Z</time></trkpt><trkpt lat="45.9032183" lon="8.6896483"><ele>444.0</ele><time>2026-04-04T08:31:13.381Z</time></trkpt><trkpt lat="45.9032033" lon="8.6897617"><ele>441.5</ele><time>2026-04-04T08:31:15.381Z</time></trkpt><trkpt lat="45.9031333" lon="8.68986"><ele>439.0</ele><time>2026-04-04T08:31:18.38Z</time></trkpt><trkpt lat="45.9030533" lon="8.6899083"><ele>436.49999999999994</ele><time>2026-04-04T08:31:21.38Z</time></trkpt><trkpt lat="45.9029883" lon="8.6899383"><ele>434.0</ele><time>2026-04-04T08:31:24.38Z</time></trkpt><trkpt lat="45.9029033" lon="8.6899"><ele>433.99999999999994</ele><time>2026-04-04T08:31:27.381Z</time></trkpt><trkpt lat="45.9028367" lon="8.6898467"><ele>434.0</ele><time>2026-04-04T08:31:29.381Z</time></trkpt><trkpt lat="45.90276" lon="8.6898033"><ele>434.0</ele><time>2026-04-04T08:31:32.38Z</time></trkpt><trkpt lat="45.9026733" lon="8.6897883"><ele>434.0</ele><time>2026-04-04T08:31:35.38Z</time></trkpt><trkpt lat="45.9026017" lon="8.6897683"><ele>433.99999999999994</ele><time>2026-04-04T08:31:38.38Z</time></trkpt><trkpt lat="45.9025133" lon="8.68973"><ele>434.0</ele><time>2026-04-04T08:31:41.38Z</time></trkpt><trkpt lat="45.9024517" lon="8.6896833"><ele>431.99999999999994</ele><time>2026-04-04T08:31:43.381Z</time></trkpt><trkpt lat="45.9023983" lon="8.6895817"><ele>430.0</ele><time>2026-04-04T08:31:46.381Z</time></trkpt><trkpt lat="45.9023567" lon="8.6894733"><ele>428.0</ele><time>2026-04-04T08:31:49.381Z</time></trkpt><trkpt lat="45.9023133" lon="8.6893917"><ele>426.0</ele><time>2026-04-04T08:31:51.381Z</time></trkpt><trkpt lat="45.9022633" lon="8.6893167"><ele>423.99999999999994</ele><time>2026-04-04T08:31:53.38Z</time></trkpt><trkpt lat="45.90219" lon="8.6892567"><ele>422.0</ele><time>2026-04-04T08:31:55.381Z</time></trkpt><trkpt lat="45.90211" lon="8.6892383"><ele>422.0</ele><time>2026-04-04T08:31:57.381Z</time></trkpt><trkpt lat="45.9020233" lon="8.6893083"><ele>422.0</ele><time>2026-04-04T08:32:00.381Z</time></trkpt><trkpt lat="45.90197" lon="8.6894317"><ele>422.0</ele><time>2026-04-04T08:32:02.381Z</time></trkpt><trkpt lat="45.90192" lon="8.68957"><ele>422.0</ele><time>2026-04-04T08:32:04.381Z</time></trkpt><trkpt lat="45.9018717" lon="8.6896817"><ele>422.0</ele><time>2026-04-04T08:32:06.38Z</time></trkpt><trkpt lat="45.9018217" lon="8.68976"><ele>421.6</ele><time>2026-04-04T08:32:08.38Z</time></trkpt><trkpt lat="45.9017417" lon="8.6897917"><ele>421.20000000000005</ele><time>2026-04-04T08:32:11.381Z</time></trkpt><trkpt lat="45.9016967" lon="8.6898767"><ele>420.8</ele><time>2026-04-04T08:32:14.38Z</time></trkpt><trkpt lat="45.9017167" lon="8.689995"><ele>420.4</ele><time>2026-04-04T08:32:16.38Z</time></trkpt><trkpt lat="45.90176" lon="8.690145"><ele>420.0</ele><time>2026-04-04T08:32:18.38Z</time></trkpt><trkpt lat="45.9018183" lon="8.6902583"><ele>417.0</ele><time>2026-04-04T08:32:20.38Z</time></trkpt><trkpt lat="45.901885" lon="8.6903583"><ele>414.0</ele><time>2026-04-04T08:32:22.381Z</time></trkpt><trkpt lat="45.90195" lon="8.6904533"><ele>411.0</ele><time>2026-04-04T08:32:24.381Z</time></trkpt><trkpt lat="45.9020183" lon="8.6905267"><ele>408.0</ele><time>2026-04-04T08:32:26.38Z</time></trkpt><trkpt lat="45.9021017" lon="8.6905783"><ele>405.0</ele><time>2026-04-04T08:32:28.38Z</time></trkpt><trkpt lat="45.902205" lon="8.6906283"><ele>405.0</ele><time>2026-04-04T08:32:30.38Z</time></trkpt><trkpt lat="45.9022967" lon="8.690675"><ele>405.0</ele><time>2026-04-04T08:32:32.381Z</time></trkpt><trkpt lat="45.9023867" lon="8.6907133"><ele>405.0</ele><time>2026-04-04T08:32:34.38Z</time></trkpt><trkpt lat="45.90248" lon="8.69075"><ele>405.0</ele><time>2026-04-04T08:32:36.38Z</time></trkpt><trkpt lat="45.90259" lon="8.6907783"><ele>405.0</ele><time>2026-04-04T08:32:38.38Z</time></trkpt><trkpt lat="45.9026933" lon="8.6907533"><ele>406.8333333333333</ele><time>2026-04-04T08:32:40.381Z</time></trkpt><trkpt lat="45.9028167" lon="8.6907467"><ele>408.66666666666663</ele><time>2026-04-04T08:32:42.381Z</time></trkpt><trkpt lat="45.90288" lon="8.690755"><ele>410.5</ele><time>2026-04-04T08:32:43.381Z</time></trkpt><trkpt lat="45.9029533" lon="8.6907583"><ele>412.3333333333333</ele><time>2026-04-04T08:32:44.381Z</time></trkpt><trkpt lat="45.9030217" lon="8.6907683"><ele>414.16666666666663</ele><time>2026-04-04T08:32:45.38Z</time></trkpt><trkpt lat="45.903085" lon="8.690795"><ele>416.0</ele><time>2026-04-04T08:32:46.381Z</time></trkpt><trkpt lat="45.9031733" lon="8.6909117"><ele>416.0</ele><time>2026-04-04T08:32:48.38Z</time></trkpt><trkpt lat="45.9032033" lon="8.6909933"><ele>416.0</ele><time>2026-04-04T08:32:49.381Z</time></trkpt><trkpt lat="45.9032083" lon="8.6910883"><ele>416.0</ele><time>2026-04-04T08:32:50.381Z</time></trkpt><trkpt lat="45.9031983" lon="8.69118"><ele>416.0</ele><time>2026-04-04T08:32:51.38Z</time></trkpt><trkpt lat="45.9031683" lon="8.6912667"><ele>416.0</ele><time>2026-04-04T08:32:52.381Z</time></trkpt><trkpt lat="45.9031217" lon="8.6913383"><ele>416.0</ele><time>2026-04-04T08:32:53.38Z</time></trkpt><trkpt lat="45.90308" lon="8.69141"><ele>416.0</ele><time>2026-04-04T08:32:54.38Z</time></trkpt><trkpt lat="45.9030483" lon="8.6915033"><ele>416.20000000000005</ele><time>2026-04-04T08:32:55.381Z</time></trkpt><trkpt lat="45.903045" lon="8.6916717"><ele>416.40000000000003</ele><time>2026-04-04T08:32:57.38Z</time></trkpt><trkpt lat="45.903075" lon="8.691815"><ele>416.6</ele><time>2026-04-04T08:32:59.381Z</time></trkpt><trkpt lat="45.903085" lon="8.6919167"><ele>416.8</ele><time>2026-04-04T08:33:01.381Z</time></trkpt><trkpt lat="45.90302" lon="8.6919883"><ele>417.0</ele><time>2026-04-04T08:33:03.381Z</time></trkpt><trkpt lat="45.9029183" lon="8.6920633"><ele>417.0</ele><time>2026-04-04T08:33:05.381Z</time></trkpt><trkpt lat="45.9028183" lon="8.692165"><ele>417.0</ele><time>2026-04-04T08:33:07.38Z</time></trkpt><trkpt lat="45.902705" lon="8.6922533"><ele>417.0</ele><time>2026-04-04T08:33:09.38Z</time></trkpt><trkpt lat="45.9026467" lon="8.6922883"><ele>417.0</ele><time>2026-04-04T08:33:10.38Z</time></trkpt><trkpt lat="45.9025833" lon="8.6923333"><ele>417.0</ele><time>2026-04-04T08:33:11.381Z</time></trkpt><trkpt lat="45.9025233" lon="8.6923833"><ele>415.14285714285717</ele><time>2026-04-04T08:33:12.38Z</time></trkpt><trkpt lat="45.9024633" lon="8.6924367"><ele>413.2857142857143</ele><time>2026-04-04T08:33:13.38Z</time></trkpt><trkpt lat="45.902405" lon="8.692495"><ele>411.42857142857144</ele><time>2026-04-04T08:33:14.38Z</time></trkpt><trkpt lat="45.9023467" lon="8.6925517"><ele>409.57142857142856</ele><time>2026-04-04T08:33:15.381Z</time></trkpt><trkpt lat="45.90229" lon="8.6926117"><ele>407.71428571428567</ele><time>2026-04-04T08:33:16.38Z</time></trkpt><trkpt lat="45.9022383" lon="8.6926733"><ele>405.85714285714283</ele><time>2026-04-04T08:33:17.38Z</time></trkpt><trkpt lat="45.9021883" lon="8.692735"><ele>404.0</ele><time>2026-04-04T08:33:18.38Z</time></trkpt><trkpt lat="45.90213" lon="8.6927783"><ele>403.2857142857143</ele><time>2026-04-04T08:33:19.38Z</time></trkpt><trkpt lat="45.9020633" lon="8.6927933"><ele>402.57142857142856</ele><time>2026-04-04T08:33:20.38Z</time></trkpt><trkpt lat="45.9019933" lon="8.692795"><ele>401.8571428571429</ele><time>2026-04-04T08:33:21.381Z</time></trkpt><trkpt lat="45.9019217" lon="8.6927883"><ele>401.1428571428571</ele><time>2026-04-04T08:33:22.381Z</time></trkpt><trkpt lat="45.90185" lon="8.6927867"><ele>400.42857142857144</ele><time>2026-04-04T08:33:23.38Z</time></trkpt><trkpt lat="45.9017817" lon="8.69277"><ele>399.7142857142857</ele><time>2026-04-04T08:33:24.38Z</time></trkpt><trkpt lat="45.9017217" lon="8.69274"><ele>399.0</ele><time>2026-04-04T08:33:25.381Z</time></trkpt><trkpt lat="45.9016617" lon="8.69271"><ele>397.0</ele><time>2026-04-04T08:33:26.381Z</time></trkpt><trkpt lat="45.9015367" lon="8.692685"><ele>395.0</ele><time>2026-04-04T08:33:28.381Z</time></trkpt><trkpt lat="45.9014633" lon="8.6927083"><ele>393.0</ele><time>2026-04-04T08:33:29.38Z</time></trkpt><trkpt lat="45.901395" lon="8.6927417"><ele>391.0</ele><time>2026-04-04T08:33:30.38Z</time></trkpt><trkpt lat="45.9012767" lon="8.6927917"><ele>389.0</ele><time>2026-04-04T08:33:32.38Z</time></trkpt><trkpt lat="45.90116" lon="8.69282"><ele>389.0</ele><time>2026-04-04T08:33:34.381Z</time></trkpt><trkpt lat="45.90107" lon="8.6927967"><ele>389.0</ele><time>2026-04-04T08:33:36.38Z</time></trkpt><trkpt lat="45.900995" lon="8.6927033"><ele>389.0</ele><time>2026-04-04T08:33:38.38Z</time></trkpt><trkpt lat="45.9009117" lon="8.6926367"><ele>389.0</ele><time>2026-04-04T08:33:40.38Z</time></trkpt><trkpt lat="45.9008" lon="8.6926117"><ele>389.0</ele><time>2026-04-04T08:33:42.381Z</time></trkpt><trkpt lat="45.9006817" lon="8.6926067"><ele>387.2</ele><time>2026-04-04T08:33:44.38Z</time></trkpt><trkpt lat="45.900575" lon="8.6926167"><ele>385.4</ele><time>2026-04-04T08:33:46.381Z</time></trkpt><trkpt lat="45.9004667" lon="8.692635"><ele>383.6</ele><time>2026-04-04T08:33:48.38Z</time></trkpt><trkpt lat="45.90035" lon="8.6926517"><ele>381.8</ele><time>2026-04-04T08:33:50.381Z</time></trkpt><trkpt lat="45.9002383" lon="8.6926467"><ele>380.0</ele><time>2026-04-04T08:33:52.38Z</time></trkpt><trkpt lat="45.900165" lon="8.69262"><ele>380.0</ele><time>2026-04-04T08:33:54.38Z</time></trkpt><trkpt lat="45.9000917" lon="8.6926317"><ele>380.0</ele><time>2026-04-04T08:33:57.38Z</time></trkpt><trkpt lat="45.900075" lon="8.6927233"><ele>380.0</ele><time>2026-04-04T08:33:59.38Z</time></trkpt><trkpt lat="45.90009" lon="8.6928433"><ele>380.0</ele><time>2026-04-04T08:34:01.38Z</time></trkpt><trkpt lat="45.9001083" lon="8.6929767"><ele>380.0</ele><time>2026-04-04T08:34:03.38Z</time></trkpt><trkpt lat="45.9001167" lon="8.69311"><ele>380.0</ele><time>2026-04-04T08:34:05.381Z</time></trkpt><trkpt lat="45.90014" lon="8.6932217"><ele>379.1666666666667</ele><time>2026-04-04T08:34:07.38Z</time></trkpt><trkpt lat="45.9001583" lon="8.6933117"><ele>378.33333333333337</ele><time>2026-04-04T08:34:09.38Z</time></trkpt><trkpt lat="45.9002167" lon="8.6933817"><ele>377.5</ele><time>2026-04-04T08:34:20.38Z</time></trkpt><trkpt lat="45.9001717" lon="8.693245"><ele>376.6666666666667</ele><time>2026-04-04T08:34:23.38Z</time></trkpt><trkpt lat="45.9001483" lon="8.693105"><ele>375.8333333333333</ele><time>2026-04-04T08:34:25.38Z</time></trkpt><trkpt lat="45.90013" lon="8.6929783"><ele>375.0</ele><time>2026-04-04T08:34:27.381Z</time></trkpt><trkpt lat="45.9001033" lon="8.69288"><ele>375.0</ele><time>2026-04-04T08:34:29.38Z</time></trkpt><trkpt lat="45.900085" lon="8.6927917"><ele>375.0</ele><time>2026-04-04T08:34:31.381Z</time></trkpt><trkpt lat="45.9000267" lon="8.6927417"><ele>375.0</ele><time>2026-04-04T08:34:33.381Z</time></trkpt><trkpt lat="45.8999467" lon="8.6927117"><ele>375.0</ele><time>2026-04-04T08:34:35.381Z</time></trkpt><trkpt lat="45.899865" lon="8.6927067"><ele>375.0</ele><time>2026-04-04T08:34:37.381Z</time></trkpt><trkpt lat="45.8997917" lon="8.6926983"><ele>375.0</ele><time>2026-04-04T08:34:39.38Z</time></trkpt><trkpt lat="45.8997033" lon="8.69267"><ele>372.8333333333333</ele><time>2026-04-04T08:34:42.381Z</time></trkpt><trkpt lat="45.8996283" lon="8.6926367"><ele>370.6666666666667</ele><time>2026-04-04T08:34:44.38Z</time></trkpt><trkpt lat="45.8995417" lon="8.6925933"><ele>368.5</ele><time>2026-04-04T08:34:46.38Z</time></trkpt><trkpt lat="45.8994517" lon="8.6925633"><ele>366.33333333333337</ele><time>2026-04-04T08:34:48.38Z</time></trkpt><trkpt lat="45.8993717" lon="8.6925567"><ele>364.1666666666667</ele><time>2026-04-04T08:34:50.38Z</time></trkpt><trkpt lat="45.8992933" lon="8.6925517"><ele>362.0</ele><time>2026-04-04T08:34:52.38Z</time></trkpt><trkpt lat="45.8992283" lon="8.6925467"><ele>360.5</ele><time>2026-04-04T08:34:54.38Z</time></trkpt><trkpt lat="45.899135" lon="8.6925417"><ele>359.0</ele><time>2026-04-04T08:34:56.381Z</time></trkpt><trkpt lat="45.8990433" lon="8.6925433"><ele>357.5</ele><time>2026-04-04T08:34:58.381Z</time></trkpt><trkpt lat="45.89897" lon="8.69254"><ele>356.0</ele><time>2026-04-04T08:35:00.381Z</time></trkpt><trkpt lat="45.89891" lon="8.6924717"><ele>354.5</ele><time>2026-04-04T08:35:03.38Z</time></trkpt><trkpt lat="45.8989083" lon="8.6923617"><ele>353.0</ele><time>2026-04-04T08:35:05.381Z</time></trkpt><trkpt lat="45.898895" lon="8.6922567"><ele>353.0</ele><time>2026-04-04T08:35:07.381Z</time></trkpt><trkpt lat="45.8988483" lon="8.6921833"><ele>353.0</ele><time>2026-04-04T08:35:09.38Z</time></trkpt><trkpt lat="45.8987967" lon="8.69213"><ele>353.0</ele><time>2026-04-04T08:35:10.381Z</time></trkpt><trkpt lat="45.8987383" lon="8.6920617"><ele>353.0</ele><time>2026-04-04T08:35:11.381Z</time></trkpt><trkpt lat="45.8986767" lon="8.6919817"><ele>353.0</ele><time>2026-04-04T08:35:12.38Z</time></trkpt><trkpt lat="45.8986267" lon="8.6919167"><ele>353.0</ele><time>2026-04-04T08:35:13.381Z</time></trkpt><trkpt lat="45.8985733" lon="8.6918483"><ele>353.0</ele><time>2026-04-04T08:35:14.381Z</time></trkpt><trkpt lat="45.8984767" lon="8.6917617"><ele>351.33333333333337</ele><time>2026-04-04T08:35:16.38Z</time></trkpt><trkpt lat="45.89837" lon="8.69174"><ele>349.6666666666667</ele><time>2026-04-04T08:35:18.381Z</time></trkpt><trkpt lat="45.8983083" lon="8.6918083"><ele>348.0</ele><time>2026-04-04T08:35:20.381Z</time></trkpt><trkpt lat="45.8982733" lon="8.6919033"><ele>346.3333333333333</ele><time>2026-04-04T08:35:22.38Z</time></trkpt><trkpt lat="45.8982517" lon="8.692"><ele>344.66666666666663</ele><time>2026-04-04T08:35:24.381Z</time></trkpt><trkpt lat="45.8982367" lon="8.6921383"><ele>343.0</ele><time>2026-04-04T08:35:26.38Z</time></trkpt><trkpt lat="45.8982233" lon="8.69228"><ele>343.0</ele><time>2026-04-04T08:35:28.381Z</time></trkpt><trkpt lat="45.898205" lon="8.6923817"><ele>343.0</ele><time>2026-04-04T08:35:30.38Z</time></trkpt><trkpt lat="45.8981333" lon="8.692435"><ele>343.0</ele><time>2026-04-04T08:35:33.38Z</time></trkpt><trkpt lat="45.8980667" lon="8.6924683"><ele>343.0</ele><time>2026-04-04T08:35:35.38Z</time></trkpt><trkpt lat="45.8979933" lon="8.6924833"><ele>343.0</ele><time>2026-04-04T08:35:37.38Z</time></trkpt><trkpt lat="45.897915" lon="8.6924767"><ele>343.0</ele><time>2026-04-04T08:35:39.381Z</time></trkpt><trkpt lat="45.8978183" lon="8.6924717"><ele>343.0</ele><time>2026-04-04T08:35:41.38Z</time></trkpt><trkpt lat="45.8977183" lon="8.69245"><ele>343.0</ele><time>2026-04-04T08:35:43.38Z</time></trkpt><trkpt lat="45.897635" lon="8.692445"><ele>343.0</ele><time>2026-04-04T08:35:45.38Z</time></trkpt><trkpt lat="45.8975483" lon="8.6925333"><ele>343.0</ele><time>2026-04-04T08:35:48.381Z</time></trkpt><trkpt lat="45.897495" lon="8.6926817"><ele>343.0</ele><time>2026-04-04T08:35:50.38Z</time></trkpt><trkpt lat="45.8974567" lon="8.69279"><ele>340.8333333333333</ele><time>2026-04-04T08:35:51.381Z</time></trkpt><trkpt lat="45.8974233" lon="8.6928717"><ele>338.66666666666663</ele><time>2026-04-04T08:35:52.38Z</time></trkpt><trkpt lat="45.8973883" lon="8.692955"><ele>336.5</ele><time>2026-04-04T08:35:53.38Z</time></trkpt><trkpt lat="45.8973467" lon="8.6930517"><ele>334.3333333333333</ele><time>2026-04-04T08:35:54.381Z</time></trkpt><trkpt lat="45.8973" lon="8.6931717"><ele>332.1666666666667</ele><time>2026-04-04T08:35:55.381Z</time></trkpt><trkpt lat="45.897255" lon="8.6932867"><ele>330.0</ele><time>2026-04-04T08:35:56.38Z</time></trkpt><trkpt lat="45.897215" lon="8.6933967"><ele>330.0</ele><time>2026-04-04T08:35:57.38Z</time></trkpt><trkpt lat="45.8971867" lon="8.69349"><ele>330.0</ele><time>2026-04-04T08:35:58.381Z</time></trkpt><trkpt lat="45.89713" lon="8.693585"><ele>330.0</ele><time>2026-04-04T08:36:00.381Z</time></trkpt><trkpt lat="45.8970533" lon="8.6935917"><ele>330.0</ele><time>2026-04-04T08:36:02.38Z</time></trkpt><trkpt lat="45.89699" lon="8.69357"><ele>330.0</ele><time>2026-04-04T08:36:04.38Z</time></trkpt><trkpt lat="45.8969217" lon="8.6935733"><ele>330.0</ele><time>2026-04-04T08:36:06.38Z</time></trkpt><trkpt lat="45.8968383" lon="8.693575"><ele>330.0</ele><time>2026-04-04T08:36:09.38Z</time></trkpt><trkpt lat="45.8967633" lon="8.6935833"><ele>330.0</ele><time>2026-04-04T08:36:11.38Z</time></trkpt><trkpt lat="45.8966833" lon="8.69358"><ele>330.0</ele><time>2026-04-04T08:36:14.381Z</time></trkpt><trkpt lat="45.8966567" lon="8.6934883"><ele>330.0</ele><time>2026-04-04T08:36:43.381Z</time></trkpt><trkpt lat="45.8966467" lon="8.6935933"><ele>330.0</ele><time>2026-04-04T08:37:04.38Z</time></trkpt><trkpt lat="45.8967283" lon="8.6935867"><ele>330.0</ele><time>2026-04-04T08:37:07.38Z</time></trkpt><trkpt lat="45.8968267" lon="8.6935817"><ele>330.0</ele><time>2026-04-04T08:37:09.381Z</time></trkpt><trkpt lat="45.896905" lon="8.6935833"><ele>330.0</ele><time>2026-04-04T08:37:11.381Z</time></trkpt><trkpt lat="45.896995" lon="8.6936217"><ele>330.0</ele><time>2026-04-04T08:37:13.381Z</time></trkpt><trkpt lat="45.8970233" lon="8.6937533"><ele>330.0</ele><time>2026-04-04T08:37:16.381Z</time></trkpt><trkpt lat="45.8970417" lon="8.6939017"><ele>330.0</ele><time>2026-04-04T08:37:18.381Z</time></trkpt><trkpt lat="45.8970467" lon="8.6940467"><ele>329.6666666666667</ele><time>2026-04-04T08:37:20.381Z</time></trkpt><trkpt lat="45.897065" lon="8.694185"><ele>329.3333333333333</ele><time>2026-04-04T08:37:22.381Z</time></trkpt><trkpt lat="45.8970933" lon="8.694315"><ele>329.0</ele><time>2026-04-04T08:37:24.381Z</time></trkpt><trkpt lat="45.89712" lon="8.69441"><ele>328.66666666666663</ele><time>2026-04-04T08:37:26.381Z</time></trkpt><trkpt lat="45.8971467" lon="8.6945117"><ele>328.3333333333333</ele><time>2026-04-04T08:37:28.38Z</time></trkpt><trkpt lat="45.8971683" lon="8.694615"><ele>328.0</ele><time>2026-04-04T08:37:30.38Z</time></trkpt><trkpt lat="45.8971867" lon="8.6947083"><ele>327.66666666666663</ele><time>2026-04-04T08:37:32.38Z</time></trkpt><trkpt lat="45.897205" lon="8.694825"><ele>327.3333333333333</ele><time>2026-04-04T08:37:35.381Z</time></trkpt><trkpt lat="45.897225" lon="8.694935"><ele>327.0</ele><time>2026-04-04T08:37:38.381Z</time></trkpt><trkpt lat="45.897245" lon="8.6950267"><ele>326.6666666666667</ele><time>2026-04-04T08:37:41.381Z</time></trkpt><trkpt lat="45.8972017" lon="8.6951367"><ele>326.33333333333337</ele><time>2026-04-04T08:37:44.38Z</time></trkpt><trkpt lat="45.897145" lon="8.6952067"><ele>326.0</ele><time>2026-04-04T08:37:46.381Z</time></trkpt><trkpt lat="45.89709" lon="8.6952783"><ele>325.6666666666667</ele><time>2026-04-04T08:37:48.38Z</time></trkpt><trkpt lat="45.8970367" lon="8.69538"><ele>325.33333333333337</ele><time>2026-04-04T08:37:50.38Z</time></trkpt><trkpt lat="45.8969917" lon="8.6954517"><ele>325.0</ele><time>2026-04-04T08:37:52.38Z</time></trkpt><trkpt lat="45.8969017" lon="8.6954283"><ele>324.6666666666667</ele><time>2026-04-04T08:37:55.381Z</time></trkpt><trkpt lat="45.8968333" lon="8.6954317"><ele>324.3333333333333</ele><time>2026-04-04T08:37:57.38Z</time></trkpt><trkpt lat="45.896765" lon="8.6955133"><ele>324.0</ele><time>2026-04-04T08:37:59.38Z</time></trkpt><trkpt lat="45.8967217" lon="8.6956183"><ele>322.3333333333333</ele><time>2026-04-04T08:38:00.38Z</time></trkpt><trkpt lat="45.896655" lon="8.69576"><ele>320.6666666666667</ele><time>2026-04-04T08:38:01.381Z</time></trkpt><trkpt lat="45.8966217" lon="8.6958717"><ele>319.0</ele><time>2026-04-04T08:38:02.38Z</time></trkpt><trkpt lat="45.8965933" lon="8.695975"><ele>317.33333333333337</ele><time>2026-04-04T08:38:03.381Z</time></trkpt><trkpt lat="45.8965683" lon="8.69608"><ele>315.6666666666667</ele><time>2026-04-04T08:38:04.38Z</time></trkpt><trkpt lat="45.8965433" lon="8.6961667"><ele>314.0</ele><time>2026-04-04T08:38:05.38Z</time></trkpt><trkpt lat="45.8964967" lon="8.6963417"><ele>313.6666666666667</ele><time>2026-04-04T08:38:07.381Z</time></trkpt><trkpt lat="45.89648" lon="8.69644"><ele>313.33333333333337</ele><time>2026-04-04T08:38:08.381Z</time></trkpt><trkpt lat="45.89646" lon="8.6965333"><ele>313.0</ele><time>2026-04-04T08:38:09.38Z</time></trkpt><trkpt lat="45.896425" lon="8.6966583"><ele>312.6666666666667</ele><time>2026-04-04T08:38:11.381Z</time></trkpt><trkpt lat="45.896375" lon="8.696725"><ele>312.3333333333333</ele><time>2026-04-04T08:38:13.381Z</time></trkpt><trkpt lat="45.89631" lon="8.696775"><ele>312.0</ele><time>2026-04-04T08:38:15.381Z</time></trkpt><trkpt lat="45.8962483" lon="8.696855"><ele>311.5</ele><time>2026-04-04T08:38:18.38Z</time></trkpt><trkpt lat="45.8962433" lon="8.697"><ele>311.0</ele><time>2026-04-04T08:38:20.381Z</time></trkpt><trkpt lat="45.8962333" lon="8.6971"><ele>310.5</ele><time>2026-04-04T08:38:21.381Z</time></trkpt><trkpt lat="45.89622" lon="8.69721"><ele>310.0</ele><time>2026-04-04T08:38:22.381Z</time></trkpt><trkpt lat="45.8961967" lon="8.6973233"><ele>309.5</ele><time>2026-04-04T08:38:23.381Z</time></trkpt><trkpt lat="45.89618" lon="8.6974533"><ele>309.0</ele><time>2026-04-04T08:38:24.38Z</time></trkpt><trkpt lat="45.8961617" lon="8.697595"><ele>309.0</ele><time>2026-04-04T08:38:25.38Z</time></trkpt><trkpt lat="45.8961433" lon="8.697715"><ele>309.0</ele><time>2026-04-04T08:38:26.381Z</time></trkpt><trkpt lat="45.8961233" lon="8.6978217"><ele>309.0</ele><time>2026-04-04T08:38:27.38Z</time></trkpt><trkpt lat="45.896095" lon="8.6979167"><ele>309.0</ele><time>2026-04-04T08:38:28.381Z</time></trkpt><trkpt lat="45.8960533" lon="8.6980667"><ele>309.0</ele><time>2026-04-04T08:38:30.381Z</time></trkpt><trkpt lat="45.8960633" lon="8.698195"><ele>309.0</ele><time>2026-04-04T08:38:32.381Z</time></trkpt><trkpt lat="45.8961167" lon="8.6982617"><ele>307.3333333333333</ele><time>2026-04-04T08:38:35.381Z</time></trkpt><trkpt lat="45.89605" lon="8.6982933"><ele>305.6666666666667</ele><time>2026-04-04T08:38:39.38Z</time></trkpt><trkpt lat="45.89594" lon="8.6982817"><ele>304.0</ele><time>2026-04-04T08:38:41.381Z</time></trkpt><trkpt lat="45.8958617" lon="8.6983783"><ele>302.33333333333337</ele><time>2026-04-04T08:38:43.38Z</time></trkpt><trkpt lat="45.8958183" lon="8.6984517"><ele>300.6666666666667</ele><time>2026-04-04T08:38:44.38Z</time></trkpt><trkpt lat="45.8957617" lon="8.69854"><ele>299.0</ele><time>2026-04-04T08:38:45.381Z</time></trkpt><trkpt lat="45.8957083" lon="8.6986267"><ele>297.4</ele><time>2026-04-04T08:38:46.381Z</time></trkpt><trkpt lat="45.8956567" lon="8.6987017"><ele>295.79999999999995</ele><time>2026-04-04T08:38:47.38Z</time></trkpt><trkpt lat="45.8956033" lon="8.698775"><ele>294.20000000000005</ele><time>2026-04-04T08:38:48.38Z</time></trkpt><trkpt lat="45.8955083" lon="8.698895"><ele>292.6</ele><time>2026-04-04T08:38:50.38Z</time></trkpt><trkpt lat="45.8954133" lon="8.6989967"><ele>291.0</ele><time>2026-04-04T08:38:52.381Z</time></trkpt><trkpt lat="45.8953183" lon="8.6990867"><ele>291.0</ele><time>2026-04-04T08:38:54.38Z</time></trkpt><trkpt lat="45.8952317" lon="8.6991717"><ele>291.0</ele><time>2026-04-04T08:38:56.38Z</time></trkpt><trkpt lat="45.89515" lon="8.699265"><ele>291.0</ele><time>2026-04-04T08:38:58.38Z</time></trkpt><trkpt lat="45.8950733" lon="8.6993617"><ele>291.0</ele><time>2026-04-04T08:39:00.381Z</time></trkpt><trkpt lat="45.8949883" lon="8.69945"><ele>291.0</ele><time>2026-04-04T08:39:02.381Z</time></trkpt><trkpt lat="45.8949117" lon="8.6995417"><ele>290.2</ele><time>2026-04-04T08:39:04.38Z</time></trkpt><trkpt lat="45.8949017" lon="8.6996817"><ele>289.40000000000003</ele><time>2026-04-04T08:39:06.381Z</time></trkpt><trkpt lat="45.894985" lon="8.6998433"><ele>288.6</ele><time>2026-04-04T08:39:08.381Z</time></trkpt><trkpt lat="45.8950533" lon="8.699935"><ele>287.8</ele><time>2026-04-04T08:39:09.38Z</time></trkpt><trkpt lat="45.8951233" lon="8.7000267"><ele>287.0</ele><time>2026-04-04T08:39:10.38Z</time></trkpt><trkpt lat="45.8951917" lon="8.7001167"><ele>287.0</ele><time>2026-04-04T08:39:11.38Z</time></trkpt><trkpt lat="45.8952567" lon="8.7002017"><ele>287.0</ele><time>2026-04-04T08:39:12.381Z</time></trkpt><trkpt lat="45.8953083" lon="8.7002833"><ele>287.0</ele><time>2026-04-04T08:39:13.38Z</time></trkpt><trkpt lat="45.8953633" lon="8.7003683"><ele>287.0</ele><time>2026-04-04T08:39:14.38Z</time></trkpt><trkpt lat="45.8954233" lon="8.700455"><ele>287.0</ele><time>2026-04-04T08:39:15.38Z</time></trkpt><trkpt lat="45.8954783" lon="8.7005367"><ele>287.0</ele><time>2026-04-04T08:39:16.38Z</time></trkpt><trkpt lat="45.8955383" lon="8.7006233"><ele>286.8</ele><time>2026-04-04T08:39:17.38Z</time></trkpt><trkpt lat="45.895605" lon="8.7007133"><ele>286.6</ele><time>2026-04-04T08:39:18.38Z</time></trkpt><trkpt lat="45.89567" lon="8.7008083"><ele>286.40000000000003</ele><time>2026-04-04T08:39:19.381Z</time></trkpt><trkpt lat="45.8957317" lon="8.7009067"><ele>286.2</ele><time>2026-04-04T08:39:20.38Z</time></trkpt><trkpt lat="45.895795" lon="8.7009983"><ele>286.0</ele><time>2026-04-04T08:39:21.38Z</time></trkpt><trkpt lat="45.8958583" lon="8.7010817"><ele>286.16666666666663</ele><time>2026-04-04T08:39:22.381Z</time></trkpt><trkpt lat="45.8959183" lon="8.7011633"><ele>286.3333333333333</ele><time>2026-04-04T08:39:23.38Z</time></trkpt><trkpt lat="45.8959783" lon="8.701245"><ele>286.5</ele><time>2026-04-04T08:39:24.38Z</time></trkpt><trkpt lat="45.89604" lon="8.7013283"><ele>286.6666666666667</ele><time>2026-04-04T08:39:25.38Z</time></trkpt><trkpt lat="45.8960967" lon="8.701405"><ele>286.83333333333337</ele><time>2026-04-04T08:39:26.38Z</time></trkpt><trkpt lat="45.8961583" lon="8.7014783"><ele>287.0</ele><time>2026-04-04T08:39:27.38Z</time></trkpt><trkpt lat="45.8962217" lon="8.7015533"><ele>287.0</ele><time>2026-04-04T08:39:28.38Z</time></trkpt><trkpt lat="45.896285" lon="8.7016267"><ele>287.0</ele><time>2026-04-04T08:39:29.38Z</time></trkpt><trkpt lat="45.8963467" lon="8.701695"><ele>287.0</ele><time>2026-04-04T08:39:30.38Z</time></trkpt><trkpt lat="45.8963967" lon="8.70175"><ele>287.0</ele><time>2026-04-04T08:39:31.38Z</time></trkpt><trkpt lat="45.8964817" lon="8.70182"><ele>287.0</ele><time>2026-04-04T08:39:33.38Z</time></trkpt><trkpt lat="45.8964567" lon="8.7019083"><ele>287.0</ele><time>2026-04-04T08:39:38.38Z</time></trkpt><trkpt lat="45.89642" lon="8.7020233"><ele>287.33333333333337</ele><time>2026-04-04T08:39:46.381Z</time></trkpt><trkpt lat="45.8964483" lon="8.70212"><ele>287.6666666666667</ele><time>2026-04-04T08:39:47.38Z</time></trkpt><trkpt lat="45.896495" lon="8.702205"><ele>288.0</ele><time>2026-04-04T08:39:48.38Z</time></trkpt><trkpt lat="45.896555" lon="8.70228"><ele>288.3333333333333</ele><time>2026-04-04T08:39:49.38Z</time></trkpt><trkpt lat="45.89662" lon="8.7023517"><ele>288.66666666666663</ele><time>2026-04-04T08:39:50.38Z</time></trkpt><trkpt lat="45.89668" lon="8.70242"><ele>289.0</ele><time>2026-04-04T08:39:51.38Z</time></trkpt><trkpt lat="45.89674" lon="8.702485"><ele>289.66666666666663</ele><time>2026-04-04T08:39:52.381Z</time></trkpt><trkpt lat="45.8967933" lon="8.7025533"><ele>290.3333333333333</ele><time>2026-04-04T08:39:53.38Z</time></trkpt><trkpt lat="45.896855" lon="8.7026217"><ele>291.0</ele><time>2026-04-04T08:39:54.38Z</time></trkpt><trkpt lat="45.8969083" lon="8.702685"><ele>291.6666666666667</ele><time>2026-04-04T08:39:55.381Z</time></trkpt><trkpt lat="45.8969867" lon="8.7027833"><ele>292.33333333333337</ele><time>2026-04-04T08:39:57.38Z</time></trkpt><trkpt lat="45.89704" lon="8.7028633"><ele>293.0</ele><time>2026-04-04T08:39:59.38Z</time></trkpt><trkpt lat="45.8970317" lon="8.7029633"><ele>293.0</ele><time>2026-04-04T08:40:01.38Z</time></trkpt><trkpt lat="45.8970267" lon="8.7030917"><ele>293.0</ele><time>2026-04-04T08:40:03.38Z</time></trkpt><trkpt lat="45.897095" lon="8.7032017"><ele>293.0</ele><time>2026-04-04T08:40:05.38Z</time></trkpt><trkpt lat="45.8971733" lon="8.703325"><ele>293.0</ele><time>2026-04-04T08:40:07.38Z</time></trkpt><trkpt lat="45.897175" lon="8.7035"><ele>293.0</ele><time>2026-04-04T08:40:09.38Z</time></trkpt><trkpt lat="45.8971533" lon="8.7036233"><ele>293.0</ele><time>2026-04-04T08:40:10.381Z</time></trkpt><trkpt lat="45.8971217" lon="8.7037567"><ele>293.0</ele><time>2026-04-04T08:40:11.381Z</time></trkpt><trkpt lat="45.8970933" lon="8.70391"><ele>293.0</ele><time>2026-04-04T08:40:12.381Z</time></trkpt><trkpt lat="45.8970617" lon="8.7040733"><ele>293.0</ele><time>2026-04-04T08:40:13.38Z</time></trkpt><trkpt lat="45.897035" lon="8.70424"><ele>293.0</ele><time>2026-04-04T08:40:14.381Z</time></trkpt><trkpt lat="45.8970183" lon="8.7043917"><ele>291.83333333333337</ele><time>2026-04-04T08:40:15.381Z</time></trkpt><trkpt lat="45.896995" lon="8.7045383"><ele>290.6666666666667</ele><time>2026-04-04T08:40:16.38Z</time></trkpt><trkpt lat="45.8969733" lon="8.70467"><ele>289.5</ele><time>2026-04-04T08:40:17.381Z</time></trkpt><trkpt lat="45.8969517" lon="8.7047817"><ele>288.3333333333333</ele><time>2026-04-04T08:40:18.38Z</time></trkpt><trkpt lat="45.896935" lon="8.7048983"><ele>287.16666666666663</ele><time>2026-04-04T08:40:19.381Z</time></trkpt><trkpt lat="45.89694" lon="8.7050167"><ele>286.0</ele><time>2026-04-04T08:40:20.381Z</time></trkpt><trkpt lat="45.8969583" lon="8.7051217"><ele>286.0</ele><time>2026-04-04T08:40:21.38Z</time></trkpt><trkpt lat="45.8969817" lon="8.7052167"><ele>286.0</ele><time>2026-04-04T08:40:22.38Z</time></trkpt><trkpt lat="45.897" lon="8.7053167"><ele>286.0</ele><time>2026-04-04T08:40:23.381Z</time></trkpt><trkpt lat="45.897005" lon="8.7054267"><ele>286.0</ele><time>2026-04-04T08:40:24.38Z</time></trkpt><trkpt lat="45.896985" lon="8.7055533"><ele>286.0</ele><time>2026-04-04T08:40:25.38Z</time></trkpt><trkpt lat="45.896955" lon="8.705705"><ele>286.0</ele><time>2026-04-04T08:40:26.38Z</time></trkpt><trkpt lat="45.896925" lon="8.7058667"><ele>284.5</ele><time>2026-04-04T08:40:27.38Z</time></trkpt><trkpt lat="45.896895" lon="8.706015"><ele>283.0</ele><time>2026-04-04T08:40:28.38Z</time></trkpt><trkpt lat="45.8968683" lon="8.7061517"><ele>281.5</ele><time>2026-04-04T08:40:29.38Z</time></trkpt><trkpt lat="45.8968433" lon="8.7062683"><ele>280.0</ele><time>2026-04-04T08:40:30.38Z</time></trkpt><trkpt lat="45.8968267" lon="8.7063767"><ele>278.5</ele><time>2026-04-04T08:40:31.38Z</time></trkpt><trkpt lat="45.8968283" lon="8.7064917"><ele>277.0</ele><time>2026-04-04T08:40:32.38Z</time></trkpt><trkpt lat="45.8968417" lon="8.7066"><ele>276.75</ele><time>2026-04-04T08:40:33.38Z</time></trkpt><trkpt lat="45.8968817" lon="8.706715"><ele>276.5</ele><time>2026-04-04T08:40:34.38Z</time></trkpt><trkpt lat="45.8969433" lon="8.7068617"><ele>276.25</ele><time>2026-04-04T08:40:35.38Z</time></trkpt><trkpt lat="45.8970083" lon="8.7070267"><ele>276.0</ele><time>2026-04-04T08:40:36.38Z</time></trkpt><trkpt lat="45.8970717" lon="8.7071867"><ele>275.5</ele><time>2026-04-04T08:40:37.38Z</time></trkpt><trkpt lat="45.897115" lon="8.7073367"><ele>275.0</ele><time>2026-04-04T08:40:38.38Z</time></trkpt><trkpt lat="45.8971483" lon="8.707475"><ele>274.5</ele><time>2026-04-04T08:40:39.38Z</time></trkpt><trkpt lat="45.89716" lon="8.7075983"><ele>274.0</ele><time>2026-04-04T08:40:40.38Z</time></trkpt><trkpt lat="45.897155" lon="8.7077017"><ele>273.5</ele><time>2026-04-04T08:40:41.381Z</time></trkpt><trkpt lat="45.8971233" lon="8.70779"><ele>273.0</ele><time>2026-04-04T08:40:42.38Z</time></trkpt><trkpt lat="45.8970817" lon="8.7078833"><ele>273.0</ele><time>2026-04-04T08:40:43.38Z</time></trkpt><trkpt lat="45.89702" lon="8.7079983"><ele>273.0</ele><time>2026-04-04T08:40:44.38Z</time></trkpt><trkpt lat="45.89693" lon="8.708165"><ele>273.0</ele><time>2026-04-04T08:40:45.381Z</time></trkpt><trkpt lat="45.8968417" lon="8.7083317"><ele>273.0</ele><time>2026-04-04T08:40:46.381Z</time></trkpt><trkpt lat="45.89674" lon="8.7085017"><ele>274.25</ele><time>2026-04-04T08:40:47.381Z</time></trkpt><trkpt lat="45.8966383" lon="8.7086633"><ele>275.5</ele><time>2026-04-04T08:40:48.38Z</time></trkpt><trkpt lat="45.896555" lon="8.708815"><ele>276.75</ele><time>2026-04-04T08:40:49.38Z</time></trkpt><trkpt lat="45.8964767" lon="8.708945"><ele>278.0</ele><time>2026-04-04T08:40:50.38Z</time></trkpt><trkpt lat="45.8964067" lon="8.7090667"><ele>278.0</ele><time>2026-04-04T08:40:51.381Z</time></trkpt><trkpt lat="45.8963333" lon="8.7092"><ele>278.0</ele><time>2026-04-04T08:40:52.38Z</time></trkpt><trkpt lat="45.8962467" lon="8.7093267"><ele>278.0</ele><time>2026-04-04T08:40:53.381Z</time></trkpt><trkpt lat="45.8961617" lon="8.70946"><ele>278.0</ele><time>2026-04-04T08:40:54.38Z</time></trkpt><trkpt lat="45.8960817" lon="8.7095933"><ele>277.25</ele><time>2026-04-04T08:40:55.381Z</time></trkpt><trkpt lat="45.8960017" lon="8.70973"><ele>276.5</ele><time>2026-04-04T08:40:56.38Z</time></trkpt><trkpt lat="45.89592" lon="8.7098533"><ele>275.75</ele><time>2026-04-04T08:40:57.38Z</time></trkpt><trkpt lat="45.8958483" lon="8.7099767"><ele>275.0</ele><time>2026-04-04T08:40:58.38Z</time></trkpt><trkpt lat="45.895775" lon="8.7100733"><ele>275.6666666666667</ele><time>2026-04-04T08:40:59.381Z</time></trkpt><trkpt lat="45.8957083" lon="8.7101583"><ele>276.33333333333337</ele><time>2026-04-04T08:41:00.38Z</time></trkpt><trkpt lat="45.8956467" lon="8.7102283"><ele>277.0</ele><time>2026-04-04T08:41:01.38Z</time></trkpt><trkpt lat="45.8955983" lon="8.710305"><ele>277.6666666666667</ele><time>2026-04-04T08:41:02.38Z</time></trkpt><trkpt lat="45.8955517" lon="8.710385"><ele>278.3333333333333</ele><time>2026-04-04T08:41:03.38Z</time></trkpt><trkpt lat="45.895505" lon="8.710475"><ele>279.0</ele><time>2026-04-04T08:41:04.38Z</time></trkpt><trkpt lat="45.89547" lon="8.71057"><ele>279.0</ele><time>2026-04-04T08:41:05.38Z</time></trkpt><trkpt lat="45.8954283" lon="8.7106717"><ele>279.0</ele><time>2026-04-04T08:41:06.381Z</time></trkpt><trkpt lat="45.8953867" lon="8.7107633"><ele>279.0</ele><time>2026-04-04T08:41:07.381Z</time></trkpt><trkpt lat="45.8953317" lon="8.7108367"><ele>279.0</ele><time>2026-04-04T08:41:08.38Z</time></trkpt><trkpt lat="45.89525" lon="8.7109467"><ele>279.0</ele><time>2026-04-04T08:41:10.381Z</time></trkpt><trkpt lat="45.89524" lon="8.7110817"><ele>279.0</ele><time>2026-04-04T08:41:12.38Z</time></trkpt><trkpt lat="45.8952617" lon="8.7111683"><ele>278.8333333333333</ele><time>2026-04-04T08:41:13.381Z</time></trkpt><trkpt lat="45.89529" lon="8.7112733"><ele>278.6666666666667</ele><time>2026-04-04T08:41:14.381Z</time></trkpt><trkpt lat="45.89531" lon="8.71139"><ele>278.5</ele><time>2026-04-04T08:41:15.381Z</time></trkpt><trkpt lat="45.8953117" lon="8.711505"><ele>278.33333333333337</ele><time>2026-04-04T08:41:16.38Z</time></trkpt><trkpt lat="45.8952983" lon="8.7116133"><ele>278.1666666666667</ele><time>2026-04-04T08:41:17.38Z</time></trkpt><trkpt lat="45.895275" lon="8.7117117"><ele>278.0</ele><time>2026-04-04T08:41:18.381Z</time></trkpt><trkpt lat="45.8952433" lon="8.7118083"><ele>277.5</ele><time>2026-04-04T08:41:19.38Z</time></trkpt><trkpt lat="45.8952" lon="8.7119167"><ele>277.0</ele><time>2026-04-04T08:41:20.381Z</time></trkpt><trkpt lat="45.8951517" lon="8.7120433"><ele>276.5</ele><time>2026-04-04T08:41:21.38Z</time></trkpt><trkpt lat="45.895095" lon="8.712155"><ele>276.0</ele><time>2026-04-04T08:41:22.38Z</time></trkpt><trkpt lat="45.8950467" lon="8.7122583"><ele>275.5</ele><time>2026-04-04T08:41:23.381Z</time></trkpt><trkpt lat="45.8950067" lon="8.7123517"><ele>275.0</ele><time>2026-04-04T08:41:24.381Z</time></trkpt><trkpt lat="45.8949617" lon="8.7124317"><ele>276.4</ele><time>2026-04-04T08:41:25.381Z</time></trkpt><trkpt lat="45.8948817" lon="8.71258"><ele>277.8</ele><time>2026-04-04T08:41:27.381Z</time></trkpt><trkpt lat="45.8948383" lon="8.7126833"><ele>279.2</ele><time>2026-04-04T08:41:28.38Z</time></trkpt><trkpt lat="45.8947967" lon="8.7127917"><ele>280.6</ele><time>2026-04-04T08:41:29.38Z</time></trkpt><trkpt lat="45.8947517" lon="8.712905"><ele>282.0</ele><time>2026-04-04T08:41:30.381Z</time></trkpt><trkpt lat="45.8947067" lon="8.7130183"><ele>282.0</ele><time>2026-04-04T08:41:31.38Z</time></trkpt><trkpt lat="45.8946633" lon="8.7131283"><ele>282.0</ele><time>2026-04-04T08:41:32.381Z</time></trkpt><trkpt lat="45.8946233" lon="8.7132433"><ele>282.0</ele><time>2026-04-04T08:41:33.38Z</time></trkpt><trkpt lat="45.8945817" lon="8.7133683"><ele>282.0</ele><time>2026-04-04T08:41:34.381Z</time></trkpt><trkpt lat="45.8945567" lon="8.713495"><ele>282.0</ele><time>2026-04-04T08:41:35.38Z</time></trkpt><trkpt lat="45.8945283" lon="8.7136183"><ele>281.8571428571429</ele><time>2026-04-04T08:41:36.38Z</time></trkpt><trkpt lat="45.894515" lon="8.7137183"><ele>281.7142857142857</ele><time>2026-04-04T08:41:37.38Z</time></trkpt><trkpt lat="45.894505" lon="8.7138117"><ele>281.57142857142856</ele><time>2026-04-04T08:41:38.38Z</time></trkpt><trkpt lat="45.894485" lon="8.7139017"><ele>281.42857142857144</ele><time>2026-04-04T08:41:39.381Z</time></trkpt><trkpt lat="45.8944667" lon="8.7139983"><ele>281.2857142857143</ele><time>2026-04-04T08:41:40.38Z</time></trkpt><trkpt lat="45.8944367" lon="8.7140983"><ele>281.14285714285717</ele><time>2026-04-04T08:41:41.381Z</time></trkpt><trkpt lat="45.8944033" lon="8.7142067"><ele>281.0</ele><time>2026-04-04T08:41:42.38Z</time></trkpt><trkpt lat="45.894365" lon="8.714315"><ele>281.40000000000003</ele><time>2026-04-04T08:41:43.381Z</time></trkpt><trkpt lat="45.8943233" lon="8.7144283"><ele>281.8</ele><time>2026-04-04T08:41:44.381Z</time></trkpt><trkpt lat="45.8942767" lon="8.71456"><ele>282.20000000000005</ele><time>2026-04-04T08:41:45.38Z</time></trkpt><trkpt lat="45.89421" lon="8.71472"><ele>282.6</ele><time>2026-04-04T08:41:46.381Z</time></trkpt><trkpt lat="45.89415" lon="8.71487"><ele>283.0</ele><time>2026-04-04T08:41:47.381Z</time></trkpt><trkpt lat="45.89408" lon="8.7150167"><ele>283.25</ele><time>2026-04-04T08:41:48.38Z</time></trkpt><trkpt lat="45.8939933" lon="8.7151683"><ele>283.5</ele><time>2026-04-04T08:41:49.38Z</time></trkpt><trkpt lat="45.8939017" lon="8.7153017"><ele>283.75</ele><time>2026-04-04T08:41:50.38Z</time></trkpt><trkpt lat="45.8938183" lon="8.715415"><ele>284.0</ele><time>2026-04-04T08:41:51.38Z</time></trkpt><trkpt lat="45.8937333" lon="8.715515"><ele>284.0</ele><time>2026-04-04T08:41:52.38Z</time></trkpt><trkpt lat="45.893675" lon="8.7156183"><ele>284.0</ele><time>2026-04-04T08:41:53.38Z</time></trkpt><trkpt lat="45.893625" lon="8.7157067"><ele>284.0</ele><time>2026-04-04T08:41:54.38Z</time></trkpt><trkpt lat="45.893605" lon="8.71581"><ele>284.0</ele><time>2026-04-04T08:41:55.38Z</time></trkpt><trkpt lat="45.893605" lon="8.7159233"><ele>284.0</ele><time>2026-04-04T08:41:56.38Z</time></trkpt><trkpt lat="45.8936017" lon="8.71606"><ele>284.0</ele><time>2026-04-04T08:41:57.38Z</time></trkpt><trkpt lat="45.893595" lon="8.7162217"><ele>282.75</ele><time>2026-04-04T08:41:58.38Z</time></trkpt><trkpt lat="45.89359" lon="8.7163983"><ele>281.5</ele><time>2026-04-04T08:41:59.38Z</time></trkpt><trkpt lat="45.8936017" lon="8.716585"><ele>280.25</ele><time>2026-04-04T08:42:00.38Z</time></trkpt><trkpt lat="45.893615" lon="8.7167783"><ele>279.0</ele><time>2026-04-04T08:42:01.38Z</time></trkpt><trkpt lat="45.8936283" lon="8.7169667"><ele>278.59999999999997</ele><time>2026-04-04T08:42:02.38Z</time></trkpt><trkpt lat="45.8936417" lon="8.71713"><ele>278.2</ele><time>2026-04-04T08:42:03.381Z</time></trkpt><trkpt lat="45.8936517" lon="8.7172733"><ele>277.79999999999995</ele><time>2026-04-04T08:42:04.381Z</time></trkpt><trkpt lat="45.8936717" lon="8.7174033"><ele>277.4</ele><time>2026-04-04T08:42:05.38Z</time></trkpt><trkpt lat="45.8936967" lon="8.7175133"><ele>277.0</ele><time>2026-04-04T08:42:06.38Z</time></trkpt><trkpt lat="45.8937233" lon="8.717615"><ele>277.0</ele><time>2026-04-04T08:42:07.38Z</time></trkpt><trkpt lat="45.89375" lon="8.7177267"><ele>277.0</ele><time>2026-04-04T08:42:08.381Z</time></trkpt><trkpt lat="45.8937667" lon="8.7178483"><ele>277.0</ele><time>2026-04-04T08:42:09.38Z</time></trkpt><trkpt lat="45.8937683" lon="8.7180067"><ele>277.0</ele><time>2026-04-04T08:42:10.38Z</time></trkpt><trkpt lat="45.893765" lon="8.7182"><ele>277.0</ele><time>2026-04-04T08:42:11.38Z</time></trkpt><trkpt lat="45.8937717" lon="8.7184067"><ele>275.5</ele><time>2026-04-04T08:42:12.38Z</time></trkpt><trkpt lat="45.8937767" lon="8.7186083"><ele>274.0</ele><time>2026-04-04T08:42:13.38Z</time></trkpt><trkpt lat="45.893795" lon="8.7187983"><ele>272.5</ele><time>2026-04-04T08:42:14.38Z</time></trkpt><trkpt lat="45.8938083" lon="8.7189817"><ele>271.0</ele><time>2026-04-04T08:42:15.38Z</time></trkpt><trkpt lat="45.8938083" lon="8.7191433"><ele>271.0</ele><time>2026-04-04T08:42:16.38Z</time></trkpt><trkpt lat="45.893805" lon="8.7193133"><ele>271.0</ele><time>2026-04-04T08:42:17.381Z</time></trkpt><trkpt lat="45.89379" lon="8.7194967"><ele>271.0</ele><time>2026-04-04T08:42:18.381Z</time></trkpt><trkpt lat="45.8937633" lon="8.7196867"><ele>271.0</ele><time>2026-04-04T08:42:19.38Z</time></trkpt><trkpt lat="45.8937417" lon="8.7199067"><ele>272.0</ele><time>2026-04-04T08:42:20.381Z</time></trkpt><trkpt lat="45.8937283" lon="8.7201283"><ele>273.0</ele><time>2026-04-04T08:42:21.38Z</time></trkpt><trkpt lat="45.8937283" lon="8.7203417"><ele>274.0</ele><time>2026-04-04T08:42:22.38Z</time></trkpt><trkpt lat="45.8937333" lon="8.7205333"><ele>275.0</ele><time>2026-04-04T08:42:23.381Z</time></trkpt><trkpt lat="45.89373" lon="8.72071"><ele>276.0</ele><time>2026-04-04T08:42:24.38Z</time></trkpt><trkpt lat="45.8937183" lon="8.7208883"><ele>277.0</ele><time>2026-04-04T08:42:25.381Z</time></trkpt><trkpt lat="45.89371" lon="8.72107"><ele>278.0</ele><time>2026-04-04T08:42:26.38Z</time></trkpt><trkpt lat="45.8937133" lon="8.7212483"><ele>279.0</ele><time>2026-04-04T08:42:27.38Z</time></trkpt><trkpt lat="45.8937283" lon="8.721455"><ele>279.75</ele><time>2026-04-04T08:42:28.38Z</time></trkpt><trkpt lat="45.89375" lon="8.72168"><ele>280.5</ele><time>2026-04-04T08:42:29.38Z</time></trkpt><trkpt lat="45.8937583" lon="8.7218767"><ele>281.25</ele><time>2026-04-04T08:42:30.38Z</time></trkpt><trkpt lat="45.893755" lon="8.7220317"><ele>282.0</ele><time>2026-04-04T08:42:31.38Z</time></trkpt><trkpt lat="45.8937483" lon="8.7221867"><ele>283.5</ele><time>2026-04-04T08:42:32.38Z</time></trkpt><trkpt lat="45.8937517" lon="8.7223517"><ele>285.0</ele><time>2026-04-04T08:42:33.38Z</time></trkpt><trkpt lat="45.89377" lon="8.7225217"><ele>286.5</ele><time>2026-04-04T08:42:34.38Z</time></trkpt><trkpt lat="45.8937783" lon="8.7227"><ele>288.0</ele><time>2026-04-04T08:42:35.381Z</time></trkpt><trkpt lat="45.8937867" lon="8.7228933"><ele>288.0</ele><time>2026-04-04T08:42:36.381Z</time></trkpt><trkpt lat="45.8938033" lon="8.7230983"><ele>288.0</ele><time>2026-04-04T08:42:37.381Z</time></trkpt><trkpt lat="45.8938067" lon="8.72329"><ele>288.0</ele><time>2026-04-04T08:42:38.381Z</time></trkpt><trkpt lat="45.8938117" lon="8.7234633"><ele>288.0</ele><time>2026-04-04T08:42:39.38Z</time></trkpt><trkpt lat="45.8938233" lon="8.7236317"><ele>289.0</ele><time>2026-04-04T08:42:40.38Z</time></trkpt><trkpt lat="45.8938483" lon="8.7238167"><ele>290.0</ele><time>2026-04-04T08:42:41.38Z</time></trkpt><trkpt lat="45.8938783" lon="8.7240083"><ele>291.0</ele><time>2026-04-04T08:42:42.381Z</time></trkpt><trkpt lat="45.89391" lon="8.7241883"><ele>292.0</ele><time>2026-04-04T08:42:43.38Z</time></trkpt><trkpt lat="45.8939433" lon="8.7243417"><ele>293.3333333333333</ele><time>2026-04-04T08:42:44.38Z</time></trkpt><trkpt lat="45.8939683" lon="8.7244867"><ele>294.66666666666663</ele><time>2026-04-04T08:42:45.381Z</time></trkpt><trkpt lat="45.89399" lon="8.7246117"><ele>296.0</ele><time>2026-04-04T08:42:46.38Z</time></trkpt><trkpt lat="45.8939967" lon="8.7247267"><ele>297.3333333333333</ele><time>2026-04-04T08:42:47.38Z</time></trkpt><trkpt lat="45.894" lon="8.72484"><ele>298.6666666666667</ele><time>2026-04-04T08:42:48.38Z</time></trkpt><trkpt lat="45.8939967" lon="8.7249533"><ele>300.0</ele><time>2026-04-04T08:42:49.38Z</time></trkpt><trkpt lat="45.894" lon="8.7250883"><ele>300.0</ele><time>2026-04-04T08:42:50.381Z</time></trkpt><trkpt lat="45.8940167" lon="8.7252233"><ele>300.0</ele><time>2026-04-04T08:42:51.38Z</time></trkpt><trkpt lat="45.8940333" lon="8.725355"><ele>300.0</ele><time>2026-04-04T08:42:52.38Z</time></trkpt><trkpt lat="45.8940517" lon="8.725485"><ele>300.0</ele><time>2026-04-04T08:42:53.38Z</time></trkpt><trkpt lat="45.8940767" lon="8.7255883"><ele>300.0</ele><time>2026-04-04T08:42:54.38Z</time></trkpt><trkpt lat="45.894085" lon="8.7256833"><ele>300.0</ele><time>2026-04-04T08:42:55.381Z</time></trkpt><trkpt lat="45.8940767" lon="8.72582"><ele>300.99999999999994</ele><time>2026-04-04T08:42:57.38Z</time></trkpt><trkpt lat="45.894055" lon="8.7259183"><ele>302.0</ele><time>2026-04-04T08:43:07.381Z</time></trkpt><trkpt lat="45.8940217" lon="8.7260083"><ele>303.0</ele><time>2026-04-04T08:43:10.381Z</time></trkpt><trkpt lat="45.8939567" lon="8.7260267"><ele>304.0</ele><time>2026-04-04T08:43:13.381Z</time></trkpt><trkpt lat="45.8939217" lon="8.725935"><ele>305.0</ele><time>2026-04-04T08:43:16.38Z</time></trkpt><trkpt lat="45.8939" lon="8.72584"><ele>305.99999999999994</ele><time>2026-04-04T08:43:18.38Z</time></trkpt><trkpt lat="45.893865" lon="8.725745"><ele>307.0</ele><time>2026-04-04T08:43:20.38Z</time></trkpt><trkpt lat="45.893825" lon="8.72565"><ele>307.0</ele><time>2026-04-04T08:43:22.381Z</time></trkpt><trkpt lat="45.8937883" lon="8.725535"><ele>307.0</ele><time>2026-04-04T08:43:24.381Z</time></trkpt><trkpt lat="45.8937267" lon="8.725405"><ele>307.0</ele><time>2026-04-04T08:43:26.381Z</time></trkpt><trkpt lat="45.89369" lon="8.725325"><ele>307.0</ele><time>2026-04-04T08:43:27.38Z</time></trkpt><trkpt lat="45.893655" lon="8.7252467"><ele>307.0</ele><time>2026-04-04T08:43:28.381Z</time></trkpt><trkpt lat="45.893565" lon="8.7251867"><ele>307.0</ele><time>2026-04-04T08:43:30.381Z</time></trkpt><trkpt lat="45.8934967" lon="8.7252267"><ele>307.0</ele><time>2026-04-04T08:43:32.381Z</time></trkpt><trkpt lat="45.8934417" lon="8.7252867"><ele>307.0</ele><time>2026-04-04T08:43:34.38Z</time></trkpt><trkpt lat="45.8934017" lon="8.7253667"><ele>307.0</ele><time>2026-04-04T08:43:36.38Z</time></trkpt><trkpt lat="45.8933667" lon="8.7254583"><ele>307.0</ele><time>2026-04-04T08:43:38.38Z</time></trkpt><trkpt lat="45.8933283" lon="8.7255683"><ele>307.0</ele><time>2026-04-04T08:43:41.38Z</time></trkpt><trkpt lat="45.8933283" lon="8.7256667"><ele>307.0</ele><time>2026-04-04T08:43:43.38Z</time></trkpt><trkpt lat="45.893295" lon="8.7257883"><ele>312.85714285714283</ele><time>2026-04-04T08:43:45.381Z</time></trkpt><trkpt lat="45.893275" lon="8.725885"><ele>318.7142857142857</ele><time>2026-04-04T08:43:47.381Z</time></trkpt><trkpt lat="45.8932517" lon="8.7259833"><ele>324.57142857142856</ele><time>2026-04-04T08:43:49.38Z</time></trkpt><trkpt lat="45.8932483" lon="8.7261183"><ele>330.42857142857144</ele><time>2026-04-04T08:43:52.38Z</time></trkpt><trkpt lat="45.8932733" lon="8.7262183"><ele>336.2857142857143</ele><time>2026-04-04T08:43:55.381Z</time></trkpt><trkpt lat="45.8932783" lon="8.7263233"><ele>342.1428571428571</ele><time>2026-04-04T08:43:58.381Z</time></trkpt><trkpt lat="45.8933017" lon="8.72641"><ele>348.0</ele><time>2026-04-04T08:44:02.38Z</time></trkpt><trkpt lat="45.89333" lon="8.7265017"><ele>349.1666666666667</ele><time>2026-04-04T08:44:08.381Z</time></trkpt><trkpt lat="45.8932867" lon="8.72657"><ele>350.3333333333333</ele><time>2026-04-04T08:44:18.38Z</time></trkpt><trkpt lat="45.8932517" lon="8.7266583"><ele>351.5</ele><time>2026-04-04T08:44:21.38Z</time></trkpt><trkpt lat="45.8932317" lon="8.7267883"><ele>352.66666666666663</ele><time>2026-04-04T08:44:25.38Z</time></trkpt><trkpt lat="45.8931917" lon="8.7269317"><ele>353.8333333333333</ele><time>2026-04-04T08:44:28.38Z</time></trkpt><trkpt lat="45.893175" lon="8.7270417"><ele>355.0</ele><time>2026-04-04T08:44:30.381Z</time></trkpt><trkpt lat="45.8931817" lon="8.7271883"><ele>356.0</ele><time>2026-04-04T08:44:32.381Z</time></trkpt><trkpt lat="45.8931983" lon="8.7272983"><ele>357.0</ele><time>2026-04-04T08:44:34.38Z</time></trkpt><trkpt lat="45.89324" lon="8.7273733"><ele>358.0</ele><time>2026-04-04T08:44:43.38Z</time></trkpt><trkpt lat="45.8932967" lon="8.7274583"><ele>359.0</ele><time>2026-04-04T08:44:55.38Z</time></trkpt><trkpt lat="45.893355" lon="8.7275117"><ele>360.0</ele><time>2026-04-04T08:44:58.381Z</time></trkpt><trkpt lat="45.8934183" lon="8.7275533"><ele>361.0</ele><time>2026-04-04T08:45:07.381Z</time></trkpt><trkpt lat="45.8934633" lon="8.7276417"><ele>362.0</ele><time>2026-04-04T08:45:16.38Z</time></trkpt><trkpt lat="45.8934967" lon="8.7277583"><ele>355.6</ele><time>2026-04-04T08:45:22.381Z</time></trkpt><trkpt lat="45.8935233" lon="8.7278533"><ele>349.20000000000005</ele><time>2026-04-04T08:45:24.381Z</time></trkpt><trkpt lat="45.8935467" lon="8.727975"><ele>342.8</ele><time>2026-04-04T08:45:26.38Z</time></trkpt><trkpt lat="45.8935867" lon="8.7281417"><ele>336.4</ele><time>2026-04-04T08:45:28.38Z</time></trkpt><trkpt lat="45.8936283" lon="8.7282733"><ele>330.0</ele><time>2026-04-04T08:45:29.38Z</time></trkpt><trkpt lat="45.8936883" lon="8.7284067"><ele>330.0</ele><time>2026-04-04T08:45:30.38Z</time></trkpt><trkpt lat="45.89372" lon="8.7285233"><ele>330.0</ele><time>2026-04-04T08:45:31.381Z</time></trkpt><trkpt lat="45.89375" lon="8.7286167"><ele>330.0</ele><time>2026-04-04T08:45:32.38Z</time></trkpt><trkpt lat="45.893795" lon="8.7287633"><ele>330.0</ele><time>2026-04-04T08:45:34.38Z</time></trkpt><trkpt lat="45.8938267" lon="8.72888"><ele>330.0</ele><time>2026-04-04T08:45:36.38Z</time></trkpt><trkpt lat="45.8938383" lon="8.729025"><ele>331.6</ele><time>2026-04-04T08:45:38.38Z</time></trkpt><trkpt lat="45.89386" lon="8.72918"><ele>333.2</ele><time>2026-04-04T08:45:40.381Z</time></trkpt><trkpt lat="45.8938717" lon="8.7293117"><ele>334.79999999999995</ele><time>2026-04-04T08:45:42.381Z</time></trkpt><trkpt lat="45.8938833" lon="8.72944"><ele>336.4</ele><time>2026-04-04T08:45:44.381Z</time></trkpt><trkpt lat="45.8939" lon="8.7295767"><ele>338.0</ele><time>2026-04-04T08:45:46.38Z</time></trkpt><trkpt lat="45.8939233" lon="8.7297183"><ele>337.59999999999997</ele><time>2026-04-04T08:45:48.38Z</time></trkpt><trkpt lat="45.8939433" lon="8.7298683"><ele>337.2</ele><time>2026-04-04T08:45:50.38Z</time></trkpt><trkpt lat="45.8939583" lon="8.7300117"><ele>336.8</ele><time>2026-04-04T08:45:52.381Z</time></trkpt><trkpt lat="45.893995" lon="8.7301717"><ele>336.4</ele><time>2026-04-04T08:45:54.38Z</time></trkpt><trkpt lat="45.894005" lon="8.7303433"><ele>336.0</ele><time>2026-04-04T08:45:56.38Z</time></trkpt><trkpt lat="45.8940433" lon="8.7305083"><ele>336.0</ele><time>2026-04-04T08:45:58.38Z</time></trkpt><trkpt lat="45.894075" lon="8.7305867"><ele>336.0</ele><time>2026-04-04T08:45:59.38Z</time></trkpt><trkpt lat="45.8941167" lon="8.73066"><ele>336.0</ele><time>2026-04-04T08:46:00.38Z</time></trkpt><trkpt lat="45.8941667" lon="8.730725"><ele>336.0</ele><time>2026-04-04T08:46:01.381Z</time></trkpt><trkpt lat="45.8942083" lon="8.7308"><ele>336.0</ele><time>2026-04-04T08:46:02.38Z</time></trkpt><trkpt lat="45.8942383" lon="8.7308883"><ele>336.0</ele><time>2026-04-04T08:46:03.381Z</time></trkpt><trkpt lat="45.8942667" lon="8.7310017"><ele>336.0</ele><time>2026-04-04T08:46:04.38Z</time></trkpt><trkpt lat="45.89429" lon="8.731135"><ele>328.0</ele><time>2026-04-04T08:46:05.381Z</time></trkpt><trkpt lat="45.89432" lon="8.731295"><ele>320.0</ele><time>2026-04-04T08:46:06.381Z</time></trkpt><trkpt lat="45.8943517" lon="8.7314583"><ele>312.0</ele><time>2026-04-04T08:46:07.38Z</time></trkpt><trkpt lat="45.89438" lon="8.7316233"><ele>304.0</ele><time>2026-04-04T08:46:08.38Z</time></trkpt><trkpt lat="45.894415" lon="8.7317783"><ele>304.2</ele><time>2026-04-04T08:46:09.38Z</time></trkpt><trkpt lat="45.8944517" lon="8.7319383"><ele>304.4</ele><time>2026-04-04T08:46:10.38Z</time></trkpt><trkpt lat="45.8944867" lon="8.732085"><ele>304.6</ele><time>2026-04-04T08:46:11.38Z</time></trkpt><trkpt lat="45.8945233" lon="8.7322217"><ele>304.8</ele><time>2026-04-04T08:46:12.381Z</time></trkpt><trkpt lat="45.8945483" lon="8.7323517"><ele>305.0</ele><time>2026-04-04T08:46:13.38Z</time></trkpt><trkpt lat="45.8945733" lon="8.73247"><ele>305.0</ele><time>2026-04-04T08:46:14.38Z</time></trkpt><trkpt lat="45.8945883" lon="8.732565"><ele>305.0</ele><time>2026-04-04T08:46:15.38Z</time></trkpt><trkpt lat="45.8946083" lon="8.7327"><ele>305.0</ele><time>2026-04-04T08:46:17.38Z</time></trkpt><trkpt lat="45.894595" lon="8.7328483"><ele>305.0</ele><time>2026-04-04T08:46:19.38Z</time></trkpt><trkpt lat="45.8946133" lon="8.7329983"><ele>305.0</ele><time>2026-04-04T08:46:21.381Z</time></trkpt><trkpt lat="45.89465" lon="8.733095"><ele>305.6</ele><time>2026-04-04T08:46:23.38Z</time></trkpt><trkpt lat="45.8945683" lon="8.7331883"><ele>306.2</ele><time>2026-04-04T08:46:25.381Z</time></trkpt><trkpt lat="45.8944683" lon="8.7332517"><ele>306.8</ele><time>2026-04-04T08:46:26.38Z</time></trkpt><trkpt lat="45.8943667" lon="8.7333117"><ele>307.4</ele><time>2026-04-04T08:46:27.38Z</time></trkpt><trkpt lat="45.8942783" lon="8.7333567"><ele>308.0</ele><time>2026-04-04T08:46:28.38Z</time></trkpt><trkpt lat="45.8942117" lon="8.733395"><ele>309.75</ele><time>2026-04-04T08:46:29.381Z</time></trkpt><trkpt lat="45.8941767" lon="8.733545"><ele>311.5</ele><time>2026-04-04T08:46:31.381Z</time></trkpt><trkpt lat="45.89419" lon="8.733695"><ele>313.25</ele><time>2026-04-04T08:46:32.38Z</time></trkpt><trkpt lat="45.8942017" lon="8.7338867"><ele>315.0</ele><time>2026-04-04T08:46:33.381Z</time></trkpt><trkpt lat="45.8942067" lon="8.7341083"><ele>315.0</ele><time>2026-04-04T08:46:34.381Z</time></trkpt><trkpt lat="45.8942133" lon="8.734345"><ele>315.0</ele><time>2026-04-04T08:46:35.381Z</time></trkpt><trkpt lat="45.8942183" lon="8.734565"><ele>315.0</ele><time>2026-04-04T08:46:36.381Z</time></trkpt><trkpt lat="45.8942183" lon="8.7347617"><ele>317.0</ele><time>2026-04-04T08:46:37.38Z</time></trkpt><trkpt lat="45.8942217" lon="8.7349317"><ele>319.0</ele><time>2026-04-04T08:46:38.38Z</time></trkpt><trkpt lat="45.89423" lon="8.7350667"><ele>321.0</ele><time>2026-04-04T08:46:39.381Z</time></trkpt><trkpt lat="45.89424" lon="8.7351733"><ele>323.0</ele><time>2026-04-04T08:46:40.38Z</time></trkpt><trkpt lat="45.8942417" lon="8.7353183"><ele>325.0</ele><time>2026-04-04T08:46:42.38Z</time></trkpt><trkpt lat="45.8942167" lon="8.7354633"><ele>323.5</ele><time>2026-04-04T08:46:44.381Z</time></trkpt><trkpt lat="45.8942267" lon="8.7355667"><ele>322.0</ele><time>2026-04-04T08:46:45.381Z</time></trkpt><trkpt lat="45.8942483" lon="8.7356967"><ele>320.5</ele><time>2026-04-04T08:46:46.38Z</time></trkpt><trkpt lat="45.894275" lon="8.7358283"><ele>319.0</ele><time>2026-04-04T08:46:47.38Z</time></trkpt><trkpt lat="45.8943067" lon="8.7359383"><ele>317.5</ele><time>2026-04-04T08:46:48.38Z</time></trkpt><trkpt lat="45.8943283" lon="8.7360333"><ele>316.0</ele><time>2026-04-04T08:46:49.38Z</time></trkpt><trkpt lat="45.894355" lon="8.736195"><ele>316.0</ele><time>2026-04-04T08:46:51.38Z</time></trkpt><trkpt lat="45.8943767" lon="8.7362833"><ele>316.0</ele><time>2026-04-04T08:46:52.38Z</time></trkpt><trkpt lat="45.8944033" lon="8.7364567"><ele>316.0</ele><time>2026-04-04T08:46:54.381Z</time></trkpt><trkpt lat="45.8944383" lon="8.7365933"><ele>316.0</ele><time>2026-04-04T08:46:56.38Z</time></trkpt><trkpt lat="45.8944667" lon="8.7366867"><ele>316.0</ele><time>2026-04-04T08:47:00.38Z</time></trkpt><trkpt lat="45.8943883" lon="8.7366667"><ele>316.0</ele><time>2026-04-04T08:47:50.381Z</time></trkpt><trkpt lat="45.8943033" lon="8.7365867"><ele>324.75</ele><time>2026-04-04T08:47:52.381Z</time></trkpt><trkpt lat="45.8942267" lon="8.7364733"><ele>333.5</ele><time>2026-04-04T08:47:54.38Z</time></trkpt><trkpt lat="45.8941417" lon="8.7363583"><ele>342.25</ele><time>2026-04-04T08:47:56.381Z</time></trkpt><trkpt lat="45.894055" lon="8.7362517"><ele>351.0</ele><time>2026-04-04T08:47:58.38Z</time></trkpt><trkpt lat="45.893995" lon="8.7361167"><ele>348.8</ele><time>2026-04-04T08:48:00.381Z</time></trkpt><trkpt lat="45.893945" lon="8.7359833"><ele>346.6</ele><time>2026-04-04T08:48:02.381Z</time></trkpt><trkpt lat="45.8939117" lon="8.735845"><ele>344.4</ele><time>2026-04-04T08:48:04.381Z</time></trkpt><trkpt lat="45.8938833" lon="8.7357067"><ele>342.2</ele><time>2026-04-04T08:48:06.38Z</time></trkpt><trkpt lat="45.8938233" lon="8.7355283"><ele>340.0</ele><time>2026-04-04T08:48:08.38Z</time></trkpt><trkpt lat="45.8937867" lon="8.73544"><ele>340.0</ele><time>2026-04-04T08:48:09.381Z</time></trkpt><trkpt lat="45.8937383" lon="8.735365"><ele>340.0</ele><time>2026-04-04T08:48:11.38Z</time></trkpt><trkpt lat="45.8936717" lon="8.73544"><ele>340.0</ele><time>2026-04-04T08:48:14.381Z</time></trkpt><trkpt lat="45.893645" lon="8.7355883"><ele>340.0</ele><time>2026-04-04T08:48:16.38Z</time></trkpt><trkpt lat="45.89365" lon="8.735695"><ele>340.0</ele><time>2026-04-04T08:48:17.381Z</time></trkpt><trkpt lat="45.8936683" lon="8.735795"><ele>340.0</ele><time>2026-04-04T08:48:18.38Z</time></trkpt><trkpt lat="45.89369" lon="8.7358867"><ele>340.0</ele><time>2026-04-04T08:48:19.381Z</time></trkpt><trkpt lat="45.8937183" lon="8.7360333"><ele>340.0</ele><time>2026-04-04T08:48:21.38Z</time></trkpt><trkpt lat="45.8936767" lon="8.736125"><ele>340.0</ele><time>2026-04-04T08:48:24.38Z</time></trkpt><trkpt lat="45.893605" lon="8.73614"><ele>340.0</ele><time>2026-04-04T08:48:27.38Z</time></trkpt><trkpt lat="45.8935333" lon="8.7360483"><ele>340.0</ele><time>2026-04-04T08:48:29.38Z</time></trkpt><trkpt lat="45.8934867" lon="8.735985"><ele>340.0</ele><time>2026-04-04T08:48:30.38Z</time></trkpt><trkpt lat="45.8934017" lon="8.7358483"><ele>345.66666666666663</ele><time>2026-04-04T08:48:32.38Z</time></trkpt><trkpt lat="45.8933383" lon="8.73571"><ele>351.3333333333333</ele><time>2026-04-04T08:48:34.38Z</time></trkpt><trkpt lat="45.8932833" lon="8.7356433"><ele>357.0</ele><time>2026-04-04T08:48:36.38Z</time></trkpt><trkpt lat="45.8932167" lon="8.73567"><ele>362.6666666666667</ele><time>2026-04-04T08:48:39.38Z</time></trkpt><trkpt lat="45.89315" lon="8.7355917"><ele>368.33333333333337</ele><time>2026-04-04T08:48:49.38Z</time></trkpt><trkpt lat="45.8931317" lon="8.7354533"><ele>374.0</ele><time>2026-04-04T08:48:51.381Z</time></trkpt><trkpt lat="45.8930967" lon="8.735345"><ele>374.0</ele><time>2026-04-04T08:48:53.381Z</time></trkpt><trkpt lat="45.8930617" lon="8.7352633"><ele>374.0</ele><time>2026-04-04T08:48:55.38Z</time></trkpt><trkpt lat="45.8929983" lon="8.73521"><ele>374.0</ele><time>2026-04-04T08:48:57.38Z</time></trkpt><trkpt lat="45.8929283" lon="8.735145"><ele>374.0</ele><time>2026-04-04T08:48:59.381Z</time></trkpt><trkpt lat="45.8928817" lon="8.735065"><ele>374.0</ele><time>2026-04-04T08:49:01.381Z</time></trkpt><trkpt lat="45.8928267" lon="8.7349967"><ele>374.0</ele><time>2026-04-04T08:49:02.38Z</time></trkpt><trkpt lat="45.8927567" lon="8.73494"><ele>374.0</ele><time>2026-04-04T08:49:03.38Z</time></trkpt><trkpt lat="45.8926883" lon="8.73489"><ele>372.4</ele><time>2026-04-04T08:49:04.38Z</time></trkpt><trkpt lat="45.8926183" lon="8.734845"><ele>370.79999999999995</ele><time>2026-04-04T08:49:05.381Z</time></trkpt><trkpt lat="45.8925417" lon="8.7348067"><ele>369.20000000000005</ele><time>2026-04-04T08:49:06.381Z</time></trkpt><trkpt lat="45.8924783" lon="8.734785"><ele>367.6</ele><time>2026-04-04T08:49:07.38Z</time></trkpt><trkpt lat="45.892355" lon="8.734755"><ele>366.0</ele><time>2026-04-04T08:49:09.381Z</time></trkpt><trkpt lat="45.89224" lon="8.7347767"><ele>370.6</ele><time>2026-04-04T08:49:11.38Z</time></trkpt><trkpt lat="45.8921333" lon="8.73484"><ele>375.20000000000005</ele><time>2026-04-04T08:49:13.381Z</time></trkpt><trkpt lat="45.89205" lon="8.73495"><ele>379.79999999999995</ele><time>2026-04-04T08:49:15.38Z</time></trkpt><trkpt lat="45.89199" lon="8.7350867"><ele>384.4</ele><time>2026-04-04T08:49:17.381Z</time></trkpt><trkpt lat="45.89192" lon="8.7351533"><ele>389.0</ele><time>2026-04-04T08:49:19.38Z</time></trkpt><trkpt lat="45.891815" lon="8.73513"><ele>392.2</ele><time>2026-04-04T08:49:21.381Z</time></trkpt><trkpt lat="45.8917117" lon="8.7350667"><ele>395.4</ele><time>2026-04-04T08:49:23.38Z</time></trkpt><trkpt lat="45.89162" lon="8.7349617"><ele>398.6</ele><time>2026-04-04T08:49:25.38Z</time></trkpt><trkpt lat="45.8915533" lon="8.734845"><ele>401.8</ele><time>2026-04-04T08:49:27.381Z</time></trkpt><trkpt lat="45.891485" lon="8.7347417"><ele>405.0</ele><time>2026-04-04T08:49:29.381Z</time></trkpt><trkpt lat="45.8914033" lon="8.7346683"><ele>405.0</ele><time>2026-04-04T08:49:31.381Z</time></trkpt><trkpt lat="45.89133" lon="8.7346167"><ele>405.0</ele><time>2026-04-04T08:49:33.38Z</time></trkpt><trkpt lat="45.891275" lon="8.7345283"><ele>405.0</ele><time>2026-04-04T08:49:35.381Z</time></trkpt><trkpt lat="45.8912433" lon="8.7344033"><ele>405.0</ele><time>2026-04-04T08:49:37.38Z</time></trkpt><trkpt lat="45.891215" lon="8.7342467"><ele>405.0</ele><time>2026-04-04T08:49:39.38Z</time></trkpt><trkpt lat="45.891195" lon="8.7340867"><ele>403.1666666666667</ele><time>2026-04-04T08:49:41.38Z</time></trkpt><trkpt lat="45.8911683" lon="8.7339817"><ele>401.33333333333337</ele><time>2026-04-04T08:49:42.38Z</time></trkpt><trkpt lat="45.8911317" lon="8.73387"><ele>399.5</ele><time>2026-04-04T08:49:43.381Z</time></trkpt><trkpt lat="45.891105" lon="8.7337617"><ele>397.6666666666667</ele><time>2026-04-04T08:49:44.38Z</time></trkpt><trkpt lat="45.8910717" lon="8.73365"><ele>395.83333333333337</ele><time>2026-04-04T08:49:45.38Z</time></trkpt><trkpt lat="45.8910333" lon="8.73353"><ele>394.0</ele><time>2026-04-04T08:49:46.38Z</time></trkpt><trkpt lat="45.8909883" lon="8.7334117"><ele>393.1666666666667</ele><time>2026-04-04T08:49:47.381Z</time></trkpt><trkpt lat="45.8909483" lon="8.733305"><ele>392.33333333333337</ele><time>2026-04-04T08:49:48.38Z</time></trkpt><trkpt lat="45.8909083" lon="8.7332083"><ele>391.5</ele><time>2026-04-04T08:49:49.38Z</time></trkpt><trkpt lat="45.8908683" lon="8.7331283"><ele>390.66666666666663</ele><time>2026-04-04T08:49:50.381Z</time></trkpt><trkpt lat="45.8908283" lon="8.7330567"><ele>389.8333333333333</ele><time>2026-04-04T08:49:51.381Z</time></trkpt><trkpt lat="45.8907633" lon="8.7329667"><ele>389.0</ele><time>2026-04-04T08:49:53.381Z</time></trkpt><trkpt lat="45.8907033" lon="8.73293"><ele>392.49999999999994</ele><time>2026-04-04T08:49:56.38Z</time></trkpt><trkpt lat="45.89076" lon="8.7329833"><ele>396.0</ele><time>2026-04-04T08:50:38.38Z</time></trkpt><trkpt lat="45.89081" lon="8.73305"><ele>399.5</ele><time>2026-04-04T08:50:42.38Z</time></trkpt><trkpt lat="45.8907833" lon="8.7331883"><ele>403.0</ele><time>2026-04-04T08:51:11.381Z</time></trkpt><trkpt lat="45.8907767" lon="8.7333167"><ele>406.49999999999994</ele><time>2026-04-04T08:51:13.38Z</time></trkpt><trkpt lat="45.89079" lon="8.7334167"><ele>410.0</ele><time>2026-04-04T08:51:15.38Z</time></trkpt><trkpt lat="45.8907933" lon="8.7335217"><ele>410.8333333333333</ele><time>2026-04-04T08:51:17.38Z</time></trkpt><trkpt lat="45.8907917" lon="8.7336167"><ele>411.66666666666663</ele><time>2026-04-04T08:51:19.381Z</time></trkpt><trkpt lat="45.8907733" lon="8.7337833"><ele>412.5</ele><time>2026-04-04T08:51:22.38Z</time></trkpt><trkpt lat="45.8907667" lon="8.73389"><ele>413.33333333333337</ele><time>2026-04-04T08:51:27.38Z</time></trkpt><trkpt lat="45.8907483" lon="8.73402"><ele>414.1666666666667</ele><time>2026-04-04T08:51:30.381Z</time></trkpt><trkpt lat="45.8907317" lon="8.7341233"><ele>415.0</ele><time>2026-04-04T08:51:32.381Z</time></trkpt><trkpt lat="45.8907133" lon="8.7342217"><ele>415.00000000000006</ele><time>2026-04-04T08:51:34.38Z</time></trkpt><trkpt lat="45.8906883" lon="8.7343217"><ele>415.0</ele><time>2026-04-04T08:51:36.38Z</time></trkpt><trkpt lat="45.8906767" lon="8.734425"><ele>415.0</ele><time>2026-04-04T08:51:38.38Z</time></trkpt><trkpt lat="45.8906533" lon="8.734535"><ele>415.0</ele><time>2026-04-04T08:51:41.381Z</time></trkpt><trkpt lat="45.890655" lon="8.7347083"><ele>415.00000000000006</ele><time>2026-04-04T08:52:06.381Z</time></trkpt><trkpt lat="45.8906267" lon="8.7348067"><ele>415.0</ele><time>2026-04-04T08:52:10.381Z</time></trkpt><trkpt lat="45.8906067" lon="8.7348983"><ele>415.8571428571429</ele><time>2026-04-04T08:52:26.381Z</time></trkpt><trkpt lat="45.8905617" lon="8.7349617"><ele>416.7142857142857</ele><time>2026-04-04T08:52:33.381Z</time></trkpt><trkpt lat="45.8905783" lon="8.7350667"><ele>417.57142857142856</ele><time>2026-04-04T08:52:56.381Z</time></trkpt><trkpt lat="45.8906433" lon="8.7350883"><ele>418.42857142857144</ele><time>2026-04-04T08:53:05.381Z</time></trkpt><trkpt lat="45.8907083" lon="8.735095"><ele>419.2857142857143</ele><time>2026-04-04T08:53:19.38Z</time></trkpt><trkpt lat="45.8907717" lon="8.73509"><ele>420.14285714285717</ele><time>2026-04-04T08:53:26.38Z</time></trkpt><trkpt lat="45.8908433" lon="8.7350917"><ele>421.0</ele><time>2026-04-04T08:53:32.38Z</time></trkpt><trkpt lat="45.8909083" lon="8.7350917"><ele>420.1666666666667</ele><time>2026-04-04T08:53:38.381Z</time></trkpt><trkpt lat="45.8909767" lon="8.735105"><ele>419.33333333333337</ele><time>2026-04-04T08:53:43.38Z</time></trkpt><trkpt lat="45.891045" lon="8.7351567"><ele>418.5</ele><time>2026-04-04T08:55:18.38Z</time></trkpt><trkpt lat="45.8910267" lon="8.7352467"><ele>417.66666666666663</ele><time>2026-04-04T08:55:20.381Z</time></trkpt><trkpt lat="45.8909783" lon="8.7353283"><ele>416.8333333333333</ele><time>2026-04-04T08:55:22.38Z</time></trkpt><trkpt lat="45.8909133" lon="8.7354233"><ele>416.0</ele><time>2026-04-04T08:55:24.38Z</time></trkpt><trkpt lat="45.8908733" lon="8.7355383"><ele>415.99999999999994</ele><time>2026-04-04T08:55:26.38Z</time></trkpt><trkpt lat="45.890865" lon="8.7356417"><ele>416.0</ele><time>2026-04-04T08:55:29.38Z</time></trkpt><trkpt lat="45.890805" lon="8.7357967"><ele>416.0</ele><time>2026-04-04T08:56:00.381Z</time></trkpt><trkpt lat="45.8908367" lon="8.7358783"><ele>416.0</ele><time>2026-04-04T08:56:02.38Z</time></trkpt><trkpt lat="45.890885" lon="8.73597"><ele>415.99999999999994</ele><time>2026-04-04T08:56:05.38Z</time></trkpt><trkpt lat="45.8909417" lon="8.7360467"><ele>416.0</ele><time>2026-04-04T08:56:08.38Z</time></trkpt><trkpt lat="45.8910017" lon="8.736105"><ele>416.99999999999994</ele><time>2026-04-04T08:56:11.38Z</time></trkpt><trkpt lat="45.8910767" lon="8.7361317"><ele>418.0</ele><time>2026-04-04T08:56:14.38Z</time></trkpt><trkpt lat="45.8911583" lon="8.7361483"><ele>419.0</ele><time>2026-04-04T08:56:17.38Z</time></trkpt><trkpt lat="45.89124" lon="8.7361733"><ele>420.0</ele><time>2026-04-04T08:56:20.381Z</time></trkpt><trkpt lat="45.8913167" lon="8.736215"><ele>420.99999999999994</ele><time>2026-04-04T08:56:23.38Z</time></trkpt><trkpt lat="45.8913933" lon="8.736255"><ele>422.0</ele><time>2026-04-04T08:56:26.381Z</time></trkpt><trkpt lat="45.8914583" lon="8.7362717"><ele>422.0</ele><time>2026-04-04T08:56:29.381Z</time></trkpt><trkpt lat="45.8915267" lon="8.7363"><ele>422.0</ele><time>2026-04-04T08:56:31.381Z</time></trkpt><trkpt lat="45.89159" lon="8.73634"><ele>422.0</ele><time>2026-04-04T08:56:33.381Z</time></trkpt><trkpt lat="45.8916517" lon="8.73641"><ele>422.0</ele><time>2026-04-04T08:56:36.38Z</time></trkpt><trkpt lat="45.8916967" lon="8.7364767"><ele>422.0</ele><time>2026-04-04T08:56:39.38Z</time></trkpt><trkpt lat="45.891745" lon="8.7365417"><ele>422.0</ele><time>2026-04-04T08:56:42.38Z</time></trkpt><trkpt lat="45.8917967" lon="8.7366033"><ele>422.0</ele><time>2026-04-04T08:56:44.38Z</time></trkpt><trkpt lat="45.89187" lon="8.736625"><ele>419.16666666666663</ele><time>2026-04-04T08:56:47.38Z</time></trkpt><trkpt lat="45.8919133" lon="8.7365367"><ele>416.3333333333333</ele><time>2026-04-04T08:56:50.38Z</time></trkpt><trkpt lat="45.8919483" lon="8.7364167"><ele>413.5</ele><time>2026-04-04T08:56:53.381Z</time></trkpt><trkpt lat="45.891985" lon="8.7363333"><ele>410.66666666666663</ele><time>2026-04-04T08:56:55.38Z</time></trkpt><trkpt lat="45.8920167" lon="8.7362517"><ele>407.8333333333333</ele><time>2026-04-04T08:56:57.38Z</time></trkpt><trkpt lat="45.8920433" lon="8.7361283"><ele>405.0</ele><time>2026-04-04T08:56:59.381Z</time></trkpt><trkpt lat="45.89206" lon="8.7360033"><ele>404.0</ele><time>2026-04-04T08:57:01.38Z</time></trkpt><trkpt lat="45.8920667" lon="8.73587"><ele>403.0</ele><time>2026-04-04T08:57:03.38Z</time></trkpt><trkpt lat="45.8920683" lon="8.735745"><ele>402.0</ele><time>2026-04-04T08:57:05.38Z</time></trkpt><trkpt lat="45.8921017" lon="8.7356567"><ele>401.0</ele><time>2026-04-04T08:57:08.381Z</time></trkpt><trkpt lat="45.8920917" lon="8.7355333"><ele>400.0</ele><time>2026-04-04T08:57:11.38Z</time></trkpt><trkpt lat="45.892065" lon="8.7354367"><ele>399.0</ele><time>2026-04-04T08:57:14.38Z</time></trkpt><trkpt lat="45.8920233" lon="8.735355"><ele>399.0</ele><time>2026-04-04T08:57:21.381Z</time></trkpt><trkpt lat="45.8919817" lon="8.7352617"><ele>399.0</ele><time>2026-04-04T08:57:26.381Z</time></trkpt><trkpt lat="45.89198" lon="8.7351533"><ele>399.0</ele><time>2026-04-04T08:57:29.381Z</time></trkpt><trkpt lat="45.8919983" lon="8.7350567"><ele>399.0</ele><time>2026-04-04T08:57:31.38Z</time></trkpt><trkpt lat="45.892035" lon="8.7349433"><ele>399.0</ele><time>2026-04-04T08:57:33.381Z</time></trkpt><trkpt lat="45.8920983" lon="8.7348433"><ele>399.0</ele><time>2026-04-04T08:57:35.381Z</time></trkpt><trkpt lat="45.892185" lon="8.7347917"><ele>397.0</ele><time>2026-04-04T08:57:37.38Z</time></trkpt><trkpt lat="45.8923033" lon="8.7347783"><ele>395.0</ele><time>2026-04-04T08:57:39.381Z</time></trkpt><trkpt lat="45.8924083" lon="8.73479"><ele>393.0</ele><time>2026-04-04T08:57:41.381Z</time></trkpt><trkpt lat="45.8925033" lon="8.7348133"><ele>391.0</ele><time>2026-04-04T08:57:43.38Z</time></trkpt><trkpt lat="45.8925733" lon="8.73487"><ele>389.0</ele><time>2026-04-04T08:57:45.381Z</time></trkpt><trkpt lat="45.892665" lon="8.7349783"><ele>386.49999999999994</ele><time>2026-04-04T08:57:47.381Z</time></trkpt><trkpt lat="45.892755" lon="8.735085"><ele>384.0</ele><time>2026-04-04T08:57:49.381Z</time></trkpt><trkpt lat="45.8928333" lon="8.73518"><ele>381.5</ele><time>2026-04-04T08:57:51.381Z</time></trkpt><trkpt lat="45.8928983" lon="8.7352017"><ele>379.0</ele><time>2026-04-04T08:57:53.381Z</time></trkpt><trkpt lat="45.8929583" lon="8.7352333"><ele>376.5</ele><time>2026-04-04T08:57:55.381Z</time></trkpt><trkpt lat="45.893025" lon="8.7353333"><ele>374.0</ele><time>2026-04-04T08:57:58.38Z</time></trkpt><trkpt lat="45.893055" lon="8.735435"><ele>374.0</ele><time>2026-04-04T08:58:00.38Z</time></trkpt><trkpt lat="45.8930717" lon="8.7355533"><ele>374.0</ele><time>2026-04-04T08:58:02.38Z</time></trkpt><trkpt lat="45.8931033" lon="8.735665"><ele>374.0</ele><time>2026-04-04T08:58:05.38Z</time></trkpt><trkpt lat="45.8932333" lon="8.7356983"><ele>374.0</ele><time>2026-04-04T08:59:07.38Z</time></trkpt><trkpt lat="45.8933017" lon="8.7357267"><ele>374.0</ele><time>2026-04-04T08:59:10.381Z</time></trkpt><trkpt lat="45.89334" lon="8.7358117"><ele>374.0</ele><time>2026-04-04T08:59:13.38Z</time></trkpt><trkpt lat="45.8933917" lon="8.735915"><ele>370.1666666666667</ele><time>2026-04-04T08:59:16.38Z</time></trkpt><trkpt lat="45.89344" lon="8.736005"><ele>366.33333333333337</ele><time>2026-04-04T08:59:18.38Z</time></trkpt><trkpt lat="45.8935083" lon="8.73609"><ele>362.5</ele><time>2026-04-04T08:59:20.38Z</time></trkpt><trkpt lat="45.89358" lon="8.73614"><ele>358.6666666666667</ele><time>2026-04-04T08:59:22.38Z</time></trkpt><trkpt lat="45.8936583" lon="8.7361233"><ele>354.8333333333333</ele><time>2026-04-04T08:59:24.381Z</time></trkpt><trkpt lat="45.893715" lon="8.7360733"><ele>351.0</ele><time>2026-04-04T08:59:26.38Z</time></trkpt><trkpt lat="45.893725" lon="8.7359683"><ele>348.8</ele><time>2026-04-04T08:59:28.38Z</time></trkpt><trkpt lat="45.8937133" lon="8.7358417"><ele>346.6</ele><time>2026-04-04T08:59:30.38Z</time></trkpt><trkpt lat="45.893695" lon="8.7357017"><ele>344.4</ele><time>2026-04-04T08:59:32.38Z</time></trkpt><trkpt lat="45.8936833" lon="8.7354983"><ele>342.2</ele><time>2026-04-04T08:59:35.381Z</time></trkpt><trkpt lat="45.893705" lon="8.73541"><ele>340.0</ele><time>2026-04-04T08:59:38.381Z</time></trkpt><trkpt lat="45.89376" lon="8.735485"><ele>340.0</ele><time>2026-04-04T08:59:41.38Z</time></trkpt><trkpt lat="45.893805" lon="8.735625"><ele>340.0</ele><time>2026-04-04T08:59:43.381Z</time></trkpt><trkpt lat="45.8938417" lon="8.7357367"><ele>340.0</ele><time>2026-04-04T08:59:45.38Z</time></trkpt><trkpt lat="45.8938667" lon="8.7358383"><ele>340.0</ele><time>2026-04-04T08:59:47.38Z</time></trkpt><trkpt lat="45.893895" lon="8.7359417"><ele>340.0</ele><time>2026-04-04T08:59:49.381Z</time></trkpt><trkpt lat="45.8939233" lon="8.7360367"><ele>340.0</ele><time>2026-04-04T08:59:51.381Z</time></trkpt><trkpt lat="45.8939567" lon="8.7361183"><ele>342.2</ele><time>2026-04-04T08:59:53.381Z</time></trkpt><trkpt lat="45.8939967" lon="8.736195"><ele>344.4</ele><time>2026-04-04T08:59:55.381Z</time></trkpt><trkpt lat="45.8940567" lon="8.7362817"><ele>346.6</ele><time>2026-04-04T08:59:57.381Z</time></trkpt><trkpt lat="45.8941283" lon="8.7363667"><ele>348.8</ele><time>2026-04-04T08:59:59.381Z</time></trkpt><trkpt lat="45.8941983" lon="8.7364667"><ele>351.0</ele><time>2026-04-04T09:00:01.381Z</time></trkpt><trkpt lat="45.8942967" lon="8.7365967"><ele>345.1666666666667</ele><time>2026-04-04T09:00:03.38Z</time></trkpt><trkpt lat="45.89435" lon="8.736665"><ele>339.3333333333333</ele><time>2026-04-04T09:00:04.38Z</time></trkpt><trkpt lat="45.8944233" lon="8.7367233"><ele>333.5</ele><time>2026-04-04T09:00:05.38Z</time></trkpt><trkpt lat="45.89451" lon="8.7368067"><ele>327.66666666666663</ele><time>2026-04-04T09:00:07.381Z</time></trkpt><trkpt lat="45.89458" lon="8.7368383"><ele>321.8333333333333</ele><time>2026-04-04T09:00:09.38Z</time></trkpt><trkpt lat="45.8946517" lon="8.736855"><ele>316.0</ele><time>2026-04-04T09:00:11.381Z</time></trkpt><trkpt lat="45.8947367" lon="8.7368583"><ele>316.0</ele><time>2026-04-04T09:00:13.381Z</time></trkpt><trkpt lat="45.8948267" lon="8.7368967"><ele>316.0</ele><time>2026-04-04T09:00:15.38Z</time></trkpt><trkpt lat="45.8948983" lon="8.7369433"><ele>316.0</ele><time>2026-04-04T09:00:17.381Z</time></trkpt><trkpt lat="45.89493" lon="8.7368417"><ele>316.0</ele><time>2026-04-04T09:00:20.381Z</time></trkpt><trkpt lat="45.894965" lon="8.73673"><ele>316.0</ele><time>2026-04-04T09:00:22.381Z</time></trkpt><trkpt lat="45.8950133" lon="8.7366383"><ele>316.0</ele><time>2026-04-04T09:00:24.381Z</time></trkpt><trkpt lat="45.8950483" lon="8.736555"><ele>314.3333333333333</ele><time>2026-04-04T09:00:26.38Z</time></trkpt><trkpt lat="45.8951" lon="8.7364633"><ele>312.66666666666663</ele><time>2026-04-04T09:00:29.38Z</time></trkpt><trkpt lat="45.89514" lon="8.7363717"><ele>311.0</ele><time>2026-04-04T09:00:34.381Z</time></trkpt><trkpt lat="45.8952017" lon="8.7362767"><ele>309.3333333333333</ele><time>2026-04-04T09:00:36.38Z</time></trkpt><trkpt lat="45.8952983" lon="8.7361717"><ele>307.6666666666667</ele><time>2026-04-04T09:00:38.38Z</time></trkpt><trkpt lat="45.8953583" lon="8.7361267"><ele>306.0</ele><time>2026-04-04T09:00:39.381Z</time></trkpt><trkpt lat="45.8954233" lon="8.7360767"><ele>305.57142857142856</ele><time>2026-04-04T09:00:40.381Z</time></trkpt><trkpt lat="45.8954917" lon="8.7360267"><ele>305.14285714285717</ele><time>2026-04-04T09:00:41.381Z</time></trkpt><trkpt lat="45.8955617" lon="8.7359883"><ele>304.7142857142857</ele><time>2026-04-04T09:00:42.38Z</time></trkpt><trkpt lat="45.8956333" lon="8.7359483"><ele>304.2857142857143</ele><time>2026-04-04T09:00:43.38Z</time></trkpt><trkpt lat="45.8956933" lon="8.7359133"><ele>303.85714285714283</ele><time>2026-04-04T09:00:44.38Z</time></trkpt><trkpt lat="45.8957583" lon="8.7358717"><ele>303.42857142857144</ele><time>2026-04-04T09:00:46.38Z</time></trkpt><trkpt lat="45.8958183" lon="8.7359083"><ele>303.0</ele><time>2026-04-04T09:00:49.381Z</time></trkpt><trkpt lat="45.89584" lon="8.736"><ele>303.5</ele><time>2026-04-04T09:00:51.381Z</time></trkpt><trkpt lat="45.895885" lon="8.7361217"><ele>304.0</ele><time>2026-04-04T09:00:53.381Z</time></trkpt><trkpt lat="45.8959167" lon="8.736255"><ele>304.5</ele><time>2026-04-04T09:00:55.38Z</time></trkpt><trkpt lat="45.8959483" lon="8.73637"><ele>305.0</ele><time>2026-04-04T09:00:57.381Z</time></trkpt><trkpt lat="45.89598" lon="8.7364783"><ele>305.5</ele><time>2026-04-04T09:00:59.381Z</time></trkpt><trkpt lat="45.8960333" lon="8.736535"><ele>306.0</ele><time>2026-04-04T09:01:01.381Z</time></trkpt><trkpt lat="45.89612" lon="8.73655"><ele>306.6</ele><time>2026-04-04T09:01:04.381Z</time></trkpt><trkpt lat="45.8961333" lon="8.7366533"><ele>307.20000000000005</ele><time>2026-04-04T09:01:08.381Z</time></trkpt><trkpt lat="45.896075" lon="8.736775"><ele>307.79999999999995</ele><time>2026-04-04T09:01:10.381Z</time></trkpt><trkpt lat="45.8960883" lon="8.7369283"><ele>308.4</ele><time>2026-04-04T09:01:12.38Z</time></trkpt><trkpt lat="45.8961283" lon="8.7370617"><ele>309.0</ele><time>2026-04-04T09:01:14.38Z</time></trkpt><trkpt lat="45.8961917" lon="8.7372"><ele>309.0</ele><time>2026-04-04T09:01:16.38Z</time></trkpt><trkpt lat="45.8962367" lon="8.7373483"><ele>309.0</ele><time>2026-04-04T09:01:18.381Z</time></trkpt><trkpt lat="45.8962483" lon="8.7374433"><ele>309.0</ele><time>2026-04-04T09:01:19.38Z</time></trkpt><trkpt lat="45.8962667" lon="8.7375567"><ele>309.0</ele><time>2026-04-04T09:01:20.38Z</time></trkpt><trkpt lat="45.8962817" lon="8.7377017"><ele>309.0</ele><time>2026-04-04T09:01:21.38Z</time></trkpt><trkpt lat="45.896305" lon="8.7378817"><ele>310.6666666666667</ele><time>2026-04-04T09:01:22.38Z</time></trkpt><trkpt lat="45.896315" lon="8.7380417"><ele>312.3333333333333</ele><time>2026-04-04T09:01:23.381Z</time></trkpt><trkpt lat="45.8963217" lon="8.738175"><ele>314.0</ele><time>2026-04-04T09:01:24.381Z</time></trkpt><trkpt lat="45.8963033" lon="8.738265"><ele>315.66666666666663</ele><time>2026-04-04T09:01:25.38Z</time></trkpt><trkpt lat="45.8962717" lon="8.7383517"><ele>317.3333333333333</ele><time>2026-04-04T09:01:26.381Z</time></trkpt><trkpt lat="45.8962517" lon="8.73844"><ele>319.0</ele><time>2026-04-04T09:01:27.381Z</time></trkpt><trkpt lat="45.8962483" lon="8.7385417"><ele>319.8333333333333</ele><time>2026-04-04T09:01:28.38Z</time></trkpt><trkpt lat="45.8962617" lon="8.7386467"><ele>320.66666666666663</ele><time>2026-04-04T09:01:29.38Z</time></trkpt><trkpt lat="45.8962967" lon="8.73877"><ele>321.5</ele><time>2026-04-04T09:01:30.381Z</time></trkpt><trkpt lat="45.89632" lon="8.738895"><ele>322.3333333333333</ele><time>2026-04-04T09:01:31.38Z</time></trkpt><trkpt lat="45.8963367" lon="8.739005"><ele>323.1666666666667</ele><time>2026-04-04T09:01:32.38Z</time></trkpt><trkpt lat="45.8963383" lon="8.739105"><ele>324.0</ele><time>2026-04-04T09:01:33.38Z</time></trkpt><trkpt lat="45.8963283" lon="8.7392767"><ele>324.0</ele><time>2026-04-04T09:01:35.38Z</time></trkpt><trkpt lat="45.8963133" lon="8.73937"><ele>324.0</ele><time>2026-04-04T09:01:36.38Z</time></trkpt><trkpt lat="45.8963067" lon="8.7394683"><ele>324.0</ele><time>2026-04-04T09:01:37.38Z</time></trkpt><trkpt lat="45.8963" lon="8.7395683"><ele>324.0</ele><time>2026-04-04T09:01:38.38Z</time></trkpt><trkpt lat="45.8962933" lon="8.7396733"><ele>324.0</ele><time>2026-04-04T09:01:39.38Z</time></trkpt><trkpt lat="45.896295" lon="8.7397767"><ele>324.0</ele><time>2026-04-04T09:01:40.38Z</time></trkpt><trkpt lat="45.8962967" lon="8.739945"><ele>324.1666666666667</ele><time>2026-04-04T09:01:42.381Z</time></trkpt><trkpt lat="45.8963167" lon="8.740035"><ele>324.3333333333333</ele><time>2026-04-04T09:01:44.38Z</time></trkpt><trkpt lat="45.8963233" lon="8.740125"><ele>324.5</ele><time>2026-04-04T09:01:46.38Z</time></trkpt><trkpt lat="45.89633" lon="8.74029"><ele>324.66666666666663</ele><time>2026-04-04T09:01:48.38Z</time></trkpt><trkpt lat="45.89635" lon="8.7404317"><ele>324.8333333333333</ele><time>2026-04-04T09:01:50.38Z</time></trkpt><trkpt lat="45.896375" lon="8.740515"><ele>325.0</ele><time>2026-04-04T09:01:53.38Z</time></trkpt><trkpt lat="45.8964383" lon="8.74064"><ele>326.2857142857143</ele><time>2026-04-04T09:03:14.381Z</time></trkpt><trkpt lat="45.8965367" lon="8.740685"><ele>327.5714285714286</ele><time>2026-04-04T09:03:44.38Z</time></trkpt><trkpt lat="45.8965983" lon="8.74075"><ele>328.8571428571429</ele><time>2026-04-04T09:04:32.38Z</time></trkpt><trkpt lat="45.89658" lon="8.74084"><ele>330.1428571428571</ele><time>2026-04-04T09:04:45.381Z</time></trkpt><trkpt lat="45.89662" lon="8.7409283"><ele>331.42857142857144</ele><time>2026-04-04T09:04:54.381Z</time></trkpt><trkpt lat="45.8966667" lon="8.7409933"><ele>332.7142857142857</ele><time>2026-04-04T09:04:58.38Z</time></trkpt><trkpt lat="45.8966867" lon="8.74108"><ele>334.0</ele><time>2026-04-04T09:05:10.38Z</time></trkpt><trkpt lat="45.8966433" lon="8.7412017"><ele>336.5</ele><time>2026-04-04T09:05:28.38Z</time></trkpt><trkpt lat="45.8966583" lon="8.7413133"><ele>339.0</ele><time>2026-04-04T09:05:31.381Z</time></trkpt><trkpt lat="45.8965933" lon="8.74125"><ele>341.5</ele><time>2026-04-04T09:05:37.381Z</time></trkpt><trkpt lat="45.8965583" lon="8.7411533"><ele>344.0</ele><time>2026-04-04T09:05:39.38Z</time></trkpt><trkpt lat="45.8965083" lon="8.7412083"><ele>346.5</ele><time>2026-04-04T09:05:45.38Z</time></trkpt><trkpt lat="45.896555" lon="8.7413767"><ele>349.0</ele><time>2026-04-04T09:05:47.381Z</time></trkpt><trkpt lat="45.8965983" lon="8.7414817"><ele>349.0</ele><time>2026-04-04T09:05:48.38Z</time></trkpt><trkpt lat="45.8966533" lon="8.7415717"><ele>349.0</ele><time>2026-04-04T09:05:49.38Z</time></trkpt><trkpt lat="45.8967117" lon="8.7416483"><ele>349.0</ele><time>2026-04-04T09:05:50.381Z</time></trkpt><trkpt lat="45.8967667" lon="8.7417217"><ele>349.0</ele><time>2026-04-04T09:05:51.381Z</time></trkpt><trkpt lat="45.8968267" lon="8.7417867"><ele>349.0</ele><time>2026-04-04T09:05:52.38Z</time></trkpt><trkpt lat="45.896895" lon="8.7418533"><ele>349.0</ele><time>2026-04-04T09:05:53.381Z</time></trkpt><trkpt lat="45.8969517" lon="8.7419317"><ele>346.66666666666663</ele><time>2026-04-04T09:05:54.381Z</time></trkpt><trkpt lat="45.8970067" lon="8.7420117"><ele>344.3333333333333</ele><time>2026-04-04T09:05:55.38Z</time></trkpt><trkpt lat="45.8970683" lon="8.742085"><ele>342.0</ele><time>2026-04-04T09:05:56.381Z</time></trkpt><trkpt lat="45.89712" lon="8.74215"><ele>339.6666666666667</ele><time>2026-04-04T09:05:57.38Z</time></trkpt><trkpt lat="45.8971817" lon="8.7422667"><ele>337.33333333333337</ele><time>2026-04-04T09:05:59.38Z</time></trkpt><trkpt lat="45.89723" lon="8.74233"><ele>335.0</ele><time>2026-04-04T09:06:01.38Z</time></trkpt><trkpt lat="45.897335" lon="8.74235"><ele>335.0</ele><time>2026-04-04T09:06:04.38Z</time></trkpt><trkpt lat="45.8974017" lon="8.7423283"><ele>335.0</ele><time>2026-04-04T09:06:06.38Z</time></trkpt><trkpt lat="45.8974667" lon="8.74242"><ele>335.0</ele><time>2026-04-04T09:06:17.381Z</time></trkpt><trkpt lat="45.8974133" lon="8.7425283"><ele>335.0</ele><time>2026-04-04T09:06:24.38Z</time></trkpt><trkpt lat="45.897325" lon="8.7425517"><ele>335.0</ele><time>2026-04-04T09:06:27.381Z</time></trkpt><trkpt lat="45.8973017" lon="8.742655"><ele>335.0</ele><time>2026-04-04T09:06:31.38Z</time></trkpt><trkpt lat="45.8973517" lon="8.74283"><ele>336.5</ele><time>2026-04-04T09:06:33.381Z</time></trkpt><trkpt lat="45.897405" lon="8.742985"><ele>338.0</ele><time>2026-04-04T09:06:35.38Z</time></trkpt><trkpt lat="45.897435" lon="8.7430667"><ele>339.5</ele><time>2026-04-04T09:06:37.38Z</time></trkpt><trkpt lat="45.8974633" lon="8.743195"><ele>341.0</ele><time>2026-04-04T09:07:52.38Z</time></trkpt><trkpt lat="45.8974083" lon="8.74315"><ele>342.5</ele><time>2026-04-04T09:08:02.38Z</time></trkpt><trkpt lat="45.89737" lon="8.7430267"><ele>344.0</ele><time>2026-04-04T09:08:05.38Z</time></trkpt><trkpt lat="45.8973383" lon="8.7428917"><ele>344.0</ele><time>2026-04-04T09:08:07.381Z</time></trkpt><trkpt lat="45.8973" lon="8.742765"><ele>344.0</ele><time>2026-04-04T09:08:09.38Z</time></trkpt><trkpt lat="45.89729" lon="8.7426733"><ele>344.0</ele><time>2026-04-04T09:08:13.38Z</time></trkpt><trkpt lat="45.8972883" lon="8.7425583"><ele>344.0</ele><time>2026-04-04T09:08:18.38Z</time></trkpt><trkpt lat="45.897285" lon="8.7424367"><ele>344.0</ele><time>2026-04-04T09:08:21.38Z</time></trkpt><trkpt lat="45.897265" lon="8.742325"><ele>344.0</ele><time>2026-04-04T09:08:23.38Z</time></trkpt><trkpt lat="45.8972283" lon="8.7422233"><ele>342.2</ele><time>2026-04-04T09:08:25.381Z</time></trkpt><trkpt lat="45.8971483" lon="8.7420917"><ele>340.4</ele><time>2026-04-04T09:08:27.38Z</time></trkpt><trkpt lat="45.8970917" lon="8.7420183"><ele>338.6</ele><time>2026-04-04T09:08:28.38Z</time></trkpt><trkpt lat="45.8970267" lon="8.7419433"><ele>336.8</ele><time>2026-04-04T09:08:29.38Z</time></trkpt><trkpt lat="45.89692" lon="8.741825"><ele>335.0</ele><time>2026-04-04T09:08:30.381Z</time></trkpt><trkpt lat="45.8968267" lon="8.7417233"><ele>337.33333333333337</ele><time>2026-04-04T09:08:31.38Z</time></trkpt><trkpt lat="45.89674" lon="8.741625"><ele>339.6666666666667</ele><time>2026-04-04T09:08:32.381Z</time></trkpt><trkpt lat="45.8966817" lon="8.741555"><ele>342.0</ele><time>2026-04-04T09:08:33.38Z</time></trkpt><trkpt lat="45.89664" lon="8.7414833"><ele>344.3333333333333</ele><time>2026-04-04T09:08:34.381Z</time></trkpt><trkpt lat="45.8965967" lon="8.741365"><ele>346.66666666666663</ele><time>2026-04-04T09:08:36.38Z</time></trkpt><trkpt lat="45.8966833" lon="8.74143"><ele>349.0</ele><time>2026-04-04T09:08:45.38Z</time></trkpt><trkpt lat="45.8967383" lon="8.741485"><ele>345.16666666666663</ele><time>2026-04-04T09:08:47.38Z</time></trkpt><trkpt lat="45.8968083" lon="8.7414767"><ele>341.3333333333333</ele><time>2026-04-04T09:08:49.381Z</time></trkpt><trkpt lat="45.8968817" lon="8.7414433"><ele>337.5</ele><time>2026-04-04T09:08:51.38Z</time></trkpt><trkpt lat="45.8968683" lon="8.7413333"><ele>333.6666666666667</ele><time>2026-04-04T09:08:55.381Z</time></trkpt><trkpt lat="45.896815" lon="8.741255"><ele>329.83333333333337</ele><time>2026-04-04T09:08:57.381Z</time></trkpt><trkpt lat="45.8967717" lon="8.74116"><ele>326.0</ele><time>2026-04-04T09:08:59.38Z</time></trkpt><trkpt lat="45.896755" lon="8.74104"><ele>327.33333333333337</ele><time>2026-04-04T09:09:02.38Z</time></trkpt><trkpt lat="45.896715" lon="8.7409533"><ele>328.6666666666667</ele><time>2026-04-04T09:09:05.381Z</time></trkpt><trkpt lat="45.8966667" lon="8.7407833"><ele>330.0</ele><time>2026-04-04T09:09:27.38Z</time></trkpt><trkpt lat="45.896595" lon="8.7407183"><ele>331.3333333333333</ele><time>2026-04-04T09:13:30.38Z</time></trkpt><trkpt lat="45.896575" lon="8.7405867"><ele>332.66666666666663</ele><time>2026-04-04T09:14:37.381Z</time></trkpt><trkpt lat="45.8965517" lon="8.7405"><ele>334.0</ele><time>2026-04-04T09:14:44.38Z</time></trkpt><trkpt lat="45.8965077" lon="8.7404256"><ele>334.0</ele><time>2026-04-04T09:14:55.404Z</time></trkpt><trkpt lat="45.896544" lon="8.7405043"><ele>334.0</ele><time>2026-04-04T09:15:51.439Z</time></trkpt><trkpt lat="45.896569" lon="8.7405878"><ele>334.0</ele><time>2026-04-04T09:15:59.416Z</time></trkpt><trkpt lat="45.8965892" lon="8.7407168"><ele>334.0</ele><time>2026-04-04T09:18:29.38Z</time></trkpt><trkpt lat="45.8965403" lon="8.740659"><ele>334.0</ele><time>2026-04-04T09:19:08.407Z</time></trkpt><trkpt lat="45.8964849" lon="8.740594"><ele>334.0</ele><time>2026-04-04T09:19:12.395Z</time></trkpt><trkpt lat="45.8963967" lon="8.7404833"><ele>334.0</ele><time>2026-04-04T09:19:39.38Z</time></trkpt><trkpt lat="45.8963717" lon="8.7403667"><ele>334.0</ele><time>2026-04-04T09:20:36.381Z</time></trkpt><trkpt lat="45.8963517" lon="8.7402317"><ele>334.0</ele><time>2026-04-04T09:20:38.38Z</time></trkpt><trkpt lat="45.89633" lon="8.7401183"><ele>334.0</ele><time>2026-04-04T09:20:40.381Z</time></trkpt><trkpt lat="45.8963133" lon="8.7399933"><ele>334.0</ele><time>2026-04-04T09:20:42.38Z</time></trkpt><trkpt lat="45.89631" lon="8.7398967"><ele>334.0</ele><time>2026-04-04T09:20:43.381Z</time></trkpt><trkpt lat="45.8963067" lon="8.7397583"><ele>332.5</ele><time>2026-04-04T09:20:44.381Z</time></trkpt><trkpt lat="45.89631" lon="8.739645"><ele>331.0</ele><time>2026-04-04T09:20:45.381Z</time></trkpt><trkpt lat="45.89631" lon="8.73955"><ele>329.5</ele><time>2026-04-04T09:20:46.381Z</time></trkpt><trkpt lat="45.8963233" lon="8.7393967"><ele>328.0</ele><time>2026-04-04T09:20:48.38Z</time></trkpt><trkpt lat="45.8963367" lon="8.739265"><ele>326.5</ele><time>2026-04-04T09:20:50.381Z</time></trkpt><trkpt lat="45.8963633" lon="8.7391367"><ele>325.0</ele><time>2026-04-04T09:20:52.381Z</time></trkpt><trkpt lat="45.8963867" lon="8.7389833"><ele>324.8</ele><time>2026-04-04T09:20:54.38Z</time></trkpt><trkpt lat="45.8963533" lon="8.7387983"><ele>324.6</ele><time>2026-04-04T09:20:56.38Z</time></trkpt><trkpt lat="45.8963233" lon="8.7386867"><ele>324.4</ele><time>2026-04-04T09:20:57.38Z</time></trkpt><trkpt lat="45.8962967" lon="8.7385667"><ele>324.2</ele><time>2026-04-04T09:20:58.38Z</time></trkpt><trkpt lat="45.89628" lon="8.7384517"><ele>324.0</ele><time>2026-04-04T09:20:59.38Z</time></trkpt><trkpt lat="45.896285" lon="8.73836"><ele>323.0</ele><time>2026-04-04T09:21:00.38Z</time></trkpt><trkpt lat="45.8963217" lon="8.7382183"><ele>322.0</ele><time>2026-04-04T09:21:02.381Z</time></trkpt><trkpt lat="45.896325" lon="8.7380633"><ele>321.0</ele><time>2026-04-04T09:21:04.381Z</time></trkpt><trkpt lat="45.896315" lon="8.7378933"><ele>320.0</ele><time>2026-04-04T09:21:06.38Z</time></trkpt><trkpt lat="45.896305" lon="8.7377917"><ele>319.0</ele><time>2026-04-04T09:21:07.38Z</time></trkpt><trkpt lat="45.8962967" lon="8.737685"><ele>317.3333333333333</ele><time>2026-04-04T09:21:08.38Z</time></trkpt><trkpt lat="45.8962867" lon="8.7375817"><ele>315.66666666666663</ele><time>2026-04-04T09:21:09.381Z</time></trkpt><trkpt lat="45.896275" lon="8.7374733"><ele>314.0</ele><time>2026-04-04T09:21:10.38Z</time></trkpt><trkpt lat="45.896255" lon="8.7373733"><ele>312.3333333333333</ele><time>2026-04-04T09:21:11.38Z</time></trkpt><trkpt lat="45.8962417" lon="8.7372833"><ele>310.6666666666667</ele><time>2026-04-04T09:21:12.38Z</time></trkpt><trkpt lat="45.8961767" lon="8.7371283"><ele>309.0</ele><time>2026-04-04T09:21:14.381Z</time></trkpt><trkpt lat="45.8961383" lon="8.736985"><ele>307.2</ele><time>2026-04-04T09:21:16.38Z</time></trkpt><trkpt lat="45.8960867" lon="8.7368767"><ele>305.4</ele><time>2026-04-04T09:21:18.381Z</time></trkpt><trkpt lat="45.8961267" lon="8.736755"><ele>303.6</ele><time>2026-04-04T09:21:20.38Z</time></trkpt><trkpt lat="45.89618" lon="8.7366783"><ele>301.8</ele><time>2026-04-04T09:21:22.38Z</time></trkpt><trkpt lat="45.8961767" lon="8.7365767"><ele>300.0</ele><time>2026-04-04T09:21:25.38Z</time></trkpt><trkpt lat="45.8960617" lon="8.7365133"><ele>300.0</ele><time>2026-04-04T09:21:28.381Z</time></trkpt><trkpt lat="45.8960033" lon="8.7364383"><ele>300.0</ele><time>2026-04-04T09:21:30.381Z</time></trkpt><trkpt lat="45.8959483" lon="8.7363183"><ele>300.0</ele><time>2026-04-04T09:21:32.38Z</time></trkpt><trkpt lat="45.8959117" lon="8.7362433"><ele>300.0</ele><time>2026-04-04T09:21:33.381Z</time></trkpt><trkpt lat="45.8958783" lon="8.7361517"><ele>300.0</ele><time>2026-04-04T09:21:34.38Z</time></trkpt><trkpt lat="45.8958217" lon="8.73601"><ele>300.0</ele><time>2026-04-04T09:21:36.381Z</time></trkpt><trkpt lat="45.895795" lon="8.7359033"><ele>300.6</ele><time>2026-04-04T09:21:38.381Z</time></trkpt><trkpt lat="45.8957233" lon="8.735895"><ele>301.2</ele><time>2026-04-04T09:21:40.38Z</time></trkpt><trkpt lat="45.8956267" lon="8.735935"><ele>301.8</ele><time>2026-04-04T09:21:42.38Z</time></trkpt><trkpt lat="45.895525" lon="8.7360017"><ele>302.4</ele><time>2026-04-04T09:21:44.381Z</time></trkpt><trkpt lat="45.8954233" lon="8.7360783"><ele>303.0</ele><time>2026-04-04T09:21:46.381Z</time></trkpt><trkpt lat="45.89531" lon="8.7361483"><ele>303.6</ele><time>2026-04-04T09:21:48.38Z</time></trkpt><trkpt lat="45.895215" lon="8.7362167"><ele>304.20000000000005</ele><time>2026-04-04T09:21:50.38Z</time></trkpt><trkpt lat="45.8951533" lon="8.736275"><ele>304.8</ele><time>2026-04-04T09:21:52.381Z</time></trkpt><trkpt lat="45.8951067" lon="8.7363483"><ele>305.40000000000003</ele><time>2026-04-04T09:21:55.381Z</time></trkpt><trkpt lat="45.8950483" lon="8.73644"><ele>306.0</ele><time>2026-04-04T09:22:00.38Z</time></trkpt><trkpt lat="45.89497" lon="8.7365883"><ele>307.6666666666667</ele><time>2026-04-04T09:22:02.381Z</time></trkpt><trkpt lat="45.8949233" lon="8.7366883"><ele>309.3333333333333</ele><time>2026-04-04T09:22:03.38Z</time></trkpt><trkpt lat="45.8949" lon="8.7367733"><ele>311.0</ele><time>2026-04-04T09:22:04.38Z</time></trkpt><trkpt lat="45.89488" lon="8.7369083"><ele>312.66666666666663</ele><time>2026-04-04T09:22:06.381Z</time></trkpt><trkpt lat="45.8947967" lon="8.73688"><ele>314.3333333333333</ele><time>2026-04-04T09:22:09.381Z</time></trkpt><trkpt lat="45.8946917" lon="8.736805"><ele>316.0</ele><time>2026-04-04T09:22:11.381Z</time></trkpt><trkpt lat="45.8945833" lon="8.7367917"><ele>316.0</ele><time>2026-04-04T09:22:13.38Z</time></trkpt><trkpt lat="45.894505" lon="8.7367383"><ele>316.0</ele><time>2026-04-04T09:22:16.38Z</time></trkpt><trkpt lat="45.8944567" lon="8.7365567"><ele>316.0</ele><time>2026-04-04T09:22:18.381Z</time></trkpt><trkpt lat="45.8944333" lon="8.7364483"><ele>316.0</ele><time>2026-04-04T09:22:19.38Z</time></trkpt><trkpt lat="45.8944167" lon="8.7363333"><ele>316.0</ele><time>2026-04-04T09:22:20.38Z</time></trkpt><trkpt lat="45.894395" lon="8.736235"><ele>316.0</ele><time>2026-04-04T09:22:21.381Z</time></trkpt><trkpt lat="45.8943733" lon="8.736145"><ele>316.0</ele><time>2026-04-04T09:22:22.38Z</time></trkpt><trkpt lat="45.8943483" lon="8.7359733"><ele>316.0</ele><time>2026-04-04T09:22:24.381Z</time></trkpt><trkpt lat="45.8943433" lon="8.7358817"><ele>316.0</ele><time>2026-04-04T09:22:25.38Z</time></trkpt><trkpt lat="45.894325" lon="8.7357883"><ele>316.0</ele><time>2026-04-04T09:22:26.38Z</time></trkpt><trkpt lat="45.8942867" lon="8.7356167"><ele>316.0</ele><time>2026-04-04T09:22:28.381Z</time></trkpt><trkpt lat="45.8942567" lon="8.735455"><ele>314.6</ele><time>2026-04-04T09:22:30.38Z</time></trkpt><trkpt lat="45.8942633" lon="8.7353367"><ele>313.20000000000005</ele><time>2026-04-04T09:22:32.38Z</time></trkpt><trkpt lat="45.8942783" lon="8.7351833"><ele>311.79999999999995</ele><time>2026-04-04T09:22:34.381Z</time></trkpt><trkpt lat="45.894265" lon="8.7350567"><ele>310.4</ele><time>2026-04-04T09:22:35.381Z</time></trkpt><trkpt lat="45.8942517" lon="8.7349117"><ele>309.0</ele><time>2026-04-04T09:22:36.38Z</time></trkpt><trkpt lat="45.8942333" lon="8.7347583"><ele>310.0</ele><time>2026-04-04T09:22:37.381Z</time></trkpt><trkpt lat="45.8942367" lon="8.7346033"><ele>311.0</ele><time>2026-04-04T09:22:38.38Z</time></trkpt><trkpt lat="45.89423" lon="8.7344717"><ele>312.0</ele><time>2026-04-04T09:22:39.38Z</time></trkpt><trkpt lat="45.8942233" lon="8.7343517"><ele>313.0</ele><time>2026-04-04T09:22:40.38Z</time></trkpt><trkpt lat="45.89422" lon="8.7342417"><ele>314.0</ele><time>2026-04-04T09:22:41.381Z</time></trkpt><trkpt lat="45.89422" lon="8.7341333"><ele>315.0</ele><time>2026-04-04T09:22:42.38Z</time></trkpt><trkpt lat="45.8942183" lon="8.7340217"><ele>315.0</ele><time>2026-04-04T09:22:43.38Z</time></trkpt><trkpt lat="45.894215" lon="8.7339183"><ele>315.0</ele><time>2026-04-04T09:22:44.38Z</time></trkpt><trkpt lat="45.8942117" lon="8.7338183"><ele>315.0</ele><time>2026-04-04T09:22:45.381Z</time></trkpt><trkpt lat="45.8942083" lon="8.7337117"><ele>315.0</ele><time>2026-04-04T09:22:46.381Z</time></trkpt><trkpt lat="45.89421" lon="8.7336083"><ele>315.0</ele><time>2026-04-04T09:22:47.381Z</time></trkpt><trkpt lat="45.894205" lon="8.7334633"><ele>315.0</ele><time>2026-04-04T09:22:49.381Z</time></trkpt><trkpt lat="45.89426" lon="8.7333783"><ele>313.8333333333333</ele><time>2026-04-04T09:22:51.38Z</time></trkpt><trkpt lat="45.8943817" lon="8.7333083"><ele>312.6666666666667</ele><time>2026-04-04T09:22:53.381Z</time></trkpt><trkpt lat="45.8944583" lon="8.733265"><ele>311.5</ele><time>2026-04-04T09:22:54.381Z</time></trkpt><trkpt lat="45.8945283" lon="8.7332233"><ele>310.33333333333337</ele><time>2026-04-04T09:22:55.38Z</time></trkpt><trkpt lat="45.894585" lon="8.73318"><ele>309.1666666666667</ele><time>2026-04-04T09:22:56.381Z</time></trkpt><trkpt lat="45.8946567" lon="8.7331217"><ele>308.0</ele><time>2026-04-04T09:22:58.38Z</time></trkpt><trkpt lat="45.8946633" lon="8.7330217"><ele>308.0</ele><time>2026-04-04T09:23:00.381Z</time></trkpt><trkpt lat="45.8946217" lon="8.732915"><ele>308.0</ele><time>2026-04-04T09:23:02.38Z</time></trkpt><trkpt lat="45.8946283" lon="8.7327767"><ele>308.0</ele><time>2026-04-04T09:23:04.38Z</time></trkpt><trkpt lat="45.894665" lon="8.7326967"><ele>308.0</ele><time>2026-04-04T09:23:05.381Z</time></trkpt><trkpt lat="45.8947083" lon="8.7325967"><ele>308.0</ele><time>2026-04-04T09:23:06.381Z</time></trkpt><trkpt lat="45.8947567" lon="8.732485"><ele>308.0</ele><time>2026-04-04T09:23:07.381Z</time></trkpt><trkpt lat="45.8948" lon="8.732375"><ele>307.5</ele><time>2026-04-04T09:23:08.38Z</time></trkpt><trkpt lat="45.8948483" lon="8.7322717"><ele>307.0</ele><time>2026-04-04T09:23:09.38Z</time></trkpt><trkpt lat="45.8948917" lon="8.7321683"><ele>306.5</ele><time>2026-04-04T09:23:10.38Z</time></trkpt><trkpt lat="45.894935" lon="8.73208"><ele>306.0</ele><time>2026-04-04T09:23:11.38Z</time></trkpt><trkpt lat="45.8949833" lon="8.7320083"><ele>305.5</ele><time>2026-04-04T09:23:12.38Z</time></trkpt><trkpt lat="45.8950267" lon="8.7319333"><ele>305.0</ele><time>2026-04-04T09:23:13.381Z</time></trkpt><trkpt lat="45.89509" lon="8.7318117"><ele>304.8</ele><time>2026-04-04T09:23:15.381Z</time></trkpt><trkpt lat="45.8951483" lon="8.7317067"><ele>304.6</ele><time>2026-04-04T09:23:17.38Z</time></trkpt><trkpt lat="45.89515" lon="8.731565"><ele>304.4</ele><time>2026-04-04T09:23:19.38Z</time></trkpt><trkpt lat="45.8951183" lon="8.7313867"><ele>304.2</ele><time>2026-04-04T09:23:21.381Z</time></trkpt><trkpt lat="45.8951" lon="8.7312933"><ele>304.0</ele><time>2026-04-04T09:23:22.38Z</time></trkpt><trkpt lat="45.89508" lon="8.7312017"><ele>304.0</ele><time>2026-04-04T09:23:23.38Z</time></trkpt><trkpt lat="45.8950667" lon="8.7311117"><ele>304.0</ele><time>2026-04-04T09:23:24.38Z</time></trkpt><trkpt lat="45.8950467" lon="8.7309417"><ele>304.0</ele><time>2026-04-04T09:23:26.38Z</time></trkpt><trkpt lat="45.8950367" lon="8.7308417"><ele>304.0</ele><time>2026-04-04T09:23:27.38Z</time></trkpt><trkpt lat="45.8950183" lon="8.7307433"><ele>304.0</ele><time>2026-04-04T09:23:28.381Z</time></trkpt><trkpt lat="45.8949967" lon="8.7306417"><ele>304.0</ele><time>2026-04-04T09:23:29.381Z</time></trkpt><trkpt lat="45.894985" lon="8.7305333"><ele>304.0</ele><time>2026-04-04T09:23:30.381Z</time></trkpt><trkpt lat="45.8949633" lon="8.730435"><ele>304.0</ele><time>2026-04-04T09:23:31.381Z</time></trkpt><trkpt lat="45.8949467" lon="8.730335"><ele>304.0</ele><time>2026-04-04T09:23:32.38Z</time></trkpt><trkpt lat="45.89493" lon="8.7302133"><ele>304.0</ele><time>2026-04-04T09:23:33.38Z</time></trkpt><trkpt lat="45.8949" lon="8.7300717"><ele>304.0</ele><time>2026-04-04T09:23:34.38Z</time></trkpt><trkpt lat="45.89487" lon="8.72992"><ele>304.0</ele><time>2026-04-04T09:23:35.38Z</time></trkpt><trkpt lat="45.8948367" lon="8.7297367"><ele>304.0</ele><time>2026-04-04T09:23:36.38Z</time></trkpt><trkpt lat="45.8947917" lon="8.729525"><ele>304.0</ele><time>2026-04-04T09:23:37.38Z</time></trkpt><trkpt lat="45.8947417" lon="8.729285"><ele>304.0</ele><time>2026-04-04T09:23:38.381Z</time></trkpt><trkpt lat="45.8946967" lon="8.7290333"><ele>301.3333333333333</ele><time>2026-04-04T09:23:39.38Z</time></trkpt><trkpt lat="45.8946517" lon="8.7287767"><ele>298.6666666666667</ele><time>2026-04-04T09:23:40.381Z</time></trkpt><trkpt lat="45.8946" lon="8.7285417"><ele>296.0</ele><time>2026-04-04T09:23:41.38Z</time></trkpt><trkpt lat="45.8945717" lon="8.72833"><ele>295.5</ele><time>2026-04-04T09:23:42.38Z</time></trkpt><trkpt lat="45.8945483" lon="8.728145"><ele>295.0</ele><time>2026-04-04T09:23:43.381Z</time></trkpt><trkpt lat="45.8945283" lon="8.7279767"><ele>294.5</ele><time>2026-04-04T09:23:44.38Z</time></trkpt><trkpt lat="45.894505" lon="8.72782"><ele>294.0</ele><time>2026-04-04T09:23:45.381Z</time></trkpt><trkpt lat="45.89448" lon="8.7276967"><ele>293.5</ele><time>2026-04-04T09:23:46.381Z</time></trkpt><trkpt lat="45.8944667" lon="8.7275917"><ele>293.0</ele><time>2026-04-04T09:23:47.381Z</time></trkpt><trkpt lat="45.89446" lon="8.7274967"><ele>292.5</ele><time>2026-04-04T09:23:48.38Z</time></trkpt><trkpt lat="45.89446" lon="8.7273783"><ele>292.0</ele><time>2026-04-04T09:23:50.38Z</time></trkpt><trkpt lat="45.894465" lon="8.727275"><ele>291.5</ele><time>2026-04-04T09:23:52.381Z</time></trkpt><trkpt lat="45.8944567" lon="8.7271783"><ele>291.0</ele><time>2026-04-04T09:23:53.38Z</time></trkpt><trkpt lat="45.894425" lon="8.7270433"><ele>290.8</ele><time>2026-04-04T09:23:54.38Z</time></trkpt><trkpt lat="45.8943767" lon="8.72688"><ele>290.6</ele><time>2026-04-04T09:23:55.38Z</time></trkpt><trkpt lat="45.8943333" lon="8.726725"><ele>290.4</ele><time>2026-04-04T09:23:56.381Z</time></trkpt><trkpt lat="45.89429" lon="8.7265967"><ele>290.2</ele><time>2026-04-04T09:23:57.381Z</time></trkpt><trkpt lat="45.8942567" lon="8.726485"><ele>290.0</ele><time>2026-04-04T09:23:58.38Z</time></trkpt><trkpt lat="45.89423" lon="8.72638"><ele>292.83333333333337</ele><time>2026-04-04T09:23:59.38Z</time></trkpt><trkpt lat="45.8942033" lon="8.72627"><ele>295.6666666666667</ele><time>2026-04-04T09:24:00.38Z</time></trkpt><trkpt lat="45.8941767" lon="8.7261633"><ele>298.5</ele><time>2026-04-04T09:24:01.38Z</time></trkpt><trkpt lat="45.8941517" lon="8.726075"><ele>301.3333333333333</ele><time>2026-04-04T09:24:02.38Z</time></trkpt><trkpt lat="45.894115" lon="8.725925"><ele>304.16666666666663</ele><time>2026-04-04T09:24:04.381Z</time></trkpt><trkpt lat="45.89411" lon="8.7257817"><ele>307.0</ele><time>2026-04-04T09:24:06.38Z</time></trkpt><trkpt lat="45.894115" lon="8.7256267"><ele>307.0</ele><time>2026-04-04T09:24:08.38Z</time></trkpt><trkpt lat="45.894105" lon="8.7254417"><ele>307.0</ele><time>2026-04-04T09:24:10.38Z</time></trkpt><trkpt lat="45.8940983" lon="8.7253367"><ele>307.0</ele><time>2026-04-04T09:24:11.381Z</time></trkpt><trkpt lat="45.8940867" lon="8.7252233"><ele>307.0</ele><time>2026-04-04T09:24:12.38Z</time></trkpt><trkpt lat="45.8940867" lon="8.7251117"><ele>307.0</ele><time>2026-04-04T09:24:13.38Z</time></trkpt><trkpt lat="45.8940833" lon="8.725005"><ele>307.0</ele><time>2026-04-04T09:24:14.381Z</time></trkpt><trkpt lat="45.894075" lon="8.7249067"><ele>305.8333333333333</ele><time>2026-04-04T09:24:15.381Z</time></trkpt><trkpt lat="45.89407" lon="8.7248017"><ele>304.66666666666663</ele><time>2026-04-04T09:24:16.381Z</time></trkpt><trkpt lat="45.8940633" lon="8.724705"><ele>303.5</ele><time>2026-04-04T09:24:17.38Z</time></trkpt><trkpt lat="45.89405" lon="8.7245083"><ele>302.3333333333333</ele><time>2026-04-04T09:24:19.38Z</time></trkpt><trkpt lat="45.894035" lon="8.7244017"><ele>301.1666666666667</ele><time>2026-04-04T09:24:20.38Z</time></trkpt><trkpt lat="45.8940167" lon="8.7242683"><ele>300.0</ele><time>2026-04-04T09:24:21.381Z</time></trkpt><trkpt lat="45.8939883" lon="8.7241167"><ele>298.0</ele><time>2026-04-04T09:24:22.381Z</time></trkpt><trkpt lat="45.8939683" lon="8.72395"><ele>296.0</ele><time>2026-04-04T09:24:23.38Z</time></trkpt><trkpt lat="45.8939417" lon="8.7237583"><ele>294.0</ele><time>2026-04-04T09:24:24.38Z</time></trkpt><trkpt lat="45.893915" lon="8.7235617"><ele>292.0</ele><time>2026-04-04T09:24:25.381Z</time></trkpt><trkpt lat="45.8939017" lon="8.7233533"><ele>291.0</ele><time>2026-04-04T09:24:26.381Z</time></trkpt><trkpt lat="45.8938983" lon="8.7231533"><ele>290.0</ele><time>2026-04-04T09:24:27.381Z</time></trkpt><trkpt lat="45.8938867" lon="8.7229667"><ele>289.0</ele><time>2026-04-04T09:24:28.38Z</time></trkpt><trkpt lat="45.8938817" lon="8.722795"><ele>288.0</ele><time>2026-04-04T09:24:29.381Z</time></trkpt><trkpt lat="45.8938733" lon="8.7226383"><ele>288.0</ele><time>2026-04-04T09:24:30.38Z</time></trkpt><trkpt lat="45.893855" lon="8.7224733"><ele>288.0</ele><time>2026-04-04T09:24:31.38Z</time></trkpt><trkpt lat="45.89384" lon="8.7222967"><ele>288.0</ele><time>2026-04-04T09:24:32.381Z</time></trkpt><trkpt lat="45.8938283" lon="8.72211"><ele>288.0</ele><time>2026-04-04T09:24:33.38Z</time></trkpt><trkpt lat="45.89382" lon="8.721915"><ele>286.5</ele><time>2026-04-04T09:24:34.38Z</time></trkpt><trkpt lat="45.8938167" lon="8.7217283"><ele>285.0</ele><time>2026-04-04T09:24:35.38Z</time></trkpt><trkpt lat="45.8938" lon="8.7215283"><ele>283.5</ele><time>2026-04-04T09:24:36.381Z</time></trkpt><trkpt lat="45.8937833" lon="8.721325"><ele>282.0</ele><time>2026-04-04T09:24:37.38Z</time></trkpt><trkpt lat="45.8937767" lon="8.721135"><ele>281.25</ele><time>2026-04-04T09:24:38.381Z</time></trkpt><trkpt lat="45.89377" lon="8.7209617"><ele>280.5</ele><time>2026-04-04T09:24:39.38Z</time></trkpt><trkpt lat="45.89378" lon="8.7207767"><ele>279.75</ele><time>2026-04-04T09:24:40.381Z</time></trkpt><trkpt lat="45.8937917" lon="8.7205767"><ele>279.0</ele><time>2026-04-04T09:24:41.381Z</time></trkpt><trkpt lat="45.8937917" lon="8.7203783"><ele>278.0</ele><time>2026-04-04T09:24:42.381Z</time></trkpt><trkpt lat="45.89379" lon="8.7201717"><ele>277.0</ele><time>2026-04-04T09:24:43.38Z</time></trkpt><trkpt lat="45.8937967" lon="8.719965"><ele>276.0</ele><time>2026-04-04T09:24:44.38Z</time></trkpt><trkpt lat="45.8938133" lon="8.719765"><ele>275.0</ele><time>2026-04-04T09:24:45.381Z</time></trkpt><trkpt lat="45.8938267" lon="8.7195683"><ele>274.0</ele><time>2026-04-04T09:24:46.38Z</time></trkpt><trkpt lat="45.8938433" lon="8.719395"><ele>273.0</ele><time>2026-04-04T09:24:47.38Z</time></trkpt><trkpt lat="45.893855" lon="8.719235"><ele>272.0</ele><time>2026-04-04T09:24:48.381Z</time></trkpt><trkpt lat="45.89385" lon="8.7190783"><ele>271.0</ele><time>2026-04-04T09:24:49.38Z</time></trkpt><trkpt lat="45.8938383" lon="8.7189083"><ele>271.0</ele><time>2026-04-04T09:24:50.381Z</time></trkpt><trkpt lat="45.893815" lon="8.71874"><ele>271.0</ele><time>2026-04-04T09:24:51.381Z</time></trkpt><trkpt lat="45.8937983" lon="8.71859"><ele>271.0</ele><time>2026-04-04T09:24:52.38Z</time></trkpt><trkpt lat="45.8937917" lon="8.7184367"><ele>271.0</ele><time>2026-04-04T09:24:53.381Z</time></trkpt><trkpt lat="45.8937883" lon="8.7182717"><ele>271.0</ele><time>2026-04-04T09:24:54.38Z</time></trkpt><trkpt lat="45.893795" lon="8.7181083"><ele>271.5</ele><time>2026-04-04T09:24:55.38Z</time></trkpt><trkpt lat="45.8937917" lon="8.71795"><ele>272.0</ele><time>2026-04-04T09:24:56.381Z</time></trkpt><trkpt lat="45.89379" lon="8.7178167"><ele>272.5</ele><time>2026-04-04T09:24:57.38Z</time></trkpt><trkpt lat="45.8937817" lon="8.71769"><ele>273.0</ele><time>2026-04-04T09:24:58.38Z</time></trkpt><trkpt lat="45.89376" lon="8.71758"><ele>273.5</ele><time>2026-04-04T09:24:59.38Z</time></trkpt><trkpt lat="45.893725" lon="8.7174867"><ele>274.0</ele><time>2026-04-04T09:25:00.38Z</time></trkpt><trkpt lat="45.8936967" lon="8.7173933"><ele>274.59999999999997</ele><time>2026-04-04T09:25:01.38Z</time></trkpt><trkpt lat="45.8936817" lon="8.7172867"><ele>275.2</ele><time>2026-04-04T09:25:02.381Z</time></trkpt><trkpt lat="45.89368" lon="8.7171233"><ele>275.79999999999995</ele><time>2026-04-04T09:25:03.38Z</time></trkpt><trkpt lat="45.89367" lon="8.7169317"><ele>276.4</ele><time>2026-04-04T09:25:04.38Z</time></trkpt><trkpt lat="45.89367" lon="8.7167617"><ele>277.0</ele><time>2026-04-04T09:25:05.381Z</time></trkpt><trkpt lat="45.8936617" lon="8.7165783"><ele>277.5</ele><time>2026-04-04T09:25:06.38Z</time></trkpt><trkpt lat="45.8936533" lon="8.716395"><ele>278.0</ele><time>2026-04-04T09:25:07.381Z</time></trkpt><trkpt lat="45.89365" lon="8.7162233"><ele>278.5</ele><time>2026-04-04T09:25:08.38Z</time></trkpt><trkpt lat="45.8936433" lon="8.7160633"><ele>279.0</ele><time>2026-04-04T09:25:09.381Z</time></trkpt><trkpt lat="45.89365" lon="8.7159267"><ele>279.8333333333333</ele><time>2026-04-04T09:25:10.38Z</time></trkpt><trkpt lat="45.8936533" lon="8.7158017"><ele>280.6666666666667</ele><time>2026-04-04T09:25:11.38Z</time></trkpt><trkpt lat="45.89366" lon="8.7156967"><ele>281.5</ele><time>2026-04-04T09:25:12.381Z</time></trkpt><trkpt lat="45.8936867" lon="8.7156033"><ele>282.33333333333337</ele><time>2026-04-04T09:25:13.38Z</time></trkpt><trkpt lat="45.8937517" lon="8.7155117"><ele>283.1666666666667</ele><time>2026-04-04T09:25:14.38Z</time></trkpt><trkpt lat="45.893835" lon="8.7154233"><ele>284.0</ele><time>2026-04-04T09:25:15.38Z</time></trkpt><trkpt lat="45.8939383" lon="8.7153"><ele>285.5</ele><time>2026-04-04T09:25:16.38Z</time></trkpt><trkpt lat="45.894025" lon="8.7151767"><ele>287.0</ele><time>2026-04-04T09:25:17.38Z</time></trkpt><trkpt lat="45.8941033" lon="8.7150483"><ele>288.5</ele><time>2026-04-04T09:25:18.38Z</time></trkpt><trkpt lat="45.894165" lon="8.714915"><ele>290.0</ele><time>2026-04-04T09:25:19.38Z</time></trkpt><trkpt lat="45.8942317" lon="8.7147783"><ele>288.6</ele><time>2026-04-04T09:25:20.381Z</time></trkpt><trkpt lat="45.8942917" lon="8.7146367"><ele>287.2</ele><time>2026-04-04T09:25:21.38Z</time></trkpt><trkpt lat="45.89435" lon="8.7145117"><ele>285.8</ele><time>2026-04-04T09:25:22.381Z</time></trkpt><trkpt lat="45.8943983" lon="8.7143783"><ele>284.4</ele><time>2026-04-04T09:25:23.381Z</time></trkpt><trkpt lat="45.8944417" lon="8.7142517"><ele>283.0</ele><time>2026-04-04T09:25:24.38Z</time></trkpt><trkpt lat="45.8944817" lon="8.7141233"><ele>282.8</ele><time>2026-04-04T09:25:25.38Z</time></trkpt><trkpt lat="45.8945167" lon="8.7139917"><ele>282.6</ele><time>2026-04-04T09:25:26.38Z</time></trkpt><trkpt lat="45.8945467" lon="8.7138667"><ele>282.4</ele><time>2026-04-04T09:25:27.38Z</time></trkpt><trkpt lat="45.8945717" lon="8.7137283"><ele>282.2</ele><time>2026-04-04T09:25:28.38Z</time></trkpt><trkpt lat="45.8945967" lon="8.7135817"><ele>282.0</ele><time>2026-04-04T09:25:29.38Z</time></trkpt><trkpt lat="45.894625" lon="8.7134217"><ele>282.0</ele><time>2026-04-04T09:25:30.38Z</time></trkpt><trkpt lat="45.894655" lon="8.7132833"><ele>282.0</ele><time>2026-04-04T09:25:31.38Z</time></trkpt><trkpt lat="45.89469" lon="8.7131567"><ele>282.0</ele><time>2026-04-04T09:25:32.381Z</time></trkpt><trkpt lat="45.8947367" lon="8.7130167"><ele>282.0</ele><time>2026-04-04T09:25:33.38Z</time></trkpt><trkpt lat="45.8947967" lon="8.71286"><ele>282.0</ele><time>2026-04-04T09:25:34.38Z</time></trkpt><trkpt lat="45.894865" lon="8.7127033"><ele>283.25</ele><time>2026-04-04T09:25:35.38Z</time></trkpt><trkpt lat="45.8949283" lon="8.712555"><ele>284.5</ele><time>2026-04-04T09:25:36.381Z</time></trkpt><trkpt lat="45.8950017" lon="8.7124"><ele>285.75</ele><time>2026-04-04T09:25:37.381Z</time></trkpt><trkpt lat="45.89508" lon="8.71224"><ele>287.0</ele><time>2026-04-04T09:25:38.381Z</time></trkpt><trkpt lat="45.895155" lon="8.7120867"><ele>284.75</ele><time>2026-04-04T09:25:39.381Z</time></trkpt><trkpt lat="45.8952183" lon="8.7119433"><ele>282.5</ele><time>2026-04-04T09:25:40.38Z</time></trkpt><trkpt lat="45.8952667" lon="8.7117933"><ele>280.25</ele><time>2026-04-04T09:25:41.38Z</time></trkpt><trkpt lat="45.8953067" lon="8.7116283"><ele>278.0</ele><time>2026-04-04T09:25:42.38Z</time></trkpt><trkpt lat="45.8953283" lon="8.71148"><ele>278.0</ele><time>2026-04-04T09:25:43.38Z</time></trkpt><trkpt lat="45.89533" lon="8.7113483"><ele>278.0</ele><time>2026-04-04T09:25:44.381Z</time></trkpt><trkpt lat="45.895315" lon="8.7112333"><ele>278.0</ele><time>2026-04-04T09:25:45.38Z</time></trkpt><trkpt lat="45.89528" lon="8.71113"><ele>278.0</ele><time>2026-04-04T09:25:46.381Z</time></trkpt><trkpt lat="45.8952367" lon="8.71102"><ele>278.0</ele><time>2026-04-04T09:25:47.381Z</time></trkpt><trkpt lat="45.8951767" lon="8.7109083"><ele>278.0</ele><time>2026-04-04T09:25:48.381Z</time></trkpt><trkpt lat="45.8950983" lon="8.7107883"><ele>279.4</ele><time>2026-04-04T09:25:49.38Z</time></trkpt><trkpt lat="45.895015" lon="8.7106717"><ele>280.8</ele><time>2026-04-04T09:25:50.38Z</time></trkpt><trkpt lat="45.8949417" lon="8.7105667"><ele>282.2</ele><time>2026-04-04T09:25:51.381Z</time></trkpt><trkpt lat="45.8948783" lon="8.7104817"><ele>283.6</ele><time>2026-04-04T09:25:52.38Z</time></trkpt><trkpt lat="45.8948217" lon="8.7104033"><ele>285.0</ele><time>2026-04-04T09:25:53.38Z</time></trkpt><trkpt lat="45.8947767" lon="8.710325"><ele>285.3333333333333</ele><time>2026-04-04T09:25:54.38Z</time></trkpt><trkpt lat="45.8947467" lon="8.7102367"><ele>285.6666666666667</ele><time>2026-04-04T09:25:55.38Z</time></trkpt><trkpt lat="45.8947283" lon="8.7101367"><ele>286.0</ele><time>2026-04-04T09:25:56.38Z</time></trkpt><trkpt lat="45.8947233" lon="8.7100333"><ele>286.33333333333337</ele><time>2026-04-04T09:25:57.381Z</time></trkpt><trkpt lat="45.8947267" lon="8.709935"><ele>286.6666666666667</ele><time>2026-04-04T09:25:58.381Z</time></trkpt><trkpt lat="45.89474" lon="8.709785"><ele>287.0</ele><time>2026-04-04T09:26:00.381Z</time></trkpt><trkpt lat="45.8947083" lon="8.7096717"><ele>287.0</ele><time>2026-04-04T09:26:03.381Z</time></trkpt><trkpt lat="45.8946383" lon="8.7096067"><ele>287.0</ele><time>2026-04-04T09:26:06.381Z</time></trkpt><trkpt lat="45.8945733" lon="8.7095433"><ele>287.0</ele><time>2026-04-04T09:26:08.381Z</time></trkpt><trkpt lat="45.8944983" lon="8.70953"><ele>287.0</ele><time>2026-04-04T09:26:11.381Z</time></trkpt><trkpt lat="45.8944317" lon="8.7095433"><ele>287.0</ele><time>2026-04-04T09:26:13.381Z</time></trkpt><trkpt lat="45.8943717" lon="8.7095867"><ele>287.0</ele><time>2026-04-04T09:26:15.38Z</time></trkpt><trkpt lat="45.8942867" lon="8.7097483"><ele>291.4</ele><time>2026-04-04T09:26:17.38Z</time></trkpt><trkpt lat="45.8942333" lon="8.709875"><ele>295.79999999999995</ele><time>2026-04-04T09:26:18.38Z</time></trkpt><trkpt lat="45.894195" lon="8.7099733"><ele>300.2</ele><time>2026-04-04T09:26:19.381Z</time></trkpt><trkpt lat="45.8941267" lon="8.7100683"><ele>304.59999999999997</ele><time>2026-04-04T09:26:21.38Z</time></trkpt><trkpt lat="45.8940517" lon="8.71003"><ele>309.0</ele><time>2026-04-04T09:26:24.38Z</time></trkpt><trkpt lat="45.8939983" lon="8.7099067"><ele>309.0</ele><time>2026-04-04T09:26:26.381Z</time></trkpt><trkpt lat="45.89396" lon="8.7097767"><ele>309.0</ele><time>2026-04-04T09:26:28.38Z</time></trkpt><trkpt lat="45.8939633" lon="8.7096317"><ele>309.0</ele><time>2026-04-04T09:26:30.381Z</time></trkpt><trkpt lat="45.8939783" lon="8.7094617"><ele>309.0</ele><time>2026-04-04T09:26:32.38Z</time></trkpt><trkpt lat="45.8940033" lon="8.7093083"><ele>309.0</ele><time>2026-04-04T09:26:34.381Z</time></trkpt><trkpt lat="45.894015" lon="8.7091317"><ele>309.4</ele><time>2026-04-04T09:26:36.38Z</time></trkpt><trkpt lat="45.894025" lon="8.7090417"><ele>309.79999999999995</ele><time>2026-04-04T09:26:37.381Z</time></trkpt><trkpt lat="45.8940417" lon="8.7088767"><ele>310.20000000000005</ele><time>2026-04-04T09:26:39.381Z</time></trkpt><trkpt lat="45.8940567" lon="8.708725"><ele>310.6</ele><time>2026-04-04T09:26:41.38Z</time></trkpt><trkpt lat="45.8940583" lon="8.70858"><ele>311.0</ele><time>2026-04-04T09:26:43.381Z</time></trkpt><trkpt lat="45.8940617" lon="8.7084383"><ele>311.2</ele><time>2026-04-04T09:26:45.38Z</time></trkpt><trkpt lat="45.8940633" lon="8.708325"><ele>311.40000000000003</ele><time>2026-04-04T09:26:47.38Z</time></trkpt><trkpt lat="45.8940817" lon="8.708215"><ele>311.6</ele><time>2026-04-04T09:26:49.38Z</time></trkpt><trkpt lat="45.89411" lon="8.7080717"><ele>311.8</ele><time>2026-04-04T09:26:51.381Z</time></trkpt><trkpt lat="45.8941217" lon="8.70793"><ele>312.0</ele><time>2026-04-04T09:26:53.38Z</time></trkpt><trkpt lat="45.8941233" lon="8.7078"><ele>312.4</ele><time>2026-04-04T09:26:55.381Z</time></trkpt><trkpt lat="45.8941367" lon="8.707665"><ele>312.79999999999995</ele><time>2026-04-04T09:26:57.381Z</time></trkpt><trkpt lat="45.89414" lon="8.7075367"><ele>313.2</ele><time>2026-04-04T09:26:59.38Z</time></trkpt><trkpt lat="45.8941467" lon="8.7073733"><ele>313.59999999999997</ele><time>2026-04-04T09:27:01.381Z</time></trkpt><trkpt lat="45.8941367" lon="8.7072283"><ele>314.0</ele><time>2026-04-04T09:27:03.381Z</time></trkpt><trkpt lat="45.8940783" lon="8.7071483"><ele>314.0</ele><time>2026-04-04T09:27:05.381Z</time></trkpt><trkpt lat="45.8939783" lon="8.7071267"><ele>314.0</ele><time>2026-04-04T09:27:07.38Z</time></trkpt><trkpt lat="45.8938583" lon="8.7071367"><ele>314.0</ele><time>2026-04-04T09:27:09.38Z</time></trkpt><trkpt lat="45.8937717" lon="8.7070983"><ele>314.0</ele><time>2026-04-04T09:27:11.38Z</time></trkpt><trkpt lat="45.8937333" lon="8.70696"><ele>314.0</ele><time>2026-04-04T09:27:13.38Z</time></trkpt><trkpt lat="45.893735" lon="8.706855"><ele>314.33333333333337</ele><time>2026-04-04T09:27:14.38Z</time></trkpt><trkpt lat="45.8937417" lon="8.7067517"><ele>314.6666666666667</ele><time>2026-04-04T09:27:15.38Z</time></trkpt><trkpt lat="45.8937433" lon="8.70664"><ele>315.0</ele><time>2026-04-04T09:27:16.381Z</time></trkpt><trkpt lat="45.8937383" lon="8.7065417"><ele>315.3333333333333</ele><time>2026-04-04T09:27:17.381Z</time></trkpt><trkpt lat="45.89369" lon="8.706445"><ele>315.66666666666663</ele><time>2026-04-04T09:27:19.38Z</time></trkpt><trkpt lat="45.8936467" lon="8.7065167"><ele>316.0</ele><time>2026-04-04T09:27:21.38Z</time></trkpt><trkpt lat="45.8936067" lon="8.706675"><ele>316.00000000000006</ele><time>2026-04-04T09:27:23.38Z</time></trkpt><trkpt lat="45.8935817" lon="8.7067617"><ele>316.0</ele><time>2026-04-04T09:27:24.38Z</time></trkpt><trkpt lat="45.893555" lon="8.70685"><ele>316.0</ele><time>2026-04-04T09:27:25.38Z</time></trkpt><trkpt lat="45.893535" lon="8.70694"><ele>316.0</ele><time>2026-04-04T09:27:26.381Z</time></trkpt><trkpt lat="45.893505" lon="8.7070467"><ele>316.0</ele><time>2026-04-04T09:27:27.38Z</time></trkpt><trkpt lat="45.8934767" lon="8.7071367"><ele>316.00000000000006</ele><time>2026-04-04T09:27:28.381Z</time></trkpt><trkpt lat="45.8934533" lon="8.7072367"><ele>316.0</ele><time>2026-04-04T09:27:29.381Z</time></trkpt><trkpt lat="45.8934267" lon="8.7073667"><ele>320.3333333333333</ele><time>2026-04-04T09:27:30.381Z</time></trkpt><trkpt lat="45.8933983" lon="8.7075017"><ele>324.66666666666663</ele><time>2026-04-04T09:27:31.381Z</time></trkpt><trkpt lat="45.89338" lon="8.70763"><ele>329.0</ele><time>2026-04-04T09:27:32.38Z</time></trkpt><trkpt lat="45.8933567" lon="8.7077183"><ele>333.3333333333333</ele><time>2026-04-04T09:27:33.381Z</time></trkpt><trkpt lat="45.8933" lon="8.7076667"><ele>337.6666666666667</ele><time>2026-04-04T09:27:38.381Z</time></trkpt><trkpt lat="45.8932667" lon="8.7075633"><ele>342.0</ele><time>2026-04-04T09:27:40.381Z</time></trkpt><trkpt lat="45.8932067" lon="8.7075033"><ele>342.0</ele><time>2026-04-04T09:27:43.381Z</time></trkpt><trkpt lat="45.8931317" lon="8.7074967"><ele>342.0</ele><time>2026-04-04T09:27:45.38Z</time></trkpt><trkpt lat="45.8929675" lon="8.7074637"><ele>342.0</ele><time>2026-04-04T09:27:49.455Z</time></trkpt><trkpt lat="45.8928222" lon="8.7073976"><ele>342.0</ele><time>2026-04-04T09:27:50.381Z</time></trkpt><trkpt lat="45.8927271" lon="8.7073269"><ele>342.0</ele><time>2026-04-04T09:27:51.38Z</time></trkpt><trkpt lat="45.8926584" lon="8.7072549"><ele>342.0</ele><time>2026-04-04T09:27:52.381Z</time></trkpt><trkpt lat="45.8925984" lon="8.7071718"><ele>342.0</ele><time>2026-04-04T09:27:53.381Z</time></trkpt><trkpt lat="45.8925396" lon="8.7070902"><ele>342.0</ele><time>2026-04-04T09:27:54.381Z</time></trkpt><trkpt lat="45.8924852" lon="8.7070101"><ele>342.0</ele><time>2026-04-04T09:27:55.38Z</time></trkpt><trkpt lat="45.8924345" lon="8.7069267"><ele>342.0</ele><time>2026-04-04T09:27:56.381Z</time></trkpt><trkpt lat="45.8923908" lon="8.7068455"><ele>342.3333333333333</ele><time>2026-04-04T09:27:57.38Z</time></trkpt><trkpt lat="45.8923449" lon="8.7067712"><ele>342.6666666666667</ele><time>2026-04-04T09:27:58.381Z</time></trkpt><trkpt lat="45.8922918" lon="8.7067121"><ele>343.0</ele><time>2026-04-04T09:27:59.38Z</time></trkpt><trkpt lat="45.8922341" lon="8.706666"><ele>343.33333333333337</ele><time>2026-04-04T09:28:00.381Z</time></trkpt><trkpt lat="45.8921299" lon="8.7065779"><ele>343.6666666666667</ele><time>2026-04-04T09:28:02.38Z</time></trkpt><trkpt lat="45.8920558" lon="8.7064311"><ele>344.0</ele><time>2026-04-04T09:28:04.38Z</time></trkpt><trkpt lat="45.8920245" lon="8.7063226"><ele>344.0</ele><time>2026-04-04T09:28:05.38Z</time></trkpt><trkpt lat="45.8919988" lon="8.7062076"><ele>344.0</ele><time>2026-04-04T09:28:06.38Z</time></trkpt><trkpt lat="45.8919798" lon="8.7060962"><ele>344.0</ele><time>2026-04-04T09:28:07.38Z</time></trkpt><trkpt lat="45.8919698" lon="8.7059796"><ele>344.0</ele><time>2026-04-04T09:28:08.38Z</time></trkpt><trkpt lat="45.8919589" lon="8.7058567"><ele>344.0</ele><time>2026-04-04T09:28:09.38Z</time></trkpt><trkpt lat="45.8919464" lon="8.7057326"><ele>344.0</ele><time>2026-04-04T09:28:10.38Z</time></trkpt><trkpt lat="45.8919254" lon="8.7056055"><ele>341.79999999999995</ele><time>2026-04-04T09:28:11.38Z</time></trkpt><trkpt lat="45.8918994" lon="8.7054734"><ele>339.59999999999997</ele><time>2026-04-04T09:28:12.381Z</time></trkpt><trkpt lat="45.8918706" lon="8.7053126"><ele>337.4</ele><time>2026-04-04T09:28:13.38Z</time></trkpt><trkpt lat="45.8918294" lon="8.7051473"><ele>335.2</ele><time>2026-04-04T09:28:14.381Z</time></trkpt><trkpt lat="45.8917987" lon="8.7049974"><ele>333.0</ele><time>2026-04-04T09:28:15.381Z</time></trkpt><trkpt lat="45.891763" lon="8.7048615"><ele>335.0</ele><time>2026-04-04T09:28:16.38Z</time></trkpt><trkpt lat="45.8917277" lon="8.7047107"><ele>337.0</ele><time>2026-04-04T09:28:17.381Z</time></trkpt><trkpt lat="45.891689" lon="8.7045523"><ele>339.0</ele><time>2026-04-04T09:28:18.38Z</time></trkpt><trkpt lat="45.8916444" lon="8.7044126"><ele>341.0</ele><time>2026-04-04T09:28:19.38Z</time></trkpt><trkpt lat="45.8916002" lon="8.7042961"><ele>343.0</ele><time>2026-04-04T09:28:20.38Z</time></trkpt><trkpt lat="45.8915647" lon="8.7041987"><ele>343.0</ele><time>2026-04-04T09:28:21.381Z</time></trkpt><trkpt lat="45.891537" lon="8.7041063"><ele>343.0</ele><time>2026-04-04T09:28:22.38Z</time></trkpt><trkpt lat="45.891517" lon="8.7040043"><ele>343.0</ele><time>2026-04-04T09:28:23.381Z</time></trkpt><trkpt lat="45.8914999" lon="8.7038933"><ele>343.0</ele><time>2026-04-04T09:28:24.38Z</time></trkpt><trkpt lat="45.8914763" lon="8.7037722"><ele>343.0</ele><time>2026-04-04T09:28:25.38Z</time></trkpt><trkpt lat="45.8914488" lon="8.7036359"><ele>343.0</ele><time>2026-04-04T09:28:26.38Z</time></trkpt><trkpt lat="45.8914107" lon="8.7034975"><ele>341.8333333333333</ele><time>2026-04-04T09:28:27.38Z</time></trkpt><trkpt lat="45.8913808" lon="8.7033802"><ele>340.66666666666663</ele><time>2026-04-04T09:28:28.38Z</time></trkpt><trkpt lat="45.891353" lon="8.7032845"><ele>339.5</ele><time>2026-04-04T09:28:29.38Z</time></trkpt><trkpt lat="45.8913172" lon="8.7031929"><ele>338.3333333333333</ele><time>2026-04-04T09:28:30.38Z</time></trkpt><trkpt lat="45.8912857" lon="8.7031134"><ele>337.1666666666667</ele><time>2026-04-04T09:28:31.38Z</time></trkpt><trkpt lat="45.8912379" lon="8.7029693"><ele>336.0</ele><time>2026-04-04T09:28:33.381Z</time></trkpt><trkpt lat="45.8912305" lon="8.7028049"><ele>334.5</ele><time>2026-04-04T09:28:35.381Z</time></trkpt><trkpt lat="45.8912197" lon="8.7026921"><ele>333.0</ele><time>2026-04-04T09:28:36.381Z</time></trkpt><trkpt lat="45.8912072" lon="8.7025807"><ele>331.5</ele><time>2026-04-04T09:28:37.38Z</time></trkpt><trkpt lat="45.8911888" lon="8.7024771"><ele>330.0</ele><time>2026-04-04T09:28:38.381Z</time></trkpt><trkpt lat="45.891159" lon="8.7023712"><ele>328.5</ele><time>2026-04-04T09:28:39.381Z</time></trkpt><trkpt lat="45.8911061" lon="8.7022408"><ele>327.0</ele><time>2026-04-04T09:28:40.381Z</time></trkpt><trkpt lat="45.8910407" lon="8.7021111"><ele>327.0</ele><time>2026-04-04T09:28:41.38Z</time></trkpt><trkpt lat="45.8909708" lon="8.7019905"><ele>327.0</ele><time>2026-04-04T09:28:42.38Z</time></trkpt><trkpt lat="45.8909078" lon="8.7018838"><ele>327.0</ele><time>2026-04-04T09:28:43.38Z</time></trkpt><trkpt lat="45.89086" lon="8.7017888"><ele>327.0</ele><time>2026-04-04T09:28:44.38Z</time></trkpt><trkpt lat="45.8908301" lon="8.7017002"><ele>327.0</ele><time>2026-04-04T09:28:45.38Z</time></trkpt><trkpt lat="45.8908176" lon="8.7015775"><ele>327.0</ele><time>2026-04-04T09:28:46.381Z</time></trkpt><trkpt lat="45.8908074" lon="8.7014305"><ele>328.20000000000005</ele><time>2026-04-04T09:28:47.38Z</time></trkpt><trkpt lat="45.8907953" lon="8.701299"><ele>329.4</ele><time>2026-04-04T09:28:48.381Z</time></trkpt><trkpt lat="45.8907757" lon="8.7011892"><ele>330.6</ele><time>2026-04-04T09:28:49.38Z</time></trkpt><trkpt lat="45.8907495" lon="8.7011017"><ele>331.79999999999995</ele><time>2026-04-04T09:28:50.38Z</time></trkpt><trkpt lat="45.8906645" lon="8.700999"><ele>333.0</ele><time>2026-04-04T09:28:52.381Z</time></trkpt><trkpt lat="45.8905595" lon="8.7009975"><ele>333.0</ele><time>2026-04-04T09:28:54.381Z</time></trkpt><trkpt lat="45.8904599" lon="8.701038"><ele>333.0</ele><time>2026-04-04T09:28:56.38Z</time></trkpt><trkpt lat="45.8903917" lon="8.7010833"><ele>333.0</ele><time>2026-04-04T09:28:59.381Z</time></trkpt><trkpt lat="45.890285" lon="8.70116"><ele>333.0</ele><time>2026-04-04T09:29:01.38Z</time></trkpt><trkpt lat="45.8902133" lon="8.70121"><ele>333.0</ele><time>2026-04-04T09:29:02.38Z</time></trkpt><trkpt lat="45.8901367" lon="8.7012567"><ele>335.0</ele><time>2026-04-04T09:29:03.38Z</time></trkpt><trkpt lat="45.8900567" lon="8.7012883"><ele>337.0</ele><time>2026-04-04T09:29:04.381Z</time></trkpt><trkpt lat="45.889965" lon="8.7013167"><ele>339.0</ele><time>2026-04-04T09:29:05.381Z</time></trkpt><trkpt lat="45.88988" lon="8.7013367"><ele>341.0</ele><time>2026-04-04T09:29:06.38Z</time></trkpt><trkpt lat="45.8898" lon="8.7013367"><ele>343.0</ele><time>2026-04-04T09:29:07.381Z</time></trkpt><trkpt lat="45.8897117" lon="8.701325"><ele>345.0</ele><time>2026-04-04T09:29:08.381Z</time></trkpt><trkpt lat="45.889615" lon="8.7013167"><ele>345.0</ele><time>2026-04-04T09:29:09.38Z</time></trkpt><trkpt lat="45.8895217" lon="8.7013167"><ele>345.0</ele><time>2026-04-04T09:29:10.38Z</time></trkpt><trkpt lat="45.889435" lon="8.7013233"><ele>345.0</ele><time>2026-04-04T09:29:11.38Z</time></trkpt><trkpt lat="45.88935" lon="8.70134"><ele>345.0</ele><time>2026-04-04T09:29:12.38Z</time></trkpt><trkpt lat="45.8892817" lon="8.701365"><ele>345.0</ele><time>2026-04-04T09:29:13.381Z</time></trkpt><trkpt lat="45.889215" lon="8.70143"><ele>345.0</ele><time>2026-04-04T09:29:15.38Z</time></trkpt><trkpt lat="45.8891633" lon="8.7013783"><ele>345.8</ele><time>2026-04-04T09:29:23.381Z</time></trkpt><trkpt lat="45.8891717" lon="8.701265"><ele>346.6</ele><time>2026-04-04T09:29:25.38Z</time></trkpt><trkpt lat="45.8891667" lon="8.7011"><ele>347.4</ele><time>2026-04-04T09:29:27.381Z</time></trkpt><trkpt lat="45.8891533" lon="8.7009233"><ele>348.2</ele><time>2026-04-04T09:29:29.38Z</time></trkpt><trkpt lat="45.889115" lon="8.70076"><ele>349.0</ele><time>2026-04-04T09:29:31.381Z</time></trkpt><trkpt lat="45.8890833" lon="8.7006617"><ele>347.66666666666663</ele><time>2026-04-04T09:29:32.38Z</time></trkpt><trkpt lat="45.8890483" lon="8.7005667"><ele>346.3333333333333</ele><time>2026-04-04T09:29:33.38Z</time></trkpt><trkpt lat="45.8890217" lon="8.7004833"><ele>345.0</ele><time>2026-04-04T09:29:34.381Z</time></trkpt><trkpt lat="45.8890183" lon="8.7003517"><ele>343.6666666666667</ele><time>2026-04-04T09:29:36.381Z</time></trkpt><trkpt lat="45.889045" lon="8.700255"><ele>342.33333333333337</ele><time>2026-04-04T09:29:38.381Z</time></trkpt><trkpt lat="45.8890833" lon="8.7001717"><ele>341.0</ele><time>2026-04-04T09:29:40.381Z</time></trkpt><trkpt lat="45.8891017" lon="8.7000367"><ele>340.85714285714283</ele><time>2026-04-04T09:29:42.381Z</time></trkpt><trkpt lat="45.8891067" lon="8.699945"><ele>340.7142857142857</ele><time>2026-04-04T09:29:43.381Z</time></trkpt><trkpt lat="45.8891133" lon="8.699855"><ele>340.57142857142856</ele><time>2026-04-04T09:29:44.38Z</time></trkpt><trkpt lat="45.8891183" lon="8.6997583"><ele>340.42857142857144</ele><time>2026-04-04T09:29:45.38Z</time></trkpt><trkpt lat="45.8891217" lon="8.6996583"><ele>340.2857142857143</ele><time>2026-04-04T09:29:46.381Z</time></trkpt><trkpt lat="45.8891283" lon="8.699545"><ele>340.14285714285717</ele><time>2026-04-04T09:29:47.381Z</time></trkpt><trkpt lat="45.8891383" lon="8.6994283"><ele>340.0</ele><time>2026-04-04T09:29:48.381Z</time></trkpt><trkpt lat="45.8891433" lon="8.6993317"><ele>340.0</ele><time>2026-04-04T09:29:49.381Z</time></trkpt><trkpt lat="45.8891367" lon="8.6991817"><ele>340.0</ele><time>2026-04-04T09:29:51.38Z</time></trkpt><trkpt lat="45.8891083" lon="8.6990117"><ele>340.0</ele><time>2026-04-04T09:29:53.381Z</time></trkpt><trkpt lat="45.8890867" lon="8.6989133"><ele>340.0</ele><time>2026-04-04T09:29:54.38Z</time></trkpt><trkpt lat="45.8890733" lon="8.6987983"><ele>340.0</ele><time>2026-04-04T09:29:55.381Z</time></trkpt><trkpt lat="45.8890683" lon="8.698685"><ele>340.14285714285717</ele><time>2026-04-04T09:29:56.38Z</time></trkpt><trkpt lat="45.8890633" lon="8.6985683"><ele>340.2857142857143</ele><time>2026-04-04T09:29:57.38Z</time></trkpt><trkpt lat="45.889055" lon="8.698475"><ele>340.42857142857144</ele><time>2026-04-04T09:29:58.381Z</time></trkpt><trkpt lat="45.8890483" lon="8.6983667"><ele>340.57142857142856</ele><time>2026-04-04T09:29:59.38Z</time></trkpt><trkpt lat="45.8890467" lon="8.6982667"><ele>340.7142857142857</ele><time>2026-04-04T09:30:00.38Z</time></trkpt><trkpt lat="45.88904" lon="8.69817"><ele>340.85714285714283</ele><time>2026-04-04T09:30:01.38Z</time></trkpt><trkpt lat="45.8890333" lon="8.6980617"><ele>341.0</ele><time>2026-04-04T09:30:02.38Z</time></trkpt><trkpt lat="45.88902" lon="8.6979517"><ele>341.0</ele><time>2026-04-04T09:30:03.38Z</time></trkpt><trkpt lat="45.889005" lon="8.6978483"><ele>341.0</ele><time>2026-04-04T09:30:04.381Z</time></trkpt><trkpt lat="45.8889833" lon="8.6977433"><ele>341.0</ele><time>2026-04-04T09:30:05.38Z</time></trkpt><trkpt lat="45.8889483" lon="8.6976317"><ele>341.0</ele><time>2026-04-04T09:30:06.381Z</time></trkpt><trkpt lat="45.8889133" lon="8.6975167"><ele>341.0</ele><time>2026-04-04T09:30:07.38Z</time></trkpt><trkpt lat="45.8888683" lon="8.6973883"><ele>341.0</ele><time>2026-04-04T09:30:08.38Z</time></trkpt><trkpt lat="45.888825" lon="8.6972567"><ele>340.6</ele><time>2026-04-04T09:30:09.381Z</time></trkpt><trkpt lat="45.8887817" lon="8.6971333"><ele>340.20000000000005</ele><time>2026-04-04T09:30:10.38Z</time></trkpt><trkpt lat="45.8887433" lon="8.6970183"><ele>339.79999999999995</ele><time>2026-04-04T09:30:11.38Z</time></trkpt><trkpt lat="45.8887033" lon="8.69689"><ele>339.4</ele><time>2026-04-04T09:30:12.38Z</time></trkpt><trkpt lat="45.8886533" lon="8.6967533"><ele>339.0</ele><time>2026-04-04T09:30:13.38Z</time></trkpt><trkpt lat="45.8886017" lon="8.696615"><ele>338.6666666666667</ele><time>2026-04-04T09:30:14.381Z</time></trkpt><trkpt lat="45.8885533" lon="8.6965033"><ele>338.3333333333333</ele><time>2026-04-04T09:30:15.38Z</time></trkpt><trkpt lat="45.8885067" lon="8.69641"><ele>338.0</ele><time>2026-04-04T09:30:16.381Z</time></trkpt><trkpt lat="45.8884567" lon="8.6963067"><ele>337.66666666666663</ele><time>2026-04-04T09:30:17.381Z</time></trkpt><trkpt lat="45.8884167" lon="8.6962167"><ele>337.3333333333333</ele><time>2026-04-04T09:30:18.381Z</time></trkpt><trkpt lat="45.8883733" lon="8.6961167"><ele>337.0</ele><time>2026-04-04T09:30:19.381Z</time></trkpt><trkpt lat="45.8883417" lon="8.6960367"><ele>339.20000000000005</ele><time>2026-04-04T09:30:20.381Z</time></trkpt><trkpt lat="45.8882867" lon="8.6959083"><ele>341.4</ele><time>2026-04-04T09:30:22.38Z</time></trkpt><trkpt lat="45.8882333" lon="8.69583"><ele>343.6</ele><time>2026-04-04T09:30:24.381Z</time></trkpt><trkpt lat="45.8881533" lon="8.6958433"><ele>345.79999999999995</ele><time>2026-04-04T09:30:26.38Z</time></trkpt><trkpt lat="45.8880467" lon="8.6958683"><ele>348.0</ele><time>2026-04-04T09:30:28.38Z</time></trkpt><trkpt lat="45.88792" lon="8.69584"><ele>348.0</ele><time>2026-04-04T09:30:30.38Z</time></trkpt><trkpt lat="45.8878133" lon="8.6957433"><ele>348.0</ele><time>2026-04-04T09:30:32.38Z</time></trkpt><trkpt lat="45.8877533" lon="8.6956883"><ele>348.0</ele><time>2026-04-04T09:30:33.38Z</time></trkpt><trkpt lat="45.88768" lon="8.6956383"><ele>348.0</ele><time>2026-04-04T09:30:34.38Z</time></trkpt><trkpt lat="45.8876133" lon="8.6955733"><ele>348.0</ele><time>2026-04-04T09:30:35.38Z</time></trkpt><trkpt lat="45.88755" lon="8.6954983"><ele>348.0</ele><time>2026-04-04T09:30:36.38Z</time></trkpt><trkpt lat="45.887505" lon="8.6954067"><ele>348.5</ele><time>2026-04-04T09:30:37.38Z</time></trkpt><trkpt lat="45.8874567" lon="8.6953083"><ele>349.0</ele><time>2026-04-04T09:30:38.38Z</time></trkpt><trkpt lat="45.887415" lon="8.6952017"><ele>349.5</ele><time>2026-04-04T09:30:39.381Z</time></trkpt><trkpt lat="45.8873817" lon="8.6950967"><ele>350.0</ele><time>2026-04-04T09:30:40.381Z</time></trkpt><trkpt lat="45.8873517" lon="8.695005"><ele>350.5</ele><time>2026-04-04T09:30:41.381Z</time></trkpt><trkpt lat="45.8873167" lon="8.694925"><ele>351.0</ele><time>2026-04-04T09:30:42.38Z</time></trkpt><trkpt lat="45.8872633" lon="8.6947617"><ele>351.0</ele><time>2026-04-04T09:30:44.381Z</time></trkpt><trkpt lat="45.8872383" lon="8.694665"><ele>351.0</ele><time>2026-04-04T09:30:45.38Z</time></trkpt><trkpt lat="45.8872183" lon="8.6945767"><ele>351.0</ele><time>2026-04-04T09:30:46.38Z</time></trkpt><trkpt lat="45.8871767" lon="8.6944283"><ele>351.0</ele><time>2026-04-04T09:30:48.381Z</time></trkpt><trkpt lat="45.8871383" lon="8.69428"><ele>351.0</ele><time>2026-04-04T09:30:50.38Z</time></trkpt><trkpt lat="45.8871283" lon="8.69416"><ele>351.0</ele><time>2026-04-04T09:30:52.38Z</time></trkpt><trkpt lat="45.8871283" lon="8.6940383"><ele>351.0</ele><time>2026-04-04T09:30:54.38Z</time></trkpt><trkpt lat="45.8871133" lon="8.6938783"><ele>351.0</ele><time>2026-04-04T09:30:56.38Z</time></trkpt><trkpt lat="45.8870933" lon="8.693785"><ele>351.0</ele><time>2026-04-04T09:30:57.38Z</time></trkpt><trkpt lat="45.8870667" lon="8.6936933"><ele>351.0</ele><time>2026-04-04T09:30:58.38Z</time></trkpt><trkpt lat="45.8870383" lon="8.6936067"><ele>351.0</ele><time>2026-04-04T09:30:59.38Z</time></trkpt><trkpt lat="45.8869933" lon="8.6935167"><ele>351.0</ele><time>2026-04-04T09:31:00.381Z</time></trkpt><trkpt lat="45.8869533" lon="8.6934417"><ele>350.5</ele><time>2026-04-04T09:31:01.381Z</time></trkpt><trkpt lat="45.8869133" lon="8.6933583"><ele>350.0</ele><time>2026-04-04T09:31:02.381Z</time></trkpt><trkpt lat="45.8868917" lon="8.6932267"><ele>349.5</ele><time>2026-04-04T09:31:04.381Z</time></trkpt><trkpt lat="45.8869317" lon="8.6930817"><ele>349.0</ele><time>2026-04-04T09:31:06.381Z</time></trkpt><trkpt lat="45.8869333" lon="8.6929233"><ele>348.5</ele><time>2026-04-04T09:31:08.38Z</time></trkpt><trkpt lat="45.8869167" lon="8.6928333"><ele>348.0</ele><time>2026-04-04T09:31:09.38Z</time></trkpt><trkpt lat="45.8868833" lon="8.6927283"><ele>348.0</ele><time>2026-04-04T09:31:10.381Z</time></trkpt><trkpt lat="45.8868367" lon="8.6926117"><ele>348.0</ele><time>2026-04-04T09:31:11.38Z</time></trkpt><trkpt lat="45.8867867" lon="8.692485"><ele>348.0</ele><time>2026-04-04T09:31:12.38Z</time></trkpt><trkpt lat="45.8867267" lon="8.6923467"><ele>348.0</ele><time>2026-04-04T09:31:13.38Z</time></trkpt><trkpt lat="45.8866633" lon="8.69221"><ele>348.0</ele><time>2026-04-04T09:31:14.381Z</time></trkpt><trkpt lat="45.8866017" lon="8.6920967"><ele>348.5</ele><time>2026-04-04T09:31:15.38Z</time></trkpt><trkpt lat="45.8865433" lon="8.6919983"><ele>349.0</ele><time>2026-04-04T09:31:16.38Z</time></trkpt><trkpt lat="45.8864867" lon="8.6919183"><ele>349.5</ele><time>2026-04-04T09:31:17.38Z</time></trkpt><trkpt lat="45.8864283" lon="8.691855"><ele>350.0</ele><time>2026-04-04T09:31:18.38Z</time></trkpt><trkpt lat="45.8863717" lon="8.6918083"><ele>350.5</ele><time>2026-04-04T09:31:19.38Z</time></trkpt><trkpt lat="45.8863067" lon="8.691765"><ele>351.0</ele><time>2026-04-04T09:31:20.38Z</time></trkpt><trkpt lat="45.8862283" lon="8.6917233"><ele>351.20000000000005</ele><time>2026-04-04T09:31:21.38Z</time></trkpt><trkpt lat="45.8861317" lon="8.6916667"><ele>351.40000000000003</ele><time>2026-04-04T09:31:22.38Z</time></trkpt><trkpt lat="45.8860283" lon="8.6915967"><ele>351.6</ele><time>2026-04-04T09:31:23.381Z</time></trkpt><trkpt lat="45.88593" lon="8.6915417"><ele>351.8</ele><time>2026-04-04T09:31:24.38Z</time></trkpt><trkpt lat="45.885835" lon="8.6914767"><ele>352.0</ele><time>2026-04-04T09:31:25.38Z</time></trkpt><trkpt lat="45.8857567" lon="8.6914083"><ele>350.40000000000003</ele><time>2026-04-04T09:31:26.38Z</time></trkpt><trkpt lat="45.8856817" lon="8.6913383"><ele>348.8</ele><time>2026-04-04T09:31:27.381Z</time></trkpt><trkpt lat="45.885615" lon="8.6912933"><ele>347.2</ele><time>2026-04-04T09:31:28.38Z</time></trkpt><trkpt lat="45.8855" lon="8.69129"><ele>345.6</ele><time>2026-04-04T09:31:30.38Z</time></trkpt><trkpt lat="45.885405" lon="8.6914117"><ele>344.0</ele><time>2026-04-04T09:31:32.38Z</time></trkpt><trkpt lat="45.885365" lon="8.6915"><ele>344.0</ele><time>2026-04-04T09:31:33.38Z</time></trkpt><trkpt lat="45.8853183" lon="8.691605"><ele>344.0</ele><time>2026-04-04T09:31:34.38Z</time></trkpt><trkpt lat="45.8852767" lon="8.6917167"><ele>344.0</ele><time>2026-04-04T09:31:35.38Z</time></trkpt><trkpt lat="45.8852317" lon="8.6918317"><ele>344.0</ele><time>2026-04-04T09:31:36.38Z</time></trkpt><trkpt lat="45.8851883" lon="8.6919483"><ele>344.0</ele><time>2026-04-04T09:31:37.38Z</time></trkpt><trkpt lat="45.885135" lon="8.69207"><ele>342.83333333333337</ele><time>2026-04-04T09:31:38.38Z</time></trkpt><trkpt lat="45.885085" lon="8.6921917"><ele>341.6666666666667</ele><time>2026-04-04T09:31:39.381Z</time></trkpt><trkpt lat="45.885035" lon="8.69231"><ele>340.5</ele><time>2026-04-04T09:31:40.381Z</time></trkpt><trkpt lat="45.8849817" lon="8.6924067"><ele>339.3333333333333</ele><time>2026-04-04T09:31:41.381Z</time></trkpt><trkpt lat="45.884925" lon="8.6924917"><ele>338.16666666666663</ele><time>2026-04-04T09:31:42.381Z</time></trkpt><trkpt lat="45.8848667" lon="8.6925433"><ele>337.0</ele><time>2026-04-04T09:31:43.38Z</time></trkpt><trkpt lat="45.8848033" lon="8.6925667"><ele>337.0</ele><time>2026-04-04T09:31:44.38Z</time></trkpt><trkpt lat="45.8847367" lon="8.692555"><ele>337.0</ele><time>2026-04-04T09:31:45.381Z</time></trkpt><trkpt lat="45.884665" lon="8.69251"><ele>337.0</ele><time>2026-04-04T09:31:46.38Z</time></trkpt><trkpt lat="45.88459" lon="8.6924433"><ele>337.0</ele><time>2026-04-04T09:31:47.381Z</time></trkpt><trkpt lat="45.8845183" lon="8.6923933"><ele>337.0</ele><time>2026-04-04T09:31:48.381Z</time></trkpt><trkpt lat="45.884455" lon="8.69237"><ele>337.0</ele><time>2026-04-04T09:31:49.38Z</time></trkpt><trkpt lat="45.8843367" lon="8.69242"><ele>337.0</ele><time>2026-04-04T09:31:51.38Z</time></trkpt><trkpt lat="45.88428" lon="8.6924833"><ele>337.0</ele><time>2026-04-04T09:31:52.38Z</time></trkpt><trkpt lat="45.8842233" lon="8.6925533"><ele>337.0</ele><time>2026-04-04T09:31:53.38Z</time></trkpt><trkpt lat="45.8841717" lon="8.692615"><ele>337.0</ele><time>2026-04-04T09:31:54.38Z</time></trkpt><trkpt lat="45.8840567" lon="8.6926783"><ele>337.0</ele><time>2026-04-04T09:31:56.381Z</time></trkpt><trkpt lat="45.8839283" lon="8.69263"><ele>336.6</ele><time>2026-04-04T09:31:58.38Z</time></trkpt><trkpt lat="45.8838567" lon="8.6925617"><ele>336.20000000000005</ele><time>2026-04-04T09:31:59.38Z</time></trkpt><trkpt lat="45.883785" lon="8.69248"><ele>335.8</ele><time>2026-04-04T09:32:00.38Z</time></trkpt><trkpt lat="45.8837033" lon="8.6923883"><ele>335.4</ele><time>2026-04-04T09:32:01.38Z</time></trkpt><trkpt lat="45.8836267" lon="8.6923067"><ele>335.0</ele><time>2026-04-04T09:32:02.381Z</time></trkpt><trkpt lat="45.88356" lon="8.6922283"><ele>334.99999999999994</ele><time>2026-04-04T09:32:03.38Z</time></trkpt><trkpt lat="45.883505" lon="8.6921617"><ele>335.0</ele><time>2026-04-04T09:32:04.38Z</time></trkpt><trkpt lat="45.8834467" lon="8.6920917"><ele>335.0</ele><time>2026-04-04T09:32:05.38Z</time></trkpt><trkpt lat="45.8833917" lon="8.692035"><ele>335.0</ele><time>2026-04-04T09:32:06.381Z</time></trkpt><trkpt lat="45.8833367" lon="8.691985"><ele>335.0</ele><time>2026-04-04T09:32:07.38Z</time></trkpt><trkpt lat="45.883275" lon="8.69196"><ele>334.99999999999994</ele><time>2026-04-04T09:32:08.381Z</time></trkpt><trkpt lat="45.883205" lon="8.6919583"><ele>335.0</ele><time>2026-04-04T09:32:09.381Z</time></trkpt><trkpt lat="45.8831383" lon="8.69198"><ele>335.1666666666667</ele><time>2026-04-04T09:32:10.381Z</time></trkpt><trkpt lat="45.88307" lon="8.6920217"><ele>335.33333333333337</ele><time>2026-04-04T09:32:11.38Z</time></trkpt><trkpt lat="45.883" lon="8.6920783"><ele>335.5</ele><time>2026-04-04T09:32:12.38Z</time></trkpt><trkpt lat="45.8829233" lon="8.6921267"><ele>335.6666666666667</ele><time>2026-04-04T09:32:13.381Z</time></trkpt><trkpt lat="45.8828467" lon="8.6921833"><ele>335.8333333333333</ele><time>2026-04-04T09:32:14.38Z</time></trkpt><trkpt lat="45.88278" lon="8.692235"><ele>336.0</ele><time>2026-04-04T09:32:15.38Z</time></trkpt><trkpt lat="45.882725" lon="8.6922817"><ele>336.0</ele><time>2026-04-04T09:32:16.38Z</time></trkpt><trkpt lat="45.8826383" lon="8.69237"><ele>336.0</ele><time>2026-04-04T09:32:18.381Z</time></trkpt><trkpt lat="45.8825767" lon="8.69242"><ele>336.0</ele><time>2026-04-04T09:32:20.38Z</time></trkpt><trkpt lat="45.8824917" lon="8.692355"><ele>336.0</ele><time>2026-04-04T09:32:22.381Z</time></trkpt><trkpt lat="45.88245" lon="8.6922783"><ele>336.0</ele><time>2026-04-04T09:32:23.381Z</time></trkpt><trkpt lat="45.8824133" lon="8.6921967"><ele>336.0</ele><time>2026-04-04T09:32:24.38Z</time></trkpt><trkpt lat="45.8823733" lon="8.692115"><ele>336.6</ele><time>2026-04-04T09:32:25.381Z</time></trkpt><trkpt lat="45.882335" lon="8.6920383"><ele>337.20000000000005</ele><time>2026-04-04T09:32:26.381Z</time></trkpt><trkpt lat="45.882265" lon="8.6919117"><ele>337.79999999999995</ele><time>2026-04-04T09:32:28.381Z</time></trkpt><trkpt lat="45.8822033" lon="8.6918017"><ele>338.4</ele><time>2026-04-04T09:32:30.381Z</time></trkpt><trkpt lat="45.88213" lon="8.69168"><ele>339.0</ele><time>2026-04-04T09:32:32.381Z</time></trkpt><trkpt lat="45.8820617" lon="8.6915567"><ele>339.0</ele><time>2026-04-04T09:32:34.38Z</time></trkpt><trkpt lat="45.8819967" lon="8.6914233"><ele>339.0</ele><time>2026-04-04T09:32:36.381Z</time></trkpt><trkpt lat="45.8819267" lon="8.6912967"><ele>339.0</ele><time>2026-04-04T09:32:38.38Z</time></trkpt><trkpt lat="45.8818667" lon="8.6911717"><ele>339.0</ele><time>2026-04-04T09:32:40.38Z</time></trkpt><trkpt lat="45.8818233" lon="8.691105"><ele>339.0</ele><time>2026-04-04T09:32:42.38Z</time></trkpt><trkpt lat="45.8818033" lon="8.6909933"><ele>340.1666666666667</ele><time>2026-04-04T09:32:49.38Z</time></trkpt><trkpt lat="45.881745" lon="8.6910383"><ele>341.3333333333333</ele><time>2026-04-04T09:32:56.381Z</time></trkpt><trkpt lat="45.8817067" lon="8.6911233"><ele>342.5</ele><time>2026-04-04T09:32:59.38Z</time></trkpt><trkpt lat="45.88166" lon="8.6912083"><ele>343.66666666666663</ele><time>2026-04-04T09:33:02.38Z</time></trkpt><trkpt lat="45.8815883" lon="8.69126"><ele>344.8333333333333</ele><time>2026-04-04T09:33:05.381Z</time></trkpt><trkpt lat="45.881585" lon="8.6914"><ele>346.0</ele><time>2026-04-04T09:33:08.38Z</time></trkpt><trkpt lat="45.8815933" lon="8.691515"><ele>347.16666666666663</ele><time>2026-04-04T09:33:10.381Z</time></trkpt><trkpt lat="45.8816" lon="8.69163"><ele>348.3333333333333</ele><time>2026-04-04T09:33:12.38Z</time></trkpt><trkpt lat="45.881605" lon="8.691765"><ele>349.5</ele><time>2026-04-04T09:33:14.381Z</time></trkpt><trkpt lat="45.8816133" lon="8.6919"><ele>350.6666666666667</ele><time>2026-04-04T09:33:16.38Z</time></trkpt><trkpt lat="45.8815717" lon="8.69197"><ele>351.83333333333337</ele><time>2026-04-04T09:33:18.381Z</time></trkpt><trkpt lat="45.88149" lon="8.6920133"><ele>353.0</ele><time>2026-04-04T09:33:21.38Z</time></trkpt><trkpt lat="45.8814533" lon="8.692095"><ele>353.57142857142856</ele><time>2026-04-04T09:33:24.38Z</time></trkpt><trkpt lat="45.881415" lon="8.6921767"><ele>354.14285714285717</ele><time>2026-04-04T09:33:31.381Z</time></trkpt><trkpt lat="45.88135" lon="8.6921733"><ele>354.7142857142857</ele><time>2026-04-04T09:33:36.38Z</time></trkpt><trkpt lat="45.8812867" lon="8.6921583"><ele>355.2857142857143</ele><time>2026-04-04T09:33:39.38Z</time></trkpt><trkpt lat="45.8812183" lon="8.6921233"><ele>355.8571428571429</ele><time>2026-04-04T09:33:42.38Z</time></trkpt><trkpt lat="45.88114" lon="8.6921033"><ele>356.42857142857144</ele><time>2026-04-04T09:33:45.38Z</time></trkpt><trkpt lat="45.8810683" lon="8.69215"><ele>357.0</ele><time>2026-04-04T09:33:47.38Z</time></trkpt><trkpt lat="45.8809983" lon="8.6922183"><ele>357.0</ele><time>2026-04-04T09:33:49.38Z</time></trkpt><trkpt lat="45.880935" lon="8.6923"><ele>357.0</ele><time>2026-04-04T09:33:51.381Z</time></trkpt><trkpt lat="45.88091" lon="8.6923883"><ele>357.0</ele><time>2026-04-04T09:33:53.381Z</time></trkpt><trkpt lat="45.8809017" lon="8.692505"><ele>357.0</ele><time>2026-04-04T09:33:55.38Z</time></trkpt><trkpt lat="45.8808933" lon="8.692665"><ele>357.0</ele><time>2026-04-04T09:33:57.38Z</time></trkpt><trkpt lat="45.8808783" lon="8.6928283"><ele>354.0</ele><time>2026-04-04T09:33:59.381Z</time></trkpt><trkpt lat="45.8808633" lon="8.692935"><ele>351.0</ele><time>2026-04-04T09:34:00.38Z</time></trkpt><trkpt lat="45.880845" lon="8.6930267"><ele>348.0</ele><time>2026-04-04T09:34:01.38Z</time></trkpt><trkpt lat="45.8808067" lon="8.6931633"><ele>345.0</ele><time>2026-04-04T09:34:03.381Z</time></trkpt><trkpt lat="45.880765" lon="8.6932433"><ele>342.0</ele><time>2026-04-04T09:34:05.381Z</time></trkpt><trkpt lat="45.8806983" lon="8.6932517"><ele>339.0</ele><time>2026-04-04T09:34:07.381Z</time></trkpt><trkpt lat="45.88061" lon="8.6932217"><ele>339.0</ele><time>2026-04-04T09:34:09.381Z</time></trkpt><trkpt lat="45.8805233" lon="8.693195"><ele>339.0</ele><time>2026-04-04T09:34:11.381Z</time></trkpt><trkpt lat="45.8804383" lon="8.6931517"><ele>339.0</ele><time>2026-04-04T09:34:13.381Z</time></trkpt><trkpt lat="45.8803617" lon="8.6930883"><ele>339.0</ele><time>2026-04-04T09:34:15.381Z</time></trkpt><trkpt lat="45.8803133" lon="8.693005"><ele>339.0</ele><time>2026-04-04T09:34:17.381Z</time></trkpt><trkpt lat="45.8802967" lon="8.69289"><ele>339.0</ele><time>2026-04-04T09:34:19.38Z</time></trkpt><trkpt lat="45.8803017" lon="8.6927783"><ele>339.5</ele><time>2026-04-04T09:34:21.381Z</time></trkpt><trkpt lat="45.8803317" lon="8.6926983"><ele>340.0</ele><time>2026-04-04T09:34:23.38Z</time></trkpt><trkpt lat="45.8802567" lon="8.6926283"><ele>340.5</ele><time>2026-04-04T09:34:29.381Z</time></trkpt><trkpt lat="45.88019" lon="8.6926"><ele>341.0</ele><time>2026-04-04T09:34:33.38Z</time></trkpt><trkpt lat="45.88014" lon="8.6926633"><ele>341.5</ele><time>2026-04-04T09:34:41.381Z</time></trkpt><trkpt lat="45.8800783" lon="8.69258"><ele>342.0</ele><time>2026-04-04T09:34:45.38Z</time></trkpt><trkpt lat="45.880015" lon="8.6925"><ele>340.40000000000003</ele><time>2026-04-04T09:34:48.381Z</time></trkpt><trkpt lat="45.879935" lon="8.6924583"><ele>338.8</ele><time>2026-04-04T09:34:50.38Z</time></trkpt><trkpt lat="45.8798233" lon="8.6924167"><ele>337.2</ele><time>2026-04-04T09:34:52.381Z</time></trkpt><trkpt lat="45.87974" lon="8.6923417"><ele>335.6</ele><time>2026-04-04T09:34:54.381Z</time></trkpt><trkpt lat="45.8796833" lon="8.6922017"><ele>334.0</ele><time>2026-04-04T09:36:46.381Z</time></trkpt><trkpt lat="45.8796267" lon="8.6920517"><ele>334.0</ele><time>2026-04-04T09:36:48.381Z</time></trkpt><trkpt lat="45.8795817" lon="8.6919467"><ele>334.0</ele><time>2026-04-04T09:36:49.38Z</time></trkpt><trkpt lat="45.8795383" lon="8.69186"><ele>334.0</ele><time>2026-04-04T09:36:50.38Z</time></trkpt><trkpt lat="45.8795017" lon="8.6917833"><ele>334.0</ele><time>2026-04-04T09:36:51.38Z</time></trkpt><trkpt lat="45.8794567" lon="8.6917"><ele>334.0</ele><time>2026-04-04T09:36:53.38Z</time></trkpt><trkpt lat="45.879405" lon="8.6916083"><ele>334.0</ele><time>2026-04-04T09:36:57.381Z</time></trkpt><trkpt lat="45.8793267" lon="8.69145"><ele>333.6</ele><time>2026-04-04T09:36:59.38Z</time></trkpt><trkpt lat="45.879275" lon="8.6913183"><ele>333.2</ele><time>2026-04-04T09:37:00.381Z</time></trkpt><trkpt lat="45.8792217" lon="8.69119"><ele>332.8</ele><time>2026-04-04T09:37:01.381Z</time></trkpt><trkpt lat="45.8791733" lon="8.6910783"><ele>332.40000000000003</ele><time>2026-04-04T09:37:02.38Z</time></trkpt><trkpt lat="45.8791367" lon="8.6909683"><ele>332.0</ele><time>2026-04-04T09:37:03.38Z</time></trkpt><trkpt lat="45.879095" lon="8.69086"><ele>332.0</ele><time>2026-04-04T09:37:04.381Z</time></trkpt><trkpt lat="45.8790517" lon="8.6907583"><ele>332.0</ele><time>2026-04-04T09:37:05.38Z</time></trkpt><trkpt lat="45.8789933" lon="8.69068"><ele>332.0</ele><time>2026-04-04T09:37:06.381Z</time></trkpt><trkpt lat="45.8789183" lon="8.6905967"><ele>332.0</ele><time>2026-04-04T09:37:07.38Z</time></trkpt><trkpt lat="45.87883" lon="8.6905217"><ele>332.0</ele><time>2026-04-04T09:37:08.38Z</time></trkpt><trkpt lat="45.8787433" lon="8.6904533"><ele>332.0</ele><time>2026-04-04T09:37:09.38Z</time></trkpt><trkpt lat="45.8786683" lon="8.69038"><ele>332.0</ele><time>2026-04-04T09:37:10.381Z</time></trkpt><trkpt lat="45.8786017" lon="8.6903017"><ele>332.0</ele><time>2026-04-04T09:37:11.38Z</time></trkpt><trkpt lat="45.8785383" lon="8.6902"><ele>332.0</ele><time>2026-04-04T09:37:12.38Z</time></trkpt><trkpt lat="45.8784717" lon="8.6900867"><ele>332.0</ele><time>2026-04-04T09:37:13.381Z</time></trkpt><trkpt lat="45.8784183" lon="8.689955"><ele>332.0</ele><time>2026-04-04T09:37:14.38Z</time></trkpt><trkpt lat="45.8783617" lon="8.6898267"><ele>332.0</ele><time>2026-04-04T09:37:15.381Z</time></trkpt><trkpt lat="45.878315" lon="8.6897117"><ele>332.0</ele><time>2026-04-04T09:37:16.381Z</time></trkpt><trkpt lat="45.8782617" lon="8.6895867"><ele>332.0</ele><time>2026-04-04T09:37:17.38Z</time></trkpt><trkpt lat="45.8781867" lon="8.6894533"><ele>332.0</ele><time>2026-04-04T09:37:18.38Z</time></trkpt><trkpt lat="45.8781083" lon="8.689325"><ele>332.0</ele><time>2026-04-04T09:37:19.38Z</time></trkpt><trkpt lat="45.8780317" lon="8.6891967"><ele>332.0</ele><time>2026-04-04T09:37:20.38Z</time></trkpt><trkpt lat="45.8779517" lon="8.689065"><ele>332.0</ele><time>2026-04-04T09:37:21.38Z</time></trkpt><trkpt lat="45.8778883" lon="8.6889483"><ele>332.0</ele><time>2026-04-04T09:37:22.38Z</time></trkpt><trkpt lat="45.8778433" lon="8.68884"><ele>332.0</ele><time>2026-04-04T09:37:23.38Z</time></trkpt><trkpt lat="45.877815" lon="8.688725"><ele>332.0</ele><time>2026-04-04T09:37:24.38Z</time></trkpt><trkpt lat="45.8777867" lon="8.6886167"><ele>332.0</ele><time>2026-04-04T09:37:25.38Z</time></trkpt><trkpt lat="45.877745" lon="8.6885183"><ele>332.0</ele><time>2026-04-04T09:37:26.38Z</time></trkpt><trkpt lat="45.8777017" lon="8.6884167"><ele>332.0</ele><time>2026-04-04T09:37:27.381Z</time></trkpt><trkpt lat="45.8776367" lon="8.688315"><ele>332.0</ele><time>2026-04-04T09:37:28.381Z</time></trkpt><trkpt lat="45.87757" lon="8.688225"><ele>332.0</ele><time>2026-04-04T09:37:29.38Z</time></trkpt><trkpt lat="45.8775183" lon="8.6881433"><ele>332.40000000000003</ele><time>2026-04-04T09:37:30.38Z</time></trkpt><trkpt lat="45.8774817" lon="8.688065"><ele>332.8</ele><time>2026-04-04T09:37:31.381Z</time></trkpt><trkpt lat="45.8774383" lon="8.6879167"><ele>333.2</ele><time>2026-04-04T09:37:33.38Z</time></trkpt><trkpt lat="45.8773633" lon="8.6877417"><ele>333.6</ele><time>2026-04-04T09:37:35.381Z</time></trkpt><trkpt lat="45.8773033" lon="8.6876233"><ele>334.0</ele><time>2026-04-04T09:37:36.381Z</time></trkpt><trkpt lat="45.877235" lon="8.6874767"><ele>334.0</ele><time>2026-04-04T09:37:37.38Z</time></trkpt><trkpt lat="45.8771833" lon="8.6873533"><ele>334.0</ele><time>2026-04-04T09:37:38.38Z</time></trkpt><trkpt lat="45.8771433" lon="8.6872417"><ele>334.0</ele><time>2026-04-04T09:37:39.38Z</time></trkpt><trkpt lat="45.8771067" lon="8.68713"><ele>334.0</ele><time>2026-04-04T09:37:40.38Z</time></trkpt><trkpt lat="45.8770533" lon="8.6870167"><ele>334.0</ele><time>2026-04-04T09:37:42.38Z</time></trkpt><trkpt lat="45.8770433" lon="8.68713"><ele>334.0</ele><time>2026-04-04T09:38:19.38Z</time></trkpt><trkpt lat="45.8769783" lon="8.687105"><ele>334.0</ele><time>2026-04-04T09:38:23.38Z</time></trkpt><trkpt lat="45.87695" lon="8.6870067"><ele>334.0</ele><time>2026-04-04T09:38:26.38Z</time></trkpt><trkpt lat="45.8769217" lon="8.6869017"><ele>334.0</ele><time>2026-04-04T09:38:29.381Z</time></trkpt><trkpt lat="45.8768983" lon="8.6868067"><ele>334.0</ele><time>2026-04-04T09:38:33.38Z</time></trkpt><trkpt lat="45.8769117" lon="8.686715"><ele>334.0</ele><time>2026-04-04T09:38:36.38Z</time></trkpt><trkpt lat="45.876855" lon="8.6866467"><ele>334.0</ele><time>2026-04-04T09:38:43.38Z</time></trkpt><trkpt lat="45.8767967" lon="8.686535"><ele>334.8333333333333</ele><time>2026-04-04T09:38:45.381Z</time></trkpt><trkpt lat="45.8767617" lon="8.68645"><ele>335.66666666666663</ele><time>2026-04-04T09:38:46.38Z</time></trkpt><trkpt lat="45.8767317" lon="8.6863667"><ele>336.5</ele><time>2026-04-04T09:38:47.381Z</time></trkpt><trkpt lat="45.8766967" lon="8.686285"><ele>337.3333333333333</ele><time>2026-04-04T09:38:48.38Z</time></trkpt><trkpt lat="45.87664" lon="8.6861683"><ele>338.1666666666667</ele><time>2026-04-04T09:38:50.38Z</time></trkpt><trkpt lat="45.8765933" lon="8.6860767"><ele>339.0</ele><time>2026-04-04T09:38:52.381Z</time></trkpt><trkpt lat="45.8765317" lon="8.6859967"><ele>339.0</ele><time>2026-04-04T09:38:55.381Z</time></trkpt><trkpt lat="45.8764833" lon="8.6859117"><ele>339.0</ele><time>2026-04-04T09:38:57.381Z</time></trkpt><trkpt lat="45.87643" lon="8.6858233"><ele>339.0</ele><time>2026-04-04T09:38:58.381Z</time></trkpt><trkpt lat="45.8763617" lon="8.6857167"><ele>339.0</ele><time>2026-04-04T09:38:59.381Z</time></trkpt><trkpt lat="45.8762583" lon="8.6855883"><ele>339.0</ele><time>2026-04-04T09:39:00.38Z</time></trkpt><trkpt lat="45.8761567" lon="8.68544"><ele>339.0</ele><time>2026-04-04T09:39:01.381Z</time></trkpt><trkpt lat="45.8760617" lon="8.6853167"><ele>339.0</ele><time>2026-04-04T09:39:02.38Z</time></trkpt><trkpt lat="45.8759767" lon="8.6852117"><ele>339.0</ele><time>2026-04-04T09:39:03.38Z</time></trkpt><trkpt lat="45.8758917" lon="8.6851317"><ele>339.0</ele><time>2026-04-04T09:39:04.381Z</time></trkpt><trkpt lat="45.8757983" lon="8.6850667"><ele>339.0</ele><time>2026-04-04T09:39:05.38Z</time></trkpt><trkpt lat="45.8757" lon="8.685005"><ele>339.5</ele><time>2026-04-04T09:39:06.38Z</time></trkpt><trkpt lat="45.87559" lon="8.6849583"><ele>340.0</ele><time>2026-04-04T09:39:07.38Z</time></trkpt><trkpt lat="45.8754567" lon="8.684905"><ele>340.5</ele><time>2026-04-04T09:39:08.38Z</time></trkpt><trkpt lat="45.8753233" lon="8.6848433"><ele>341.0</ele><time>2026-04-04T09:39:09.381Z</time></trkpt><trkpt lat="45.8752033" lon="8.6847867"><ele>341.0</ele><time>2026-04-04T09:39:10.381Z</time></trkpt><trkpt lat="45.87509" lon="8.684745"><ele>341.0</ele><time>2026-04-04T09:39:11.38Z</time></trkpt><trkpt lat="45.87499" lon="8.6847083"><ele>341.0</ele><time>2026-04-04T09:39:12.38Z</time></trkpt><trkpt lat="45.8748933" lon="8.6846567"><ele>341.0</ele><time>2026-04-04T09:39:13.38Z</time></trkpt><trkpt lat="45.8747933" lon="8.6845683"><ele>341.0</ele><time>2026-04-04T09:39:14.38Z</time></trkpt><trkpt lat="45.874695" lon="8.6844533"><ele>339.75</ele><time>2026-04-04T09:39:15.38Z</time></trkpt><trkpt lat="45.8745917" lon="8.6843417"><ele>338.5</ele><time>2026-04-04T09:39:16.381Z</time></trkpt><trkpt lat="45.8744867" lon="8.6842367"><ele>337.25</ele><time>2026-04-04T09:39:17.38Z</time></trkpt><trkpt lat="45.8743933" lon="8.684155"><ele>336.0</ele><time>2026-04-04T09:39:18.381Z</time></trkpt><trkpt lat="45.87431" lon="8.6840867"><ele>335.8333333333333</ele><time>2026-04-04T09:39:19.38Z</time></trkpt><trkpt lat="45.874235" lon="8.6840217"><ele>335.6666666666667</ele><time>2026-04-04T09:39:20.381Z</time></trkpt><trkpt lat="45.8741817" lon="8.6839617"><ele>335.5</ele><time>2026-04-04T09:39:21.381Z</time></trkpt><trkpt lat="45.8741117" lon="8.6839033"><ele>335.33333333333337</ele><time>2026-04-04T09:39:23.38Z</time></trkpt><trkpt lat="45.87413" lon="8.6837967"><ele>335.1666666666667</ele><time>2026-04-04T09:57:14.379Z</time></trkpt><trkpt lat="45.8741717" lon="8.6836883"><ele>335.0</ele><time>2026-04-04T09:57:17.379Z</time></trkpt><trkpt lat="45.8742083" lon="8.6836017"><ele>334.1666666666667</ele><time>2026-04-04T09:57:19.379Z</time></trkpt><trkpt lat="45.8742717" lon="8.683545"><ele>333.33333333333337</ele><time>2026-04-04T09:57:21.379Z</time></trkpt><trkpt lat="45.8743483" lon="8.68351"><ele>332.5</ele><time>2026-04-04T09:57:23.379Z</time></trkpt><trkpt lat="45.874395" lon="8.6833967"><ele>331.6666666666667</ele><time>2026-04-04T09:57:25.379Z</time></trkpt><trkpt lat="45.874425" lon="8.68326"><ele>330.8333333333333</ele><time>2026-04-04T09:57:27.379Z</time></trkpt><trkpt lat="45.8744233" lon="8.6831167"><ele>330.0</ele><time>2026-04-04T09:57:29.38Z</time></trkpt><trkpt lat="45.8743867" lon="8.682995"><ele>330.0</ele><time>2026-04-04T09:57:31.379Z</time></trkpt><trkpt lat="45.87435" lon="8.6828867"><ele>330.0</ele><time>2026-04-04T09:57:33.379Z</time></trkpt><trkpt lat="45.8742983" lon="8.6827883"><ele>330.0</ele><time>2026-04-04T09:57:35.379Z</time></trkpt><trkpt lat="45.8742383" lon="8.6827"><ele>330.0</ele><time>2026-04-04T09:57:37.379Z</time></trkpt><trkpt lat="45.874195" lon="8.68259"><ele>330.0</ele><time>2026-04-04T09:57:39.379Z</time></trkpt><trkpt lat="45.8741783" lon="8.6824683"><ele>330.0</ele><time>2026-04-04T09:57:41.38Z</time></trkpt><trkpt lat="45.8741717" lon="8.6823583"><ele>328.6</ele><time>2026-04-04T09:57:43.38Z</time></trkpt><trkpt lat="45.874165" lon="8.6822417"><ele>327.2</ele><time>2026-04-04T09:57:45.38Z</time></trkpt><trkpt lat="45.87419" lon="8.682135"><ele>325.79999999999995</ele><time>2026-04-04T09:57:47.379Z</time></trkpt><trkpt lat="45.8742683" lon="8.6820983"><ele>324.4</ele><time>2026-04-04T09:57:49.379Z</time></trkpt><trkpt lat="45.8743733" lon="8.6820683"><ele>323.0</ele><time>2026-04-04T09:57:51.379Z</time></trkpt><trkpt lat="45.874485" lon="8.6820333"><ele>322.2</ele><time>2026-04-04T09:57:53.379Z</time></trkpt><trkpt lat="45.8745817" lon="8.6820217"><ele>321.4</ele><time>2026-04-04T09:57:55.38Z</time></trkpt><trkpt lat="45.8746683" lon="8.6819983"><ele>320.59999999999997</ele><time>2026-04-04T09:57:57.379Z</time></trkpt><trkpt lat="45.874765" lon="8.681975"><ele>319.79999999999995</ele><time>2026-04-04T09:57:59.379Z</time></trkpt><trkpt lat="45.8748667" lon="8.6819483"><ele>319.0</ele><time>2026-04-04T09:58:01.38Z</time></trkpt><trkpt lat="45.8749567" lon="8.68191"><ele>317.66666666666663</ele><time>2026-04-04T09:58:03.379Z</time></trkpt><trkpt lat="45.8750133" lon="8.6818167"><ele>316.3333333333333</ele><time>2026-04-04T09:58:05.38Z</time></trkpt><trkpt lat="45.8750483" lon="8.68174"><ele>315.0</ele><time>2026-04-04T09:58:06.379Z</time></trkpt><trkpt lat="45.8751033" lon="8.6816233"><ele>313.6666666666667</ele><time>2026-04-04T09:58:08.379Z</time></trkpt><trkpt lat="45.87516" lon="8.6814967"><ele>312.33333333333337</ele><time>2026-04-04T09:58:10.38Z</time></trkpt><trkpt lat="45.8751917" lon="8.6813733"><ele>311.0</ele><time>2026-04-04T09:58:12.379Z</time></trkpt><trkpt lat="45.875225" lon="8.6812217"><ele>309.6666666666667</ele><time>2026-04-04T09:58:14.379Z</time></trkpt><trkpt lat="45.8752267" lon="8.68105"><ele>308.33333333333337</ele><time>2026-04-04T09:58:16.38Z</time></trkpt><trkpt lat="45.8752267" lon="8.6809433"><ele>307.0</ele><time>2026-04-04T09:58:17.379Z</time></trkpt><trkpt lat="45.8751867" lon="8.6807817"><ele>305.6666666666667</ele><time>2026-04-04T09:58:19.379Z</time></trkpt><trkpt lat="45.875145" lon="8.6807017"><ele>304.3333333333333</ele><time>2026-04-04T09:58:20.379Z</time></trkpt><trkpt lat="45.875105" lon="8.6806283"><ele>303.0</ele><time>2026-04-04T09:58:21.38Z</time></trkpt><trkpt lat="45.8750617" lon="8.68056"><ele>303.0</ele><time>2026-04-04T09:58:22.379Z</time></trkpt><trkpt lat="45.875015" lon="8.680495"><ele>303.0</ele><time>2026-04-04T09:58:23.379Z</time></trkpt><trkpt lat="45.8749683" lon="8.6804283"><ele>303.0</ele><time>2026-04-04T09:58:24.38Z</time></trkpt><trkpt lat="45.8749133" lon="8.6803667"><ele>303.0</ele><time>2026-04-04T09:58:25.379Z</time></trkpt><trkpt lat="45.87485" lon="8.68032"><ele>303.0</ele><time>2026-04-04T09:58:26.379Z</time></trkpt><trkpt lat="45.874785" lon="8.6802767"><ele>303.0</ele><time>2026-04-04T09:58:27.379Z</time></trkpt><trkpt lat="45.8747083" lon="8.6802467"><ele>303.0</ele><time>2026-04-04T09:58:28.379Z</time></trkpt><trkpt lat="45.874635" lon="8.6802317"><ele>301.8571428571429</ele><time>2026-04-04T09:58:29.379Z</time></trkpt><trkpt lat="45.8745517" lon="8.6802167"><ele>300.7142857142857</ele><time>2026-04-04T09:58:30.379Z</time></trkpt><trkpt lat="45.8744733" lon="8.6802217"><ele>299.57142857142856</ele><time>2026-04-04T09:58:31.38Z</time></trkpt><trkpt lat="45.8743983" lon="8.68023"><ele>298.42857142857144</ele><time>2026-04-04T09:58:32.379Z</time></trkpt><trkpt lat="45.874325" lon="8.680235"><ele>297.2857142857143</ele><time>2026-04-04T09:58:33.379Z</time></trkpt><trkpt lat="45.874255" lon="8.6802333"><ele>296.14285714285717</ele><time>2026-04-04T09:58:34.38Z</time></trkpt><trkpt lat="45.87419" lon="8.6802233"><ele>295.0</ele><time>2026-04-04T09:58:35.38Z</time></trkpt><trkpt lat="45.8741217" lon="8.6802117"><ele>295.0</ele><time>2026-04-04T09:58:36.38Z</time></trkpt><trkpt lat="45.874045" lon="8.6801917"><ele>295.0</ele><time>2026-04-04T09:58:37.38Z</time></trkpt><trkpt lat="45.8739583" lon="8.6801717"><ele>295.0</ele><time>2026-04-04T09:58:38.38Z</time></trkpt><trkpt lat="45.8738717" lon="8.6801533"><ele>295.0</ele><time>2026-04-04T09:58:39.379Z</time></trkpt><trkpt lat="45.8737917" lon="8.6801317"><ele>295.0</ele><time>2026-04-04T09:58:40.38Z</time></trkpt><trkpt lat="45.8737133" lon="8.6801117"><ele>295.0</ele><time>2026-04-04T09:58:41.379Z</time></trkpt><trkpt lat="45.8736367" lon="8.6800817"><ele>295.00000000000006</ele><time>2026-04-04T09:58:42.379Z</time></trkpt><trkpt lat="45.8735617" lon="8.6800467"><ele>295.0</ele><time>2026-04-04T09:58:43.379Z</time></trkpt><trkpt lat="45.873485" lon="8.6800117"><ele>295.0</ele><time>2026-04-04T09:58:44.379Z</time></trkpt><trkpt lat="45.8734117" lon="8.6799767"><ele>295.0</ele><time>2026-04-04T09:58:45.379Z</time></trkpt><trkpt lat="45.8733417" lon="8.67994"><ele>295.0</ele><time>2026-04-04T09:58:46.38Z</time></trkpt><trkpt lat="45.8732767" lon="8.6799083"><ele>295.00000000000006</ele><time>2026-04-04T09:58:47.38Z</time></trkpt><trkpt lat="45.8732133" lon="8.6798833"><ele>295.0</ele><time>2026-04-04T09:58:48.379Z</time></trkpt><trkpt lat="45.87315" lon="8.67985"><ele>294.5</ele><time>2026-04-04T09:58:49.379Z</time></trkpt><trkpt lat="45.873085" lon="8.6798183"><ele>294.0</ele><time>2026-04-04T09:58:50.38Z</time></trkpt><trkpt lat="45.873015" lon="8.6797933"><ele>293.5</ele><time>2026-04-04T09:58:51.379Z</time></trkpt><trkpt lat="45.872955" lon="8.679765"><ele>293.0</ele><time>2026-04-04T09:58:52.379Z</time></trkpt><trkpt lat="45.8728433" lon="8.6797033"><ele>292.5</ele><time>2026-04-04T09:58:54.379Z</time></trkpt><trkpt lat="45.8727233" lon="8.679655"><ele>292.0</ele><time>2026-04-04T09:58:56.38Z</time></trkpt><trkpt lat="45.87266" lon="8.679635"><ele>291.66666666666663</ele><time>2026-04-04T09:58:57.38Z</time></trkpt><trkpt lat="45.8725983" lon="8.6796167"><ele>291.3333333333333</ele><time>2026-04-04T09:58:58.38Z</time></trkpt><trkpt lat="45.8725367" lon="8.6795967"><ele>291.0</ele><time>2026-04-04T09:58:59.38Z</time></trkpt><trkpt lat="45.8724717" lon="8.67958"><ele>290.6666666666667</ele><time>2026-04-04T09:59:00.379Z</time></trkpt><trkpt lat="45.8723433" lon="8.6795733"><ele>290.33333333333337</ele><time>2026-04-04T09:59:02.38Z</time></trkpt><trkpt lat="45.8722183" lon="8.6795717"><ele>290.0</ele><time>2026-04-04T09:59:04.38Z</time></trkpt><trkpt lat="45.8721033" lon="8.6795367"><ele>288.6</ele><time>2026-04-04T09:59:06.379Z</time></trkpt><trkpt lat="45.8720367" lon="8.6794017"><ele>287.2</ele><time>2026-04-04T09:59:08.38Z</time></trkpt><trkpt lat="45.8720383" lon="8.6792383"><ele>285.8</ele><time>2026-04-04T09:59:10.38Z</time></trkpt><trkpt lat="45.8720367" lon="8.679085"><ele>284.4</ele><time>2026-04-04T09:59:12.38Z</time></trkpt><trkpt lat="45.871985" lon="8.67896"><ele>283.0</ele><time>2026-04-04T09:59:14.38Z</time></trkpt><trkpt lat="45.871875" lon="8.6789483"><ele>280.4</ele><time>2026-04-04T09:59:16.379Z</time></trkpt><trkpt lat="45.8717583" lon="8.6790367"><ele>277.8</ele><time>2026-04-04T09:59:18.379Z</time></trkpt><trkpt lat="45.8716933" lon="8.6791"><ele>275.2</ele><time>2026-04-04T09:59:19.379Z</time></trkpt><trkpt lat="45.871635" lon="8.6791517"><ele>272.6</ele><time>2026-04-04T09:59:20.38Z</time></trkpt><trkpt lat="45.8715333" lon="8.67924"><ele>270.0</ele><time>2026-04-04T09:59:22.38Z</time></trkpt><trkpt lat="45.871475" lon="8.6792883"><ele>270.0</ele><time>2026-04-04T09:59:23.38Z</time></trkpt><trkpt lat="45.8714133" lon="8.6793383"><ele>270.0</ele><time>2026-04-04T09:59:24.38Z</time></trkpt><trkpt lat="45.871355" lon="8.67939"><ele>270.0</ele><time>2026-04-04T09:59:25.38Z</time></trkpt><trkpt lat="45.8712567" lon="8.6794667"><ele>270.0</ele><time>2026-04-04T09:59:27.379Z</time></trkpt><trkpt lat="45.8711817" lon="8.6794867"><ele>270.0</ele><time>2026-04-04T09:59:29.379Z</time></trkpt><trkpt lat="45.8711183" lon="8.6793767"><ele>270.0</ele><time>2026-04-04T09:59:31.38Z</time></trkpt><trkpt lat="45.8710867" lon="8.6792967"><ele>270.0</ele><time>2026-04-04T09:59:32.379Z</time></trkpt><trkpt lat="45.8710583" lon="8.6792133"><ele>270.0</ele><time>2026-04-04T09:59:33.379Z</time></trkpt><trkpt lat="45.8710133" lon="8.6790667"><ele>270.0</ele><time>2026-04-04T09:59:35.379Z</time></trkpt><trkpt lat="45.8709817" lon="8.6789633"><ele>270.0</ele><time>2026-04-04T09:59:37.379Z</time></trkpt><trkpt lat="45.8709383" lon="8.678895"><ele>270.0</ele><time>2026-04-04T09:59:42.379Z</time></trkpt><trkpt lat="45.8708533" lon="8.678905"><ele>270.0</ele><time>2026-04-04T09:59:44.379Z</time></trkpt><trkpt lat="45.870785" lon="8.6789417"><ele>269.2</ele><time>2026-04-04T09:59:45.38Z</time></trkpt><trkpt lat="45.8706933" lon="8.67899"><ele>268.4</ele><time>2026-04-04T09:59:46.379Z</time></trkpt><trkpt lat="45.8705983" lon="8.679045"><ele>267.6</ele><time>2026-04-04T09:59:47.38Z</time></trkpt><trkpt lat="45.8704983" lon="8.6791067"><ele>266.8</ele><time>2026-04-04T09:59:48.379Z</time></trkpt><trkpt lat="45.8703917" lon="8.6791683"><ele>266.0</ele><time>2026-04-04T09:59:49.379Z</time></trkpt><trkpt lat="45.8702783" lon="8.679235"><ele>266.0</ele><time>2026-04-04T09:59:50.379Z</time></trkpt><trkpt lat="45.8701533" lon="8.67931"><ele>266.0</ele><time>2026-04-04T09:59:51.379Z</time></trkpt><trkpt lat="45.8700367" lon="8.6793833"><ele>266.0</ele><time>2026-04-04T09:59:52.38Z</time></trkpt><trkpt lat="45.8699233" lon="8.679465"><ele>266.0</ele><time>2026-04-04T09:59:53.379Z</time></trkpt><trkpt lat="45.869805" lon="8.6795433"><ele>265.75</ele><time>2026-04-04T09:59:54.38Z</time></trkpt><trkpt lat="45.869675" lon="8.6796233"><ele>265.5</ele><time>2026-04-04T09:59:55.379Z</time></trkpt><trkpt lat="45.8695483" lon="8.6796967"><ele>265.25</ele><time>2026-04-04T09:59:56.379Z</time></trkpt><trkpt lat="45.869425" lon="8.6797633"><ele>265.0</ele><time>2026-04-04T09:59:57.379Z</time></trkpt><trkpt lat="45.8693067" lon="8.6798317"><ele>264.25</ele><time>2026-04-04T09:59:58.38Z</time></trkpt><trkpt lat="45.869195" lon="8.6798967"><ele>263.5</ele><time>2026-04-04T09:59:59.379Z</time></trkpt><trkpt lat="45.8690867" lon="8.679965"><ele>262.75</ele><time>2026-04-04T10:00:00.379Z</time></trkpt><trkpt lat="45.8689733" lon="8.68003"><ele>262.0</ele><time>2026-04-04T10:00:01.379Z</time></trkpt><trkpt lat="45.8688633" lon="8.6800917"><ele>262.0</ele><time>2026-04-04T10:00:02.379Z</time></trkpt><trkpt lat="45.86875" lon="8.6801517"><ele>262.0</ele><time>2026-04-04T10:00:03.379Z</time></trkpt><trkpt lat="45.86863" lon="8.6802067"><ele>262.0</ele><time>2026-04-04T10:00:04.38Z</time></trkpt><trkpt lat="45.8685183" lon="8.6802483"><ele>262.0</ele><time>2026-04-04T10:00:05.38Z</time></trkpt><trkpt lat="45.86841" lon="8.6802733"><ele>262.75</ele><time>2026-04-04T10:00:06.38Z</time></trkpt><trkpt lat="45.8682933" lon="8.68028"><ele>263.5</ele><time>2026-04-04T10:00:07.379Z</time></trkpt><trkpt lat="45.868165" lon="8.680285"><ele>264.25</ele><time>2026-04-04T10:00:08.38Z</time></trkpt><trkpt lat="45.868045" lon="8.68029"><ele>265.0</ele><time>2026-04-04T10:00:09.379Z</time></trkpt><trkpt lat="45.86792" lon="8.6802917"><ele>265.0</ele><time>2026-04-04T10:00:10.38Z</time></trkpt><trkpt lat="45.8677933" lon="8.6803033"><ele>265.0</ele><time>2026-04-04T10:00:11.38Z</time></trkpt><trkpt lat="45.8676583" lon="8.6803117"><ele>265.0</ele><time>2026-04-04T10:00:12.38Z</time></trkpt><trkpt lat="45.8675317" lon="8.680325"><ele>265.0</ele><time>2026-04-04T10:00:13.379Z</time></trkpt><trkpt lat="45.867405" lon="8.6803383"><ele>264.5</ele><time>2026-04-04T10:00:14.38Z</time></trkpt><trkpt lat="45.8672833" lon="8.680345"><ele>264.0</ele><time>2026-04-04T10:00:15.38Z</time></trkpt><trkpt lat="45.867155" lon="8.680355"><ele>263.5</ele><time>2026-04-04T10:00:16.38Z</time></trkpt><trkpt lat="45.8670183" lon="8.6803583"><ele>263.0</ele><time>2026-04-04T10:00:17.379Z</time></trkpt><trkpt lat="45.86688" lon="8.6803717"><ele>262.5</ele><time>2026-04-04T10:00:18.38Z</time></trkpt><trkpt lat="45.8667383" lon="8.68038"><ele>262.0</ele><time>2026-04-04T10:00:19.379Z</time></trkpt><trkpt lat="45.8666033" lon="8.68038"><ele>261.5</ele><time>2026-04-04T10:00:20.379Z</time></trkpt><trkpt lat="45.86647" lon="8.6803883"><ele>261.0</ele><time>2026-04-04T10:00:21.379Z</time></trkpt><trkpt lat="45.866335" lon="8.680395"><ele>261.0</ele><time>2026-04-04T10:00:22.379Z</time></trkpt><trkpt lat="45.8661967" lon="8.6804067"><ele>261.0</ele><time>2026-04-04T10:00:23.38Z</time></trkpt><trkpt lat="45.8660633" lon="8.680415"><ele>261.0</ele><time>2026-04-04T10:00:24.379Z</time></trkpt><trkpt lat="45.8659317" lon="8.6804283"><ele>261.0</ele><time>2026-04-04T10:00:25.38Z</time></trkpt><trkpt lat="45.865795" lon="8.680435"><ele>261.25</ele><time>2026-04-04T10:00:26.38Z</time></trkpt><trkpt lat="45.8656583" lon="8.6804467"><ele>261.5</ele><time>2026-04-04T10:00:27.38Z</time></trkpt><trkpt lat="45.865525" lon="8.680455"><ele>261.75</ele><time>2026-04-04T10:00:28.38Z</time></trkpt><trkpt lat="45.8653933" lon="8.6804633"><ele>262.0</ele><time>2026-04-04T10:00:29.38Z</time></trkpt><trkpt lat="45.86526" lon="8.680475"><ele>262.0</ele><time>2026-04-04T10:00:30.38Z</time></trkpt><trkpt lat="45.865125" lon="8.6804817"><ele>262.0</ele><time>2026-04-04T10:00:31.379Z</time></trkpt><trkpt lat="45.864995" lon="8.6804917"><ele>262.0</ele><time>2026-04-04T10:00:32.38Z</time></trkpt><trkpt lat="45.8648633" lon="8.6805067"><ele>262.0</ele><time>2026-04-04T10:00:33.379Z</time></trkpt><trkpt lat="45.8647317" lon="8.68053"><ele>261.75</ele><time>2026-04-04T10:00:34.379Z</time></trkpt><trkpt lat="45.8646017" lon="8.6805683"><ele>261.5</ele><time>2026-04-04T10:00:35.38Z</time></trkpt><trkpt lat="45.8644733" lon="8.6806333"><ele>261.25</ele><time>2026-04-04T10:00:36.379Z</time></trkpt><trkpt lat="45.864345" lon="8.6807083"><ele>261.0</ele><time>2026-04-04T10:00:37.379Z</time></trkpt><trkpt lat="45.8642167" lon="8.6807967"><ele>261.0</ele><time>2026-04-04T10:00:38.379Z</time></trkpt><trkpt lat="45.8641" lon="8.6809033"><ele>261.0</ele><time>2026-04-04T10:00:39.379Z</time></trkpt><trkpt lat="45.8639917" lon="8.6810217"><ele>261.0</ele><time>2026-04-04T10:00:40.38Z</time></trkpt><trkpt lat="45.8638917" lon="8.681145"><ele>261.0</ele><time>2026-04-04T10:00:41.379Z</time></trkpt><trkpt lat="45.8638" lon="8.6812783"><ele>261.75</ele><time>2026-04-04T10:00:42.38Z</time></trkpt><trkpt lat="45.8637133" lon="8.68142"><ele>262.5</ele><time>2026-04-04T10:00:43.38Z</time></trkpt><trkpt lat="45.86363" lon="8.6815633"><ele>263.25</ele><time>2026-04-04T10:00:44.38Z</time></trkpt><trkpt lat="45.863545" lon="8.6817083"><ele>264.0</ele><time>2026-04-04T10:00:45.379Z</time></trkpt><trkpt lat="45.8634617" lon="8.6818583"><ele>264.0</ele><time>2026-04-04T10:00:46.379Z</time></trkpt><trkpt lat="45.8633717" lon="8.6820033"><ele>264.0</ele><time>2026-04-04T10:00:47.38Z</time></trkpt><trkpt lat="45.8632817" lon="8.68215"><ele>264.0</ele><time>2026-04-04T10:00:48.379Z</time></trkpt><trkpt lat="45.8631917" lon="8.6822983"><ele>264.0</ele><time>2026-04-04T10:00:49.379Z</time></trkpt><trkpt lat="45.8631033" lon="8.6824483"><ele>264.0</ele><time>2026-04-04T10:00:50.379Z</time></trkpt><trkpt lat="45.8630183" lon="8.6825967"><ele>264.0</ele><time>2026-04-04T10:00:51.38Z</time></trkpt><trkpt lat="45.8629283" lon="8.6827433"><ele>264.0</ele><time>2026-04-04T10:00:52.379Z</time></trkpt><trkpt lat="45.8628467" lon="8.6828917"><ele>264.0</ele><time>2026-04-04T10:00:53.379Z</time></trkpt><trkpt lat="45.8627533" lon="8.6830417"><ele>264.0</ele><time>2026-04-04T10:00:54.38Z</time></trkpt><trkpt lat="45.8626683" lon="8.6831833"><ele>264.0</ele><time>2026-04-04T10:00:55.38Z</time></trkpt><trkpt lat="45.8625817" lon="8.6833267"><ele>264.0</ele><time>2026-04-04T10:00:56.38Z</time></trkpt><trkpt lat="45.8624867" lon="8.6834783"><ele>264.0</ele><time>2026-04-04T10:00:57.38Z</time></trkpt><trkpt lat="45.8623917" lon="8.68363"><ele>264.25</ele><time>2026-04-04T10:00:58.38Z</time></trkpt><trkpt lat="45.8622967" lon="8.6837867"><ele>264.5</ele><time>2026-04-04T10:00:59.38Z</time></trkpt><trkpt lat="45.8622017" lon="8.6839383"><ele>264.75</ele><time>2026-04-04T10:01:00.379Z</time></trkpt><trkpt lat="45.8621133" lon="8.6840783"><ele>265.0</ele><time>2026-04-04T10:01:01.38Z</time></trkpt><trkpt lat="45.86202" lon="8.6842233"><ele>265.0</ele><time>2026-04-04T10:01:02.379Z</time></trkpt><trkpt lat="45.8619317" lon="8.6843467"><ele>265.0</ele><time>2026-04-04T10:01:03.38Z</time></trkpt><trkpt lat="45.861825" lon="8.6844667"><ele>265.0</ele><time>2026-04-04T10:01:04.379Z</time></trkpt><trkpt lat="45.8617183" lon="8.68457"><ele>265.0</ele><time>2026-04-04T10:01:05.379Z</time></trkpt><trkpt lat="45.86161" lon="8.6846733"><ele>265.25</ele><time>2026-04-04T10:01:06.379Z</time></trkpt><trkpt lat="45.8615067" lon="8.6847667"><ele>265.5</ele><time>2026-04-04T10:01:07.38Z</time></trkpt><trkpt lat="45.861405" lon="8.6848583"><ele>265.75</ele><time>2026-04-04T10:01:08.379Z</time></trkpt><trkpt lat="45.8613067" lon="8.6849517"><ele>266.0</ele><time>2026-04-04T10:01:09.38Z</time></trkpt><trkpt lat="45.86121" lon="8.6850467"><ele>266.0</ele><time>2026-04-04T10:01:10.38Z</time></trkpt><trkpt lat="45.8611167" lon="8.6851317"><ele>266.0</ele><time>2026-04-04T10:01:11.379Z</time></trkpt><trkpt lat="45.8610333" lon="8.6852083"><ele>266.0</ele><time>2026-04-04T10:01:12.38Z</time></trkpt><trkpt lat="45.860955" lon="8.6852767"><ele>266.0</ele><time>2026-04-04T10:01:13.379Z</time></trkpt><trkpt lat="45.8608817" lon="8.685345"><ele>266.0</ele><time>2026-04-04T10:01:14.379Z</time></trkpt><trkpt lat="45.8608133" lon="8.6854017"><ele>266.1666666666667</ele><time>2026-04-04T10:01:15.38Z</time></trkpt><trkpt lat="45.8607533" lon="8.6854533"><ele>266.33333333333337</ele><time>2026-04-04T10:01:16.379Z</time></trkpt><trkpt lat="45.860695" lon="8.6855033"><ele>266.5</ele><time>2026-04-04T10:01:17.379Z</time></trkpt><trkpt lat="45.8605883" lon="8.6855983"><ele>266.6666666666667</ele><time>2026-04-04T10:01:19.379Z</time></trkpt><trkpt lat="45.8605233" lon="8.6856483"><ele>266.8333333333333</ele><time>2026-04-04T10:01:20.379Z</time></trkpt><trkpt lat="45.860455" lon="8.6857"><ele>267.0</ele><time>2026-04-04T10:01:21.379Z</time></trkpt><trkpt lat="45.8603917" lon="8.68576"><ele>267.0</ele><time>2026-04-04T10:01:22.379Z</time></trkpt><trkpt lat="45.8603167" lon="8.6858217"><ele>267.0</ele><time>2026-04-04T10:01:23.379Z</time></trkpt><trkpt lat="45.8602433" lon="8.685885"><ele>267.0</ele><time>2026-04-04T10:01:24.379Z</time></trkpt><trkpt lat="45.86016" lon="8.6859533"><ele>267.0</ele><time>2026-04-04T10:01:25.379Z</time></trkpt><trkpt lat="45.8600767" lon="8.6860267"><ele>267.0</ele><time>2026-04-04T10:01:26.379Z</time></trkpt><trkpt lat="45.8599917" lon="8.6860983"><ele>267.2</ele><time>2026-04-04T10:01:27.38Z</time></trkpt><trkpt lat="45.8599033" lon="8.68618"><ele>267.4</ele><time>2026-04-04T10:01:28.379Z</time></trkpt><trkpt lat="45.85982" lon="8.6862567"><ele>267.6</ele><time>2026-04-04T10:01:29.379Z</time></trkpt><trkpt lat="45.8597567" lon="8.686335"><ele>267.8</ele><time>2026-04-04T10:01:30.38Z</time></trkpt><trkpt lat="45.8597017" lon="8.6864267"><ele>268.0</ele><time>2026-04-04T10:01:31.379Z</time></trkpt><trkpt lat="45.859645" lon="8.686525"><ele>268.0</ele><time>2026-04-04T10:01:32.379Z</time></trkpt><trkpt lat="45.8596117" lon="8.6866383"><ele>268.0</ele><time>2026-04-04T10:01:33.38Z</time></trkpt><trkpt lat="45.8595783" lon="8.68676"><ele>268.0</ele><time>2026-04-04T10:01:34.38Z</time></trkpt><trkpt lat="45.8595483" lon="8.6868767"><ele>268.0</ele><time>2026-04-04T10:01:35.38Z</time></trkpt><trkpt lat="45.8595233" lon="8.6869967"><ele>268.0</ele><time>2026-04-04T10:01:36.378Z</time></trkpt><trkpt lat="45.8594967" lon="8.6871167"><ele>268.0</ele><time>2026-04-04T10:01:37.378Z</time></trkpt><trkpt lat="45.8594733" lon="8.687225"><ele>268.0</ele><time>2026-04-04T10:01:38.379Z</time></trkpt><trkpt lat="45.85944" lon="8.6873183"><ele>268.0</ele><time>2026-04-04T10:01:39.378Z</time></trkpt><trkpt lat="45.8594167" lon="8.687425"><ele>268.0</ele><time>2026-04-04T10:01:40.378Z</time></trkpt><trkpt lat="45.8593867" lon="8.6875383"><ele>268.0</ele><time>2026-04-04T10:01:41.379Z</time></trkpt><trkpt lat="45.85936" lon="8.687655"><ele>268.0</ele><time>2026-04-04T10:01:42.378Z</time></trkpt><trkpt lat="45.859335" lon="8.68777"><ele>268.0</ele><time>2026-04-04T10:01:43.378Z</time></trkpt><trkpt lat="45.8593" lon="8.6878883"><ele>267.2</ele><time>2026-04-04T10:01:44.379Z</time></trkpt><trkpt lat="45.8592683" lon="8.6880033"><ele>266.4</ele><time>2026-04-04T10:01:45.378Z</time></trkpt><trkpt lat="45.859235" lon="8.6881283"><ele>265.59999999999997</ele><time>2026-04-04T10:01:46.378Z</time></trkpt><trkpt lat="45.8591983" lon="8.688255"><ele>264.8</ele><time>2026-04-04T10:01:47.379Z</time></trkpt><trkpt lat="45.8591567" lon="8.6883933"><ele>264.0</ele><time>2026-04-04T10:01:48.379Z</time></trkpt><trkpt lat="45.8591183" lon="8.688525"><ele>264.4</ele><time>2026-04-04T10:01:49.378Z</time></trkpt><trkpt lat="45.859075" lon="8.6886567"><ele>264.79999999999995</ele><time>2026-04-04T10:01:50.378Z</time></trkpt><trkpt lat="45.8590383" lon="8.6887867"><ele>265.20000000000005</ele><time>2026-04-04T10:01:51.378Z</time></trkpt><trkpt lat="45.8589983" lon="8.6889217"><ele>265.6</ele><time>2026-04-04T10:01:52.378Z</time></trkpt><trkpt lat="45.8589517" lon="8.68906"><ele>266.0</ele><time>2026-04-04T10:01:53.378Z</time></trkpt><trkpt lat="45.8589" lon="8.689185"><ele>266.0</ele><time>2026-04-04T10:01:54.378Z</time></trkpt><trkpt lat="45.85885" lon="8.6893133"><ele>266.0</ele><time>2026-04-04T10:01:55.379Z</time></trkpt><trkpt lat="45.858795" lon="8.6894417"><ele>266.0</ele><time>2026-04-04T10:01:56.378Z</time></trkpt><trkpt lat="45.858745" lon="8.6895667"><ele>266.0</ele><time>2026-04-04T10:01:57.379Z</time></trkpt><trkpt lat="45.8586933" lon="8.6896983"><ele>266.0</ele><time>2026-04-04T10:01:58.379Z</time></trkpt><trkpt lat="45.85864" lon="8.6898333"><ele>266.2</ele><time>2026-04-04T10:01:59.378Z</time></trkpt><trkpt lat="45.8585817" lon="8.6899617"><ele>266.40000000000003</ele><time>2026-04-04T10:02:00.378Z</time></trkpt><trkpt lat="45.858525" lon="8.690085"><ele>266.6</ele><time>2026-04-04T10:02:01.378Z</time></trkpt><trkpt lat="45.85847" lon="8.6902083"><ele>266.8</ele><time>2026-04-04T10:02:02.379Z</time></trkpt><trkpt lat="45.858425" lon="8.6903483"><ele>267.0</ele><time>2026-04-04T10:02:03.378Z</time></trkpt><trkpt lat="45.8583633" lon="8.6905133"><ele>266.5</ele><time>2026-04-04T10:02:04.378Z</time></trkpt><trkpt lat="45.8582983" lon="8.69068"><ele>266.0</ele><time>2026-04-04T10:02:05.378Z</time></trkpt><trkpt lat="45.85823" lon="8.6908533"><ele>265.5</ele><time>2026-04-04T10:02:06.378Z</time></trkpt><trkpt lat="45.8581583" lon="8.6910333"><ele>265.0</ele><time>2026-04-04T10:02:07.379Z</time></trkpt><trkpt lat="45.8580933" lon="8.6912167"><ele>265.0</ele><time>2026-04-04T10:02:08.378Z</time></trkpt><trkpt lat="45.85804" lon="8.6913833"><ele>265.0</ele><time>2026-04-04T10:02:09.379Z</time></trkpt><trkpt lat="45.8579817" lon="8.691545"><ele>265.0</ele><time>2026-04-04T10:02:10.378Z</time></trkpt><trkpt lat="45.8579233" lon="8.6916933"><ele>265.0</ele><time>2026-04-04T10:02:11.378Z</time></trkpt><trkpt lat="45.8578617" lon="8.6918467"><ele>265.0</ele><time>2026-04-04T10:02:12.378Z</time></trkpt><trkpt lat="45.8578017" lon="8.6920033"><ele>265.0</ele><time>2026-04-04T10:02:13.378Z</time></trkpt><trkpt lat="45.8577417" lon="8.6921567"><ele>265.0</ele><time>2026-04-04T10:02:14.379Z</time></trkpt><trkpt lat="45.8576783" lon="8.69231"><ele>265.0</ele><time>2026-04-04T10:02:15.379Z</time></trkpt><trkpt lat="45.8576233" lon="8.692465"><ele>265.0</ele><time>2026-04-04T10:02:16.378Z</time></trkpt><trkpt lat="45.8575667" lon="8.6926067"><ele>265.0</ele><time>2026-04-04T10:02:17.378Z</time></trkpt><trkpt lat="45.85751" lon="8.6927283"><ele>265.0</ele><time>2026-04-04T10:02:18.379Z</time></trkpt><trkpt lat="45.8574583" lon="8.6928417"><ele>265.0</ele><time>2026-04-04T10:02:19.378Z</time></trkpt><trkpt lat="45.8574067" lon="8.6929767"><ele>265.0</ele><time>2026-04-04T10:02:20.379Z</time></trkpt><trkpt lat="45.85735" lon="8.693145"><ele>265.0</ele><time>2026-04-04T10:02:21.378Z</time></trkpt><trkpt lat="45.8572817" lon="8.6933283"><ele>265.0</ele><time>2026-04-04T10:02:22.378Z</time></trkpt><trkpt lat="45.85721" lon="8.69351"><ele>265.0</ele><time>2026-04-04T10:02:23.378Z</time></trkpt><trkpt lat="45.8571333" lon="8.6936983"><ele>265.0</ele><time>2026-04-04T10:02:24.379Z</time></trkpt><trkpt lat="45.8570633" lon="8.6938883"><ele>265.0</ele><time>2026-04-04T10:02:25.379Z</time></trkpt><trkpt lat="45.857" lon="8.6940683"><ele>265.0</ele><time>2026-04-04T10:02:26.378Z</time></trkpt><trkpt lat="45.8569317" lon="8.6942367"><ele>265.0</ele><time>2026-04-04T10:02:27.378Z</time></trkpt><trkpt lat="45.8568633" lon="8.6944167"><ele>265.0</ele><time>2026-04-04T10:02:28.379Z</time></trkpt><trkpt lat="45.8568033" lon="8.6945817"><ele>264.75</ele><time>2026-04-04T10:02:29.379Z</time></trkpt><trkpt lat="45.8567317" lon="8.6947533"><ele>264.5</ele><time>2026-04-04T10:02:30.379Z</time></trkpt><trkpt lat="45.85666" lon="8.6949233"><ele>264.25</ele><time>2026-04-04T10:02:31.378Z</time></trkpt><trkpt lat="45.8566" lon="8.6950967"><ele>264.0</ele><time>2026-04-04T10:02:32.379Z</time></trkpt><trkpt lat="45.8565317" lon="8.6952667"><ele>264.0</ele><time>2026-04-04T10:02:33.378Z</time></trkpt><trkpt lat="45.856465" lon="8.69544"><ele>264.0</ele><time>2026-04-04T10:02:34.379Z</time></trkpt><trkpt lat="45.8563917" lon="8.6955983"><ele>264.0</ele><time>2026-04-04T10:02:35.379Z</time></trkpt><trkpt lat="45.856325" lon="8.6957683"><ele>264.0</ele><time>2026-04-04T10:02:36.379Z</time></trkpt><trkpt lat="45.8562617" lon="8.6959367"><ele>265.0</ele><time>2026-04-04T10:02:37.378Z</time></trkpt><trkpt lat="45.856205" lon="8.6961017"><ele>266.0</ele><time>2026-04-04T10:02:38.379Z</time></trkpt><trkpt lat="45.856145" lon="8.696265"><ele>267.0</ele><time>2026-04-04T10:02:39.378Z</time></trkpt><trkpt lat="45.856085" lon="8.6964267"><ele>268.0</ele><time>2026-04-04T10:02:40.379Z</time></trkpt><trkpt lat="45.8560183" lon="8.69659"><ele>267.25</ele><time>2026-04-04T10:02:41.378Z</time></trkpt><trkpt lat="45.8559533" lon="8.6967483"><ele>266.5</ele><time>2026-04-04T10:02:42.379Z</time></trkpt><trkpt lat="45.855885" lon="8.6969167"><ele>265.75</ele><time>2026-04-04T10:02:43.378Z</time></trkpt><trkpt lat="45.8558167" lon="8.6970817"><ele>265.0</ele><time>2026-04-04T10:02:44.379Z</time></trkpt><trkpt lat="45.8557517" lon="8.6972417"><ele>265.0</ele><time>2026-04-04T10:02:45.378Z</time></trkpt><trkpt lat="45.85569" lon="8.697405"><ele>265.0</ele><time>2026-04-04T10:02:46.378Z</time></trkpt><trkpt lat="45.8556233" lon="8.6975717"><ele>265.0</ele><time>2026-04-04T10:02:47.378Z</time></trkpt><trkpt lat="45.855555" lon="8.6977367"><ele>265.0</ele><time>2026-04-04T10:02:48.378Z</time></trkpt><trkpt lat="45.8554883" lon="8.6979033"><ele>266.25</ele><time>2026-04-04T10:02:49.378Z</time></trkpt><trkpt lat="45.855425" lon="8.698065"><ele>267.5</ele><time>2026-04-04T10:02:50.378Z</time></trkpt><trkpt lat="45.8553567" lon="8.698215"><ele>268.75</ele><time>2026-04-04T10:02:51.379Z</time></trkpt><trkpt lat="45.855285" lon="8.6983567"><ele>270.0</ele><time>2026-04-04T10:02:52.378Z</time></trkpt><trkpt lat="45.8552017" lon="8.698475"><ele>270.0</ele><time>2026-04-04T10:02:53.378Z</time></trkpt><trkpt lat="45.855115" lon="8.69855"><ele>270.0</ele><time>2026-04-04T10:02:54.378Z</time></trkpt><trkpt lat="45.8550317" lon="8.6986"><ele>270.0</ele><time>2026-04-04T10:02:55.379Z</time></trkpt><trkpt lat="45.8549617" lon="8.698625"><ele>270.0</ele><time>2026-04-04T10:02:56.378Z</time></trkpt><trkpt lat="45.8548483" lon="8.698645"><ele>270.0</ele><time>2026-04-04T10:02:58.378Z</time></trkpt><trkpt lat="45.85475" lon="8.6986633"><ele>270.0</ele><time>2026-04-04T10:03:00.378Z</time></trkpt><trkpt lat="45.8546817" lon="8.69868"><ele>270.0</ele><time>2026-04-04T10:03:02.378Z</time></trkpt><trkpt lat="45.85459" lon="8.6987083"><ele>270.0</ele><time>2026-04-04T10:03:06.379Z</time></trkpt><trkpt lat="45.8544983" lon="8.6987083"><ele>270.0</ele><time>2026-04-04T10:03:09.379Z</time></trkpt><trkpt lat="45.854415" lon="8.6986833"><ele>270.0</ele><time>2026-04-04T10:03:11.378Z</time></trkpt><trkpt lat="45.8543217" lon="8.6986183"><ele>270.0</ele><time>2026-04-04T10:03:13.379Z</time></trkpt><trkpt lat="45.8542117" lon="8.69857"><ele>269.2</ele><time>2026-04-04T10:03:15.379Z</time></trkpt><trkpt lat="45.854105" lon="8.6986033"><ele>268.4</ele><time>2026-04-04T10:03:17.379Z</time></trkpt><trkpt lat="45.8540267" lon="8.6987133"><ele>267.6</ele><time>2026-04-04T10:03:19.379Z</time></trkpt><trkpt lat="45.8539933" lon="8.6988067"><ele>266.8</ele><time>2026-04-04T10:03:20.378Z</time></trkpt><trkpt lat="45.853965" lon="8.6989317"><ele>266.0</ele><time>2026-04-04T10:03:21.378Z</time></trkpt><trkpt lat="45.8539283" lon="8.6990617"><ele>266.0</ele><time>2026-04-04T10:03:22.378Z</time></trkpt><trkpt lat="45.85387" lon="8.6991933"><ele>266.0</ele><time>2026-04-04T10:03:23.378Z</time></trkpt><trkpt lat="45.8538033" lon="8.6993"><ele>266.0</ele><time>2026-04-04T10:03:24.379Z</time></trkpt><trkpt lat="45.8537183" lon="8.699395"><ele>266.0</ele><time>2026-04-04T10:03:25.378Z</time></trkpt><trkpt lat="45.8536267" lon="8.6994783"><ele>266.0</ele><time>2026-04-04T10:03:26.378Z</time></trkpt><trkpt lat="45.8535233" lon="8.6995633"><ele>267.0</ele><time>2026-04-04T10:03:27.378Z</time></trkpt><trkpt lat="45.8534183" lon="8.6996317"><ele>268.0</ele><time>2026-04-04T10:03:28.379Z</time></trkpt><trkpt lat="45.8533133" lon="8.6996833"><ele>269.0</ele><time>2026-04-04T10:03:29.379Z</time></trkpt><trkpt lat="45.8532033" lon="8.6997117"><ele>270.0</ele><time>2026-04-04T10:03:30.379Z</time></trkpt><trkpt lat="45.8530883" lon="8.6997217"><ele>270.0</ele><time>2026-04-04T10:03:31.378Z</time></trkpt><trkpt lat="45.852975" lon="8.69971"><ele>270.0</ele><time>2026-04-04T10:03:32.378Z</time></trkpt><trkpt lat="45.8528533" lon="8.6997033"><ele>270.0</ele><time>2026-04-04T10:03:33.378Z</time></trkpt><trkpt lat="45.8527333" lon="8.6996967"><ele>270.0</ele><time>2026-04-04T10:03:34.378Z</time></trkpt><trkpt lat="45.8526133" lon="8.6996867"><ele>268.5</ele><time>2026-04-04T10:03:35.379Z</time></trkpt><trkpt lat="45.8524883" lon="8.6996717"><ele>267.0</ele><time>2026-04-04T10:03:36.379Z</time></trkpt><trkpt lat="45.8523683" lon="8.6996583"><ele>265.5</ele><time>2026-04-04T10:03:37.378Z</time></trkpt><trkpt lat="45.85225" lon="8.69965"><ele>264.0</ele><time>2026-04-04T10:03:38.378Z</time></trkpt><trkpt lat="45.8521317" lon="8.6996433"><ele>264.0</ele><time>2026-04-04T10:03:39.379Z</time></trkpt><trkpt lat="45.85202" lon="8.699635"><ele>264.0</ele><time>2026-04-04T10:03:40.378Z</time></trkpt><trkpt lat="45.8519033" lon="8.6996367"><ele>264.0</ele><time>2026-04-04T10:03:41.379Z</time></trkpt><trkpt lat="45.8517883" lon="8.69965"><ele>264.0</ele><time>2026-04-04T10:03:42.379Z</time></trkpt><trkpt lat="45.8516733" lon="8.69967"><ele>264.5</ele><time>2026-04-04T10:03:43.378Z</time></trkpt><trkpt lat="45.8515633" lon="8.6997017"><ele>265.0</ele><time>2026-04-04T10:03:44.379Z</time></trkpt><trkpt lat="45.8514533" lon="8.699745"><ele>265.5</ele><time>2026-04-04T10:03:45.379Z</time></trkpt><trkpt lat="45.8513433" lon="8.6997967"><ele>266.0</ele><time>2026-04-04T10:03:46.379Z</time></trkpt><trkpt lat="45.8512317" lon="8.6998517"><ele>266.0</ele><time>2026-04-04T10:03:47.378Z</time></trkpt><trkpt lat="45.8511183" lon="8.6998967"><ele>266.0</ele><time>2026-04-04T10:03:48.378Z</time></trkpt><trkpt lat="45.8510017" lon="8.6999367"><ele>266.0</ele><time>2026-04-04T10:03:49.379Z</time></trkpt><trkpt lat="45.850885" lon="8.6999567"><ele>266.0</ele><time>2026-04-04T10:03:50.378Z</time></trkpt><trkpt lat="45.85076" lon="8.6999767"><ele>264.5</ele><time>2026-04-04T10:03:51.379Z</time></trkpt><trkpt lat="45.85064" lon="8.6999783"><ele>263.0</ele><time>2026-04-04T10:03:52.378Z</time></trkpt><trkpt lat="45.85051" lon="8.699975"><ele>261.5</ele><time>2026-04-04T10:03:53.379Z</time></trkpt><trkpt lat="45.8503867" lon="8.6999733"><ele>260.0</ele><time>2026-04-04T10:03:54.378Z</time></trkpt><trkpt lat="45.850265" lon="8.6999617"><ele>260.0</ele><time>2026-04-04T10:03:55.378Z</time></trkpt><trkpt lat="45.8501417" lon="8.6999483"><ele>260.0</ele><time>2026-04-04T10:03:56.378Z</time></trkpt><trkpt lat="45.8500133" lon="8.69994"><ele>260.0</ele><time>2026-04-04T10:03:57.378Z</time></trkpt><trkpt lat="45.8498883" lon="8.69993"><ele>260.0</ele><time>2026-04-04T10:03:58.378Z</time></trkpt><trkpt lat="45.8497717" lon="8.6999067"><ele>259.25</ele><time>2026-04-04T10:03:59.379Z</time></trkpt><trkpt lat="45.849655" lon="8.6998717"><ele>258.5</ele><time>2026-04-04T10:04:00.378Z</time></trkpt><trkpt lat="45.84954" lon="8.6998233"><ele>257.75</ele><time>2026-04-04T10:04:01.379Z</time></trkpt><trkpt lat="45.8494283" lon="8.6997533"><ele>257.0</ele><time>2026-04-04T10:04:02.378Z</time></trkpt><trkpt lat="45.84932" lon="8.699675"><ele>257.25</ele><time>2026-04-04T10:04:03.378Z</time></trkpt><trkpt lat="45.8492217" lon="8.69958"><ele>257.5</ele><time>2026-04-04T10:04:04.379Z</time></trkpt><trkpt lat="45.8491333" lon="8.6994717"><ele>257.75</ele><time>2026-04-04T10:04:05.379Z</time></trkpt><trkpt lat="45.8490517" lon="8.69935"><ele>258.0</ele><time>2026-04-04T10:04:06.378Z</time></trkpt><trkpt lat="45.8489767" lon="8.6992283"><ele>258.0</ele><time>2026-04-04T10:04:07.379Z</time></trkpt><trkpt lat="45.8489" lon="8.6991033"><ele>258.0</ele><time>2026-04-04T10:04:08.379Z</time></trkpt><trkpt lat="45.84881" lon="8.6989833"><ele>258.0</ele><time>2026-04-04T10:04:09.379Z</time></trkpt><trkpt lat="45.848715" lon="8.6988817"><ele>258.0</ele><time>2026-04-04T10:04:10.378Z</time></trkpt><trkpt lat="45.8486133" lon="8.6987867"><ele>258.0</ele><time>2026-04-04T10:04:11.379Z</time></trkpt><trkpt lat="45.8485033" lon="8.69871"><ele>258.0</ele><time>2026-04-04T10:04:12.379Z</time></trkpt><trkpt lat="45.8483867" lon="8.6986367"><ele>258.0</ele><time>2026-04-04T10:04:13.378Z</time></trkpt><trkpt lat="45.8482667" lon="8.6985717"><ele>258.0</ele><time>2026-04-04T10:04:14.379Z</time></trkpt><trkpt lat="45.8481433" lon="8.69852"><ele>259.25</ele><time>2026-04-04T10:04:15.378Z</time></trkpt><trkpt lat="45.84802" lon="8.6984633"><ele>260.5</ele><time>2026-04-04T10:04:16.379Z</time></trkpt><trkpt lat="45.8478967" lon="8.6984067"><ele>261.75</ele><time>2026-04-04T10:04:17.378Z</time></trkpt><trkpt lat="45.8477717" lon="8.6983517"><ele>263.0</ele><time>2026-04-04T10:04:18.378Z</time></trkpt><trkpt lat="45.8476433" lon="8.698295"><ele>263.5</ele><time>2026-04-04T10:04:19.378Z</time></trkpt><trkpt lat="45.84752" lon="8.6982433"><ele>264.0</ele><time>2026-04-04T10:04:20.379Z</time></trkpt><trkpt lat="45.8474" lon="8.6981933"><ele>264.5</ele><time>2026-04-04T10:04:21.379Z</time></trkpt><trkpt lat="45.8472783" lon="8.6981467"><ele>265.0</ele><time>2026-04-04T10:04:22.378Z</time></trkpt><trkpt lat="45.84715" lon="8.6981117"><ele>265.0</ele><time>2026-04-04T10:04:23.379Z</time></trkpt><trkpt lat="45.8470167" lon="8.698085"><ele>265.0</ele><time>2026-04-04T10:04:24.378Z</time></trkpt><trkpt lat="45.84688" lon="8.698085"><ele>265.0</ele><time>2026-04-04T10:04:25.379Z</time></trkpt><trkpt lat="45.8467417" lon="8.6981"><ele>265.0</ele><time>2026-04-04T10:04:26.379Z</time></trkpt><trkpt lat="45.8466217" lon="8.698125"><ele>265.25</ele><time>2026-04-04T10:04:27.378Z</time></trkpt><trkpt lat="45.846505" lon="8.6981717"><ele>265.5</ele><time>2026-04-04T10:04:28.378Z</time></trkpt><trkpt lat="45.846395" lon="8.698225"><ele>265.75</ele><time>2026-04-04T10:04:29.378Z</time></trkpt><trkpt lat="45.8462917" lon="8.6982883"><ele>266.0</ele><time>2026-04-04T10:04:30.378Z</time></trkpt><trkpt lat="45.8462" lon="8.6983667"><ele>266.0</ele><time>2026-04-04T10:04:31.379Z</time></trkpt><trkpt lat="45.8461217" lon="8.6984367"><ele>266.0</ele><time>2026-04-04T10:04:32.379Z</time></trkpt><trkpt lat="45.8460467" lon="8.6985017"><ele>266.0</ele><time>2026-04-04T10:04:33.378Z</time></trkpt><trkpt lat="45.8459783" lon="8.698545"><ele>266.0</ele><time>2026-04-04T10:04:34.379Z</time></trkpt><trkpt lat="45.8459067" lon="8.6985533"><ele>266.0</ele><time>2026-04-04T10:04:35.378Z</time></trkpt><trkpt lat="45.84584" lon="8.69856"><ele>266.0</ele><time>2026-04-04T10:04:36.378Z</time></trkpt><trkpt lat="45.8457767" lon="8.69857"><ele>264.0</ele><time>2026-04-04T10:04:37.378Z</time></trkpt><trkpt lat="45.84571" lon="8.6985683"><ele>262.0</ele><time>2026-04-04T10:04:38.378Z</time></trkpt><trkpt lat="45.8456367" lon="8.6985417"><ele>260.0</ele><time>2026-04-04T10:04:39.379Z</time></trkpt><trkpt lat="45.8455567" lon="8.6984883"><ele>258.0</ele><time>2026-04-04T10:04:40.378Z</time></trkpt><trkpt lat="45.845465" lon="8.6984167"><ele>256.0</ele><time>2026-04-04T10:04:41.378Z</time></trkpt><trkpt lat="45.845375" lon="8.6983317"><ele>254.0</ele><time>2026-04-04T10:04:42.378Z</time></trkpt><trkpt lat="45.8452833" lon="8.6982367"><ele>254.0</ele><time>2026-04-04T10:04:43.379Z</time></trkpt><trkpt lat="45.8451883" lon="8.698145"><ele>254.0</ele><time>2026-04-04T10:04:44.378Z</time></trkpt><trkpt lat="45.84509" lon="8.6980533"><ele>254.0</ele><time>2026-04-04T10:04:45.379Z</time></trkpt><trkpt lat="45.84499" lon="8.6979617"><ele>254.0</ele><time>2026-04-04T10:04:46.378Z</time></trkpt><trkpt lat="45.844895" lon="8.6978683"><ele>252.25</ele><time>2026-04-04T10:04:47.379Z</time></trkpt><trkpt lat="45.8447917" lon="8.6977717"><ele>250.5</ele><time>2026-04-04T10:04:48.378Z</time></trkpt><trkpt lat="45.844685" lon="8.697675"><ele>248.75</ele><time>2026-04-04T10:04:49.378Z</time></trkpt><trkpt lat="45.8445767" lon="8.69758"><ele>247.0</ele><time>2026-04-04T10:04:50.378Z</time></trkpt><trkpt lat="45.8444667" lon="8.6974817"><ele>247.0</ele><time>2026-04-04T10:04:51.378Z</time></trkpt><trkpt lat="45.8443583" lon="8.69738"><ele>247.0</ele><time>2026-04-04T10:04:52.378Z</time></trkpt><trkpt lat="45.8442467" lon="8.69728"><ele>247.0</ele><time>2026-04-04T10:04:53.379Z</time></trkpt><trkpt lat="45.8441383" lon="8.69717"><ele>247.0</ele><time>2026-04-04T10:04:54.379Z</time></trkpt><trkpt lat="45.8440333" lon="8.6970517"><ele>249.0</ele><time>2026-04-04T10:04:55.379Z</time></trkpt><trkpt lat="45.8439267" lon="8.6969283"><ele>251.0</ele><time>2026-04-04T10:04:56.379Z</time></trkpt><trkpt lat="45.8438233" lon="8.6968017"><ele>253.0</ele><time>2026-04-04T10:04:57.379Z</time></trkpt><trkpt lat="45.843735" lon="8.6966667"><ele>255.0</ele><time>2026-04-04T10:04:58.378Z</time></trkpt><trkpt lat="45.8436483" lon="8.69653"><ele>256.0</ele><time>2026-04-04T10:04:59.379Z</time></trkpt><trkpt lat="45.8435683" lon="8.6963833"><ele>257.0</ele><time>2026-04-04T10:05:00.378Z</time></trkpt><trkpt lat="45.84349" lon="8.69623"><ele>258.0</ele><time>2026-04-04T10:05:01.378Z</time></trkpt><trkpt lat="45.843415" lon="8.696075"><ele>259.0</ele><time>2026-04-04T10:05:02.379Z</time></trkpt><trkpt lat="45.8433417" lon="8.6959167"><ele>259.0</ele><time>2026-04-04T10:05:03.378Z</time></trkpt><trkpt lat="45.8432583" lon="8.6957783"><ele>259.0</ele><time>2026-04-04T10:05:04.378Z</time></trkpt><trkpt lat="45.84317" lon="8.6956583"><ele>259.0</ele><time>2026-04-04T10:05:05.379Z</time></trkpt><trkpt lat="45.8430867" lon="8.69555"><ele>259.0</ele><time>2026-04-04T10:05:06.378Z</time></trkpt><trkpt lat="45.843015" lon="8.695455"><ele>259.0</ele><time>2026-04-04T10:05:07.378Z</time></trkpt><trkpt lat="45.8429433" lon="8.6953783"><ele>259.0</ele><time>2026-04-04T10:05:08.379Z</time></trkpt><trkpt lat="45.8428833" lon="8.695305"><ele>259.0</ele><time>2026-04-04T10:05:09.378Z</time></trkpt><trkpt lat="45.8428267" lon="8.6952383"><ele>259.0</ele><time>2026-04-04T10:05:10.378Z</time></trkpt><trkpt lat="45.8427717" lon="8.6951667"><ele>259.0</ele><time>2026-04-04T10:05:11.378Z</time></trkpt><trkpt lat="45.8427233" lon="8.695085"><ele>259.0</ele><time>2026-04-04T10:05:12.379Z</time></trkpt><trkpt lat="45.84268" lon="8.6949967"><ele>258.5</ele><time>2026-04-04T10:05:13.379Z</time></trkpt><trkpt lat="45.8426433" lon="8.694895"><ele>258.0</ele><time>2026-04-04T10:05:14.378Z</time></trkpt><trkpt lat="45.8426117" lon="8.6947833"><ele>257.5</ele><time>2026-04-04T10:05:15.378Z</time></trkpt><trkpt lat="45.842585" lon="8.6946717"><ele>257.0</ele><time>2026-04-04T10:05:16.378Z</time></trkpt><trkpt lat="45.842585" lon="8.69455"><ele>256.5</ele><time>2026-04-04T10:05:17.378Z</time></trkpt><trkpt lat="45.8425967" lon="8.694445"><ele>256.0</ele><time>2026-04-04T10:05:18.379Z</time></trkpt><trkpt lat="45.8426267" lon="8.694355"><ele>255.66666666666666</ele><time>2026-04-04T10:05:19.379Z</time></trkpt><trkpt lat="45.8426567" lon="8.6942683"><ele>255.33333333333331</ele><time>2026-04-04T10:05:20.378Z</time></trkpt><trkpt lat="45.8426667" lon="8.6941717"><ele>255.0</ele><time>2026-04-04T10:05:21.378Z</time></trkpt><trkpt lat="45.8426483" lon="8.6940817"><ele>254.66666666666669</ele><time>2026-04-04T10:05:22.378Z</time></trkpt><trkpt lat="45.8425467" lon="8.6940167"><ele>254.33333333333334</ele><time>2026-04-04T10:05:24.378Z</time></trkpt><trkpt lat="45.84247" lon="8.6941483"><ele>254.0</ele><time>2026-04-04T10:05:26.378Z</time></trkpt><trkpt lat="45.8424733" lon="8.694245"><ele>254.0</ele><time>2026-04-04T10:05:27.378Z</time></trkpt><trkpt lat="45.8424917" lon="8.6943483"><ele>254.0</ele><time>2026-04-04T10:05:28.379Z</time></trkpt><trkpt lat="45.84251" lon="8.6944567"><ele>254.0</ele><time>2026-04-04T10:05:29.378Z</time></trkpt><trkpt lat="45.84252" lon="8.69456"><ele>254.0</ele><time>2026-04-04T10:05:30.379Z</time></trkpt><trkpt lat="45.8425117" lon="8.694655"><ele>254.0</ele><time>2026-04-04T10:05:31.378Z</time></trkpt><trkpt lat="45.8424917" lon="8.6947517"><ele>254.0</ele><time>2026-04-04T10:05:32.379Z</time></trkpt><trkpt lat="45.8424533" lon="8.694845"><ele>254.0</ele><time>2026-04-04T10:05:33.379Z</time></trkpt><trkpt lat="45.8424033" lon="8.6949317"><ele>254.39999999999998</ele><time>2026-04-04T10:05:34.378Z</time></trkpt><trkpt lat="45.8423367" lon="8.69502"><ele>254.79999999999998</ele><time>2026-04-04T10:05:35.379Z</time></trkpt><trkpt lat="45.84227" lon="8.6951167"><ele>255.20000000000002</ele><time>2026-04-04T10:05:36.378Z</time></trkpt><trkpt lat="45.842195" lon="8.6952167"><ele>255.60000000000002</ele><time>2026-04-04T10:05:37.378Z</time></trkpt><trkpt lat="45.8421233" lon="8.6953183"><ele>256.0</ele><time>2026-04-04T10:05:38.378Z</time></trkpt><trkpt lat="45.8420433" lon="8.6954167"><ele>256.25</ele><time>2026-04-04T10:05:39.378Z</time></trkpt><trkpt lat="45.841965" lon="8.6955233"><ele>256.5</ele><time>2026-04-04T10:05:40.379Z</time></trkpt><trkpt lat="45.8418833" lon="8.6956317"><ele>256.75</ele><time>2026-04-04T10:05:41.378Z</time></trkpt><trkpt lat="45.8417983" lon="8.6957467"><ele>257.0</ele><time>2026-04-04T10:05:42.379Z</time></trkpt><trkpt lat="45.841715" lon="8.6958617"><ele>256.75</ele><time>2026-04-04T10:05:43.378Z</time></trkpt><trkpt lat="45.84163" lon="8.695975"><ele>256.5</ele><time>2026-04-04T10:05:44.378Z</time></trkpt><trkpt lat="45.8415483" lon="8.69609"><ele>256.25</ele><time>2026-04-04T10:05:45.379Z</time></trkpt><trkpt lat="45.8414567" lon="8.6961983"><ele>256.0</ele><time>2026-04-04T10:05:46.379Z</time></trkpt><trkpt lat="45.84137" lon="8.69631"><ele>256.0</ele><time>2026-04-04T10:05:47.378Z</time></trkpt><trkpt lat="45.8412783" lon="8.6964233"><ele>256.0</ele><time>2026-04-04T10:05:48.379Z</time></trkpt><trkpt lat="45.8411883" lon="8.696545"><ele>256.0</ele><time>2026-04-04T10:05:49.378Z</time></trkpt><trkpt lat="45.8410967" lon="8.69666"><ele>256.0</ele><time>2026-04-04T10:05:50.378Z</time></trkpt><trkpt lat="45.841" lon="8.6967733"><ele>255.75</ele><time>2026-04-04T10:05:51.379Z</time></trkpt><trkpt lat="45.840905" lon="8.69689"><ele>255.5</ele><time>2026-04-04T10:05:52.379Z</time></trkpt><trkpt lat="45.8408167" lon="8.6970017"><ele>255.25</ele><time>2026-04-04T10:05:53.379Z</time></trkpt><trkpt lat="45.8407267" lon="8.697115"><ele>255.0</ele><time>2026-04-04T10:05:54.378Z</time></trkpt><trkpt lat="45.84063" lon="8.697225"><ele>255.5</ele><time>2026-04-04T10:05:55.378Z</time></trkpt><trkpt lat="45.8405367" lon="8.69733"><ele>256.0</ele><time>2026-04-04T10:05:56.379Z</time></trkpt><trkpt lat="45.8404383" lon="8.6974417"><ele>256.5</ele><time>2026-04-04T10:05:57.379Z</time></trkpt><trkpt lat="45.84034" lon="8.6975483"><ele>257.0</ele><time>2026-04-04T10:05:58.379Z</time></trkpt><trkpt lat="45.8402383" lon="8.6976633"><ele>257.0</ele><time>2026-04-04T10:05:59.378Z</time></trkpt><trkpt lat="45.8401367" lon="8.6977883"><ele>257.0</ele><time>2026-04-04T10:06:00.378Z</time></trkpt><trkpt lat="45.8400333" lon="8.6979133"><ele>257.0</ele><time>2026-04-04T10:06:01.378Z</time></trkpt><trkpt lat="45.83993" lon="8.698035"><ele>257.0</ele><time>2026-04-04T10:06:02.379Z</time></trkpt><trkpt lat="45.8398267" lon="8.6981583"><ele>257.25</ele><time>2026-04-04T10:06:03.378Z</time></trkpt><trkpt lat="45.8397217" lon="8.69828"><ele>257.5</ele><time>2026-04-04T10:06:04.379Z</time></trkpt><trkpt lat="45.8396183" lon="8.69841"><ele>257.75</ele><time>2026-04-04T10:06:05.379Z</time></trkpt><trkpt lat="45.8395167" lon="8.6985283"><ele>258.0</ele><time>2026-04-04T10:06:06.378Z</time></trkpt><trkpt lat="45.83941" lon="8.6986483"><ele>256.5</ele><time>2026-04-04T10:06:07.379Z</time></trkpt><trkpt lat="45.8393017" lon="8.6987633"><ele>255.0</ele><time>2026-04-04T10:06:08.378Z</time></trkpt><trkpt lat="45.8391967" lon="8.6988667"><ele>253.5</ele><time>2026-04-04T10:06:09.378Z</time></trkpt><trkpt lat="45.8391017" lon="8.6989633"><ele>252.0</ele><time>2026-04-04T10:06:10.379Z</time></trkpt><trkpt lat="45.8390167" lon="8.6990517"><ele>251.83333333333334</ele><time>2026-04-04T10:06:11.378Z</time></trkpt><trkpt lat="45.8389283" lon="8.6991383"><ele>251.66666666666669</ele><time>2026-04-04T10:06:12.378Z</time></trkpt><trkpt lat="45.838855" lon="8.6992217"><ele>251.5</ele><time>2026-04-04T10:06:13.378Z</time></trkpt><trkpt lat="45.8387783" lon="8.6992867"><ele>251.33333333333334</ele><time>2026-04-04T10:06:14.378Z</time></trkpt><trkpt lat="45.8387233" lon="8.699335"><ele>251.16666666666669</ele><time>2026-04-04T10:06:15.378Z</time></trkpt><trkpt lat="45.8386317" lon="8.69934"><ele>251.0</ele><time>2026-04-04T10:06:17.379Z</time></trkpt><trkpt lat="45.83853" lon="8.69926"><ele>251.0</ele><time>2026-04-04T10:06:19.379Z</time></trkpt><trkpt lat="45.838425" lon="8.6992267"><ele>254.0</ele><time>2026-04-04T10:06:21.378Z</time></trkpt><trkpt lat="45.8383717" lon="8.69931"><ele>254.0</ele><time>2026-04-04T10:06:24.378Z</time></trkpt></trkseg></trk></gpx>